<?xml version='1.0' encoding='UTF-8'?><gpx version="1.1" creator="JPX - https://github.com/jenetics/jpx" xmlns="http://www.topografix.com/GPX/1/1"><trk><trkseg><trkpt lat="45.5954701" lon="12.3124225"><ele>4.0</ele><time>2026-04-28T16:03:46.751Z</time></trkpt><trkpt lat="45.595563" lon="12.3122185"><ele>4.0</ele><time>2026-04-28T16:03:48.761Z</time></trkpt><trkpt lat="45.5955983" lon="12.3121404"><ele>4.0</ele><time>2026-04-28T16:03:51.774Z</time></trkpt><trkpt lat="45.5957686" lon="12.312201"><ele>4.0</ele><time>2026-04-28T16:03:55.764Z</time></trkpt><trkpt lat="45.5958209" lon="12.312267"><ele>4.0</ele><time>2026-04-28T16:03:57.76Z</time></trkpt><trkpt lat="45.5958722" lon="12.312332"><ele>3.9999999999999996</ele><time>2026-04-28T16:03:59.766Z</time></trkpt><trkpt lat="45.5959268" lon="12.3124015"><ele>4.0</ele><time>2026-04-28T16:04:01.758Z</time></trkpt><trkpt lat="45.595978" lon="12.3124681"><ele>4.0</ele><time>2026-04-28T16:04:03.749Z</time></trkpt><trkpt lat="45.5960321" lon="12.3125386"><ele>3.9999999999999996</ele><time>2026-04-28T16:04:05.768Z</time></trkpt><trkpt lat="45.5960892" lon="12.3126112"><ele>4.0</ele><time>2026-04-28T16:04:07.765Z</time></trkpt><trkpt lat="45.5961474" lon="12.3126828"><ele>4.0</ele><time>2026-04-28T16:04:09.771Z</time></trkpt><trkpt lat="45.5962069" lon="12.3127543"><ele>3.8000000000000003</ele><time>2026-04-28T16:04:11.774Z</time></trkpt><trkpt lat="45.5962698" lon="12.3128278"><ele>3.6000000000000005</ele><time>2026-04-28T16:04:13.771Z</time></trkpt><trkpt lat="45.5963338" lon="12.3128946"><ele>3.4</ele><time>2026-04-28T16:04:15.768Z</time></trkpt><trkpt lat="45.5963973" lon="12.3129643"><ele>3.2</ele><time>2026-04-28T16:04:17.818Z</time></trkpt><trkpt lat="45.5964606" lon="12.3130427"><ele>3.0</ele><time>2026-04-28T16:04:19.819Z</time></trkpt><trkpt lat="45.5965638" lon="12.3131559"><ele>3.0</ele><time>2026-04-28T16:04:22.768Z</time></trkpt><trkpt lat="45.5966337" lon="12.3132252"><ele>3.0</ele><time>2026-04-28T16:04:24.757Z</time></trkpt><trkpt lat="45.596707" lon="12.3132897"><ele>3.0</ele><time>2026-04-28T16:04:26.758Z</time></trkpt><trkpt lat="45.5967739" lon="12.313364"><ele>3.0</ele><time>2026-04-28T16:04:28.759Z</time></trkpt><trkpt lat="45.5968319" lon="12.3134113"><ele>3.0</ele><time>2026-04-28T16:04:30.762Z</time></trkpt><trkpt lat="45.596916" lon="12.3134795"><ele>3.0</ele><time>2026-04-28T16:04:32.757Z</time></trkpt><trkpt lat="45.5969851" lon="12.3135515"><ele>3.0</ele><time>2026-04-28T16:04:34.772Z</time></trkpt><trkpt lat="45.5970587" lon="12.3136218"><ele>3.0</ele><time>2026-04-28T16:04:36.763Z</time></trkpt><trkpt lat="45.5971307" lon="12.3136848"><ele>3.0</ele><time>2026-04-28T16:04:38.77Z</time></trkpt><trkpt lat="45.5972074" lon="12.3137582"><ele>3.0</ele><time>2026-04-28T16:04:40.758Z</time></trkpt><trkpt lat="45.5972808" lon="12.3138145"><ele>3.0</ele><time>2026-04-28T16:04:42.764Z</time></trkpt><trkpt lat="45.5973446" lon="12.313911"><ele>3.0</ele><time>2026-04-28T16:04:44.761Z</time></trkpt><trkpt lat="45.5973689" lon="12.3140209"><ele>3.0</ele><time>2026-04-28T16:04:46.758Z</time></trkpt><trkpt lat="45.5973876" lon="12.3141069"><ele>3.0</ele><time>2026-04-28T16:04:47.775Z</time></trkpt><trkpt lat="45.5974192" lon="12.3142395"><ele>3.0</ele><time>2026-04-28T16:04:49.767Z</time></trkpt><trkpt lat="45.5974472" lon="12.314356"><ele>3.0</ele><time>2026-04-28T16:04:51.756Z</time></trkpt><trkpt lat="45.5974778" lon="12.3144697"><ele>3.0</ele><time>2026-04-28T16:04:53.754Z</time></trkpt><trkpt lat="45.5974961" lon="12.3146155"><ele>3.0</ele><time>2026-04-28T16:04:55.758Z</time></trkpt><trkpt lat="45.5975117" lon="12.3147386"><ele>2.8333333333333335</ele><time>2026-04-28T16:04:57.761Z</time></trkpt><trkpt lat="45.5975286" lon="12.3148703"><ele>2.6666666666666665</ele><time>2026-04-28T16:04:59.772Z</time></trkpt><trkpt lat="45.5975431" lon="12.3149847"><ele>2.5</ele><time>2026-04-28T16:05:01.75Z</time></trkpt><trkpt lat="45.5975647" lon="12.3150997"><ele>2.333333333333333</ele><time>2026-04-28T16:05:03.756Z</time></trkpt><trkpt lat="45.5975857" lon="12.3152163"><ele>2.1666666666666665</ele><time>2026-04-28T16:05:05.752Z</time></trkpt><trkpt lat="45.5976121" lon="12.3153322"><ele>2.0</ele><time>2026-04-28T16:05:07.764Z</time></trkpt><trkpt lat="45.5976316" lon="12.3154548"><ele>1.9999999999999998</ele><time>2026-04-28T16:05:09.759Z</time></trkpt><trkpt lat="45.5976496" lon="12.3155599"><ele>2.0</ele><time>2026-04-28T16:05:11.757Z</time></trkpt><trkpt lat="45.5976807" lon="12.3156701"><ele>2.0</ele><time>2026-04-28T16:05:13.751Z</time></trkpt><trkpt lat="45.5977191" lon="12.3157773"><ele>2.0</ele><time>2026-04-28T16:05:15.769Z</time></trkpt><trkpt lat="45.597765" lon="12.3158761"><ele>1.9999999999999998</ele><time>2026-04-28T16:05:17.786Z</time></trkpt><trkpt lat="45.59782" lon="12.3159761"><ele>2.0</ele><time>2026-04-28T16:05:19.773Z</time></trkpt><trkpt lat="45.5978755" lon="12.3160607"><ele>1.9999999999999998</ele><time>2026-04-28T16:05:21.766Z</time></trkpt><trkpt lat="45.597944" lon="12.3161625"><ele>2.0</ele><time>2026-04-28T16:05:23.763Z</time></trkpt><trkpt lat="45.5980077" lon="12.3162575"><ele>2.0</ele><time>2026-04-28T16:05:25.773Z</time></trkpt><trkpt lat="45.5980717" lon="12.3163389"><ele>2.0</ele><time>2026-04-28T16:05:27.769Z</time></trkpt><trkpt lat="45.5981264" lon="12.3164101"><ele>1.9999999999999998</ele><time>2026-04-28T16:05:29.762Z</time></trkpt><trkpt lat="45.5981845" lon="12.3164908"><ele>2.0</ele><time>2026-04-28T16:05:31.787Z</time></trkpt><trkpt lat="45.5982471" lon="12.3165701"><ele>2.6</ele><time>2026-04-28T16:05:33.772Z</time></trkpt><trkpt lat="45.5983108" lon="12.3166538"><ele>3.2</ele><time>2026-04-28T16:05:35.77Z</time></trkpt><trkpt lat="45.5983817" lon="12.3167486"><ele>3.8</ele><time>2026-04-28T16:05:37.769Z</time></trkpt><trkpt lat="45.5984551" lon="12.3168386"><ele>4.4</ele><time>2026-04-28T16:05:39.768Z</time></trkpt><trkpt lat="45.5985312" lon="12.3169128"><ele>5.0</ele><time>2026-04-28T16:05:41.758Z</time></trkpt><trkpt lat="45.5986061" lon="12.3169932"><ele>5.0</ele><time>2026-04-28T16:05:43.763Z</time></trkpt><trkpt lat="45.5986775" lon="12.3170714"><ele>5.0</ele><time>2026-04-28T16:05:45.769Z</time></trkpt><trkpt lat="45.5987505" lon="12.3171609"><ele>5.0</ele><time>2026-04-28T16:05:47.763Z</time></trkpt><trkpt lat="45.5988182" lon="12.3172372"><ele>5.0</ele><time>2026-04-28T16:05:49.781Z</time></trkpt><trkpt lat="45.5988932" lon="12.3173196"><ele>5.0</ele><time>2026-04-28T16:05:51.798Z</time></trkpt><trkpt lat="45.598973" lon="12.3173987"><ele>5.0</ele><time>2026-04-28T16:05:53.782Z</time></trkpt><trkpt lat="45.5990457" lon="12.3174587"><ele>5.0</ele><time>2026-04-28T16:05:55.768Z</time></trkpt><trkpt lat="45.5991218" lon="12.3175308"><ele>5.0</ele><time>2026-04-28T16:05:57.777Z</time></trkpt><trkpt lat="45.5991963" lon="12.3175994"><ele>5.0</ele><time>2026-04-28T16:05:59.765Z</time></trkpt><trkpt lat="45.5992396" lon="12.3177031"><ele>5.0</ele><time>2026-04-28T16:06:02.766Z</time></trkpt><trkpt lat="45.5992396" lon="12.3177968"><ele>5.0</ele><time>2026-04-28T16:06:04.768Z</time></trkpt><trkpt lat="45.5992386" lon="12.3178998"><ele>5.0</ele><time>2026-04-28T16:06:06.768Z</time></trkpt><trkpt lat="45.599215" lon="12.3179962"><ele>5.0</ele><time>2026-04-28T16:06:08.782Z</time></trkpt><trkpt lat="45.5991908" lon="12.3180976"><ele>5.0</ele><time>2026-04-28T16:06:10.77Z</time></trkpt><trkpt lat="45.5991646" lon="12.3181943"><ele>5.0</ele><time>2026-04-28T16:06:12.775Z</time></trkpt><trkpt lat="45.5991317" lon="12.3183041"><ele>5.0</ele><time>2026-04-28T16:06:14.765Z</time></trkpt><trkpt lat="45.5991163" lon="12.3184251"><ele>5.0</ele><time>2026-04-28T16:06:16.765Z</time></trkpt><trkpt lat="45.5990988" lon="12.3185465"><ele>4.833333333333334</ele><time>2026-04-28T16:06:18.768Z</time></trkpt><trkpt lat="45.5990758" lon="12.3186667"><ele>4.666666666666667</ele><time>2026-04-28T16:06:20.769Z</time></trkpt><trkpt lat="45.5990546" lon="12.3187879"><ele>4.5</ele><time>2026-04-28T16:06:22.765Z</time></trkpt><trkpt lat="45.5990404" lon="12.3189132"><ele>4.333333333333333</ele><time>2026-04-28T16:06:24.769Z</time></trkpt><trkpt lat="45.5990359" lon="12.3190449"><ele>4.166666666666666</ele><time>2026-04-28T16:06:26.768Z</time></trkpt><trkpt lat="45.5990159" lon="12.3191721"><ele>4.0</ele><time>2026-04-28T16:06:28.767Z</time></trkpt><trkpt lat="45.5989916" lon="12.3192984"><ele>3.9999999999999996</ele><time>2026-04-28T16:06:30.769Z</time></trkpt><trkpt lat="45.5989617" lon="12.3194211"><ele>4.0</ele><time>2026-04-28T16:06:32.773Z</time></trkpt><trkpt lat="45.5989384" lon="12.3195486"><ele>4.0</ele><time>2026-04-28T16:06:34.787Z</time></trkpt><trkpt lat="45.5989203" lon="12.3196634"><ele>4.0</ele><time>2026-04-28T16:06:36.767Z</time></trkpt><trkpt lat="45.5988968" lon="12.3197714"><ele>3.9999999999999996</ele><time>2026-04-28T16:06:38.768Z</time></trkpt><trkpt lat="45.5988737" lon="12.3198816"><ele>4.0</ele><time>2026-04-28T16:06:40.769Z</time></trkpt><trkpt lat="45.5988542" lon="12.3200015"><ele>3.9999999999999996</ele><time>2026-04-28T16:06:42.773Z</time></trkpt><trkpt lat="45.5988196" lon="12.3200885"><ele>4.0</ele><time>2026-04-28T16:06:44.776Z</time></trkpt><trkpt lat="45.598799" lon="12.3202109"><ele>4.0</ele><time>2026-04-28T16:06:46.77Z</time></trkpt><trkpt lat="45.5987704" lon="12.3203354"><ele>4.0</ele><time>2026-04-28T16:06:48.776Z</time></trkpt><trkpt lat="45.5987402" lon="12.3204584"><ele>3.9999999999999996</ele><time>2026-04-28T16:06:50.769Z</time></trkpt><trkpt lat="45.5987125" lon="12.3205744"><ele>4.0</ele><time>2026-04-28T16:06:52.774Z</time></trkpt><trkpt lat="45.5986881" lon="12.3206894"><ele>3.9999999999999996</ele><time>2026-04-28T16:06:54.77Z</time></trkpt><trkpt lat="45.5986597" lon="12.3208271"><ele>4.0</ele><time>2026-04-28T16:06:56.766Z</time></trkpt><trkpt lat="45.5986377" lon="12.3209383"><ele>4.0</ele><time>2026-04-28T16:06:58.778Z</time></trkpt><trkpt lat="45.5986098" lon="12.3210525"><ele>4.0</ele><time>2026-04-28T16:07:00.776Z</time></trkpt><trkpt lat="45.5985774" lon="12.3211672"><ele>3.9999999999999996</ele><time>2026-04-28T16:07:02.768Z</time></trkpt><trkpt lat="45.5985483" lon="12.3212566"><ele>4.0</ele><time>2026-04-28T16:07:05.775Z</time></trkpt><trkpt lat="45.5986005" lon="12.3213641"><ele>4.0</ele><time>2026-04-28T16:07:11.781Z</time></trkpt><trkpt lat="45.5987072" lon="12.3214051"><ele>4.0</ele><time>2026-04-28T16:07:13.767Z</time></trkpt><trkpt lat="45.5988042" lon="12.321438"><ele>4.0</ele><time>2026-04-28T16:07:15.772Z</time></trkpt><trkpt lat="45.598902" lon="12.3214661"><ele>4.0</ele><time>2026-04-28T16:07:17.763Z</time></trkpt><trkpt lat="45.5989906" lon="12.3214781"><ele>4.0</ele><time>2026-04-28T16:07:19.784Z</time></trkpt><trkpt lat="45.5990879" lon="12.3215062"><ele>4.0</ele><time>2026-04-28T16:07:21.776Z</time></trkpt><trkpt lat="45.5991805" lon="12.3215327"><ele>3.9999999999999996</ele><time>2026-04-28T16:07:23.775Z</time></trkpt><trkpt lat="45.5992447" lon="12.3215537"><ele>4.0</ele><time>2026-04-28T16:07:25.779Z</time></trkpt><trkpt lat="45.5992661" lon="12.3216387"><ele>4.0</ele><time>2026-04-28T16:07:29.773Z</time></trkpt><trkpt lat="45.5992516" lon="12.3217357"><ele>3.9999999999999996</ele><time>2026-04-28T16:07:31.792Z</time></trkpt><trkpt lat="45.5992248" lon="12.3218368"><ele>4.0</ele><time>2026-04-28T16:07:33.764Z</time></trkpt><trkpt lat="45.5992061" lon="12.3219349"><ele>4.0</ele><time>2026-04-28T16:07:41.769Z</time></trkpt><trkpt lat="45.5991926" lon="12.3220489"><ele>3.9999999999999996</ele><time>2026-04-28T16:07:44.765Z</time></trkpt><trkpt lat="45.5991763" lon="12.3221623"><ele>4.0</ele><time>2026-04-28T16:07:46.788Z</time></trkpt><trkpt lat="45.5991487" lon="12.322262"><ele>4.0</ele><time>2026-04-28T16:07:48.785Z</time></trkpt><trkpt lat="45.5991242" lon="12.3223605"><ele>4.0</ele><time>2026-04-28T16:07:50.764Z</time></trkpt><trkpt lat="45.5991034" lon="12.3224651"><ele>3.9999999999999996</ele><time>2026-04-28T16:07:52.764Z</time></trkpt><trkpt lat="45.5990828" lon="12.3225683"><ele>4.0</ele><time>2026-04-28T16:07:54.77Z</time></trkpt><trkpt lat="45.5990571" lon="12.3226704"><ele>3.9999999999999996</ele><time>2026-04-28T16:07:56.77Z</time></trkpt><trkpt lat="45.5990382" lon="12.3227845"><ele>4.0</ele><time>2026-04-28T16:07:58.772Z</time></trkpt><trkpt lat="45.5990259" lon="12.3228936"><ele>4.0</ele><time>2026-04-28T16:08:00.759Z</time></trkpt><trkpt lat="45.5990209" lon="12.3230068"><ele>4.0</ele><time>2026-04-28T16:08:02.775Z</time></trkpt><trkpt lat="45.5990043" lon="12.3231181"><ele>3.9999999999999996</ele><time>2026-04-28T16:08:04.769Z</time></trkpt><trkpt lat="45.5989889" lon="12.3232291"><ele>4.0</ele><time>2026-04-28T16:08:06.77Z</time></trkpt><trkpt lat="45.5989572" lon="12.3233382"><ele>3.9999999999999996</ele><time>2026-04-28T16:08:08.783Z</time></trkpt><trkpt lat="45.5989292" lon="12.3234408"><ele>4.0</ele><time>2026-04-28T16:08:10.777Z</time></trkpt><trkpt lat="45.5988907" lon="12.3235561"><ele>4.0</ele><time>2026-04-28T16:08:12.77Z</time></trkpt><trkpt lat="45.5988545" lon="12.3236659"><ele>4.0</ele><time>2026-04-28T16:08:14.785Z</time></trkpt><trkpt lat="45.5988195" lon="12.3237793"><ele>3.9999999999999996</ele><time>2026-04-28T16:08:16.784Z</time></trkpt><trkpt lat="45.5987857" lon="12.3238886"><ele>4.0</ele><time>2026-04-28T16:08:18.788Z</time></trkpt><trkpt lat="45.5987631" lon="12.323985"><ele>4.285714285714286</ele><time>2026-04-28T16:08:20.778Z</time></trkpt><trkpt lat="45.5987358" lon="12.3240809"><ele>4.571428571428571</ele><time>2026-04-28T16:08:23.779Z</time></trkpt><trkpt lat="45.598673" lon="12.3241104"><ele>4.857142857142857</ele><time>2026-04-28T16:08:25.791Z</time></trkpt><trkpt lat="45.5986205" lon="12.3241624"><ele>5.142857142857142</ele><time>2026-04-28T16:08:27.781Z</time></trkpt><trkpt lat="45.5986639" lon="12.3242646"><ele>5.428571428571429</ele><time>2026-04-28T16:08:31.791Z</time></trkpt><trkpt lat="45.5987124" lon="12.3243334"><ele>5.7142857142857135</ele><time>2026-04-28T16:08:33.768Z</time></trkpt><trkpt lat="45.598747" lon="12.3244272"><ele>6.0</ele><time>2026-04-28T16:08:35.783Z</time></trkpt><trkpt lat="45.5987762" lon="12.324517"><ele>6.199999999999999</ele><time>2026-04-28T16:08:37.764Z</time></trkpt><trkpt lat="45.5988236" lon="12.3245951"><ele>6.3999999999999995</ele><time>2026-04-28T16:08:39.779Z</time></trkpt><trkpt lat="45.5988974" lon="12.3247125"><ele>6.6</ele><time>2026-04-28T16:08:41.771Z</time></trkpt><trkpt lat="45.5989629" lon="12.3247955"><ele>6.8</ele><time>2026-04-28T16:08:43.768Z</time></trkpt><trkpt lat="45.5990501" lon="12.3248753"><ele>7.0</ele><time>2026-04-28T16:08:45.771Z</time></trkpt><trkpt lat="45.5991333" lon="12.3249429"><ele>6.6</ele><time>2026-04-28T16:08:47.775Z</time></trkpt><trkpt lat="45.5992346" lon="12.3250061"><ele>6.199999999999999</ele><time>2026-04-28T16:08:49.775Z</time></trkpt><trkpt lat="45.5993412" lon="12.3250654"><ele>5.8</ele><time>2026-04-28T16:08:51.774Z</time></trkpt><trkpt lat="45.5994306" lon="12.3251133"><ele>5.4</ele><time>2026-04-28T16:08:53.768Z</time></trkpt><trkpt lat="45.5995239" lon="12.325166"><ele>5.0</ele><time>2026-04-28T16:08:55.771Z</time></trkpt><trkpt lat="45.5996169" lon="12.3252172"><ele>4.6</ele><time>2026-04-28T16:08:57.765Z</time></trkpt><trkpt lat="45.5997081" lon="12.3252637"><ele>4.2</ele><time>2026-04-28T16:08:59.765Z</time></trkpt><trkpt lat="45.5998024" lon="12.3253055"><ele>3.8</ele><time>2026-04-28T16:09:01.774Z</time></trkpt><trkpt lat="45.5998953" lon="12.3253417"><ele>3.4</ele><time>2026-04-28T16:09:03.776Z</time></trkpt><trkpt lat="45.5999884" lon="12.325378"><ele>3.0</ele><time>2026-04-28T16:09:05.768Z</time></trkpt><trkpt lat="45.6000785" lon="12.3254054"><ele>3.0</ele><time>2026-04-28T16:09:07.772Z</time></trkpt><trkpt lat="45.6001698" lon="12.3254393"><ele>3.0</ele><time>2026-04-28T16:09:09.776Z</time></trkpt><trkpt lat="45.6002605" lon="12.3254934"><ele>3.0</ele><time>2026-04-28T16:09:11.761Z</time></trkpt><trkpt lat="45.6003413" lon="12.3255797"><ele>3.0</ele><time>2026-04-28T16:09:13.78Z</time></trkpt><trkpt lat="45.6003912" lon="12.3256858"><ele>3.0</ele><time>2026-04-28T16:09:15.779Z</time></trkpt><trkpt lat="45.6004178" lon="12.3258151"><ele>3.1666666666666665</ele><time>2026-04-28T16:09:17.785Z</time></trkpt><trkpt lat="45.6004221" lon="12.3259639"><ele>3.333333333333333</ele><time>2026-04-28T16:09:19.783Z</time></trkpt><trkpt lat="45.6004395" lon="12.3260772"><ele>3.5</ele><time>2026-04-28T16:09:21.787Z</time></trkpt><trkpt lat="45.6004731" lon="12.326165"><ele>3.6666666666666665</ele><time>2026-04-28T16:09:23.77Z</time></trkpt><trkpt lat="45.6005252" lon="12.3262354"><ele>3.833333333333333</ele><time>2026-04-28T16:09:25.771Z</time></trkpt><trkpt lat="45.6005963" lon="12.3262894"><ele>4.0</ele><time>2026-04-28T16:09:27.779Z</time></trkpt><trkpt lat="45.6006798" lon="12.326314"><ele>4.0</ele><time>2026-04-28T16:09:31.779Z</time></trkpt><trkpt lat="45.6007672" lon="12.3263235"><ele>4.0</ele><time>2026-04-28T16:09:34.777Z</time></trkpt><trkpt lat="45.6008514" lon="12.32635"><ele>4.0</ele><time>2026-04-28T16:09:36.769Z</time></trkpt><trkpt lat="45.6009422" lon="12.3263888"><ele>4.0</ele><time>2026-04-28T16:09:38.767Z</time></trkpt><trkpt lat="45.6010487" lon="12.3264146"><ele>4.0</ele><time>2026-04-28T16:09:40.766Z</time></trkpt><trkpt lat="45.6011363" lon="12.3264271"><ele>4.333333333333333</ele><time>2026-04-28T16:09:42.766Z</time></trkpt><trkpt lat="45.6012211" lon="12.3264352"><ele>4.666666666666666</ele><time>2026-04-28T16:09:44.771Z</time></trkpt><trkpt lat="45.6012895" lon="12.3264474"><ele>5.0</ele><time>2026-04-28T16:09:46.767Z</time></trkpt><trkpt lat="45.6013823" lon="12.326463"><ele>5.333333333333333</ele><time>2026-04-28T16:09:49.786Z</time></trkpt><trkpt lat="45.6014593" lon="12.3264887"><ele>5.666666666666667</ele><time>2026-04-28T16:09:52.76Z</time></trkpt><trkpt lat="45.6015295" lon="12.3264989"><ele>6.0</ele><time>2026-04-28T16:09:56.77Z</time></trkpt><trkpt lat="45.6016168" lon="12.3265266"><ele>6.0</ele><time>2026-04-28T16:10:01.783Z</time></trkpt><trkpt lat="45.6016922" lon="12.3265384"><ele>6.0</ele><time>2026-04-28T16:10:03.768Z</time></trkpt><trkpt lat="45.6017661" lon="12.3265498"><ele>6.0</ele><time>2026-04-28T16:10:05.77Z</time></trkpt><trkpt lat="45.6018475" lon="12.3265608"><ele>6.0</ele><time>2026-04-28T16:10:07.788Z</time></trkpt><trkpt lat="45.6019296" lon="12.326581"><ele>6.0</ele><time>2026-04-28T16:10:09.771Z</time></trkpt><trkpt lat="45.6020172" lon="12.3265999"><ele>6.0</ele><time>2026-04-28T16:10:11.765Z</time></trkpt><trkpt lat="45.6020975" lon="12.3266176"><ele>6.0</ele><time>2026-04-28T16:10:13.748Z</time></trkpt><trkpt lat="45.6021631" lon="12.3266353"><ele>6.0</ele><time>2026-04-28T16:10:15.768Z</time></trkpt><trkpt lat="45.6022301" lon="12.3266636"><ele>6.0</ele><time>2026-04-28T16:10:17.773Z</time></trkpt><trkpt lat="45.6023241" lon="12.3267008"><ele>6.0</ele><time>2026-04-28T16:10:20.771Z</time></trkpt><trkpt lat="45.6024274" lon="12.3267354"><ele>6.0</ele><time>2026-04-28T16:10:24.769Z</time></trkpt><trkpt lat="45.6024953" lon="12.3267609"><ele>6.0</ele><time>2026-04-28T16:10:26.763Z</time></trkpt><trkpt lat="45.6025684" lon="12.3267717"><ele>6.0</ele><time>2026-04-28T16:10:28.765Z</time></trkpt><trkpt lat="45.6026388" lon="12.3267817"><ele>6.0</ele><time>2026-04-28T16:10:30.782Z</time></trkpt><trkpt lat="45.6027135" lon="12.3267817"><ele>6.0</ele><time>2026-04-28T16:10:33.777Z</time></trkpt><trkpt lat="45.6027925" lon="12.3267806"><ele>6.0</ele><time>2026-04-28T16:10:36.768Z</time></trkpt><trkpt lat="45.6028776" lon="12.3268094"><ele>6.0</ele><time>2026-04-28T16:10:39.751Z</time></trkpt><trkpt lat="45.6029498" lon="12.32685"><ele>6.0</ele><time>2026-04-28T16:10:41.776Z</time></trkpt><trkpt lat="45.6030358" lon="12.326883"><ele>5.833333333333333</ele><time>2026-04-28T16:10:43.773Z</time></trkpt><trkpt lat="45.6031287" lon="12.3268925"><ele>5.666666666666667</ele><time>2026-04-28T16:10:45.769Z</time></trkpt><trkpt lat="45.6031938" lon="12.3268959"><ele>5.5</ele><time>2026-04-28T16:10:47.789Z</time></trkpt><trkpt lat="45.6032639" lon="12.3269007"><ele>5.333333333333334</ele><time>2026-04-28T16:10:50.77Z</time></trkpt><trkpt lat="45.603349" lon="12.3269287"><ele>5.166666666666667</ele><time>2026-04-28T16:10:53.767Z</time></trkpt><trkpt lat="45.6033688" lon="12.3270184"><ele>5.0</ele><time>2026-04-28T16:10:59.78Z</time></trkpt><trkpt lat="45.6034411" lon="12.3270784"><ele>5.0</ele><time>2026-04-28T16:11:02.787Z</time></trkpt><trkpt lat="45.6034366" lon="12.3271842"><ele>5.0</ele><time>2026-04-28T16:11:04.768Z</time></trkpt><trkpt lat="45.6034252" lon="12.3272757"><ele>5.0</ele><time>2026-04-28T16:11:05.766Z</time></trkpt><trkpt lat="45.6034103" lon="12.3274015"><ele>5.0</ele><time>2026-04-28T16:11:07.767Z</time></trkpt><trkpt lat="45.603379" lon="12.3275526"><ele>5.0</ele><time>2026-04-28T16:11:09.767Z</time></trkpt><trkpt lat="45.6033571" lon="12.3277094"><ele>5.0</ele><time>2026-04-28T16:11:11.763Z</time></trkpt><trkpt lat="45.6033386" lon="12.3278555"><ele>5.0</ele><time>2026-04-28T16:11:13.757Z</time></trkpt><trkpt lat="45.6033232" lon="12.328012"><ele>5.0</ele><time>2026-04-28T16:11:15.777Z</time></trkpt><trkpt lat="45.6033136" lon="12.3281592"><ele>5.0</ele><time>2026-04-28T16:11:17.78Z</time></trkpt><trkpt lat="45.6033197" lon="12.3283084"><ele>5.0</ele><time>2026-04-28T16:11:19.77Z</time></trkpt><trkpt lat="45.6033459" lon="12.3284342"><ele>5.0</ele><time>2026-04-28T16:11:21.766Z</time></trkpt><trkpt lat="45.6033813" lon="12.3285804"><ele>5.0</ele><time>2026-04-28T16:11:23.757Z</time></trkpt><trkpt lat="45.6034221" lon="12.328725"><ele>5.0</ele><time>2026-04-28T16:11:25.759Z</time></trkpt><trkpt lat="45.60346" lon="12.3288759"><ele>5.0</ele><time>2026-04-28T16:11:27.76Z</time></trkpt><trkpt lat="45.6035007" lon="12.3290254"><ele>5.0</ele><time>2026-04-28T16:11:29.758Z</time></trkpt><trkpt lat="45.6035238" lon="12.329165"><ele>4.8</ele><time>2026-04-28T16:11:31.774Z</time></trkpt><trkpt lat="45.6035506" lon="12.3293232"><ele>4.6</ele><time>2026-04-28T16:11:33.776Z</time></trkpt><trkpt lat="45.6035845" lon="12.3294576"><ele>4.4</ele><time>2026-04-28T16:11:35.766Z</time></trkpt><trkpt lat="45.6036154" lon="12.3295713"><ele>4.2</ele><time>2026-04-28T16:11:37.763Z</time></trkpt><trkpt lat="45.6036454" lon="12.3296867"><ele>4.0</ele><time>2026-04-28T16:11:39.767Z</time></trkpt><trkpt lat="45.60368" lon="12.3298011"><ele>4.4</ele><time>2026-04-28T16:11:41.763Z</time></trkpt><trkpt lat="45.6036854" lon="12.3299196"><ele>4.800000000000001</ele><time>2026-04-28T16:11:43.775Z</time></trkpt><trkpt lat="45.6036305" lon="12.3300388"><ele>5.199999999999999</ele><time>2026-04-28T16:11:45.766Z</time></trkpt><trkpt lat="45.603553" lon="12.3301049"><ele>5.6</ele><time>2026-04-28T16:11:47.764Z</time></trkpt><trkpt lat="45.6034715" lon="12.330171"><ele>6.0</ele><time>2026-04-28T16:11:49.767Z</time></trkpt><trkpt lat="45.6033884" lon="12.330241"><ele>6.0</ele><time>2026-04-28T16:11:51.768Z</time></trkpt><trkpt lat="45.6033052" lon="12.330308"><ele>6.0</ele><time>2026-04-28T16:11:53.771Z</time></trkpt><trkpt lat="45.6032092" lon="12.330372"><ele>6.0</ele><time>2026-04-28T16:11:55.777Z</time></trkpt><trkpt lat="45.6031216" lon="12.3304318"><ele>6.0</ele><time>2026-04-28T16:11:57.788Z</time></trkpt><trkpt lat="45.603035" lon="12.3304957"><ele>6.0</ele><time>2026-04-28T16:11:59.785Z</time></trkpt><trkpt lat="45.6029522" lon="12.330561"><ele>5.833333333333333</ele><time>2026-04-28T16:12:01.782Z</time></trkpt><trkpt lat="45.6028747" lon="12.3306309"><ele>5.666666666666667</ele><time>2026-04-28T16:12:03.782Z</time></trkpt><trkpt lat="45.6027987" lon="12.3306802"><ele>5.5</ele><time>2026-04-28T16:12:05.772Z</time></trkpt><trkpt lat="45.602741" lon="12.3307557"><ele>5.333333333333334</ele><time>2026-04-28T16:12:07.788Z</time></trkpt><trkpt lat="45.6027221" lon="12.3308737"><ele>5.166666666666667</ele><time>2026-04-28T16:12:10.785Z</time></trkpt><trkpt lat="45.6027494" lon="12.3309622"><ele>5.0</ele><time>2026-04-28T16:12:12.779Z</time></trkpt><trkpt lat="45.602804" lon="12.3310652"><ele>4.75</ele><time>2026-04-28T16:12:14.769Z</time></trkpt><trkpt lat="45.6028621" lon="12.3311741"><ele>4.5</ele><time>2026-04-28T16:12:16.772Z</time></trkpt><trkpt lat="45.6029568" lon="12.3313511"><ele>4.25</ele><time>2026-04-28T16:12:19.777Z</time></trkpt><trkpt lat="45.6030124" lon="12.3314626"><ele>4.0</ele><time>2026-04-28T16:12:21.771Z</time></trkpt><trkpt lat="45.6030706" lon="12.331587"><ele>3.8000000000000003</ele><time>2026-04-28T16:12:23.786Z</time></trkpt><trkpt lat="45.6031136" lon="12.3316983"><ele>3.6000000000000005</ele><time>2026-04-28T16:12:25.794Z</time></trkpt><trkpt lat="45.6031555" lon="12.3318177"><ele>3.4</ele><time>2026-04-28T16:12:27.775Z</time></trkpt><trkpt lat="45.6032005" lon="12.3319357"><ele>3.2</ele><time>2026-04-28T16:12:29.792Z</time></trkpt><trkpt lat="45.6032442" lon="12.3320546"><ele>3.0</ele><time>2026-04-28T16:12:31.786Z</time></trkpt><trkpt lat="45.6032882" lon="12.3321639"><ele>2.8</ele><time>2026-04-28T16:12:33.782Z</time></trkpt><trkpt lat="45.6033358" lon="12.332296"><ele>2.5999999999999996</ele><time>2026-04-28T16:12:35.79Z</time></trkpt><trkpt lat="45.6033776" lon="12.3324427"><ele>2.4000000000000004</ele><time>2026-04-28T16:12:37.777Z</time></trkpt><trkpt lat="45.60341" lon="12.3325684"><ele>2.2</ele><time>2026-04-28T16:12:39.783Z</time></trkpt><trkpt lat="45.60344" lon="12.3326906"><ele>2.0</ele><time>2026-04-28T16:12:41.777Z</time></trkpt><trkpt lat="45.6034717" lon="12.3328135"><ele>1.9999999999999998</ele><time>2026-04-28T16:12:43.779Z</time></trkpt><trkpt lat="45.60346" lon="12.3329237"><ele>2.0</ele><time>2026-04-28T16:12:45.785Z</time></trkpt><trkpt lat="45.6034822" lon="12.3330664"><ele>2.0</ele><time>2026-04-28T16:12:47.776Z</time></trkpt><trkpt lat="45.6035078" lon="12.3332135"><ele>2.0</ele><time>2026-04-28T16:12:49.773Z</time></trkpt><trkpt lat="45.6035236" lon="12.3333126"><ele>1.9999999999999998</ele><time>2026-04-28T16:12:51.79Z</time></trkpt><trkpt lat="45.6035438" lon="12.3334347"><ele>2.0</ele><time>2026-04-28T16:12:53.793Z</time></trkpt><trkpt lat="45.6035871" lon="12.3335211"><ele>2.4000000000000004</ele><time>2026-04-28T16:12:55.781Z</time></trkpt><trkpt lat="45.6036775" lon="12.3335337"><ele>2.8000000000000003</ele><time>2026-04-28T16:12:57.775Z</time></trkpt><trkpt lat="45.6037808" lon="12.3335486"><ele>3.2</ele><time>2026-04-28T16:12:59.772Z</time></trkpt><trkpt lat="45.6038752" lon="12.3335755"><ele>3.6</ele><time>2026-04-28T16:13:01.779Z</time></trkpt><trkpt lat="45.6039578" lon="12.3336128"><ele>4.0</ele><time>2026-04-28T16:13:03.774Z</time></trkpt><trkpt lat="45.6040509" lon="12.3336559"><ele>4.0</ele><time>2026-04-28T16:13:05.784Z</time></trkpt><trkpt lat="45.6041462" lon="12.3336811"><ele>4.0</ele><time>2026-04-28T16:13:07.787Z</time></trkpt><trkpt lat="45.6042392" lon="12.3336988"><ele>4.0</ele><time>2026-04-28T16:13:09.788Z</time></trkpt><trkpt lat="45.6043342" lon="12.3337195"><ele>4.0</ele><time>2026-04-28T16:13:11.783Z</time></trkpt><trkpt lat="45.6044389" lon="12.3337432"><ele>4.0</ele><time>2026-04-28T16:13:13.772Z</time></trkpt><trkpt lat="45.6045252" lon="12.3337597"><ele>4.0</ele><time>2026-04-28T16:13:15.81Z</time></trkpt><trkpt lat="45.604591" lon="12.3338101"><ele>4.0</ele><time>2026-04-28T16:13:17.8Z</time></trkpt><trkpt lat="45.6046072" lon="12.3339063"><ele>4.0</ele><time>2026-04-28T16:13:19.779Z</time></trkpt><trkpt lat="45.6045947" lon="12.3340573"><ele>4.0</ele><time>2026-04-28T16:13:21.775Z</time></trkpt><trkpt lat="45.6045744" lon="12.3342155"><ele>4.0</ele><time>2026-04-28T16:13:23.781Z</time></trkpt><trkpt lat="45.6045526" lon="12.3343495"><ele>4.0</ele><time>2026-04-28T16:13:25.794Z</time></trkpt><trkpt lat="45.6045368" lon="12.334484"><ele>4.0</ele><time>2026-04-28T16:13:27.772Z</time></trkpt><trkpt lat="45.6045144" lon="12.3346209"><ele>4.0</ele><time>2026-04-28T16:13:29.777Z</time></trkpt><trkpt lat="45.6045031" lon="12.3347434"><ele>4.0</ele><time>2026-04-28T16:13:31.78Z</time></trkpt><trkpt lat="45.6044891" lon="12.3348725"><ele>4.0</ele><time>2026-04-28T16:13:33.777Z</time></trkpt><trkpt lat="45.6044731" lon="12.3350169"><ele>3.6</ele><time>2026-04-28T16:13:35.772Z</time></trkpt><trkpt lat="45.6044511" lon="12.3351438"><ele>3.2</ele><time>2026-04-28T16:13:37.774Z</time></trkpt><trkpt lat="45.6044246" lon="12.3352899"><ele>2.8000000000000003</ele><time>2026-04-28T16:13:39.774Z</time></trkpt><trkpt lat="45.6043993" lon="12.3354317"><ele>2.4000000000000004</ele><time>2026-04-28T16:13:41.789Z</time></trkpt><trkpt lat="45.6043489" lon="12.3355503"><ele>2.0</ele><time>2026-04-28T16:13:43.777Z</time></trkpt><trkpt lat="45.6042475" lon="12.3356481"><ele>1.9999999999999998</ele><time>2026-04-28T16:13:45.78Z</time></trkpt><trkpt lat="45.6041596" lon="12.3356831"><ele>2.0</ele><time>2026-04-28T16:13:47.775Z</time></trkpt><trkpt lat="45.6040889" lon="12.3356526"><ele>2.0</ele><time>2026-04-28T16:13:49.774Z</time></trkpt><trkpt lat="45.6040079" lon="12.335559"><ele>2.0</ele><time>2026-04-28T16:13:51.789Z</time></trkpt><trkpt lat="45.6039205" lon="12.3355179"><ele>1.9999999999999998</ele><time>2026-04-28T16:13:53.786Z</time></trkpt><trkpt lat="45.603859" lon="12.3355594"><ele>2.0</ele><time>2026-04-28T16:13:56.771Z</time></trkpt><trkpt lat="45.6038014" lon="12.3354685"><ele>1.9999999999999998</ele><time>2026-04-28T16:13:59.788Z</time></trkpt><trkpt lat="45.603775" lon="12.335357"><ele>2.0</ele><time>2026-04-28T16:14:02.776Z</time></trkpt><trkpt lat="45.6037564" lon="12.3352469"><ele>2.0</ele><time>2026-04-28T16:14:04.778Z</time></trkpt><trkpt lat="45.6037307" lon="12.3351523"><ele>2.0</ele><time>2026-04-28T16:14:06.767Z</time></trkpt><trkpt lat="45.6037246" lon="12.3350589"><ele>1.9999999999999998</ele><time>2026-04-28T16:14:08.767Z</time></trkpt><trkpt lat="45.6037698" lon="12.3351643"><ele>2.0</ele><time>2026-04-28T16:14:14.777Z</time></trkpt><trkpt lat="45.6037864" lon="12.3352673"><ele>1.9999999999999998</ele><time>2026-04-28T16:14:16.778Z</time></trkpt><trkpt lat="45.603817" lon="12.3354038"><ele>2.0</ele><time>2026-04-28T16:14:19.77Z</time></trkpt><trkpt lat="45.6038426" lon="12.3355136"><ele>2.0</ele><time>2026-04-28T16:14:21.774Z</time></trkpt><trkpt lat="45.6038644" lon="12.3356071"><ele>2.0</ele><time>2026-04-28T16:14:23.773Z</time></trkpt><trkpt lat="45.6038828" lon="12.3356957"><ele>1.9999999999999998</ele><time>2026-04-28T16:14:27.787Z</time></trkpt><trkpt lat="45.6039038" lon="12.3357913"><ele>2.0</ele><time>2026-04-28T16:14:34.773Z</time></trkpt><trkpt lat="45.6039336" lon="12.3358977"><ele>1.9999999999999998</ele><time>2026-04-28T16:14:38.778Z</time></trkpt><trkpt lat="45.6039447" lon="12.335994"><ele>2.0</ele><time>2026-04-28T16:14:40.776Z</time></trkpt><trkpt lat="45.6039602" lon="12.3360885"><ele>2.0</ele><time>2026-04-28T16:14:42.783Z</time></trkpt><trkpt lat="45.6039837" lon="12.336185"><ele>2.0</ele><time>2026-04-28T16:14:44.77Z</time></trkpt><trkpt lat="45.6040126" lon="12.3362947"><ele>1.9999999999999998</ele><time>2026-04-28T16:14:46.779Z</time></trkpt><trkpt lat="45.6040365" lon="12.3364067"><ele>2.0</ele><time>2026-04-28T16:14:48.786Z</time></trkpt><trkpt lat="45.6040613" lon="12.336525"><ele>2.333333333333333</ele><time>2026-04-28T16:14:50.774Z</time></trkpt><trkpt lat="45.6040874" lon="12.3366587"><ele>2.6666666666666665</ele><time>2026-04-28T16:14:52.769Z</time></trkpt><trkpt lat="45.6041136" lon="12.3368046"><ele>3.0</ele><time>2026-04-28T16:14:54.778Z</time></trkpt><trkpt lat="45.6041355" lon="12.336928"><ele>3.333333333333333</ele><time>2026-04-28T16:14:56.776Z</time></trkpt><trkpt lat="45.6041547" lon="12.3370261"><ele>3.6666666666666665</ele><time>2026-04-28T16:14:59.787Z</time></trkpt><trkpt lat="45.60411" lon="12.3369236"><ele>4.0</ele><time>2026-04-28T16:15:06.779Z</time></trkpt><trkpt lat="45.6040797" lon="12.336828"><ele>3.9999999999999996</ele><time>2026-04-28T16:15:08.771Z</time></trkpt><trkpt lat="45.6040503" lon="12.336722"><ele>4.0</ele><time>2026-04-28T16:15:10.77Z</time></trkpt><trkpt lat="45.6040267" lon="12.3366201"><ele>4.0</ele><time>2026-04-28T16:15:12.775Z</time></trkpt><trkpt lat="45.6040214" lon="12.3364942"><ele>4.0</ele><time>2026-04-28T16:15:15.774Z</time></trkpt><trkpt lat="45.6039569" lon="12.3364425"><ele>3.9999999999999996</ele><time>2026-04-28T16:15:18.775Z</time></trkpt><trkpt lat="45.6038621" lon="12.3363755"><ele>4.0</ele><time>2026-04-28T16:15:21.79Z</time></trkpt><trkpt lat="45.6037966" lon="12.3363231"><ele>4.2</ele><time>2026-04-28T16:15:23.784Z</time></trkpt><trkpt lat="45.603722" lon="12.3362644"><ele>4.4</ele><time>2026-04-28T16:15:25.806Z</time></trkpt><trkpt lat="45.603626" lon="12.3362227"><ele>4.6</ele><time>2026-04-28T16:15:27.777Z</time></trkpt><trkpt lat="45.6035232" lon="12.3362041"><ele>4.8</ele><time>2026-04-28T16:15:29.802Z</time></trkpt><trkpt lat="45.6034452" lon="12.3361956"><ele>5.0</ele><time>2026-04-28T16:15:31.785Z</time></trkpt><trkpt lat="45.6033529" lon="12.3361801"><ele>5.0</ele><time>2026-04-28T16:15:33.776Z</time></trkpt><trkpt lat="45.6032697" lon="12.336156"><ele>5.0</ele><time>2026-04-28T16:15:35.777Z</time></trkpt><trkpt lat="45.6031716" lon="12.3361374"><ele>5.0</ele><time>2026-04-28T16:15:37.78Z</time></trkpt><trkpt lat="45.6030636" lon="12.3361181"><ele>5.0</ele><time>2026-04-28T16:15:39.776Z</time></trkpt><trkpt lat="45.6029783" lon="12.3360888"><ele>5.0</ele><time>2026-04-28T16:15:41.799Z</time></trkpt><trkpt lat="45.6029022" lon="12.3360431"><ele>4.8</ele><time>2026-04-28T16:15:43.791Z</time></trkpt><trkpt lat="45.6028265" lon="12.3359851"><ele>4.6</ele><time>2026-04-28T16:15:45.802Z</time></trkpt><trkpt lat="45.6027575" lon="12.3359089"><ele>4.4</ele><time>2026-04-28T16:15:47.797Z</time></trkpt><trkpt lat="45.6026811" lon="12.3358132"><ele>4.2</ele><time>2026-04-28T16:15:49.797Z</time></trkpt><trkpt lat="45.6026175" lon="12.3357153"><ele>4.0</ele><time>2026-04-28T16:15:51.794Z</time></trkpt><trkpt lat="45.6025614" lon="12.3356307"><ele>3.8000000000000003</ele><time>2026-04-28T16:15:53.782Z</time></trkpt><trkpt lat="45.6025023" lon="12.3355325"><ele>3.6000000000000005</ele><time>2026-04-28T16:15:55.778Z</time></trkpt><trkpt lat="45.6024405" lon="12.335439"><ele>3.4</ele><time>2026-04-28T16:15:57.791Z</time></trkpt><trkpt lat="45.6023766" lon="12.3353424"><ele>3.2</ele><time>2026-04-28T16:15:59.777Z</time></trkpt><trkpt lat="45.6023112" lon="12.3352487"><ele>3.0</ele><time>2026-04-28T16:16:01.787Z</time></trkpt><trkpt lat="45.6022437" lon="12.3351639"><ele>3.0</ele><time>2026-04-28T16:16:03.786Z</time></trkpt><trkpt lat="45.6021734" lon="12.3350765"><ele>3.0</ele><time>2026-04-28T16:16:05.774Z</time></trkpt><trkpt lat="45.6021008" lon="12.3349904"><ele>3.0</ele><time>2026-04-28T16:16:07.786Z</time></trkpt><trkpt lat="45.6020292" lon="12.3349113"><ele>3.0</ele><time>2026-04-28T16:16:09.8Z</time></trkpt><trkpt lat="45.6019606" lon="12.3348243"><ele>3.0</ele><time>2026-04-28T16:16:11.787Z</time></trkpt><trkpt lat="45.6018927" lon="12.3347399"><ele>3.0</ele><time>2026-04-28T16:16:13.789Z</time></trkpt><trkpt lat="45.6018202" lon="12.3346634"><ele>3.0</ele><time>2026-04-28T16:16:15.773Z</time></trkpt><trkpt lat="45.601748" lon="12.3345835"><ele>3.0</ele><time>2026-04-28T16:16:17.779Z</time></trkpt><trkpt lat="45.6016772" lon="12.3344978"><ele>3.0</ele><time>2026-04-28T16:16:19.786Z</time></trkpt><trkpt lat="45.6016078" lon="12.3344086"><ele>3.0</ele><time>2026-04-28T16:16:21.804Z</time></trkpt><trkpt lat="45.6015303" lon="12.334317"><ele>3.0</ele><time>2026-04-28T16:16:23.791Z</time></trkpt><trkpt lat="45.6014621" lon="12.3342304"><ele>3.0</ele><time>2026-04-28T16:16:25.784Z</time></trkpt><trkpt lat="45.601395" lon="12.3341389"><ele>3.0</ele><time>2026-04-28T16:16:27.788Z</time></trkpt><trkpt lat="45.6013251" lon="12.3340506"><ele>3.0</ele><time>2026-04-28T16:16:29.795Z</time></trkpt><trkpt lat="45.6012528" lon="12.3339706"><ele>3.0</ele><time>2026-04-28T16:16:31.785Z</time></trkpt><trkpt lat="45.6011811" lon="12.3338769"><ele>3.4</ele><time>2026-04-28T16:16:33.783Z</time></trkpt><trkpt lat="45.6011088" lon="12.3337964"><ele>3.8</ele><time>2026-04-28T16:16:35.794Z</time></trkpt><trkpt lat="45.6010355" lon="12.3337146"><ele>4.2</ele><time>2026-04-28T16:16:37.797Z</time></trkpt><trkpt lat="45.6009642" lon="12.333626"><ele>4.6</ele><time>2026-04-28T16:16:39.775Z</time></trkpt><trkpt lat="45.600892" lon="12.333538"><ele>5.0</ele><time>2026-04-28T16:16:41.775Z</time></trkpt><trkpt lat="45.6008174" lon="12.3334489"><ele>5.0</ele><time>2026-04-28T16:16:43.781Z</time></trkpt><trkpt lat="45.6007502" lon="12.3333674"><ele>5.0</ele><time>2026-04-28T16:16:45.783Z</time></trkpt><trkpt lat="45.6006845" lon="12.3332866"><ele>5.0</ele><time>2026-04-28T16:16:47.796Z</time></trkpt><trkpt lat="45.6006118" lon="12.3332072"><ele>5.0</ele><time>2026-04-28T16:16:49.788Z</time></trkpt><trkpt lat="45.6005404" lon="12.3331215"><ele>5.0</ele><time>2026-04-28T16:16:51.774Z</time></trkpt><trkpt lat="45.6004611" lon="12.3330334"><ele>4.6</ele><time>2026-04-28T16:16:53.799Z</time></trkpt><trkpt lat="45.6003793" lon="12.3329457"><ele>4.2</ele><time>2026-04-28T16:16:55.789Z</time></trkpt><trkpt lat="45.6003209" lon="12.3328673"><ele>3.8</ele><time>2026-04-28T16:16:57.797Z</time></trkpt><trkpt lat="45.6002535" lon="12.3327836"><ele>3.4</ele><time>2026-04-28T16:16:59.777Z</time></trkpt><trkpt lat="45.6001828" lon="12.3327028"><ele>3.0</ele><time>2026-04-28T16:17:01.783Z</time></trkpt><trkpt lat="45.6001116" lon="12.332615"><ele>2.8333333333333335</ele><time>2026-04-28T16:17:03.786Z</time></trkpt><trkpt lat="45.600052" lon="12.3325356"><ele>2.6666666666666665</ele><time>2026-04-28T16:17:05.779Z</time></trkpt><trkpt lat="45.5999924" lon="12.3324623"><ele>2.5</ele><time>2026-04-28T16:17:07.768Z</time></trkpt><trkpt lat="45.5999468" lon="12.3323991"><ele>2.333333333333333</ele><time>2026-04-28T16:17:09.787Z</time></trkpt><trkpt lat="45.5998858" lon="12.332318"><ele>2.1666666666666665</ele><time>2026-04-28T16:17:11.789Z</time></trkpt><trkpt lat="45.5998001" lon="12.3322187"><ele>2.0</ele><time>2026-04-28T16:17:13.783Z</time></trkpt><trkpt lat="45.5997376" lon="12.3321268"><ele>2.0</ele><time>2026-04-28T16:17:15.786Z</time></trkpt><trkpt lat="45.599664" lon="12.3320173"><ele>2.0</ele><time>2026-04-28T16:17:17.794Z</time></trkpt><trkpt lat="45.5995842" lon="12.3319017"><ele>2.0</ele><time>2026-04-28T16:17:19.789Z</time></trkpt><trkpt lat="45.5995104" lon="12.3317916"><ele>2.0</ele><time>2026-04-28T16:17:21.785Z</time></trkpt><trkpt lat="45.5994452" lon="12.3316942"><ele>2.0</ele><time>2026-04-28T16:17:23.788Z</time></trkpt><trkpt lat="45.5993694" lon="12.3315953"><ele>2.333333333333333</ele><time>2026-04-28T16:17:25.782Z</time></trkpt><trkpt lat="45.5993065" lon="12.3315007"><ele>2.6666666666666665</ele><time>2026-04-28T16:17:27.781Z</time></trkpt><trkpt lat="45.599246" lon="12.3314081"><ele>3.0</ele><time>2026-04-28T16:17:29.816Z</time></trkpt><trkpt lat="45.5991923" lon="12.3313127"><ele>3.333333333333333</ele><time>2026-04-28T16:17:31.786Z</time></trkpt><trkpt lat="45.5991377" lon="12.331221"><ele>3.6666666666666665</ele><time>2026-04-28T16:17:33.772Z</time></trkpt><trkpt lat="45.5990871" lon="12.3311202"><ele>4.0</ele><time>2026-04-28T16:17:35.8Z</time></trkpt><trkpt lat="45.599041" lon="12.3310251"><ele>4.2</ele><time>2026-04-28T16:17:37.779Z</time></trkpt><trkpt lat="45.5989897" lon="12.3309107"><ele>4.4</ele><time>2026-04-28T16:17:39.788Z</time></trkpt><trkpt lat="45.5989394" lon="12.3307947"><ele>4.6</ele><time>2026-04-28T16:17:41.802Z</time></trkpt><trkpt lat="45.5989016" lon="12.3306886"><ele>4.8</ele><time>2026-04-28T16:17:43.778Z</time></trkpt><trkpt lat="45.5988582" lon="12.3305754"><ele>5.0</ele><time>2026-04-28T16:17:45.798Z</time></trkpt><trkpt lat="45.5988227" lon="12.3304634"><ele>4.6</ele><time>2026-04-28T16:17:47.806Z</time></trkpt><trkpt lat="45.598784" lon="12.330362"><ele>4.2</ele><time>2026-04-28T16:17:49.786Z</time></trkpt><trkpt lat="45.5987318" lon="12.3302514"><ele>3.8</ele><time>2026-04-28T16:17:51.784Z</time></trkpt><trkpt lat="45.5986679" lon="12.3301294"><ele>3.4</ele><time>2026-04-28T16:17:53.787Z</time></trkpt><trkpt lat="45.5986091" lon="12.3300197"><ele>3.0</ele><time>2026-04-28T16:17:55.79Z</time></trkpt><trkpt lat="45.5985441" lon="12.3298901"><ele>3.0</ele><time>2026-04-28T16:17:57.798Z</time></trkpt><trkpt lat="45.5984908" lon="12.3297873"><ele>3.0</ele><time>2026-04-28T16:17:59.778Z</time></trkpt><trkpt lat="45.5984383" lon="12.3296827"><ele>3.0</ele><time>2026-04-28T16:18:01.774Z</time></trkpt><trkpt lat="45.5983806" lon="12.3295711"><ele>3.0</ele><time>2026-04-28T16:18:03.787Z</time></trkpt><trkpt lat="45.5983235" lon="12.3294554"><ele>3.0</ele><time>2026-04-28T16:18:05.778Z</time></trkpt><trkpt lat="45.598273" lon="12.3293462"><ele>2.8333333333333335</ele><time>2026-04-28T16:18:07.783Z</time></trkpt><trkpt lat="45.5982031" lon="12.3292156"><ele>2.6666666666666665</ele><time>2026-04-28T16:18:09.795Z</time></trkpt><trkpt lat="45.5981447" lon="12.3291274"><ele>2.5</ele><time>2026-04-28T16:18:11.774Z</time></trkpt><trkpt lat="45.5980871" lon="12.3290551"><ele>2.333333333333333</ele><time>2026-04-28T16:18:13.795Z</time></trkpt><trkpt lat="45.5980292" lon="12.3289845"><ele>2.1666666666666665</ele><time>2026-04-28T16:18:15.781Z</time></trkpt><trkpt lat="45.5979581" lon="12.3289151"><ele>2.0</ele><time>2026-04-28T16:18:17.786Z</time></trkpt><trkpt lat="45.5978967" lon="12.3288354"><ele>2.1666666666666665</ele><time>2026-04-28T16:18:19.775Z</time></trkpt><trkpt lat="45.5978314" lon="12.3287629"><ele>2.333333333333333</ele><time>2026-04-28T16:18:21.777Z</time></trkpt><trkpt lat="45.5977661" lon="12.3286986"><ele>2.5</ele><time>2026-04-28T16:18:23.777Z</time></trkpt><trkpt lat="45.5976964" lon="12.3286273"><ele>2.6666666666666665</ele><time>2026-04-28T16:18:25.778Z</time></trkpt><trkpt lat="45.5976178" lon="12.3285531"><ele>2.8333333333333335</ele><time>2026-04-28T16:18:27.787Z</time></trkpt><trkpt lat="45.5975465" lon="12.3284832"><ele>3.0</ele><time>2026-04-28T16:18:29.771Z</time></trkpt><trkpt lat="45.597459" lon="12.3283948"><ele>3.0</ele><time>2026-04-28T16:18:32.772Z</time></trkpt><trkpt lat="45.597403" lon="12.3283518"><ele>3.0</ele><time>2026-04-28T16:18:33.785Z</time></trkpt><trkpt lat="45.597339" lon="12.328299"><ele>3.0</ele><time>2026-04-28T16:18:34.79Z</time></trkpt><trkpt lat="45.5972388" lon="12.3282076"><ele>3.0</ele><time>2026-04-28T16:18:36.786Z</time></trkpt><trkpt lat="45.5971565" lon="12.3281608"><ele>3.0</ele><time>2026-04-28T16:18:37.78Z</time></trkpt><trkpt lat="45.5970508" lon="12.3281136"><ele>2.8333333333333335</ele><time>2026-04-28T16:18:39.789Z</time></trkpt><trkpt lat="45.5969707" lon="12.3280735"><ele>2.6666666666666665</ele><time>2026-04-28T16:18:41.777Z</time></trkpt><trkpt lat="45.596905" lon="12.3280664"><ele>2.5</ele><time>2026-04-28T16:18:43.784Z</time></trkpt><trkpt lat="45.5968027" lon="12.3280389"><ele>2.333333333333333</ele><time>2026-04-28T16:18:45.791Z</time></trkpt><trkpt lat="45.5967104" lon="12.3280269"><ele>2.1666666666666665</ele><time>2026-04-28T16:18:47.801Z</time></trkpt><trkpt lat="45.5966224" lon="12.3280313"><ele>2.0</ele><time>2026-04-28T16:18:49.775Z</time></trkpt><trkpt lat="45.5965357" lon="12.3280481"><ele>2.0</ele><time>2026-04-28T16:18:51.765Z</time></trkpt><trkpt lat="45.5964174" lon="12.3280548"><ele>2.0</ele><time>2026-04-28T16:18:53.778Z</time></trkpt><trkpt lat="45.5963049" lon="12.3280782"><ele>2.0</ele><time>2026-04-28T16:18:55.798Z</time></trkpt><trkpt lat="45.5962442" lon="12.3281182"><ele>2.0</ele><time>2026-04-28T16:18:56.791Z</time></trkpt><trkpt lat="45.5961359" lon="12.3281755"><ele>2.0</ele><time>2026-04-28T16:18:58.778Z</time></trkpt><trkpt lat="45.596043" lon="12.3282515"><ele>2.0</ele><time>2026-04-28T16:19:00.786Z</time></trkpt><trkpt lat="45.595971" lon="12.3283352"><ele>2.0</ele><time>2026-04-28T16:19:02.775Z</time></trkpt><trkpt lat="45.5959029" lon="12.3284229"><ele>2.0</ele><time>2026-04-28T16:19:04.779Z</time></trkpt><trkpt lat="45.5958449" lon="12.3285168"><ele>2.0</ele><time>2026-04-28T16:19:06.778Z</time></trkpt><trkpt lat="45.595808" lon="12.328625"><ele>2.0</ele><time>2026-04-28T16:19:08.775Z</time></trkpt><trkpt lat="45.5957695" lon="12.3287823"><ele>1.9999999999999998</ele><time>2026-04-28T16:19:10.778Z</time></trkpt><trkpt lat="45.595744" lon="12.3288962"><ele>2.0</ele><time>2026-04-28T16:19:12.778Z</time></trkpt><trkpt lat="45.5957317" lon="12.329013"><ele>2.0</ele><time>2026-04-28T16:19:14.77Z</time></trkpt><trkpt lat="45.5957232" lon="12.3291305"><ele>2.0</ele><time>2026-04-28T16:19:16.757Z</time></trkpt><trkpt lat="45.5957146" lon="12.3292549"><ele>1.9999999999999998</ele><time>2026-04-28T16:19:18.761Z</time></trkpt><trkpt lat="45.5957082" lon="12.3294026"><ele>2.0</ele><time>2026-04-28T16:19:20.764Z</time></trkpt><trkpt lat="45.5957026" lon="12.329501"><ele>1.9999999999999998</ele><time>2026-04-28T16:19:21.782Z</time></trkpt><trkpt lat="45.5956969" lon="12.32965"><ele>2.0</ele><time>2026-04-28T16:19:23.774Z</time></trkpt><trkpt lat="45.5956906" lon="12.3297628"><ele>2.0</ele><time>2026-04-28T16:19:25.773Z</time></trkpt><trkpt lat="45.5956755" lon="12.329893"><ele>2.0</ele><time>2026-04-28T16:19:27.757Z</time></trkpt><trkpt lat="45.5956628" lon="12.3299883"><ele>1.9999999999999998</ele><time>2026-04-28T16:19:28.768Z</time></trkpt><trkpt lat="45.595649" lon="12.3301328"><ele>2.0</ele><time>2026-04-28T16:19:30.755Z</time></trkpt><trkpt lat="45.5956501" lon="12.3302659"><ele>1.9999999999999998</ele><time>2026-04-28T16:19:32.773Z</time></trkpt><trkpt lat="45.5956694" lon="12.3303974"><ele>2.0</ele><time>2026-04-28T16:19:34.761Z</time></trkpt><trkpt lat="45.5956995" lon="12.3305435"><ele>2.0</ele><time>2026-04-28T16:19:36.756Z</time></trkpt><trkpt lat="45.5957166" lon="12.3306306"><ele>2.0</ele><time>2026-04-28T16:19:37.774Z</time></trkpt><trkpt lat="45.5957361" lon="12.3307637"><ele>1.9999999999999998</ele><time>2026-04-28T16:19:39.769Z</time></trkpt><trkpt lat="45.5957628" lon="12.3308842"><ele>2.0</ele><time>2026-04-28T16:19:41.766Z</time></trkpt><trkpt lat="45.5958034" lon="12.3309983"><ele>1.8</ele><time>2026-04-28T16:19:43.771Z</time></trkpt><trkpt lat="45.5958441" lon="12.3310979"><ele>1.6</ele><time>2026-04-28T16:19:45.777Z</time></trkpt><trkpt lat="45.5958925" lon="12.3312323"><ele>1.4000000000000001</ele><time>2026-04-28T16:19:47.786Z</time></trkpt><trkpt lat="45.5959332" lon="12.3313596"><ele>1.2000000000000002</ele><time>2026-04-28T16:19:49.778Z</time></trkpt><trkpt lat="45.595962" lon="12.3314771"><ele>1.0</ele><time>2026-04-28T16:19:51.775Z</time></trkpt><trkpt lat="45.5959881" lon="12.3316094"><ele>1.3333333333333333</ele><time>2026-04-28T16:19:53.782Z</time></trkpt><trkpt lat="45.5960059" lon="12.3317071"><ele>1.6666666666666665</ele><time>2026-04-28T16:19:55.776Z</time></trkpt><trkpt lat="45.5960264" lon="12.3318332"><ele>2.0</ele><time>2026-04-28T16:19:57.77Z</time></trkpt><trkpt lat="45.5960422" lon="12.3319601"><ele>2.3333333333333335</ele><time>2026-04-28T16:19:59.774Z</time></trkpt><trkpt lat="45.5960646" lon="12.3320827"><ele>2.6666666666666665</ele><time>2026-04-28T16:20:01.77Z</time></trkpt><trkpt lat="45.5960789" lon="12.3322353"><ele>3.0</ele><time>2026-04-28T16:20:03.771Z</time></trkpt><trkpt lat="45.5960969" lon="12.3323866"><ele>3.4</ele><time>2026-04-28T16:20:05.771Z</time></trkpt><trkpt lat="45.5961219" lon="12.3325135"><ele>3.8</ele><time>2026-04-28T16:20:07.78Z</time></trkpt><trkpt lat="45.5961376" lon="12.3326523"><ele>4.2</ele><time>2026-04-28T16:20:09.791Z</time></trkpt><trkpt lat="45.5961623" lon="12.3327922"><ele>4.6</ele><time>2026-04-28T16:20:11.77Z</time></trkpt><trkpt lat="45.5962008" lon="12.3329235"><ele>5.0</ele><time>2026-04-28T16:20:13.768Z</time></trkpt><trkpt lat="45.5962482" lon="12.3330581"><ele>4.166666666666667</ele><time>2026-04-28T16:20:15.771Z</time></trkpt><trkpt lat="45.5962802" lon="12.3331531"><ele>3.3333333333333335</ele><time>2026-04-28T16:20:17.773Z</time></trkpt><trkpt lat="45.5962998" lon="12.3332565"><ele>2.5</ele><time>2026-04-28T16:20:19.788Z</time></trkpt><trkpt lat="45.5963436" lon="12.3334104"><ele>1.6666666666666667</ele><time>2026-04-28T16:20:21.776Z</time></trkpt><trkpt lat="45.5963838" lon="12.3335163"><ele>0.8333333333333334</ele><time>2026-04-28T16:20:23.765Z</time></trkpt><trkpt lat="45.5964135" lon="12.3336054"><ele>0.0</ele><time>2026-04-28T16:20:24.779Z</time></trkpt><trkpt lat="45.5964642" lon="12.3337394"><ele>0.2</ele><time>2026-04-28T16:20:26.777Z</time></trkpt><trkpt lat="45.5965251" lon="12.3338976"><ele>0.4</ele><time>2026-04-28T16:20:28.765Z</time></trkpt><trkpt lat="45.5965745" lon="12.3340202"><ele>0.6000000000000001</ele><time>2026-04-28T16:20:30.759Z</time></trkpt><trkpt lat="45.5966153" lon="12.3341261"><ele>0.8</ele><time>2026-04-28T16:20:32.765Z</time></trkpt><trkpt lat="45.5966705" lon="12.3342487"><ele>1.0</ele><time>2026-04-28T16:20:34.763Z</time></trkpt><trkpt lat="45.5967261" lon="12.3343683"><ele>1.0</ele><time>2026-04-28T16:20:36.78Z</time></trkpt><trkpt lat="45.5967902" lon="12.334503"><ele>1.0</ele><time>2026-04-28T16:20:38.761Z</time></trkpt><trkpt lat="45.5968432" lon="12.334606"><ele>1.0</ele><time>2026-04-28T16:20:40.762Z</time></trkpt><trkpt lat="45.5968865" lon="12.3347331"><ele>1.0</ele><time>2026-04-28T16:20:42.779Z</time></trkpt><trkpt lat="45.5969355" lon="12.3348611"><ele>1.0</ele><time>2026-04-28T16:20:44.771Z</time></trkpt><trkpt lat="45.5969635" lon="12.3349553"><ele>1.0</ele><time>2026-04-28T16:20:46.766Z</time></trkpt><trkpt lat="45.5970048" lon="12.3350672"><ele>1.0</ele><time>2026-04-28T16:20:48.77Z</time></trkpt><trkpt lat="45.5970474" lon="12.3351696"><ele>1.0</ele><time>2026-04-28T16:20:50.77Z</time></trkpt><trkpt lat="45.5970931" lon="12.3352942"><ele>1.0</ele><time>2026-04-28T16:20:52.763Z</time></trkpt><trkpt lat="45.5971473" lon="12.3354318"><ele>1.0</ele><time>2026-04-28T16:20:54.766Z</time></trkpt><trkpt lat="45.5971975" lon="12.3355539"><ele>1.0</ele><time>2026-04-28T16:20:56.766Z</time></trkpt><trkpt lat="45.5972402" lon="12.3356594"><ele>1.0</ele><time>2026-04-28T16:20:58.768Z</time></trkpt><trkpt lat="45.597285" lon="12.33577"><ele>1.0</ele><time>2026-04-28T16:21:00.778Z</time></trkpt><trkpt lat="45.5973275" lon="12.3358821"><ele>1.0</ele><time>2026-04-28T16:21:02.77Z</time></trkpt><trkpt lat="45.5973718" lon="12.336005"><ele>1.0</ele><time>2026-04-28T16:21:04.769Z</time></trkpt><trkpt lat="45.597414" lon="12.3361299"><ele>1.0</ele><time>2026-04-28T16:21:06.786Z</time></trkpt><trkpt lat="45.5974618" lon="12.3362621"><ele>1.0</ele><time>2026-04-28T16:21:08.782Z</time></trkpt><trkpt lat="45.5974992" lon="12.336375"><ele>1.0</ele><time>2026-04-28T16:21:10.768Z</time></trkpt><trkpt lat="45.5975419" lon="12.336492"><ele>1.0</ele><time>2026-04-28T16:21:12.77Z</time></trkpt><trkpt lat="45.5975857" lon="12.3366076"><ele>1.0</ele><time>2026-04-28T16:21:14.776Z</time></trkpt><trkpt lat="45.5976375" lon="12.3367304"><ele>1.4</ele><time>2026-04-28T16:21:16.75Z</time></trkpt><trkpt lat="45.5976829" lon="12.3368467"><ele>1.8</ele><time>2026-04-28T16:21:18.766Z</time></trkpt><trkpt lat="45.5977299" lon="12.3369886"><ele>2.1999999999999997</ele><time>2026-04-28T16:21:20.77Z</time></trkpt><trkpt lat="45.5977644" lon="12.3371108"><ele>2.6</ele><time>2026-04-28T16:21:22.77Z</time></trkpt><trkpt lat="45.5978005" lon="12.3372242"><ele>3.0</ele><time>2026-04-28T16:21:24.769Z</time></trkpt><trkpt lat="45.5978358" lon="12.3373472"><ele>3.0</ele><time>2026-04-28T16:21:26.773Z</time></trkpt><trkpt lat="45.5978737" lon="12.3374781"><ele>3.0</ele><time>2026-04-28T16:21:28.775Z</time></trkpt><trkpt lat="45.5979105" lon="12.3375784"><ele>3.0</ele><time>2026-04-28T16:21:30.771Z</time></trkpt><trkpt lat="45.5979482" lon="12.3376992"><ele>3.0</ele><time>2026-04-28T16:21:32.782Z</time></trkpt><trkpt lat="45.5979929" lon="12.337821"><ele>3.0</ele><time>2026-04-28T16:21:34.761Z</time></trkpt><trkpt lat="45.5980265" lon="12.3379469"><ele>3.0</ele><time>2026-04-28T16:21:36.767Z</time></trkpt><trkpt lat="45.5980649" lon="12.3380799"><ele>3.0</ele><time>2026-04-28T16:21:38.764Z</time></trkpt><trkpt lat="45.5981021" lon="12.3382116"><ele>3.0</ele><time>2026-04-28T16:21:40.769Z</time></trkpt><trkpt lat="45.5981413" lon="12.3383185"><ele>3.0</ele><time>2026-04-28T16:21:42.765Z</time></trkpt><trkpt lat="45.5981787" lon="12.3384384"><ele>3.0</ele><time>2026-04-28T16:21:44.77Z</time></trkpt><trkpt lat="45.5982233" lon="12.3385568"><ele>3.0</ele><time>2026-04-28T16:21:46.769Z</time></trkpt><trkpt lat="45.5982614" lon="12.338663"><ele>3.0</ele><time>2026-04-28T16:21:48.779Z</time></trkpt><trkpt lat="45.5983054" lon="12.3387762"><ele>3.0</ele><time>2026-04-28T16:21:50.77Z</time></trkpt><trkpt lat="45.5983475" lon="12.3388955"><ele>3.0</ele><time>2026-04-28T16:21:52.766Z</time></trkpt><trkpt lat="45.5983875" lon="12.3390056"><ele>3.0</ele><time>2026-04-28T16:21:54.767Z</time></trkpt><trkpt lat="45.5984206" lon="12.3391291"><ele>3.0</ele><time>2026-04-28T16:21:56.77Z</time></trkpt><trkpt lat="45.5984628" lon="12.3392499"><ele>2.8</ele><time>2026-04-28T16:21:58.778Z</time></trkpt><trkpt lat="45.598512" lon="12.3393743"><ele>2.5999999999999996</ele><time>2026-04-28T16:22:00.783Z</time></trkpt><trkpt lat="45.5985624" lon="12.339503"><ele>2.4000000000000004</ele><time>2026-04-28T16:22:02.804Z</time></trkpt><trkpt lat="45.5986121" lon="12.3396331"><ele>2.2</ele><time>2026-04-28T16:22:04.773Z</time></trkpt><trkpt lat="45.5986507" lon="12.3397733"><ele>2.0</ele><time>2026-04-28T16:22:06.774Z</time></trkpt><trkpt lat="45.5986956" lon="12.3399149"><ele>2.0</ele><time>2026-04-28T16:22:08.767Z</time></trkpt><trkpt lat="45.598737" lon="12.3400404"><ele>2.0</ele><time>2026-04-28T16:22:10.765Z</time></trkpt><trkpt lat="45.5987801" lon="12.3401572"><ele>2.0</ele><time>2026-04-28T16:22:12.778Z</time></trkpt><trkpt lat="45.5988161" lon="12.3402526"><ele>2.0</ele><time>2026-04-28T16:22:14.769Z</time></trkpt><trkpt lat="45.5988694" lon="12.3403983"><ele>2.0</ele><time>2026-04-28T16:22:16.774Z</time></trkpt><trkpt lat="45.5989137" lon="12.340507"><ele>1.8</ele><time>2026-04-28T16:22:18.773Z</time></trkpt><trkpt lat="45.5989621" lon="12.3406167"><ele>1.6</ele><time>2026-04-28T16:22:20.789Z</time></trkpt><trkpt lat="45.5990342" lon="12.3407749"><ele>1.4000000000000001</ele><time>2026-04-28T16:22:23.789Z</time></trkpt><trkpt lat="45.5990754" lon="12.3408871"><ele>1.2000000000000002</ele><time>2026-04-28T16:22:25.773Z</time></trkpt><trkpt lat="45.5991047" lon="12.3410136"><ele>1.0</ele><time>2026-04-28T16:22:27.773Z</time></trkpt><trkpt lat="45.5991382" lon="12.3411636"><ele>1.0</ele><time>2026-04-28T16:22:29.775Z</time></trkpt><trkpt lat="45.5991524" lon="12.3413096"><ele>1.0</ele><time>2026-04-28T16:22:31.765Z</time></trkpt><trkpt lat="45.5991466" lon="12.3414096"><ele>1.0</ele><time>2026-04-28T16:22:33.777Z</time></trkpt><trkpt lat="45.5991195" lon="12.3415385"><ele>1.0</ele><time>2026-04-28T16:22:35.789Z</time></trkpt><trkpt lat="45.5990749" lon="12.3416775"><ele>1.0</ele><time>2026-04-28T16:22:37.781Z</time></trkpt><trkpt lat="45.5990168" lon="12.3417919"><ele>1.0</ele><time>2026-04-28T16:22:39.788Z</time></trkpt><trkpt lat="45.5989418" lon="12.3418795"><ele>1.0</ele><time>2026-04-28T16:22:41.786Z</time></trkpt><trkpt lat="45.598866" lon="12.3419723"><ele>1.0</ele><time>2026-04-28T16:22:43.773Z</time></trkpt><trkpt lat="45.5987889" lon="12.3420406"><ele>1.0</ele><time>2026-04-28T16:22:45.803Z</time></trkpt><trkpt lat="45.598701" lon="12.3421092"><ele>1.0</ele><time>2026-04-28T16:22:47.787Z</time></trkpt><trkpt lat="45.5986292" lon="12.3421486"><ele>1.0</ele><time>2026-04-28T16:22:49.789Z</time></trkpt><trkpt lat="45.5985492" lon="12.3421823"><ele>1.0</ele><time>2026-04-28T16:22:51.799Z</time></trkpt><trkpt lat="45.5984713" lon="12.3422015"><ele>1.0</ele><time>2026-04-28T16:22:53.774Z</time></trkpt><trkpt lat="45.5983691" lon="12.3422153"><ele>1.0</ele><time>2026-04-28T16:22:55.794Z</time></trkpt><trkpt lat="45.5982813" lon="12.3422319"><ele>1.0</ele><time>2026-04-28T16:22:57.786Z</time></trkpt><trkpt lat="45.5981788" lon="12.3422365"><ele>0.8</ele><time>2026-04-28T16:22:59.783Z</time></trkpt><trkpt lat="45.5980931" lon="12.3422385"><ele>0.6000000000000001</ele><time>2026-04-28T16:23:01.779Z</time></trkpt><trkpt lat="45.5979911" lon="12.3422336"><ele>0.4</ele><time>2026-04-28T16:23:03.775Z</time></trkpt><trkpt lat="45.5978993" lon="12.3422325"><ele>0.2</ele><time>2026-04-28T16:23:05.783Z</time></trkpt><trkpt lat="45.5978008" lon="12.3422264"><ele>0.0</ele><time>2026-04-28T16:23:07.785Z</time></trkpt><trkpt lat="45.5977051" lon="12.3422176"><ele>0.2</ele><time>2026-04-28T16:23:09.781Z</time></trkpt><trkpt lat="45.59762" lon="12.3422035"><ele>0.4</ele><time>2026-04-28T16:23:11.769Z</time></trkpt><trkpt lat="45.5975159" lon="12.3421931"><ele>0.6000000000000001</ele><time>2026-04-28T16:23:13.778Z</time></trkpt><trkpt lat="45.5974173" lon="12.342209"><ele>0.8</ele><time>2026-04-28T16:23:15.785Z</time></trkpt><trkpt lat="45.597326" lon="12.3422253"><ele>1.0</ele><time>2026-04-28T16:23:17.773Z</time></trkpt><trkpt lat="45.5972078" lon="12.3422516"><ele>1.2000000000000002</ele><time>2026-04-28T16:23:19.77Z</time></trkpt><trkpt lat="45.5971137" lon="12.3422806"><ele>1.4000000000000001</ele><time>2026-04-28T16:23:21.774Z</time></trkpt><trkpt lat="45.5970153" lon="12.3423087"><ele>1.6</ele><time>2026-04-28T16:23:23.782Z</time></trkpt><trkpt lat="45.5969093" lon="12.3423524"><ele>1.8</ele><time>2026-04-28T16:23:25.78Z</time></trkpt><trkpt lat="45.5968205" lon="12.342429"><ele>2.0</ele><time>2026-04-28T16:23:27.785Z</time></trkpt><trkpt lat="45.5967675" lon="12.3424797"><ele>1.6</ele><time>2026-04-28T16:23:28.768Z</time></trkpt><trkpt lat="45.5966855" lon="12.3425583"><ele>1.2000000000000002</ele><time>2026-04-28T16:23:30.768Z</time></trkpt><trkpt lat="45.5966264" lon="12.3426281"><ele>0.8</ele><time>2026-04-28T16:23:32.777Z</time></trkpt><trkpt lat="45.5965501" lon="12.3427113"><ele>0.4</ele><time>2026-04-28T16:23:34.767Z</time></trkpt><trkpt lat="45.5964699" lon="12.3428081"><ele>0.0</ele><time>2026-04-28T16:23:36.782Z</time></trkpt><trkpt lat="45.5963941" lon="12.3428916"><ele>0.0</ele><time>2026-04-28T16:23:38.765Z</time></trkpt><trkpt lat="45.5963194" lon="12.3429599"><ele>0.0</ele><time>2026-04-28T16:23:40.768Z</time></trkpt><trkpt lat="45.5962303" lon="12.343026"><ele>0.0</ele><time>2026-04-28T16:23:42.795Z</time></trkpt><trkpt lat="45.5961466" lon="12.3430922"><ele>0.0</ele><time>2026-04-28T16:23:44.766Z</time></trkpt><trkpt lat="45.5960637" lon="12.3431661"><ele>0.0</ele><time>2026-04-28T16:23:46.762Z</time></trkpt><trkpt lat="45.5959884" lon="12.3432353"><ele>0.4</ele><time>2026-04-28T16:23:48.783Z</time></trkpt><trkpt lat="45.595918" lon="12.3433034"><ele>0.8</ele><time>2026-04-28T16:23:50.764Z</time></trkpt><trkpt lat="45.5958321" lon="12.3433783"><ele>1.2000000000000002</ele><time>2026-04-28T16:23:52.769Z</time></trkpt><trkpt lat="45.5957412" lon="12.343464"><ele>1.6</ele><time>2026-04-28T16:23:54.786Z</time></trkpt><trkpt lat="45.5956488" lon="12.3435529"><ele>2.0</ele><time>2026-04-28T16:23:56.762Z</time></trkpt><trkpt lat="45.5955577" lon="12.3436129"><ele>2.0</ele><time>2026-04-28T16:23:58.769Z</time></trkpt><trkpt lat="45.5954847" lon="12.3436476"><ele>2.0</ele><time>2026-04-28T16:24:00.779Z</time></trkpt><trkpt lat="45.5953992" lon="12.3436822"><ele>2.0</ele><time>2026-04-28T16:24:02.776Z</time></trkpt><trkpt lat="45.5952933" lon="12.3437101"><ele>2.0</ele><time>2026-04-28T16:24:04.769Z</time></trkpt><trkpt lat="45.5951956" lon="12.3437216"><ele>2.0</ele><time>2026-04-28T16:24:06.771Z</time></trkpt><trkpt lat="45.5950967" lon="12.3437244"><ele>2.2</ele><time>2026-04-28T16:24:08.777Z</time></trkpt><trkpt lat="45.5949914" lon="12.3437157"><ele>2.4000000000000004</ele><time>2026-04-28T16:24:10.773Z</time></trkpt><trkpt lat="45.5948895" lon="12.3436934"><ele>2.5999999999999996</ele><time>2026-04-28T16:24:12.768Z</time></trkpt><trkpt lat="45.5947988" lon="12.3436585"><ele>2.8</ele><time>2026-04-28T16:24:14.785Z</time></trkpt><trkpt lat="45.5947048" lon="12.3436072"><ele>3.0</ele><time>2026-04-28T16:24:16.766Z</time></trkpt><trkpt lat="45.5946138" lon="12.3435457"><ele>3.0</ele><time>2026-04-28T16:24:18.781Z</time></trkpt><trkpt lat="45.5945298" lon="12.343467"><ele>3.0</ele><time>2026-04-28T16:24:20.791Z</time></trkpt><trkpt lat="45.594454" lon="12.3433637"><ele>3.0</ele><time>2026-04-28T16:24:22.784Z</time></trkpt><trkpt lat="45.5943889" lon="12.3432575"><ele>3.0</ele><time>2026-04-28T16:24:24.776Z</time></trkpt><trkpt lat="45.5943249" lon="12.3431414"><ele>3.0</ele><time>2026-04-28T16:24:26.784Z</time></trkpt><trkpt lat="45.5942671" lon="12.3430261"><ele>3.2</ele><time>2026-04-28T16:24:28.77Z</time></trkpt><trkpt lat="45.5942092" lon="12.3429095"><ele>3.4</ele><time>2026-04-28T16:24:30.774Z</time></trkpt><trkpt lat="45.5941525" lon="12.3427896"><ele>3.6000000000000005</ele><time>2026-04-28T16:24:32.77Z</time></trkpt><trkpt lat="45.5940985" lon="12.3426727"><ele>3.8000000000000003</ele><time>2026-04-28T16:24:34.768Z</time></trkpt><trkpt lat="45.5940365" lon="12.3425594"><ele>4.0</ele><time>2026-04-28T16:24:36.778Z</time></trkpt><trkpt lat="45.5939719" lon="12.3424544"><ele>4.0</ele><time>2026-04-28T16:24:38.767Z</time></trkpt><trkpt lat="45.593903" lon="12.3423579"><ele>4.0</ele><time>2026-04-28T16:24:40.767Z</time></trkpt><trkpt lat="45.5938247" lon="12.3422552"><ele>4.0</ele><time>2026-04-28T16:24:42.77Z</time></trkpt><trkpt lat="45.5937485" lon="12.3421665"><ele>4.0</ele><time>2026-04-28T16:24:44.774Z</time></trkpt><trkpt lat="45.5936714" lon="12.3420768"><ele>4.0</ele><time>2026-04-28T16:24:46.767Z</time></trkpt><trkpt lat="45.5935953" lon="12.3419833"><ele>3.4000000000000004</ele><time>2026-04-28T16:24:48.786Z</time></trkpt><trkpt lat="45.5935101" lon="12.3418918"><ele>2.8000000000000003</ele><time>2026-04-28T16:24:50.762Z</time></trkpt><trkpt lat="45.5934313" lon="12.341803"><ele>2.2</ele><time>2026-04-28T16:24:52.764Z</time></trkpt><trkpt lat="45.5933504" lon="12.3417147"><ele>1.6</ele><time>2026-04-28T16:24:54.763Z</time></trkpt><trkpt lat="45.5932769" lon="12.3416355"><ele>1.0</ele><time>2026-04-28T16:24:56.767Z</time></trkpt><trkpt lat="45.593206" lon="12.3415764"><ele>1.0</ele><time>2026-04-28T16:24:58.774Z</time></trkpt><trkpt lat="45.5931056" lon="12.3415535"><ele>1.0</ele><time>2026-04-28T16:25:00.771Z</time></trkpt><trkpt lat="45.5930032" lon="12.341593"><ele>1.0</ele><time>2026-04-28T16:25:02.771Z</time></trkpt><trkpt lat="45.5929017" lon="12.3416428"><ele>1.0</ele><time>2026-04-28T16:25:04.776Z</time></trkpt><trkpt lat="45.5927979" lon="12.3417069"><ele>1.0</ele><time>2026-04-28T16:25:06.778Z</time></trkpt><trkpt lat="45.5927" lon="12.3417811"><ele>1.0</ele><time>2026-04-28T16:25:08.766Z</time></trkpt><trkpt lat="45.5926039" lon="12.3418725"><ele>1.0</ele><time>2026-04-28T16:25:10.777Z</time></trkpt><trkpt lat="45.5925172" lon="12.3419676"><ele>1.0</ele><time>2026-04-28T16:25:12.767Z</time></trkpt><trkpt lat="45.5924473" lon="12.3420528"><ele>1.0</ele><time>2026-04-28T16:25:14.772Z</time></trkpt><trkpt lat="45.5923801" lon="12.3421457"><ele>1.0</ele><time>2026-04-28T16:25:16.764Z</time></trkpt><trkpt lat="45.5923124" lon="12.342238"><ele>1.0</ele><time>2026-04-28T16:25:18.771Z</time></trkpt><trkpt lat="45.5922397" lon="12.3423365"><ele>1.0</ele><time>2026-04-28T16:25:20.765Z</time></trkpt><trkpt lat="45.5921543" lon="12.3424498"><ele>1.0</ele><time>2026-04-28T16:25:22.766Z</time></trkpt><trkpt lat="45.5921092" lon="12.3425132"><ele>1.0</ele><time>2026-04-28T16:25:23.77Z</time></trkpt><trkpt lat="45.5920337" lon="12.3426245"><ele>1.0</ele><time>2026-04-28T16:25:25.784Z</time></trkpt><trkpt lat="45.5919727" lon="12.342729"><ele>1.1666666666666665</ele><time>2026-04-28T16:25:27.766Z</time></trkpt><trkpt lat="45.5919213" lon="12.3428256"><ele>1.3333333333333333</ele><time>2026-04-28T16:25:29.765Z</time></trkpt><trkpt lat="45.5918807" lon="12.3429564"><ele>1.5</ele><time>2026-04-28T16:25:31.777Z</time></trkpt><trkpt lat="45.5918585" lon="12.3430659"><ele>1.6666666666666665</ele><time>2026-04-28T16:25:33.77Z</time></trkpt><trkpt lat="45.5918476" lon="12.3431929"><ele>1.8333333333333333</ele><time>2026-04-28T16:25:35.79Z</time></trkpt><trkpt lat="45.5918624" lon="12.3433157"><ele>2.0</ele><time>2026-04-28T16:25:37.785Z</time></trkpt><trkpt lat="45.5918761" lon="12.3434246"><ele>1.9999999999999998</ele><time>2026-04-28T16:25:39.793Z</time></trkpt><trkpt lat="45.5918992" lon="12.3435417"><ele>2.0</ele><time>2026-04-28T16:25:41.797Z</time></trkpt><trkpt lat="45.5919333" lon="12.3436605"><ele>2.0</ele><time>2026-04-28T16:25:43.779Z</time></trkpt><trkpt lat="45.5919773" lon="12.3437676"><ele>2.0</ele><time>2026-04-28T16:25:45.778Z</time></trkpt><trkpt lat="45.5920269" lon="12.3438685"><ele>1.9999999999999998</ele><time>2026-04-28T16:25:47.791Z</time></trkpt><trkpt lat="45.5920828" lon="12.3439716"><ele>2.0</ele><time>2026-04-28T16:25:49.775Z</time></trkpt><trkpt lat="45.5921452" lon="12.3441036"><ele>1.9999999999999998</ele><time>2026-04-28T16:25:51.76Z</time></trkpt><trkpt lat="45.5922052" lon="12.34422"><ele>2.0</ele><time>2026-04-28T16:25:53.769Z</time></trkpt><trkpt lat="45.5922478" lon="12.3442889"><ele>2.0</ele><time>2026-04-28T16:25:54.769Z</time></trkpt><trkpt lat="45.592289" lon="12.3443611"><ele>2.0</ele><time>2026-04-28T16:25:55.78Z</time></trkpt><trkpt lat="45.5923543" lon="12.3444861"><ele>1.9999999999999998</ele><time>2026-04-28T16:25:57.772Z</time></trkpt><trkpt lat="45.592414" lon="12.3446052"><ele>2.0</ele><time>2026-04-28T16:25:59.768Z</time></trkpt><trkpt lat="45.5924709" lon="12.3447204"><ele>2.2</ele><time>2026-04-28T16:26:01.775Z</time></trkpt><trkpt lat="45.5925353" lon="12.3448517"><ele>2.4000000000000004</ele><time>2026-04-28T16:26:03.769Z</time></trkpt><trkpt lat="45.5926028" lon="12.3449826"><ele>2.5999999999999996</ele><time>2026-04-28T16:26:05.791Z</time></trkpt><trkpt lat="45.5926622" lon="12.3451006"><ele>2.8</ele><time>2026-04-28T16:26:07.779Z</time></trkpt><trkpt lat="45.592721" lon="12.3452184"><ele>3.0</ele><time>2026-04-28T16:26:09.775Z</time></trkpt><trkpt lat="45.5927906" lon="12.3453383"><ele>3.0</ele><time>2026-04-28T16:26:11.792Z</time></trkpt><trkpt lat="45.5928552" lon="12.3454647"><ele>3.0</ele><time>2026-04-28T16:26:13.78Z</time></trkpt><trkpt lat="45.5929151" lon="12.3455832"><ele>3.0</ele><time>2026-04-28T16:26:15.782Z</time></trkpt><trkpt lat="45.5929769" lon="12.3457105"><ele>3.0</ele><time>2026-04-28T16:26:17.789Z</time></trkpt><trkpt lat="45.5930305" lon="12.3458643"><ele>3.0</ele><time>2026-04-28T16:26:19.791Z</time></trkpt><trkpt lat="45.5930491" lon="12.3459941"><ele>3.0</ele><time>2026-04-28T16:26:21.775Z</time></trkpt><trkpt lat="45.5930551" lon="12.3461327"><ele>3.0</ele><time>2026-04-28T16:26:23.775Z</time></trkpt><trkpt lat="45.5930564" lon="12.3462689"><ele>3.0</ele><time>2026-04-28T16:26:25.775Z</time></trkpt><trkpt lat="45.5930597" lon="12.3464364"><ele>3.0</ele><time>2026-04-28T16:26:27.78Z</time></trkpt><trkpt lat="45.5930717" lon="12.3466007"><ele>3.0</ele><time>2026-04-28T16:26:29.787Z</time></trkpt><trkpt lat="45.5930867" lon="12.3467479"><ele>2.8</ele><time>2026-04-28T16:26:31.78Z</time></trkpt><trkpt lat="45.5930999" lon="12.3468901"><ele>2.5999999999999996</ele><time>2026-04-28T16:26:33.789Z</time></trkpt><trkpt lat="45.5931116" lon="12.3470462"><ele>2.4000000000000004</ele><time>2026-04-28T16:26:35.773Z</time></trkpt><trkpt lat="45.5931083" lon="12.347201"><ele>2.2</ele><time>2026-04-28T16:26:37.774Z</time></trkpt><trkpt lat="45.5931064" lon="12.3473397"><ele>2.0</ele><time>2026-04-28T16:26:39.796Z</time></trkpt><trkpt lat="45.5931031" lon="12.3474859"><ele>1.8</ele><time>2026-04-28T16:26:41.789Z</time></trkpt><trkpt lat="45.5931141" lon="12.3476407"><ele>1.6</ele><time>2026-04-28T16:26:43.796Z</time></trkpt><trkpt lat="45.5931209" lon="12.3477307"><ele>1.4000000000000001</ele><time>2026-04-28T16:26:44.776Z</time></trkpt><trkpt lat="45.5931254" lon="12.3478785"><ele>1.2000000000000002</ele><time>2026-04-28T16:26:46.784Z</time></trkpt><trkpt lat="45.593136" lon="12.348033"><ele>1.0</ele><time>2026-04-28T16:26:48.771Z</time></trkpt><trkpt lat="45.5931589" lon="12.3481821"><ele>1.4</ele><time>2026-04-28T16:26:50.78Z</time></trkpt><trkpt lat="45.5931864" lon="12.3483229"><ele>1.8</ele><time>2026-04-28T16:26:52.78Z</time></trkpt><trkpt lat="45.5932368" lon="12.3484717"><ele>2.1999999999999997</ele><time>2026-04-28T16:26:54.769Z</time></trkpt><trkpt lat="45.593288" lon="12.3486251"><ele>2.6</ele><time>2026-04-28T16:26:56.778Z</time></trkpt><trkpt lat="45.5933321" lon="12.3487606"><ele>3.0</ele><time>2026-04-28T16:26:58.771Z</time></trkpt><trkpt lat="45.5933799" lon="12.3489004"><ele>3.2</ele><time>2026-04-28T16:27:00.786Z</time></trkpt><trkpt lat="45.5934267" lon="12.349047"><ele>3.4</ele><time>2026-04-28T16:27:02.786Z</time></trkpt><trkpt lat="45.5934528" lon="12.3491871"><ele>3.6000000000000005</ele><time>2026-04-28T16:27:04.777Z</time></trkpt><trkpt lat="45.5934386" lon="12.3493293"><ele>3.8000000000000003</ele><time>2026-04-28T16:27:06.77Z</time></trkpt><trkpt lat="45.5934159" lon="12.3494742"><ele>4.0</ele><time>2026-04-28T16:27:08.792Z</time></trkpt><trkpt lat="45.5933959" lon="12.3496177"><ele>4.0</ele><time>2026-04-28T16:27:10.772Z</time></trkpt><trkpt lat="45.5933539" lon="12.3497485"><ele>4.0</ele><time>2026-04-28T16:27:12.769Z</time></trkpt><trkpt lat="45.5933038" lon="12.3498653"><ele>4.0</ele><time>2026-04-28T16:27:14.766Z</time></trkpt><trkpt lat="45.5932321" lon="12.3499716"><ele>4.0</ele><time>2026-04-28T16:27:16.773Z</time></trkpt><trkpt lat="45.5931443" lon="12.3500487"><ele>4.0</ele><time>2026-04-28T16:27:18.774Z</time></trkpt><trkpt lat="45.5930705" lon="12.3501214"><ele>4.0</ele><time>2026-04-28T16:27:20.778Z</time></trkpt><trkpt lat="45.592986" lon="12.3501907"><ele>4.0</ele><time>2026-04-28T16:27:22.782Z</time></trkpt><trkpt lat="45.5929098" lon="12.350265"><ele>4.0</ele><time>2026-04-28T16:27:24.795Z</time></trkpt><trkpt lat="45.5928234" lon="12.3503323"><ele>4.0</ele><time>2026-04-28T16:27:26.771Z</time></trkpt><trkpt lat="45.5927417" lon="12.350402"><ele>4.0</ele><time>2026-04-28T16:27:28.769Z</time></trkpt><trkpt lat="45.5926498" lon="12.3504811"><ele>3.4000000000000004</ele><time>2026-04-28T16:27:30.775Z</time></trkpt><trkpt lat="45.5925591" lon="12.3505549"><ele>2.8000000000000003</ele><time>2026-04-28T16:27:32.774Z</time></trkpt><trkpt lat="45.5924646" lon="12.3506328"><ele>2.2</ele><time>2026-04-28T16:27:34.79Z</time></trkpt><trkpt lat="45.5923698" lon="12.3507108"><ele>1.6</ele><time>2026-04-28T16:27:36.784Z</time></trkpt><trkpt lat="45.5922827" lon="12.3507751"><ele>1.0</ele><time>2026-04-28T16:27:38.769Z</time></trkpt><trkpt lat="45.5921915" lon="12.3508444"><ele>1.0</ele><time>2026-04-28T16:27:40.788Z</time></trkpt><trkpt lat="45.592097" lon="12.350905"><ele>1.0</ele><time>2026-04-28T16:27:42.784Z</time></trkpt><trkpt lat="45.5920077" lon="12.3509643"><ele>1.0</ele><time>2026-04-28T16:27:44.77Z</time></trkpt><trkpt lat="45.5919278" lon="12.3510102"><ele>1.0</ele><time>2026-04-28T16:27:46.774Z</time></trkpt><trkpt lat="45.5918313" lon="12.351055"><ele>1.0</ele><time>2026-04-28T16:27:48.787Z</time></trkpt><trkpt lat="45.5917351" lon="12.3511017"><ele>1.2000000000000002</ele><time>2026-04-28T16:27:50.777Z</time></trkpt><trkpt lat="45.5916326" lon="12.351151"><ele>1.4000000000000001</ele><time>2026-04-28T16:27:52.768Z</time></trkpt><trkpt lat="45.5915451" lon="12.3511918"><ele>1.6</ele><time>2026-04-28T16:27:54.786Z</time></trkpt><trkpt lat="45.5914611" lon="12.3512297"><ele>1.8</ele><time>2026-04-28T16:27:56.775Z</time></trkpt><trkpt lat="45.5913638" lon="12.3512645"><ele>2.0</ele><time>2026-04-28T16:27:58.776Z</time></trkpt><trkpt lat="45.5912657" lon="12.3512984"><ele>1.9999999999999998</ele><time>2026-04-28T16:28:00.789Z</time></trkpt><trkpt lat="45.5911872" lon="12.3513365"><ele>2.0</ele><time>2026-04-28T16:28:02.8Z</time></trkpt><trkpt lat="45.5911123" lon="12.351361"><ele>2.0</ele><time>2026-04-28T16:28:04.779Z</time></trkpt><trkpt lat="45.5910236" lon="12.3513916"><ele>2.0</ele><time>2026-04-28T16:28:06.768Z</time></trkpt><trkpt lat="45.5909204" lon="12.3514265"><ele>1.9999999999999998</ele><time>2026-04-28T16:28:08.779Z</time></trkpt><trkpt lat="45.5908317" lon="12.3514395"><ele>2.0</ele><time>2026-04-28T16:28:10.782Z</time></trkpt><trkpt lat="45.5907434" lon="12.3514646"><ele>2.0</ele><time>2026-04-28T16:28:12.774Z</time></trkpt><trkpt lat="45.5906433" lon="12.3514677"><ele>2.0</ele><time>2026-04-28T16:28:14.775Z</time></trkpt><trkpt lat="45.5905481" lon="12.3514652"><ele>2.0</ele><time>2026-04-28T16:28:16.771Z</time></trkpt><trkpt lat="45.5904469" lon="12.3514406"><ele>2.0</ele><time>2026-04-28T16:28:18.778Z</time></trkpt><trkpt lat="45.5903401" lon="12.3513923"><ele>2.0</ele><time>2026-04-28T16:28:20.77Z</time></trkpt><trkpt lat="45.5902676" lon="12.3513539"><ele>2.0</ele><time>2026-04-28T16:28:21.779Z</time></trkpt><trkpt lat="45.5901804" lon="12.3513202"><ele>2.0</ele><time>2026-04-28T16:28:23.777Z</time></trkpt><trkpt lat="45.5900912" lon="12.3512974"><ele>2.0</ele><time>2026-04-28T16:28:25.774Z</time></trkpt><trkpt lat="45.5899957" lon="12.3512759"><ele>2.0</ele><time>2026-04-28T16:28:27.796Z</time></trkpt><trkpt lat="45.5898906" lon="12.3512498"><ele>2.0</ele><time>2026-04-28T16:28:29.803Z</time></trkpt><trkpt lat="45.589783" lon="12.3512321"><ele>2.0</ele><time>2026-04-28T16:28:31.778Z</time></trkpt><trkpt lat="45.58968" lon="12.3512274"><ele>2.0</ele><time>2026-04-28T16:28:33.775Z</time></trkpt><trkpt lat="45.5895936" lon="12.3512571"><ele>2.0</ele><time>2026-04-28T16:28:35.767Z</time></trkpt><trkpt lat="45.5895105" lon="12.3513201"><ele>2.0</ele><time>2026-04-28T16:28:37.777Z</time></trkpt><trkpt lat="45.5894182" lon="12.3513637"><ele>2.0</ele><time>2026-04-28T16:28:39.768Z</time></trkpt><trkpt lat="45.5893166" lon="12.3514226"><ele>2.2</ele><time>2026-04-28T16:28:41.79Z</time></trkpt><trkpt lat="45.5892578" lon="12.3514688"><ele>2.4000000000000004</ele><time>2026-04-28T16:28:42.769Z</time></trkpt><trkpt lat="45.5891997" lon="12.3515071"><ele>2.5999999999999996</ele><time>2026-04-28T16:28:43.78Z</time></trkpt><trkpt lat="45.5890931" lon="12.3515829"><ele>2.8</ele><time>2026-04-28T16:28:45.78Z</time></trkpt><trkpt lat="45.5889895" lon="12.3516506"><ele>3.0</ele><time>2026-04-28T16:28:47.776Z</time></trkpt><trkpt lat="45.5888954" lon="12.3517056"><ele>3.0</ele><time>2026-04-28T16:28:49.764Z</time></trkpt><trkpt lat="45.5888041" lon="12.3517724"><ele>3.0</ele><time>2026-04-28T16:28:51.791Z</time></trkpt><trkpt lat="45.5887072" lon="12.3518427"><ele>3.0</ele><time>2026-04-28T16:28:53.775Z</time></trkpt><trkpt lat="45.5886263" lon="12.3518906"><ele>3.0</ele><time>2026-04-28T16:28:55.8Z</time></trkpt><trkpt lat="45.5885389" lon="12.3519463"><ele>3.0</ele><time>2026-04-28T16:28:57.783Z</time></trkpt><trkpt lat="45.5884354" lon="12.3520361"><ele>2.75</ele><time>2026-04-28T16:28:59.777Z</time></trkpt><trkpt lat="45.5883345" lon="12.3521595"><ele>2.5</ele><time>2026-04-28T16:29:01.787Z</time></trkpt><trkpt lat="45.5882866" lon="12.3523145"><ele>2.25</ele><time>2026-04-28T16:29:03.777Z</time></trkpt><trkpt lat="45.5882951" lon="12.3524543"><ele>2.0</ele><time>2026-04-28T16:29:05.769Z</time></trkpt><trkpt lat="45.5883183" lon="12.3525994"><ele>2.0</ele><time>2026-04-28T16:29:07.769Z</time></trkpt><trkpt lat="45.5883602" lon="12.3527294"><ele>2.0</ele><time>2026-04-28T16:29:09.765Z</time></trkpt><trkpt lat="45.5884059" lon="12.3528732"><ele>2.0</ele><time>2026-04-28T16:29:11.772Z</time></trkpt><trkpt lat="45.5884492" lon="12.353014"><ele>2.0</ele><time>2026-04-28T16:29:13.784Z</time></trkpt><trkpt lat="45.5884865" lon="12.3531418"><ele>2.0</ele><time>2026-04-28T16:29:15.778Z</time></trkpt><trkpt lat="45.5885198" lon="12.3532702"><ele>2.0</ele><time>2026-04-28T16:29:17.794Z</time></trkpt><trkpt lat="45.5885558" lon="12.3534124"><ele>2.0</ele><time>2026-04-28T16:29:19.773Z</time></trkpt><trkpt lat="45.5885983" lon="12.3535618"><ele>2.0</ele><time>2026-04-28T16:29:21.784Z</time></trkpt><trkpt lat="45.5886382" lon="12.3536999"><ele>2.0</ele><time>2026-04-28T16:29:23.765Z</time></trkpt><trkpt lat="45.588684" lon="12.3538513"><ele>2.0</ele><time>2026-04-28T16:29:25.772Z</time></trkpt><trkpt lat="45.5887341" lon="12.3539826"><ele>2.0</ele><time>2026-04-28T16:29:27.764Z</time></trkpt><trkpt lat="45.5887683" lon="12.3540662"><ele>2.0</ele><time>2026-04-28T16:29:28.775Z</time></trkpt><trkpt lat="45.5888249" lon="12.3541922"><ele>2.0</ele><time>2026-04-28T16:29:30.757Z</time></trkpt><trkpt lat="45.5888881" lon="12.3543048"><ele>2.0</ele><time>2026-04-28T16:29:32.799Z</time></trkpt><trkpt lat="45.5889524" lon="12.3544226"><ele>2.0</ele><time>2026-04-28T16:29:34.773Z</time></trkpt><trkpt lat="45.589026" lon="12.3545314"><ele>2.0</ele><time>2026-04-28T16:29:36.789Z</time></trkpt><trkpt lat="45.5890916" lon="12.3546227"><ele>2.0</ele><time>2026-04-28T16:29:38.769Z</time></trkpt><trkpt lat="45.589162" lon="12.3546989"><ele>2.0</ele><time>2026-04-28T16:29:40.773Z</time></trkpt><trkpt lat="45.5892357" lon="12.3547701"><ele>2.0</ele><time>2026-04-28T16:29:42.77Z</time></trkpt><trkpt lat="45.5893277" lon="12.3548464"><ele>2.0</ele><time>2026-04-28T16:29:44.771Z</time></trkpt><trkpt lat="45.5894214" lon="12.3549134"><ele>2.0</ele><time>2026-04-28T16:29:46.767Z</time></trkpt><trkpt lat="45.5895185" lon="12.3549758"><ele>2.0</ele><time>2026-04-28T16:29:48.772Z</time></trkpt><trkpt lat="45.5896176" lon="12.3550374"><ele>2.0</ele><time>2026-04-28T16:29:50.765Z</time></trkpt><trkpt lat="45.5897045" lon="12.3550861"><ele>2.0</ele><time>2026-04-28T16:29:52.775Z</time></trkpt><trkpt lat="45.589787" lon="12.3551442"><ele>2.0</ele><time>2026-04-28T16:29:54.773Z</time></trkpt><trkpt lat="45.5898793" lon="12.3552067"><ele>2.0</ele><time>2026-04-28T16:29:56.773Z</time></trkpt><trkpt lat="45.5899722" lon="12.355269"><ele>2.0</ele><time>2026-04-28T16:29:58.766Z</time></trkpt><trkpt lat="45.5900708" lon="12.3553413"><ele>2.0</ele><time>2026-04-28T16:30:00.771Z</time></trkpt><trkpt lat="45.5901775" lon="12.3554145"><ele>2.0</ele><time>2026-04-28T16:30:02.78Z</time></trkpt><trkpt lat="45.5902759" lon="12.3554839"><ele>2.0</ele><time>2026-04-28T16:30:04.768Z</time></trkpt><trkpt lat="45.590372" lon="12.3555519"><ele>1.8</ele><time>2026-04-28T16:30:06.791Z</time></trkpt><trkpt lat="45.590477" lon="12.3556043"><ele>1.6</ele><time>2026-04-28T16:30:08.781Z</time></trkpt><trkpt lat="45.5905757" lon="12.355669"><ele>1.4000000000000001</ele><time>2026-04-28T16:30:10.766Z</time></trkpt><trkpt lat="45.590658" lon="12.3557373"><ele>1.2000000000000002</ele><time>2026-04-28T16:30:12.758Z</time></trkpt><trkpt lat="45.5907325" lon="12.3558054"><ele>1.0</ele><time>2026-04-28T16:30:14.771Z</time></trkpt><trkpt lat="45.5908209" lon="12.3558933"><ele>1.0</ele><time>2026-04-28T16:30:16.769Z</time></trkpt><trkpt lat="45.5908983" lon="12.3560102"><ele>1.0</ele><time>2026-04-28T16:30:18.77Z</time></trkpt><trkpt lat="45.5909405" lon="12.3560917"><ele>1.0</ele><time>2026-04-28T16:30:19.778Z</time></trkpt><trkpt lat="45.5909977" lon="12.3562199"><ele>1.0</ele><time>2026-04-28T16:30:21.777Z</time></trkpt><trkpt lat="45.5910441" lon="12.3563605"><ele>1.0</ele><time>2026-04-28T16:30:23.766Z</time></trkpt><trkpt lat="45.5910631" lon="12.356528"><ele>1.2000000000000002</ele><time>2026-04-28T16:30:25.768Z</time></trkpt><trkpt lat="45.5910636" lon="12.3566775"><ele>1.4000000000000001</ele><time>2026-04-28T16:30:27.77Z</time></trkpt><trkpt lat="45.5910594" lon="12.3568325"><ele>1.6</ele><time>2026-04-28T16:30:29.771Z</time></trkpt><trkpt lat="45.5910648" lon="12.3569947"><ele>1.8</ele><time>2026-04-28T16:30:31.771Z</time></trkpt><trkpt lat="45.5910683" lon="12.3571416"><ele>2.0</ele><time>2026-04-28T16:30:33.763Z</time></trkpt><trkpt lat="45.591054" lon="12.3572783"><ele>2.0</ele><time>2026-04-28T16:30:35.777Z</time></trkpt><trkpt lat="45.5910165" lon="12.3574167"><ele>2.0</ele><time>2026-04-28T16:30:37.768Z</time></trkpt><trkpt lat="45.5909735" lon="12.3575365"><ele>2.0</ele><time>2026-04-28T16:30:39.777Z</time></trkpt><trkpt lat="45.5909232" lon="12.3576412"><ele>2.0</ele><time>2026-04-28T16:30:41.776Z</time></trkpt><trkpt lat="45.5908594" lon="12.3577528"><ele>2.0</ele><time>2026-04-28T16:30:43.779Z</time></trkpt><trkpt lat="45.5907862" lon="12.3578545"><ele>2.0</ele><time>2026-04-28T16:30:45.778Z</time></trkpt><trkpt lat="45.5907205" lon="12.3579442"><ele>2.0</ele><time>2026-04-28T16:30:47.776Z</time></trkpt><trkpt lat="45.5906388" lon="12.3580469"><ele>2.0</ele><time>2026-04-28T16:30:49.777Z</time></trkpt><trkpt lat="45.5905659" lon="12.3581417"><ele>2.0</ele><time>2026-04-28T16:30:51.777Z</time></trkpt><trkpt lat="45.590487" lon="12.3582394"><ele>2.0</ele><time>2026-04-28T16:30:53.786Z</time></trkpt><trkpt lat="45.5904078" lon="12.3583319"><ele>2.6</ele><time>2026-04-28T16:30:55.786Z</time></trkpt><trkpt lat="45.5903293" lon="12.3584186"><ele>3.2</ele><time>2026-04-28T16:30:57.77Z</time></trkpt><trkpt lat="45.5902487" lon="12.3585024"><ele>3.8</ele><time>2026-04-28T16:30:59.768Z</time></trkpt><trkpt lat="45.5901511" lon="12.3585866"><ele>4.4</ele><time>2026-04-28T16:31:01.761Z</time></trkpt><trkpt lat="45.5900572" lon="12.3586633"><ele>5.0</ele><time>2026-04-28T16:31:03.766Z</time></trkpt><trkpt lat="45.5899628" lon="12.3587242"><ele>5.0</ele><time>2026-04-28T16:31:05.77Z</time></trkpt><trkpt lat="45.5898749" lon="12.3587823"><ele>5.0</ele><time>2026-04-28T16:31:07.778Z</time></trkpt><trkpt lat="45.5897984" lon="12.3588397"><ele>5.0</ele><time>2026-04-28T16:31:09.773Z</time></trkpt><trkpt lat="45.5896999" lon="12.3588779"><ele>5.0</ele><time>2026-04-28T16:31:11.784Z</time></trkpt><trkpt lat="45.5895884" lon="12.3588799"><ele>5.0</ele><time>2026-04-28T16:31:13.781Z</time></trkpt><trkpt lat="45.589462" lon="12.3588957"><ele>5.25</ele><time>2026-04-28T16:31:15.769Z</time></trkpt><trkpt lat="45.5893414" lon="12.3588896"><ele>5.5</ele><time>2026-04-28T16:31:17.763Z</time></trkpt><trkpt lat="45.5892219" lon="12.3588681"><ele>5.75</ele><time>2026-04-28T16:31:19.776Z</time></trkpt><trkpt lat="45.5891032" lon="12.3588466"><ele>6.0</ele><time>2026-04-28T16:31:21.778Z</time></trkpt><trkpt lat="45.5889863" lon="12.35883"><ele>6.0</ele><time>2026-04-28T16:31:23.783Z</time></trkpt><trkpt lat="45.5888646" lon="12.3588143"><ele>6.0</ele><time>2026-04-28T16:31:25.786Z</time></trkpt><trkpt lat="45.5887547" lon="12.3588049"><ele>6.0</ele><time>2026-04-28T16:31:27.765Z</time></trkpt><trkpt lat="45.5886327" lon="12.3588127"><ele>6.0</ele><time>2026-04-28T16:31:29.776Z</time></trkpt><trkpt lat="45.5885083" lon="12.3588383"><ele>6.199999999999999</ele><time>2026-04-28T16:31:31.779Z</time></trkpt><trkpt lat="45.5884463" lon="12.3588547"><ele>6.3999999999999995</ele><time>2026-04-28T16:31:32.772Z</time></trkpt><trkpt lat="45.5883232" lon="12.3588946"><ele>6.6</ele><time>2026-04-28T16:31:34.772Z</time></trkpt><trkpt lat="45.588211" lon="12.3589306"><ele>6.8</ele><time>2026-04-28T16:31:36.778Z</time></trkpt><trkpt lat="45.5881061" lon="12.3589648"><ele>7.0</ele><time>2026-04-28T16:31:38.779Z</time></trkpt><trkpt lat="45.5880009" lon="12.3590001"><ele>6.25</ele><time>2026-04-28T16:31:40.776Z</time></trkpt><trkpt lat="45.587885" lon="12.3590614"><ele>5.5</ele><time>2026-04-28T16:31:42.778Z</time></trkpt><trkpt lat="45.5877773" lon="12.3591147"><ele>4.75</ele><time>2026-04-28T16:31:44.798Z</time></trkpt><trkpt lat="45.5876672" lon="12.3591594"><ele>4.0</ele><time>2026-04-28T16:31:46.779Z</time></trkpt><trkpt lat="45.5875599" lon="12.359197"><ele>3.75</ele><time>2026-04-28T16:31:48.772Z</time></trkpt><trkpt lat="45.5874519" lon="12.3592353"><ele>3.5</ele><time>2026-04-28T16:31:50.778Z</time></trkpt><trkpt lat="45.5873389" lon="12.3592701"><ele>3.25</ele><time>2026-04-28T16:31:52.771Z</time></trkpt><trkpt lat="45.5872296" lon="12.3593088"><ele>3.0</ele><time>2026-04-28T16:31:54.773Z</time></trkpt><trkpt lat="45.5871215" lon="12.3593434"><ele>3.0</ele><time>2026-04-28T16:31:56.786Z</time></trkpt><trkpt lat="45.5870117" lon="12.3593837"><ele>3.0</ele><time>2026-04-28T16:31:58.777Z</time></trkpt><trkpt lat="45.5869008" lon="12.3594244"><ele>3.0</ele><time>2026-04-28T16:32:00.797Z</time></trkpt><trkpt lat="45.5867942" lon="12.3594613"><ele>3.0</ele><time>2026-04-28T16:32:02.789Z</time></trkpt><trkpt lat="45.5866773" lon="12.3595051"><ele>2.75</ele><time>2026-04-28T16:32:04.773Z</time></trkpt><trkpt lat="45.5865612" lon="12.3595406"><ele>2.5</ele><time>2026-04-28T16:32:06.775Z</time></trkpt><trkpt lat="45.5864484" lon="12.3595788"><ele>2.25</ele><time>2026-04-28T16:32:08.787Z</time></trkpt><trkpt lat="45.5863372" lon="12.3596186"><ele>2.0</ele><time>2026-04-28T16:32:10.762Z</time></trkpt><trkpt lat="45.58623" lon="12.3596607"><ele>1.6</ele><time>2026-04-28T16:32:12.768Z</time></trkpt><trkpt lat="45.5861223" lon="12.3597001"><ele>1.2000000000000002</ele><time>2026-04-28T16:32:14.789Z</time></trkpt><trkpt lat="45.5860194" lon="12.3597374"><ele>0.8</ele><time>2026-04-28T16:32:16.774Z</time></trkpt><trkpt lat="45.5859186" lon="12.3597703"><ele>0.4</ele><time>2026-04-28T16:32:18.784Z</time></trkpt><trkpt lat="45.5858021" lon="12.3598063"><ele>0.0</ele><time>2026-04-28T16:32:20.772Z</time></trkpt><trkpt lat="45.5857016" lon="12.3598498"><ele>-0.25</ele><time>2026-04-28T16:32:22.775Z</time></trkpt><trkpt lat="45.5855902" lon="12.3598939"><ele>-0.5</ele><time>2026-04-28T16:32:24.786Z</time></trkpt><trkpt lat="45.5854774" lon="12.3599398"><ele>-0.75</ele><time>2026-04-28T16:32:26.781Z</time></trkpt><trkpt lat="45.5853726" lon="12.3599935"><ele>-1.0</ele><time>2026-04-28T16:32:28.792Z</time></trkpt><trkpt lat="45.5852662" lon="12.3600512"><ele>-0.5</ele><time>2026-04-28T16:32:30.766Z</time></trkpt><trkpt lat="45.5851644" lon="12.3601106"><ele>0.0</ele><time>2026-04-28T16:32:32.785Z</time></trkpt><trkpt lat="45.5850586" lon="12.3601733"><ele>0.5</ele><time>2026-04-28T16:32:34.772Z</time></trkpt><trkpt lat="45.5849573" lon="12.3602366"><ele>1.0</ele><time>2026-04-28T16:32:36.776Z</time></trkpt><trkpt lat="45.5848506" lon="12.3603066"><ele>1.0</ele><time>2026-04-28T16:32:38.76Z</time></trkpt><trkpt lat="45.584751" lon="12.3603667"><ele>1.0</ele><time>2026-04-28T16:32:40.773Z</time></trkpt><trkpt lat="45.5846487" lon="12.3604368"><ele>1.0</ele><time>2026-04-28T16:32:42.784Z</time></trkpt><trkpt lat="45.58455" lon="12.3605047"><ele>1.0</ele><time>2026-04-28T16:32:44.771Z</time></trkpt><trkpt lat="45.5844467" lon="12.3605743"><ele>1.0</ele><time>2026-04-28T16:32:46.777Z</time></trkpt><trkpt lat="45.5843499" lon="12.3606395"><ele>1.5</ele><time>2026-04-28T16:32:48.773Z</time></trkpt><trkpt lat="45.5842547" lon="12.3606947"><ele>2.0</ele><time>2026-04-28T16:32:50.795Z</time></trkpt><trkpt lat="45.5841634" lon="12.3607629"><ele>2.5</ele><time>2026-04-28T16:32:52.798Z</time></trkpt><trkpt lat="45.5840513" lon="12.3608305"><ele>3.0</ele><time>2026-04-28T16:32:54.779Z</time></trkpt><trkpt lat="45.5839383" lon="12.3609112"><ele>3.0</ele><time>2026-04-28T16:32:56.786Z</time></trkpt><trkpt lat="45.5838497" lon="12.3609557"><ele>3.0</ele><time>2026-04-28T16:32:59.788Z</time></trkpt><trkpt lat="45.5837284" lon="12.3610444"><ele>3.0</ele><time>2026-04-28T16:33:01.782Z</time></trkpt><trkpt lat="45.583666" lon="12.361176"><ele>3.0</ele><time>2026-04-28T16:33:03.77Z</time></trkpt><trkpt lat="45.5836315" lon="12.3613094"><ele>3.0</ele><time>2026-04-28T16:33:05.779Z</time></trkpt><trkpt lat="45.5835779" lon="12.3614641"><ele>2.8</ele><time>2026-04-28T16:33:07.775Z</time></trkpt><trkpt lat="45.5835262" lon="12.3616056"><ele>2.5999999999999996</ele><time>2026-04-28T16:33:09.78Z</time></trkpt><trkpt lat="45.5834741" lon="12.3617238"><ele>2.4000000000000004</ele><time>2026-04-28T16:33:11.771Z</time></trkpt><trkpt lat="45.5834214" lon="12.3618302"><ele>2.2</ele><time>2026-04-28T16:33:13.771Z</time></trkpt><trkpt lat="45.583369" lon="12.3619209"><ele>2.0</ele><time>2026-04-28T16:33:15.776Z</time></trkpt><trkpt lat="45.5832986" lon="12.3620317"><ele>2.0</ele><time>2026-04-28T16:33:17.776Z</time></trkpt><trkpt lat="45.5832346" lon="12.3621318"><ele>2.0</ele><time>2026-04-28T16:33:19.773Z</time></trkpt><trkpt lat="45.583173" lon="12.3622507"><ele>2.0</ele><time>2026-04-28T16:33:21.788Z</time></trkpt><trkpt lat="45.5831205" lon="12.3623603"><ele>2.0</ele><time>2026-04-28T16:33:23.783Z</time></trkpt><trkpt lat="45.5830566" lon="12.3624817"><ele>2.0</ele><time>2026-04-28T16:33:25.763Z</time></trkpt><trkpt lat="45.5829995" lon="12.362585"><ele>1.6</ele><time>2026-04-28T16:33:27.772Z</time></trkpt><trkpt lat="45.5829339" lon="12.3626994"><ele>1.2000000000000002</ele><time>2026-04-28T16:33:29.774Z</time></trkpt><trkpt lat="45.5828858" lon="12.3628228"><ele>0.8</ele><time>2026-04-28T16:33:31.777Z</time></trkpt><trkpt lat="45.5828561" lon="12.362953"><ele>0.4</ele><time>2026-04-28T16:33:33.775Z</time></trkpt><trkpt lat="45.5828348" lon="12.3630948"><ele>0.0</ele><time>2026-04-28T16:33:35.788Z</time></trkpt><trkpt lat="45.5828493" lon="12.3632298"><ele>0.0</ele><time>2026-04-28T16:33:37.776Z</time></trkpt><trkpt lat="45.582878" lon="12.3633579"><ele>0.0</ele><time>2026-04-28T16:33:39.784Z</time></trkpt><trkpt lat="45.5829193" lon="12.3634942"><ele>0.0</ele><time>2026-04-28T16:33:41.779Z</time></trkpt><trkpt lat="45.5829602" lon="12.363622"><ele>0.0</ele><time>2026-04-28T16:33:43.785Z</time></trkpt><trkpt lat="45.5829977" lon="12.3637446"><ele>0.0</ele><time>2026-04-28T16:33:45.771Z</time></trkpt><trkpt lat="45.5830377" lon="12.3638714"><ele>0.16666666666666666</ele><time>2026-04-28T16:33:47.771Z</time></trkpt><trkpt lat="45.5830766" lon="12.3640086"><ele>0.3333333333333333</ele><time>2026-04-28T16:33:49.77Z</time></trkpt><trkpt lat="45.5831049" lon="12.3641165"><ele>0.5</ele><time>2026-04-28T16:33:51.784Z</time></trkpt><trkpt lat="45.5831424" lon="12.3642445"><ele>0.6666666666666666</ele><time>2026-04-28T16:33:53.765Z</time></trkpt><trkpt lat="45.5831753" lon="12.3643565"><ele>0.8333333333333333</ele><time>2026-04-28T16:33:55.778Z</time></trkpt><trkpt lat="45.5832118" lon="12.3644615"><ele>1.0</ele><time>2026-04-28T16:33:57.801Z</time></trkpt><trkpt lat="45.5832361" lon="12.3645565"><ele>0.9999999999999999</ele><time>2026-04-28T16:33:59.784Z</time></trkpt><trkpt lat="45.5832588" lon="12.3646428"><ele>1.0</ele><time>2026-04-28T16:34:01.777Z</time></trkpt><trkpt lat="45.5832926" lon="12.364749"><ele>1.0</ele><time>2026-04-28T16:34:03.775Z</time></trkpt><trkpt lat="45.5833304" lon="12.3648663"><ele>1.0</ele><time>2026-04-28T16:34:05.774Z</time></trkpt><trkpt lat="45.5833716" lon="12.364995"><ele>0.9999999999999999</ele><time>2026-04-28T16:34:07.776Z</time></trkpt><trkpt lat="45.5834114" lon="12.3651266"><ele>1.0</ele><time>2026-04-28T16:34:09.785Z</time></trkpt><trkpt lat="45.5834529" lon="12.3652572"><ele>0.8333333333333333</ele><time>2026-04-28T16:34:11.783Z</time></trkpt><trkpt lat="45.5834957" lon="12.3653731"><ele>0.6666666666666666</ele><time>2026-04-28T16:34:13.791Z</time></trkpt><trkpt lat="45.5835383" lon="12.3654899"><ele>0.5</ele><time>2026-04-28T16:34:15.786Z</time></trkpt><trkpt lat="45.5835648" lon="12.3655841"><ele>0.3333333333333333</ele><time>2026-04-28T16:34:17.777Z</time></trkpt><trkpt lat="45.583583" lon="12.3656709"><ele>0.16666666666666666</ele><time>2026-04-28T16:34:19.788Z</time></trkpt><trkpt lat="45.5836163" lon="12.365776"><ele>0.0</ele><time>2026-04-28T16:34:21.776Z</time></trkpt><trkpt lat="45.5836606" lon="12.3658959"><ele>-0.2</ele><time>2026-04-28T16:34:23.774Z</time></trkpt><trkpt lat="45.5836939" lon="12.366013"><ele>-0.4</ele><time>2026-04-28T16:34:25.781Z</time></trkpt><trkpt lat="45.583731" lon="12.3661464"><ele>-0.6000000000000001</ele><time>2026-04-28T16:34:27.782Z</time></trkpt><trkpt lat="45.5837644" lon="12.3662799"><ele>-0.8</ele><time>2026-04-28T16:34:29.768Z</time></trkpt><trkpt lat="45.5838085" lon="12.3664185"><ele>-1.0</ele><time>2026-04-28T16:34:31.771Z</time></trkpt><trkpt lat="45.583855" lon="12.3665518"><ele>-1.0</ele><time>2026-04-28T16:34:33.787Z</time></trkpt><trkpt lat="45.5838974" lon="12.3666801"><ele>-1.0</ele><time>2026-04-28T16:34:35.78Z</time></trkpt><trkpt lat="45.5839387" lon="12.3668103"><ele>-1.0</ele><time>2026-04-28T16:34:37.756Z</time></trkpt><trkpt lat="45.5839731" lon="12.3669316"><ele>-1.0</ele><time>2026-04-28T16:34:39.776Z</time></trkpt><trkpt lat="45.5840109" lon="12.3670758"><ele>-1.0</ele><time>2026-04-28T16:34:41.814Z</time></trkpt><trkpt lat="45.5840483" lon="12.3672063"><ele>-1.2000000000000002</ele><time>2026-04-28T16:34:43.75Z</time></trkpt><trkpt lat="45.5840872" lon="12.3673437"><ele>-1.4000000000000001</ele><time>2026-04-28T16:34:45.773Z</time></trkpt><trkpt lat="45.5841161" lon="12.3674695"><ele>-1.6</ele><time>2026-04-28T16:34:47.778Z</time></trkpt><trkpt lat="45.5841428" lon="12.3676064"><ele>-1.8</ele><time>2026-04-28T16:34:49.757Z</time></trkpt><trkpt lat="45.5841613" lon="12.3677349"><ele>-2.0</ele><time>2026-04-28T16:34:51.759Z</time></trkpt><trkpt lat="45.5841824" lon="12.3678693"><ele>-2.0</ele><time>2026-04-28T16:34:53.776Z</time></trkpt><trkpt lat="45.5841992" lon="12.3680083"><ele>-2.0</ele><time>2026-04-28T16:34:55.764Z</time></trkpt><trkpt lat="45.5842066" lon="12.3681459"><ele>-2.0</ele><time>2026-04-28T16:34:57.781Z</time></trkpt><trkpt lat="45.5842133" lon="12.3682783"><ele>-2.0</ele><time>2026-04-28T16:34:59.784Z</time></trkpt><trkpt lat="45.5842139" lon="12.3684051"><ele>-2.0</ele><time>2026-04-28T16:35:01.789Z</time></trkpt><trkpt lat="45.5842118" lon="12.3685366"><ele>-1.6666666666666665</ele><time>2026-04-28T16:35:03.778Z</time></trkpt><trkpt lat="45.5841991" lon="12.3686768"><ele>-1.3333333333333333</ele><time>2026-04-28T16:35:05.765Z</time></trkpt><trkpt lat="45.5841735" lon="12.3688088"><ele>-1.0</ele><time>2026-04-28T16:35:07.79Z</time></trkpt><trkpt lat="45.5841397" lon="12.3689129"><ele>-0.6666666666666666</ele><time>2026-04-28T16:35:09.796Z</time></trkpt><trkpt lat="45.5841228" lon="12.3690115"><ele>-0.3333333333333333</ele><time>2026-04-28T16:35:11.774Z</time></trkpt><trkpt lat="45.584145" lon="12.3691118"><ele>0.0</ele><time>2026-04-28T16:35:14.766Z</time></trkpt><trkpt lat="45.584201" lon="12.3691717"><ele>0.4</ele><time>2026-04-28T16:35:16.777Z</time></trkpt><trkpt lat="45.5842901" lon="12.3692906"><ele>0.8</ele><time>2026-04-28T16:35:18.783Z</time></trkpt><trkpt lat="45.5843888" lon="12.3693629"><ele>1.2000000000000002</ele><time>2026-04-28T16:35:20.769Z</time></trkpt><trkpt lat="45.5844669" lon="12.3694245"><ele>1.6</ele><time>2026-04-28T16:35:22.774Z</time></trkpt><trkpt lat="45.584531" lon="12.3694819"><ele>2.0</ele><time>2026-04-28T16:35:24.796Z</time></trkpt><trkpt lat="45.5845978" lon="12.3695652"><ele>1.9999999999999998</ele><time>2026-04-28T16:35:26.772Z</time></trkpt><trkpt lat="45.5846457" lon="12.3696665"><ele>2.0</ele><time>2026-04-28T16:35:28.768Z</time></trkpt><trkpt lat="45.5846951" lon="12.3697672"><ele>2.0</ele><time>2026-04-28T16:35:30.768Z</time></trkpt><trkpt lat="45.5847404" lon="12.3698531"><ele>2.0</ele><time>2026-04-28T16:35:32.778Z</time></trkpt><trkpt lat="45.5847948" lon="12.3699193"><ele>1.9999999999999998</ele><time>2026-04-28T16:35:34.787Z</time></trkpt><trkpt lat="45.5848411" lon="12.3699831"><ele>2.0</ele><time>2026-04-28T16:35:36.758Z</time></trkpt><trkpt lat="45.584866" lon="12.3701081"><ele>2.1666666666666665</ele><time>2026-04-28T16:35:39.787Z</time></trkpt><trkpt lat="45.5848131" lon="12.3701986"><ele>2.333333333333333</ele><time>2026-04-28T16:35:42.785Z</time></trkpt><trkpt lat="45.5847417" lon="12.370215"><ele>2.5</ele><time>2026-04-28T16:35:46.764Z</time></trkpt><trkpt lat="45.5846735" lon="12.3702024"><ele>2.6666666666666665</ele><time>2026-04-28T16:35:48.769Z</time></trkpt><trkpt lat="45.5846051" lon="12.3702433"><ele>2.8333333333333335</ele><time>2026-04-28T16:35:52.787Z</time></trkpt><trkpt lat="45.5845409" lon="12.3703336"><ele>3.0</ele><time>2026-04-28T16:35:55.764Z</time></trkpt><trkpt lat="45.5845163" lon="12.3704293"><ele>2.8333333333333335</ele><time>2026-04-28T16:35:57.769Z</time></trkpt><trkpt lat="45.5844823" lon="12.3705279"><ele>2.6666666666666665</ele><time>2026-04-28T16:36:00.785Z</time></trkpt><trkpt lat="45.5845232" lon="12.370638"><ele>2.5</ele><time>2026-04-28T16:36:04.781Z</time></trkpt><trkpt lat="45.5845946" lon="12.3707008"><ele>2.333333333333333</ele><time>2026-04-28T16:36:07.776Z</time></trkpt><trkpt lat="45.5846634" lon="12.37075"><ele>2.1666666666666665</ele><time>2026-04-28T16:36:10.759Z</time></trkpt><trkpt lat="45.5847141" lon="12.3708251"><ele>2.0</ele><time>2026-04-28T16:36:14.772Z</time></trkpt><trkpt lat="45.5846442" lon="12.3708789"><ele>2.0</ele><time>2026-04-28T16:36:17.776Z</time></trkpt><trkpt lat="45.5845518" lon="12.3708825"><ele>2.0</ele><time>2026-04-28T16:36:19.788Z</time></trkpt><trkpt lat="45.5844632" lon="12.3708706"><ele>2.0</ele><time>2026-04-28T16:36:21.777Z</time></trkpt><trkpt lat="45.5843739" lon="12.3708794"><ele>2.0</ele><time>2026-04-28T16:36:23.758Z</time></trkpt><trkpt lat="45.5842777" lon="12.3708992"><ele>2.0</ele><time>2026-04-28T16:36:25.774Z</time></trkpt><trkpt lat="45.5841821" lon="12.3709042"><ele>2.0</ele><time>2026-04-28T16:36:27.775Z</time></trkpt><trkpt lat="45.5840886" lon="12.3709315"><ele>2.0</ele><time>2026-04-28T16:36:29.77Z</time></trkpt><trkpt lat="45.5839794" lon="12.3709471"><ele>2.0</ele><time>2026-04-28T16:36:31.77Z</time></trkpt><trkpt lat="45.583872" lon="12.3709494"><ele>2.0</ele><time>2026-04-28T16:36:33.77Z</time></trkpt><trkpt lat="45.5837873" lon="12.3709254"><ele>2.0</ele><time>2026-04-28T16:36:35.786Z</time></trkpt><trkpt lat="45.583691" lon="12.3709116"><ele>2.2</ele><time>2026-04-28T16:36:37.781Z</time></trkpt><trkpt lat="45.5835838" lon="12.3709008"><ele>2.4000000000000004</ele><time>2026-04-28T16:36:39.782Z</time></trkpt><trkpt lat="45.5834912" lon="12.3708821"><ele>2.5999999999999996</ele><time>2026-04-28T16:36:41.784Z</time></trkpt><trkpt lat="45.5833864" lon="12.3708381"><ele>2.8</ele><time>2026-04-28T16:36:43.778Z</time></trkpt><trkpt lat="45.5832791" lon="12.3708301"><ele>3.0</ele><time>2026-04-28T16:36:45.806Z</time></trkpt><trkpt lat="45.5831844" lon="12.3709104"><ele>3.0</ele><time>2026-04-28T16:36:47.768Z</time></trkpt><trkpt lat="45.5831307" lon="12.371037"><ele>3.0</ele><time>2026-04-28T16:36:49.771Z</time></trkpt><trkpt lat="45.5830702" lon="12.3711409"><ele>3.0</ele><time>2026-04-28T16:36:51.784Z</time></trkpt><trkpt lat="45.5830074" lon="12.3712354"><ele>3.0</ele><time>2026-04-28T16:36:53.776Z</time></trkpt><trkpt lat="45.5829528" lon="12.3713181"><ele>3.0</ele><time>2026-04-28T16:36:55.779Z</time></trkpt><trkpt lat="45.5828828" lon="12.3714087"><ele>2.8</ele><time>2026-04-28T16:36:57.764Z</time></trkpt><trkpt lat="45.5828127" lon="12.3715"><ele>2.5999999999999996</ele><time>2026-04-28T16:36:59.772Z</time></trkpt><trkpt lat="45.582749" lon="12.3715949"><ele>2.4000000000000004</ele><time>2026-04-28T16:37:01.775Z</time></trkpt><trkpt lat="45.5827044" lon="12.3717033"><ele>2.2</ele><time>2026-04-28T16:37:03.772Z</time></trkpt><trkpt lat="45.5826825" lon="12.3718332"><ele>2.0</ele><time>2026-04-28T16:37:05.781Z</time></trkpt><trkpt lat="45.5826624" lon="12.37196"><ele>2.0</ele><time>2026-04-28T16:37:07.779Z</time></trkpt><trkpt lat="45.5826363" lon="12.3720908"><ele>2.0</ele><time>2026-04-28T16:37:09.788Z</time></trkpt><trkpt lat="45.5826025" lon="12.3722331"><ele>2.0</ele><time>2026-04-28T16:37:11.767Z</time></trkpt><trkpt lat="45.5825736" lon="12.3723669"><ele>2.0</ele><time>2026-04-28T16:37:13.776Z</time></trkpt><trkpt lat="45.5825459" lon="12.3724939"><ele>2.0</ele><time>2026-04-28T16:37:15.773Z</time></trkpt><trkpt lat="45.5825175" lon="12.3726269"><ele>1.8</ele><time>2026-04-28T16:37:17.787Z</time></trkpt><trkpt lat="45.582482" lon="12.3727629"><ele>1.6</ele><time>2026-04-28T16:37:19.772Z</time></trkpt><trkpt lat="45.5824492" lon="12.3728764"><ele>1.4000000000000001</ele><time>2026-04-28T16:37:21.769Z</time></trkpt><trkpt lat="45.5824052" lon="12.3730015"><ele>1.2000000000000002</ele><time>2026-04-28T16:37:23.778Z</time></trkpt><trkpt lat="45.5823632" lon="12.3731251"><ele>1.0</ele><time>2026-04-28T16:37:25.776Z</time></trkpt><trkpt lat="45.5823132" lon="12.3732352"><ele>1.6666666666666665</ele><time>2026-04-28T16:37:27.783Z</time></trkpt><trkpt lat="45.5822747" lon="12.3733191"><ele>2.3333333333333335</ele><time>2026-04-28T16:37:29.785Z</time></trkpt><trkpt lat="45.5822251" lon="12.3734021"><ele>3.0</ele><time>2026-04-28T16:37:31.771Z</time></trkpt><trkpt lat="45.5821722" lon="12.3734799"><ele>3.666666666666667</ele><time>2026-04-28T16:37:33.778Z</time></trkpt><trkpt lat="45.5821092" lon="12.3735665"><ele>4.333333333333334</ele><time>2026-04-28T16:37:35.768Z</time></trkpt><trkpt lat="45.5820461" lon="12.373654"><ele>5.0</ele><time>2026-04-28T16:37:37.764Z</time></trkpt><trkpt lat="45.5819909" lon="12.3737417"><ele>5.0</ele><time>2026-04-28T16:37:39.778Z</time></trkpt><trkpt lat="45.5819417" lon="12.3738293"><ele>5.0</ele><time>2026-04-28T16:37:41.771Z</time></trkpt><trkpt lat="45.5818947" lon="12.3739096"><ele>5.0</ele><time>2026-04-28T16:37:43.768Z</time></trkpt><trkpt lat="45.5818508" lon="12.3739952"><ele>5.0</ele><time>2026-04-28T16:37:45.773Z</time></trkpt><trkpt lat="45.5817995" lon="12.3740749"><ele>5.0</ele><time>2026-04-28T16:37:47.77Z</time></trkpt><trkpt lat="45.5817436" lon="12.3741664"><ele>5.0</ele><time>2026-04-28T16:37:49.768Z</time></trkpt><trkpt lat="45.5816918" lon="12.3742884"><ele>4.5</ele><time>2026-04-28T16:37:51.775Z</time></trkpt><trkpt lat="45.5816483" lon="12.3744182"><ele>4.0</ele><time>2026-04-28T16:37:53.775Z</time></trkpt><trkpt lat="45.5816013" lon="12.3745059"><ele>3.5</ele><time>2026-04-28T16:37:55.773Z</time></trkpt><trkpt lat="45.5815416" lon="12.3745687"><ele>3.0</ele><time>2026-04-28T16:37:57.765Z</time></trkpt><trkpt lat="45.5814875" lon="12.3746161"><ele>2.5</ele><time>2026-04-28T16:37:59.762Z</time></trkpt><trkpt lat="45.5814151" lon="12.3746907"><ele>2.0</ele><time>2026-04-28T16:38:01.763Z</time></trkpt><trkpt lat="45.5813343" lon="12.374783"><ele>1.9999999999999998</ele><time>2026-04-28T16:38:04.767Z</time></trkpt><trkpt lat="45.5812826" lon="12.3748475"><ele>2.0</ele><time>2026-04-28T16:38:06.766Z</time></trkpt><trkpt lat="45.581215" lon="12.3748955"><ele>2.0</ele><time>2026-04-28T16:38:10.777Z</time></trkpt><trkpt lat="45.5811705" lon="12.3748131"><ele>2.0</ele><time>2026-04-28T16:38:18.784Z</time></trkpt><trkpt lat="45.5812124" lon="12.37474"><ele>1.9999999999999998</ele><time>2026-04-28T16:38:21.781Z</time></trkpt><trkpt lat="45.5812702" lon="12.3746577"><ele>2.0</ele><time>2026-04-28T16:38:24.772Z</time></trkpt><trkpt lat="45.5813278" lon="12.3745686"><ele>1.9999999999999998</ele><time>2026-04-28T16:38:27.773Z</time></trkpt><trkpt lat="45.581382" lon="12.3744819"><ele>2.0</ele><time>2026-04-28T16:38:30.766Z</time></trkpt><trkpt lat="45.5814202" lon="12.3743982"><ele>2.0</ele><time>2026-04-28T16:38:33.782Z</time></trkpt><trkpt lat="45.5814398" lon="12.3742839"><ele>2.0</ele><time>2026-04-28T16:38:37.781Z</time></trkpt><trkpt lat="45.5813768" lon="12.3741956"><ele>1.9999999999999998</ele><time>2026-04-28T16:38:40.765Z</time></trkpt><trkpt lat="45.5813284" lon="12.3741334"><ele>2.0</ele><time>2026-04-28T16:38:42.769Z</time></trkpt><trkpt lat="45.5812646" lon="12.3740513"><ele>1.9999999999999998</ele><time>2026-04-28T16:38:45.781Z</time></trkpt><trkpt lat="45.5812076" lon="12.3739794"><ele>2.0</ele><time>2026-04-28T16:38:48.773Z</time></trkpt><trkpt lat="45.5811531" lon="12.3739016"><ele>2.0</ele><time>2026-04-28T16:38:53.765Z</time></trkpt><trkpt lat="45.5810848" lon="12.3738469"><ele>2.0</ele><time>2026-04-28T16:38:56.77Z</time></trkpt><trkpt lat="45.5810423" lon="12.3739249"><ele>1.9999999999999998</ele><time>2026-04-28T16:38:59.771Z</time></trkpt><trkpt lat="45.5809994" lon="12.374091"><ele>2.0</ele><time>2026-04-28T16:39:01.784Z</time></trkpt><trkpt lat="45.5809566" lon="12.374181"><ele>1.857142857142857</ele><time>2026-04-28T16:39:02.774Z</time></trkpt><trkpt lat="45.5809121" lon="12.3742725"><ele>1.714285714285714</ele><time>2026-04-28T16:39:03.774Z</time></trkpt><trkpt lat="45.5808667" lon="12.3743554"><ele>1.5714285714285714</ele><time>2026-04-28T16:39:04.775Z</time></trkpt><trkpt lat="45.5808234" lon="12.3744407"><ele>1.4285714285714284</ele><time>2026-04-28T16:39:05.785Z</time></trkpt><trkpt lat="45.5807815" lon="12.3745213"><ele>1.2857142857142856</ele><time>2026-04-28T16:39:06.769Z</time></trkpt><trkpt lat="45.5807397" lon="12.3745975"><ele>1.1428571428571428</ele><time>2026-04-28T16:39:07.776Z</time></trkpt><trkpt lat="45.5806997" lon="12.3746756"><ele>1.0</ele><time>2026-04-28T16:39:08.775Z</time></trkpt><trkpt lat="45.5806595" lon="12.3747487"><ele>0.75</ele><time>2026-04-28T16:39:09.783Z</time></trkpt><trkpt lat="45.5805849" lon="12.3748879"><ele>0.5</ele><time>2026-04-28T16:39:11.783Z</time></trkpt><trkpt lat="45.5805102" lon="12.3750144"><ele>0.25</ele><time>2026-04-28T16:39:13.778Z</time></trkpt><trkpt lat="45.5804274" lon="12.3751181"><ele>0.0</ele><time>2026-04-28T16:39:15.786Z</time></trkpt><trkpt lat="45.5803506" lon="12.3752194"><ele>0.4</ele><time>2026-04-28T16:39:17.788Z</time></trkpt><trkpt lat="45.5802735" lon="12.3753249"><ele>0.8</ele><time>2026-04-28T16:39:19.767Z</time></trkpt><trkpt lat="45.5802005" lon="12.3754414"><ele>1.2000000000000002</ele><time>2026-04-28T16:39:21.783Z</time></trkpt><trkpt lat="45.5801257" lon="12.375554"><ele>1.6</ele><time>2026-04-28T16:39:23.78Z</time></trkpt><trkpt lat="45.580054" lon="12.3756702"><ele>2.0</ele><time>2026-04-28T16:39:25.775Z</time></trkpt><trkpt lat="45.5799821" lon="12.3757802"><ele>2.0</ele><time>2026-04-28T16:39:27.783Z</time></trkpt><trkpt lat="45.5799108" lon="12.3758967"><ele>2.0</ele><time>2026-04-28T16:39:29.769Z</time></trkpt><trkpt lat="45.5798365" lon="12.3760052"><ele>2.0</ele><time>2026-04-28T16:39:31.775Z</time></trkpt><trkpt lat="45.5797686" lon="12.3761182"><ele>2.0</ele><time>2026-04-28T16:39:33.77Z</time></trkpt><trkpt lat="45.5796986" lon="12.3762244"><ele>2.0</ele><time>2026-04-28T16:39:35.771Z</time></trkpt><trkpt lat="45.5796304" lon="12.3763334"><ele>2.0</ele><time>2026-04-28T16:39:37.773Z</time></trkpt><trkpt lat="45.5795594" lon="12.3764425"><ele>2.0</ele><time>2026-04-28T16:39:39.787Z</time></trkpt><trkpt lat="45.5794785" lon="12.3765572"><ele>2.0</ele><time>2026-04-28T16:39:41.782Z</time></trkpt><trkpt lat="45.5794386" lon="12.376629"><ele>2.0</ele><time>2026-04-28T16:39:42.773Z</time></trkpt><trkpt lat="45.579363" lon="12.3767441"><ele>2.0</ele><time>2026-04-28T16:39:44.769Z</time></trkpt><trkpt lat="45.5792986" lon="12.3768455"><ele>2.0</ele><time>2026-04-28T16:39:46.765Z</time></trkpt><trkpt lat="45.5792338" lon="12.3769514"><ele>2.0</ele><time>2026-04-28T16:39:48.767Z</time></trkpt><trkpt lat="45.579167" lon="12.3770594"><ele>2.0</ele><time>2026-04-28T16:39:50.771Z</time></trkpt><trkpt lat="45.5790973" lon="12.3771704"><ele>2.0</ele><time>2026-04-28T16:39:52.768Z</time></trkpt><trkpt lat="45.5790292" lon="12.377276"><ele>2.0</ele><time>2026-04-28T16:39:54.781Z</time></trkpt><trkpt lat="45.5789523" lon="12.3773887"><ele>1.8</ele><time>2026-04-28T16:39:56.798Z</time></trkpt><trkpt lat="45.5788772" lon="12.3774838"><ele>1.6</ele><time>2026-04-28T16:39:58.785Z</time></trkpt><trkpt lat="45.5788024" lon="12.3775697"><ele>1.4000000000000001</ele><time>2026-04-28T16:40:00.765Z</time></trkpt><trkpt lat="45.5787116" lon="12.3776637"><ele>1.2000000000000002</ele><time>2026-04-28T16:40:02.777Z</time></trkpt><trkpt lat="45.578627" lon="12.3777445"><ele>1.0</ele><time>2026-04-28T16:40:04.777Z</time></trkpt><trkpt lat="45.5785603" lon="12.3778264"><ele>1.0</ele><time>2026-04-28T16:40:06.771Z</time></trkpt><trkpt lat="45.5784848" lon="12.3779127"><ele>1.0</ele><time>2026-04-28T16:40:08.78Z</time></trkpt><trkpt lat="45.5784003" lon="12.3780099"><ele>1.0</ele><time>2026-04-28T16:40:10.77Z</time></trkpt><trkpt lat="45.5783197" lon="12.3781092"><ele>1.0</ele><time>2026-04-28T16:40:12.784Z</time></trkpt><trkpt lat="45.5782473" lon="12.3781949"><ele>1.0</ele><time>2026-04-28T16:40:14.768Z</time></trkpt><trkpt lat="45.5781761" lon="12.3782768"><ele>1.0</ele><time>2026-04-28T16:40:16.769Z</time></trkpt><trkpt lat="45.5780948" lon="12.3783622"><ele>1.0</ele><time>2026-04-28T16:40:18.773Z</time></trkpt><trkpt lat="45.5780118" lon="12.378464"><ele>1.0</ele><time>2026-04-28T16:40:20.775Z</time></trkpt><trkpt lat="45.5779442" lon="12.3785467"><ele>1.0</ele><time>2026-04-28T16:40:22.769Z</time></trkpt><trkpt lat="45.5778823" lon="12.3786459"><ele>1.0</ele><time>2026-04-28T16:40:24.777Z</time></trkpt><trkpt lat="45.577855" lon="12.3787361"><ele>1.1666666666666665</ele><time>2026-04-28T16:40:26.777Z</time></trkpt><trkpt lat="45.5778312" lon="12.3788317"><ele>1.3333333333333333</ele><time>2026-04-28T16:40:28.783Z</time></trkpt><trkpt lat="45.5778084" lon="12.3789448"><ele>1.5</ele><time>2026-04-28T16:40:30.785Z</time></trkpt><trkpt lat="45.5777774" lon="12.3790627"><ele>1.6666666666666665</ele><time>2026-04-28T16:40:32.779Z</time></trkpt><trkpt lat="45.577749" lon="12.3791839"><ele>1.8333333333333333</ele><time>2026-04-28T16:40:34.764Z</time></trkpt><trkpt lat="45.5777231" lon="12.3792932"><ele>2.0</ele><time>2026-04-28T16:40:36.778Z</time></trkpt><trkpt lat="45.5777005" lon="12.3793964"><ele>2.0</ele><time>2026-04-28T16:40:38.768Z</time></trkpt><trkpt lat="45.5777006" lon="12.3795228"><ele>2.0</ele><time>2026-04-28T16:40:40.767Z</time></trkpt><trkpt lat="45.5777082" lon="12.3796401"><ele>2.0</ele><time>2026-04-28T16:40:42.767Z</time></trkpt><trkpt lat="45.5777179" lon="12.3797885"><ele>2.0</ele><time>2026-04-28T16:40:45.777Z</time></trkpt><trkpt lat="45.577729" lon="12.3799275"><ele>2.0</ele><time>2026-04-28T16:40:47.768Z</time></trkpt><trkpt lat="45.577741" lon="12.3800732"><ele>1.8</ele><time>2026-04-28T16:40:49.793Z</time></trkpt><trkpt lat="45.5777626" lon="12.3802158"><ele>1.6</ele><time>2026-04-28T16:40:51.782Z</time></trkpt><trkpt lat="45.577765" lon="12.3803434"><ele>1.4000000000000001</ele><time>2026-04-28T16:40:53.774Z</time></trkpt><trkpt lat="45.5777789" lon="12.380494"><ele>1.2000000000000002</ele><time>2026-04-28T16:40:55.769Z</time></trkpt><trkpt lat="45.5777987" lon="12.3806309"><ele>1.0</ele><time>2026-04-28T16:40:57.772Z</time></trkpt><trkpt lat="45.5778159" lon="12.3807602"><ele>1.0</ele><time>2026-04-28T16:40:59.776Z</time></trkpt><trkpt lat="45.5778345" lon="12.3808934"><ele>1.0</ele><time>2026-04-28T16:41:01.784Z</time></trkpt><trkpt lat="45.5778691" lon="12.3810281"><ele>1.0</ele><time>2026-04-28T16:41:03.777Z</time></trkpt><trkpt lat="45.5778964" lon="12.38117"><ele>1.0</ele><time>2026-04-28T16:41:05.773Z</time></trkpt><trkpt lat="45.5779093" lon="12.3813076"><ele>1.0</ele><time>2026-04-28T16:41:07.79Z</time></trkpt><trkpt lat="45.5778952" lon="12.3814462"><ele>0.6000000000000001</ele><time>2026-04-28T16:41:09.783Z</time></trkpt><trkpt lat="45.5778471" lon="12.3815609"><ele>0.20000000000000007</ele><time>2026-04-28T16:41:11.782Z</time></trkpt><trkpt lat="45.5777812" lon="12.3816599"><ele>-0.20000000000000007</ele><time>2026-04-28T16:41:13.781Z</time></trkpt><trkpt lat="45.5777196" lon="12.381752"><ele>-0.6000000000000001</ele><time>2026-04-28T16:41:15.784Z</time></trkpt><trkpt lat="45.577638" lon="12.3818329"><ele>-1.0</ele><time>2026-04-28T16:41:17.765Z</time></trkpt><trkpt lat="45.577556" lon="12.3818794"><ele>-1.0</ele><time>2026-04-28T16:41:19.774Z</time></trkpt><trkpt lat="45.5774632" lon="12.3819214"><ele>-1.0</ele><time>2026-04-28T16:41:21.79Z</time></trkpt><trkpt lat="45.5773479" lon="12.3819487"><ele>-1.0</ele><time>2026-04-28T16:41:23.777Z</time></trkpt><trkpt lat="45.5772439" lon="12.3819633"><ele>-1.0</ele><time>2026-04-28T16:41:25.794Z</time></trkpt><trkpt lat="45.5771573" lon="12.3819709"><ele>-1.0</ele><time>2026-04-28T16:41:27.798Z</time></trkpt><trkpt lat="45.5770677" lon="12.3819718"><ele>-1.0</ele><time>2026-04-28T16:41:29.777Z</time></trkpt><trkpt lat="45.5769726" lon="12.3819752"><ele>-1.0</ele><time>2026-04-28T16:41:31.796Z</time></trkpt><trkpt lat="45.576866" lon="12.381977"><ele>-1.0</ele><time>2026-04-28T16:41:33.779Z</time></trkpt><trkpt lat="45.5767772" lon="12.3819785"><ele>-1.0</ele><time>2026-04-28T16:41:35.801Z</time></trkpt><trkpt lat="45.5766834" lon="12.381975"><ele>-1.0</ele><time>2026-04-28T16:41:37.792Z</time></trkpt><trkpt lat="45.576581" lon="12.3819761"><ele>-1.0</ele><time>2026-04-28T16:41:39.775Z</time></trkpt><trkpt lat="45.5764744" lon="12.3819768"><ele>-1.0</ele><time>2026-04-28T16:41:41.784Z</time></trkpt><trkpt lat="45.5763764" lon="12.3819773"><ele>-1.0</ele><time>2026-04-28T16:41:43.778Z</time></trkpt><trkpt lat="45.5762826" lon="12.3819782"><ele>-1.0</ele><time>2026-04-28T16:41:45.783Z</time></trkpt><trkpt lat="45.5761889" lon="12.381981"><ele>-1.0</ele><time>2026-04-28T16:41:47.78Z</time></trkpt><trkpt lat="45.5760982" lon="12.3819906"><ele>-0.4</ele><time>2026-04-28T16:41:49.791Z</time></trkpt><trkpt lat="45.5760104" lon="12.3820012"><ele>0.19999999999999996</ele><time>2026-04-28T16:41:51.786Z</time></trkpt><trkpt lat="45.5759231" lon="12.3820021"><ele>0.8000000000000002</ele><time>2026-04-28T16:41:53.775Z</time></trkpt><trkpt lat="45.5758282" lon="12.3820096"><ele>1.4000000000000001</ele><time>2026-04-28T16:41:55.788Z</time></trkpt><trkpt lat="45.5757154" lon="12.3820166"><ele>2.0</ele><time>2026-04-28T16:41:57.793Z</time></trkpt><trkpt lat="45.5756193" lon="12.382027"><ele>2.0</ele><time>2026-04-28T16:41:59.777Z</time></trkpt><trkpt lat="45.5755054" lon="12.3820405"><ele>2.0</ele><time>2026-04-28T16:42:01.767Z</time></trkpt><trkpt lat="45.5754047" lon="12.3820495"><ele>2.0</ele><time>2026-04-28T16:42:03.779Z</time></trkpt><trkpt lat="45.5753051" lon="12.3820599"><ele>2.0</ele><time>2026-04-28T16:42:05.787Z</time></trkpt><trkpt lat="45.5752059" lon="12.3820713"><ele>2.0</ele><time>2026-04-28T16:42:07.788Z</time></trkpt><trkpt lat="45.5751086" lon="12.3820866"><ele>1.8</ele><time>2026-04-28T16:42:09.791Z</time></trkpt><trkpt lat="45.57501" lon="12.3820969"><ele>1.6</ele><time>2026-04-28T16:42:11.786Z</time></trkpt><trkpt lat="45.5749154" lon="12.382113"><ele>1.4000000000000001</ele><time>2026-04-28T16:42:13.769Z</time></trkpt><trkpt lat="45.5748222" lon="12.3821328"><ele>1.2000000000000002</ele><time>2026-04-28T16:42:15.787Z</time></trkpt><trkpt lat="45.574721" lon="12.3821444"><ele>1.0</ele><time>2026-04-28T16:42:17.783Z</time></trkpt><trkpt lat="45.5746309" lon="12.382163"><ele>0.8</ele><time>2026-04-28T16:42:19.777Z</time></trkpt><trkpt lat="45.5745393" lon="12.3821882"><ele>0.6000000000000001</ele><time>2026-04-28T16:42:21.787Z</time></trkpt><trkpt lat="45.5744573" lon="12.3822492"><ele>0.4</ele><time>2026-04-28T16:42:23.781Z</time></trkpt><trkpt lat="45.5743771" lon="12.3823227"><ele>0.2</ele><time>2026-04-28T16:42:25.811Z</time></trkpt><trkpt lat="45.5742909" lon="12.382397"><ele>0.0</ele><time>2026-04-28T16:42:27.785Z</time></trkpt><trkpt lat="45.5742023" lon="12.3824669"><ele>0.0</ele><time>2026-04-28T16:42:29.774Z</time></trkpt><trkpt lat="45.5741204" lon="12.382538"><ele>0.0</ele><time>2026-04-28T16:42:31.773Z</time></trkpt><trkpt lat="45.5740356" lon="12.3826079"><ele>0.0</ele><time>2026-04-28T16:42:33.775Z</time></trkpt><trkpt lat="45.5739471" lon="12.3826832"><ele>0.0</ele><time>2026-04-28T16:42:35.776Z</time></trkpt><trkpt lat="45.5738605" lon="12.3827568"><ele>0.0</ele><time>2026-04-28T16:42:37.785Z</time></trkpt><trkpt lat="45.5737885" lon="12.382819"><ele>0.0</ele><time>2026-04-28T16:42:39.786Z</time></trkpt><trkpt lat="45.5737065" lon="12.382893"><ele>0.0</ele><time>2026-04-28T16:42:41.771Z</time></trkpt><trkpt lat="45.5736095" lon="12.3829728"><ele>0.0</ele><time>2026-04-28T16:42:43.783Z</time></trkpt><trkpt lat="45.5735303" lon="12.3830456"><ele>0.0</ele><time>2026-04-28T16:42:45.767Z</time></trkpt><trkpt lat="45.5734436" lon="12.3831189"><ele>0.0</ele><time>2026-04-28T16:42:47.786Z</time></trkpt><trkpt lat="45.5733623" lon="12.3831899"><ele>0.2</ele><time>2026-04-28T16:42:49.779Z</time></trkpt><trkpt lat="45.5732783" lon="12.3832564"><ele>0.4</ele><time>2026-04-28T16:42:51.786Z</time></trkpt><trkpt lat="45.5731918" lon="12.3833298"><ele>0.6000000000000001</ele><time>2026-04-28T16:42:53.774Z</time></trkpt><trkpt lat="45.5731017" lon="12.3833957"><ele>0.8</ele><time>2026-04-28T16:42:55.791Z</time></trkpt><trkpt lat="45.5730153" lon="12.383459"><ele>1.0</ele><time>2026-04-28T16:42:57.778Z</time></trkpt><trkpt lat="45.572928" lon="12.3835237"><ele>1.2000000000000002</ele><time>2026-04-28T16:42:59.794Z</time></trkpt><trkpt lat="45.5728432" lon="12.3835836"><ele>1.4000000000000001</ele><time>2026-04-28T16:43:01.769Z</time></trkpt><trkpt lat="45.5727654" lon="12.383648"><ele>1.6</ele><time>2026-04-28T16:43:03.775Z</time></trkpt><trkpt lat="45.5726851" lon="12.3837144"><ele>1.8</ele><time>2026-04-28T16:43:05.783Z</time></trkpt><trkpt lat="45.5725894" lon="12.3837631"><ele>2.0</ele><time>2026-04-28T16:43:07.775Z</time></trkpt><trkpt lat="45.5725106" lon="12.3838123"><ele>2.0</ele><time>2026-04-28T16:43:09.785Z</time></trkpt><trkpt lat="45.5724335" lon="12.3838626"><ele>2.0</ele><time>2026-04-28T16:43:11.769Z</time></trkpt><trkpt lat="45.5723486" lon="12.3839186"><ele>2.0</ele><time>2026-04-28T16:43:13.778Z</time></trkpt><trkpt lat="45.5722551" lon="12.3839799"><ele>2.0</ele><time>2026-04-28T16:43:15.785Z</time></trkpt><trkpt lat="45.572162" lon="12.3840418"><ele>2.0</ele><time>2026-04-28T16:43:17.784Z</time></trkpt><trkpt lat="45.5720806" lon="12.3840884"><ele>2.1666666666666665</ele><time>2026-04-28T16:43:19.765Z</time></trkpt><trkpt lat="45.5720089" lon="12.3841261"><ele>2.333333333333333</ele><time>2026-04-28T16:43:21.772Z</time></trkpt><trkpt lat="45.5719473" lon="12.3841635"><ele>2.5</ele><time>2026-04-28T16:43:23.786Z</time></trkpt><trkpt lat="45.5718689" lon="12.3842101"><ele>2.6666666666666665</ele><time>2026-04-28T16:43:25.789Z</time></trkpt><trkpt lat="45.5717825" lon="12.3842604"><ele>2.8333333333333335</ele><time>2026-04-28T16:43:27.78Z</time></trkpt><trkpt lat="45.571697" lon="12.3843163"><ele>3.0</ele><time>2026-04-28T16:43:29.787Z</time></trkpt><trkpt lat="45.5716081" lon="12.3843666"><ele>3.0</ele><time>2026-04-28T16:43:31.773Z</time></trkpt><trkpt lat="45.5715169" lon="12.3844232"><ele>3.0</ele><time>2026-04-28T16:43:33.769Z</time></trkpt><trkpt lat="45.571426" lon="12.384477"><ele>3.0</ele><time>2026-04-28T16:43:35.781Z</time></trkpt><trkpt lat="45.5713311" lon="12.3845379"><ele>3.0</ele><time>2026-04-28T16:43:37.782Z</time></trkpt><trkpt lat="45.5712325" lon="12.3845926"><ele>3.0</ele><time>2026-04-28T16:43:39.775Z</time></trkpt><trkpt lat="45.57114" lon="12.3846519"><ele>2.4</ele><time>2026-04-28T16:43:41.778Z</time></trkpt><trkpt lat="45.571051" lon="12.3847263"><ele>1.7999999999999998</ele><time>2026-04-28T16:43:43.784Z</time></trkpt><trkpt lat="45.570969" lon="12.3847924"><ele>1.2</ele><time>2026-04-28T16:43:45.789Z</time></trkpt><trkpt lat="45.5708852" lon="12.3848648"><ele>0.6</ele><time>2026-04-28T16:43:47.779Z</time></trkpt><trkpt lat="45.5707931" lon="12.3849379"><ele>0.0</ele><time>2026-04-28T16:43:49.769Z</time></trkpt><trkpt lat="45.5707075" lon="12.3850157"><ele>0.0</ele><time>2026-04-28T16:43:51.773Z</time></trkpt><trkpt lat="45.5706162" lon="12.3850944"><ele>0.0</ele><time>2026-04-28T16:43:53.796Z</time></trkpt><trkpt lat="45.5705331" lon="12.3851716"><ele>0.0</ele><time>2026-04-28T16:43:55.776Z</time></trkpt><trkpt lat="45.5704581" lon="12.3852407"><ele>0.0</ele><time>2026-04-28T16:43:57.79Z</time></trkpt><trkpt lat="45.5703778" lon="12.3853121"><ele>0.0</ele><time>2026-04-28T16:43:59.788Z</time></trkpt><trkpt lat="45.5702978" lon="12.3853908"><ele>0.0</ele><time>2026-04-28T16:44:01.784Z</time></trkpt><trkpt lat="45.5702256" lon="12.3854666"><ele>0.0</ele><time>2026-04-28T16:44:03.784Z</time></trkpt><trkpt lat="45.570149" lon="12.385551"><ele>0.0</ele><time>2026-04-28T16:44:05.787Z</time></trkpt><trkpt lat="45.5700705" lon="12.385629"><ele>0.0</ele><time>2026-04-28T16:44:07.787Z</time></trkpt><trkpt lat="45.5699935" lon="12.385709"><ele>0.0</ele><time>2026-04-28T16:44:09.781Z</time></trkpt><trkpt lat="45.569915" lon="12.3857952"><ele>-0.2</ele><time>2026-04-28T16:44:11.778Z</time></trkpt><trkpt lat="45.5698428" lon="12.3858803"><ele>-0.4</ele><time>2026-04-28T16:44:13.779Z</time></trkpt><trkpt lat="45.569767" lon="12.3859601"><ele>-0.6000000000000001</ele><time>2026-04-28T16:44:15.786Z</time></trkpt><trkpt lat="45.5696941" lon="12.3860398"><ele>-0.8</ele><time>2026-04-28T16:44:17.787Z</time></trkpt><trkpt lat="45.5696229" lon="12.3861174"><ele>-1.0</ele><time>2026-04-28T16:44:19.78Z</time></trkpt><trkpt lat="45.5695454" lon="12.3861983"><ele>-0.8</ele><time>2026-04-28T16:44:21.822Z</time></trkpt><trkpt lat="45.5694743" lon="12.3862769"><ele>-0.6000000000000001</ele><time>2026-04-28T16:44:23.78Z</time></trkpt><trkpt lat="45.5693965" lon="12.3863612"><ele>-0.4</ele><time>2026-04-28T16:44:25.776Z</time></trkpt><trkpt lat="45.5693218" lon="12.3864379"><ele>-0.2</ele><time>2026-04-28T16:44:27.781Z</time></trkpt><trkpt lat="45.569252" lon="12.3865172"><ele>0.0</ele><time>2026-04-28T16:44:29.819Z</time></trkpt><trkpt lat="45.5691804" lon="12.3866139"><ele>0.0</ele><time>2026-04-28T16:44:32.789Z</time></trkpt><trkpt lat="45.5691014" lon="12.3867041"><ele>0.0</ele><time>2026-04-28T16:44:34.771Z</time></trkpt><trkpt lat="45.5690393" lon="12.3867957"><ele>0.0</ele><time>2026-04-28T16:44:36.772Z</time></trkpt><trkpt lat="45.568973" lon="12.3868931"><ele>0.0</ele><time>2026-04-28T16:44:38.77Z</time></trkpt><trkpt lat="45.568918" lon="12.3869851"><ele>0.0</ele><time>2026-04-28T16:44:40.777Z</time></trkpt><trkpt lat="45.5688617" lon="12.3870638"><ele>0.0</ele><time>2026-04-28T16:44:42.782Z</time></trkpt><trkpt lat="45.5688169" lon="12.3871643"><ele>-0.2</ele><time>2026-04-28T16:44:44.78Z</time></trkpt><trkpt lat="45.5687711" lon="12.3872734"><ele>-0.4</ele><time>2026-04-28T16:44:46.771Z</time></trkpt><trkpt lat="45.5687307" lon="12.387386"><ele>-0.6000000000000001</ele><time>2026-04-28T16:44:48.778Z</time></trkpt><trkpt lat="45.5686905" lon="12.387509"><ele>-0.8</ele><time>2026-04-28T16:44:50.772Z</time></trkpt><trkpt lat="45.5686588" lon="12.3876404"><ele>-1.0</ele><time>2026-04-28T16:44:52.782Z</time></trkpt><trkpt lat="45.5686321" lon="12.3877706"><ele>-0.6000000000000001</ele><time>2026-04-28T16:44:54.774Z</time></trkpt><trkpt lat="45.5686064" lon="12.3879111"><ele>-0.20000000000000007</ele><time>2026-04-28T16:44:56.769Z</time></trkpt><trkpt lat="45.5685858" lon="12.3880392"><ele>0.20000000000000007</ele><time>2026-04-28T16:44:58.784Z</time></trkpt><trkpt lat="45.5685627" lon="12.3881835"><ele>0.6000000000000001</ele><time>2026-04-28T16:45:00.788Z</time></trkpt><trkpt lat="45.5685405" lon="12.3883193"><ele>1.0</ele><time>2026-04-28T16:45:02.781Z</time></trkpt><trkpt lat="45.5685218" lon="12.3884685"><ele>1.2000000000000002</ele><time>2026-04-28T16:45:04.768Z</time></trkpt><trkpt lat="45.5685052" lon="12.3885993"><ele>1.4000000000000001</ele><time>2026-04-28T16:45:06.779Z</time></trkpt><trkpt lat="45.5684874" lon="12.3887621"><ele>1.6</ele><time>2026-04-28T16:45:08.772Z</time></trkpt><trkpt lat="45.5684679" lon="12.3889035"><ele>1.8</ele><time>2026-04-28T16:45:10.772Z</time></trkpt><trkpt lat="45.5684488" lon="12.3890376"><ele>2.0</ele><time>2026-04-28T16:45:12.774Z</time></trkpt><trkpt lat="45.5684317" lon="12.3891794"><ele>1.8</ele><time>2026-04-28T16:45:14.784Z</time></trkpt><trkpt lat="45.5684129" lon="12.3893152"><ele>1.6</ele><time>2026-04-28T16:45:16.773Z</time></trkpt><trkpt lat="45.5684015" lon="12.3894528"><ele>1.4000000000000001</ele><time>2026-04-28T16:45:18.789Z</time></trkpt><trkpt lat="45.568392" lon="12.3895426"><ele>1.2000000000000002</ele><time>2026-04-28T16:45:19.793Z</time></trkpt><trkpt lat="45.5683832" lon="12.3896886"><ele>1.0</ele><time>2026-04-28T16:45:21.786Z</time></trkpt><trkpt lat="45.5683716" lon="12.3898199"><ele>1.0</ele><time>2026-04-28T16:45:23.802Z</time></trkpt><trkpt lat="45.5683842" lon="12.3899406"><ele>1.0</ele><time>2026-04-28T16:45:25.776Z</time></trkpt><trkpt lat="45.5684167" lon="12.3900595"><ele>1.0</ele><time>2026-04-28T16:45:27.769Z</time></trkpt><trkpt lat="45.5684383" lon="12.3902029"><ele>1.0</ele><time>2026-04-28T16:45:29.783Z</time></trkpt><trkpt lat="45.5684693" lon="12.3903493"><ele>1.0</ele><time>2026-04-28T16:45:31.784Z</time></trkpt><trkpt lat="45.5684996" lon="12.3904749"><ele>1.4</ele><time>2026-04-28T16:45:33.787Z</time></trkpt><trkpt lat="45.5685242" lon="12.3906004"><ele>1.8</ele><time>2026-04-28T16:45:35.77Z</time></trkpt><trkpt lat="45.5685554" lon="12.3907407"><ele>2.1999999999999997</ele><time>2026-04-28T16:45:37.771Z</time></trkpt><trkpt lat="45.5685781" lon="12.3908898"><ele>2.6</ele><time>2026-04-28T16:45:39.78Z</time></trkpt><trkpt lat="45.5685969" lon="12.391022"><ele>3.0</ele><time>2026-04-28T16:45:41.775Z</time></trkpt><trkpt lat="45.5686293" lon="12.3911591"><ele>3.0</ele><time>2026-04-28T16:45:43.773Z</time></trkpt><trkpt lat="45.5686657" lon="12.3912868"><ele>3.0</ele><time>2026-04-28T16:45:45.779Z</time></trkpt><trkpt lat="45.5686931" lon="12.3914239"><ele>3.0</ele><time>2026-04-28T16:45:47.781Z</time></trkpt><trkpt lat="45.5687116" lon="12.3915697"><ele>3.0</ele><time>2026-04-28T16:45:49.776Z</time></trkpt><trkpt lat="45.5687392" lon="12.3917404"><ele>3.0</ele><time>2026-04-28T16:45:51.771Z</time></trkpt><trkpt lat="45.5687608" lon="12.391875"><ele>3.4</ele><time>2026-04-28T16:45:53.782Z</time></trkpt><trkpt lat="45.568792" lon="12.3920399"><ele>3.8</ele><time>2026-04-28T16:45:55.789Z</time></trkpt><trkpt lat="45.5688277" lon="12.3921831"><ele>4.2</ele><time>2026-04-28T16:45:57.78Z</time></trkpt><trkpt lat="45.5688616" lon="12.392306"><ele>4.6</ele><time>2026-04-28T16:45:59.775Z</time></trkpt><trkpt lat="45.5688994" lon="12.3924236"><ele>5.0</ele><time>2026-04-28T16:46:01.781Z</time></trkpt><trkpt lat="45.5689444" lon="12.3925432"><ele>5.0</ele><time>2026-04-28T16:46:03.785Z</time></trkpt><trkpt lat="45.5689863" lon="12.3926666"><ele>5.0</ele><time>2026-04-28T16:46:05.776Z</time></trkpt><trkpt lat="45.5690521" lon="12.3928232"><ele>5.0</ele><time>2026-04-28T16:46:07.764Z</time></trkpt><trkpt lat="45.5691051" lon="12.3929355"><ele>5.0</ele><time>2026-04-28T16:46:09.781Z</time></trkpt><trkpt lat="45.5691484" lon="12.393045"><ele>5.0</ele><time>2026-04-28T16:46:11.777Z</time></trkpt><trkpt lat="45.5691884" lon="12.3931908"><ele>4.25</ele><time>2026-04-28T16:46:13.783Z</time></trkpt><trkpt lat="45.5692326" lon="12.3933421"><ele>3.5</ele><time>2026-04-28T16:46:15.773Z</time></trkpt><trkpt lat="45.5692743" lon="12.3934807"><ele>2.75</ele><time>2026-04-28T16:46:17.771Z</time></trkpt><trkpt lat="45.5693173" lon="12.393628"><ele>2.0</ele><time>2026-04-28T16:46:19.779Z</time></trkpt><trkpt lat="45.569371" lon="12.3937785"><ele>2.2</ele><time>2026-04-28T16:46:21.785Z</time></trkpt><trkpt lat="45.5694099" lon="12.393918"><ele>2.4000000000000004</ele><time>2026-04-28T16:46:23.769Z</time></trkpt><trkpt lat="45.5694508" lon="12.3940334"><ele>2.5999999999999996</ele><time>2026-04-28T16:46:25.769Z</time></trkpt><trkpt lat="45.5694814" lon="12.3941335"><ele>2.8</ele><time>2026-04-28T16:46:27.782Z</time></trkpt><trkpt lat="45.5695053" lon="12.3942383"><ele>3.0</ele><time>2026-04-28T16:46:29.762Z</time></trkpt><trkpt lat="45.5695297" lon="12.3944098"><ele>3.2</ele><time>2026-04-28T16:46:31.78Z</time></trkpt><trkpt lat="45.5695755" lon="12.3945229"><ele>3.4</ele><time>2026-04-28T16:46:33.787Z</time></trkpt><trkpt lat="45.5696343" lon="12.3946679"><ele>3.6000000000000005</ele><time>2026-04-28T16:46:35.781Z</time></trkpt><trkpt lat="45.5696769" lon="12.3948183"><ele>3.8000000000000003</ele><time>2026-04-28T16:46:37.776Z</time></trkpt><trkpt lat="45.5697065" lon="12.3949388"><ele>4.0</ele><time>2026-04-28T16:46:39.766Z</time></trkpt><trkpt lat="45.5697255" lon="12.395037"><ele>4.5</ele><time>2026-04-28T16:46:41.78Z</time></trkpt><trkpt lat="45.569756" lon="12.3951487"><ele>5.0</ele><time>2026-04-28T16:46:43.776Z</time></trkpt><trkpt lat="45.5697907" lon="12.3952329"><ele>5.5</ele><time>2026-04-28T16:46:44.776Z</time></trkpt><trkpt lat="45.569819" lon="12.3953137"><ele>6.0</ele><time>2026-04-28T16:46:45.793Z</time></trkpt><trkpt lat="45.5698601" lon="12.3954365"><ele>6.500000000000001</ele><time>2026-04-28T16:46:47.78Z</time></trkpt><trkpt lat="45.569903" lon="12.3955986"><ele>7.0</ele><time>2026-04-28T16:46:49.783Z</time></trkpt><trkpt lat="45.5699408" lon="12.3957357"><ele>7.0</ele><time>2026-04-28T16:46:51.801Z</time></trkpt><trkpt lat="45.5699764" lon="12.395875"><ele>6.999999999999999</ele><time>2026-04-28T16:46:53.785Z</time></trkpt><trkpt lat="45.5699869" lon="12.3959755"><ele>6.999999999999999</ele><time>2026-04-28T16:46:55.788Z</time></trkpt><trkpt lat="45.5699855" lon="12.3961142"><ele>7.0</ele><time>2026-04-28T16:46:57.775Z</time></trkpt><trkpt lat="45.569959" lon="12.3962441"><ele>7.0</ele><time>2026-04-28T16:46:59.772Z</time></trkpt><trkpt lat="45.5699337" lon="12.3963805"><ele>6.3999999999999995</ele><time>2026-04-28T16:47:01.782Z</time></trkpt><trkpt lat="45.5698911" lon="12.3965123"><ele>5.799999999999999</ele><time>2026-04-28T16:47:02.783Z</time></trkpt><trkpt lat="45.5698263" lon="12.3966217"><ele>5.2</ele><time>2026-04-28T16:47:04.77Z</time></trkpt><trkpt lat="45.5697823" lon="12.3966888"><ele>4.6</ele><time>2026-04-28T16:47:05.772Z</time></trkpt><trkpt lat="45.5697034" lon="12.3968045"><ele>4.0</ele><time>2026-04-28T16:47:07.775Z</time></trkpt><trkpt lat="45.5696382" lon="12.3968979"><ele>4.0</ele><time>2026-04-28T16:47:09.796Z</time></trkpt><trkpt lat="45.5695742" lon="12.3970205"><ele>4.0</ele><time>2026-04-28T16:47:11.784Z</time></trkpt><trkpt lat="45.5695012" lon="12.3971429"><ele>4.0</ele><time>2026-04-28T16:47:13.793Z</time></trkpt><trkpt lat="45.5694369" lon="12.3972476"><ele>4.0</ele><time>2026-04-28T16:47:15.783Z</time></trkpt><trkpt lat="45.5693671" lon="12.3973691"><ele>4.0</ele><time>2026-04-28T16:47:17.774Z</time></trkpt><trkpt lat="45.5693294" lon="12.3974476"><ele>3.6</ele><time>2026-04-28T16:47:18.775Z</time></trkpt><trkpt lat="45.5692797" lon="12.3975404"><ele>3.2</ele><time>2026-04-28T16:47:20.772Z</time></trkpt><trkpt lat="45.5692189" lon="12.3976626"><ele>2.8000000000000003</ele><time>2026-04-28T16:47:22.782Z</time></trkpt><trkpt lat="45.5691532" lon="12.3977773"><ele>2.4000000000000004</ele><time>2026-04-28T16:47:24.769Z</time></trkpt><trkpt lat="45.5690794" lon="12.3978695"><ele>2.0</ele><time>2026-04-28T16:47:26.768Z</time></trkpt><trkpt lat="45.5690106" lon="12.3979747"><ele>2.2</ele><time>2026-04-28T16:47:28.772Z</time></trkpt><trkpt lat="45.5689594" lon="12.3980308"><ele>2.4000000000000004</ele><time>2026-04-28T16:47:29.782Z</time></trkpt><trkpt lat="45.5688791" lon="12.3981347"><ele>2.5999999999999996</ele><time>2026-04-28T16:47:31.775Z</time></trkpt><trkpt lat="45.5688135" lon="12.3982351"><ele>2.8</ele><time>2026-04-28T16:47:33.779Z</time></trkpt><trkpt lat="45.5687573" lon="12.3983274"><ele>3.0</ele><time>2026-04-28T16:47:35.774Z</time></trkpt><trkpt lat="45.5686676" lon="12.3984121"><ele>3.0</ele><time>2026-04-28T16:47:37.801Z</time></trkpt><trkpt lat="45.5685869" lon="12.3985043"><ele>3.0</ele><time>2026-04-28T16:47:39.78Z</time></trkpt><trkpt lat="45.5684845" lon="12.3986011"><ele>3.0</ele><time>2026-04-28T16:47:41.774Z</time></trkpt><trkpt lat="45.5684203" lon="12.3986726"><ele>3.0</ele><time>2026-04-28T16:47:43.77Z</time></trkpt><trkpt lat="45.5683382" lon="12.3987879"><ele>3.0</ele><time>2026-04-28T16:47:45.771Z</time></trkpt><trkpt lat="45.5682823" lon="12.3988405"><ele>3.0</ele><time>2026-04-28T16:47:46.77Z</time></trkpt><trkpt lat="45.5682308" lon="12.3988969"><ele>3.0</ele><time>2026-04-28T16:47:47.776Z</time></trkpt><trkpt lat="45.5681392" lon="12.399012"><ele>3.0</ele><time>2026-04-28T16:47:49.781Z</time></trkpt><trkpt lat="45.56807" lon="12.3990854"><ele>3.0</ele><time>2026-04-28T16:47:51.781Z</time></trkpt><trkpt lat="45.5680079" lon="12.3991556"><ele>3.0</ele><time>2026-04-28T16:47:53.771Z</time></trkpt><trkpt lat="45.5679467" lon="12.3992369"><ele>3.0</ele><time>2026-04-28T16:47:55.768Z</time></trkpt><trkpt lat="45.5678763" lon="12.3993039"><ele>3.0</ele><time>2026-04-28T16:47:57.783Z</time></trkpt><trkpt lat="45.5678063" lon="12.3993967"><ele>3.0</ele><time>2026-04-28T16:47:59.787Z</time></trkpt><trkpt lat="45.5677448" lon="12.3995066"><ele>3.0</ele><time>2026-04-28T16:48:01.785Z</time></trkpt><trkpt lat="45.5677055" lon="12.3995777"><ele>3.0</ele><time>2026-04-28T16:48:02.789Z</time></trkpt><trkpt lat="45.5676513" lon="12.3996714"><ele>3.0</ele><time>2026-04-28T16:48:03.773Z</time></trkpt><trkpt lat="45.5676119" lon="12.3997469"><ele>3.0</ele><time>2026-04-28T16:48:04.766Z</time></trkpt><trkpt lat="45.567558" lon="12.3998489"><ele>3.0</ele><time>2026-04-28T16:48:06.773Z</time></trkpt><trkpt lat="45.5675067" lon="12.39994"><ele>3.0</ele><time>2026-04-28T16:48:08.773Z</time></trkpt><trkpt lat="45.5674604" lon="12.400029"><ele>3.0</ele><time>2026-04-28T16:48:10.776Z</time></trkpt><trkpt lat="45.5674027" lon="12.4001335"><ele>3.0</ele><time>2026-04-28T16:48:12.776Z</time></trkpt><trkpt lat="45.5673463" lon="12.4002495"><ele>3.0</ele><time>2026-04-28T16:48:14.761Z</time></trkpt><trkpt lat="45.5672881" lon="12.4003671"><ele>3.0</ele><time>2026-04-28T16:48:16.772Z</time></trkpt><trkpt lat="45.5672451" lon="12.4004796"><ele>3.0</ele><time>2026-04-28T16:48:18.766Z</time></trkpt><trkpt lat="45.5672017" lon="12.4006041"><ele>3.0</ele><time>2026-04-28T16:48:20.777Z</time></trkpt><trkpt lat="45.5671667" lon="12.400735"><ele>3.0</ele><time>2026-04-28T16:48:22.77Z</time></trkpt><trkpt lat="45.5671378" lon="12.400854"><ele>3.0</ele><time>2026-04-28T16:48:24.773Z</time></trkpt><trkpt lat="45.5670808" lon="12.4010201"><ele>2.8</ele><time>2026-04-28T16:48:26.78Z</time></trkpt><trkpt lat="45.5670533" lon="12.4011204"><ele>2.5999999999999996</ele><time>2026-04-28T16:48:27.783Z</time></trkpt><trkpt lat="45.5669985" lon="12.4012905"><ele>2.4000000000000004</ele><time>2026-04-28T16:48:29.785Z</time></trkpt><trkpt lat="45.5669588" lon="12.401407"><ele>2.2</ele><time>2026-04-28T16:48:31.775Z</time></trkpt><trkpt lat="45.5669224" lon="12.4015183"><ele>2.0</ele><time>2026-04-28T16:48:33.797Z</time></trkpt><trkpt lat="45.5668796" lon="12.4016576"><ele>1.4000000000000001</ele><time>2026-04-28T16:48:35.779Z</time></trkpt><trkpt lat="45.5668246" lon="12.4017693"><ele>0.8000000000000002</ele><time>2026-04-28T16:48:37.777Z</time></trkpt><trkpt lat="45.5667709" lon="12.4018799"><ele>0.19999999999999996</ele><time>2026-04-28T16:48:39.771Z</time></trkpt><trkpt lat="45.5667011" lon="12.4019914"><ele>-0.4</ele><time>2026-04-28T16:48:41.77Z</time></trkpt><trkpt lat="45.5666375" lon="12.4021028"><ele>-1.0</ele><time>2026-04-28T16:48:43.778Z</time></trkpt><trkpt lat="45.5665707" lon="12.4022349"><ele>-1.0</ele><time>2026-04-28T16:48:45.781Z</time></trkpt><trkpt lat="45.5665182" lon="12.4023289"><ele>-1.0</ele><time>2026-04-28T16:48:47.792Z</time></trkpt><trkpt lat="45.5664425" lon="12.4024389"><ele>-1.0</ele><time>2026-04-28T16:48:49.798Z</time></trkpt><trkpt lat="45.5663784" lon="12.4025399"><ele>-1.0</ele><time>2026-04-28T16:48:51.781Z</time></trkpt><trkpt lat="45.5662999" lon="12.402668"><ele>-1.0</ele><time>2026-04-28T16:48:53.779Z</time></trkpt><trkpt lat="45.5662298" lon="12.4027775"><ele>-0.9999999999999999</ele><time>2026-04-28T16:48:55.782Z</time></trkpt><trkpt lat="45.5661652" lon="12.4028637"><ele>-1.0</ele><time>2026-04-28T16:48:57.783Z</time></trkpt><trkpt lat="45.5661081" lon="12.4029391"><ele>-1.0</ele><time>2026-04-28T16:48:59.79Z</time></trkpt><trkpt lat="45.5660604" lon="12.4030055"><ele>-1.0</ele><time>2026-04-28T16:49:01.773Z</time></trkpt><trkpt lat="45.5660006" lon="12.403081"><ele>-0.9999999999999999</ele><time>2026-04-28T16:49:03.786Z</time></trkpt><trkpt lat="45.5659304" lon="12.4031653"><ele>-1.0</ele><time>2026-04-28T16:49:05.783Z</time></trkpt><trkpt lat="45.5658598" lon="12.4032531"><ele>-1.0</ele><time>2026-04-28T16:49:07.785Z</time></trkpt><trkpt lat="45.5657889" lon="12.4033361"><ele>-1.0</ele><time>2026-04-28T16:49:09.778Z</time></trkpt><trkpt lat="45.5657145" lon="12.4034317"><ele>-1.0</ele><time>2026-04-28T16:49:11.773Z</time></trkpt><trkpt lat="45.5656438" lon="12.4035232"><ele>-1.0</ele><time>2026-04-28T16:49:13.771Z</time></trkpt><trkpt lat="45.5655753" lon="12.4036159"><ele>-1.0</ele><time>2026-04-28T16:49:15.786Z</time></trkpt><trkpt lat="45.5655207" lon="12.4036961"><ele>-1.0</ele><time>2026-04-28T16:49:17.776Z</time></trkpt><trkpt lat="45.5654473" lon="12.4037964"><ele>-1.0</ele><time>2026-04-28T16:49:19.785Z</time></trkpt><trkpt lat="45.5653936" lon="12.4038712"><ele>-1.0</ele><time>2026-04-28T16:49:21.778Z</time></trkpt><trkpt lat="45.5652925" lon="12.4039854"><ele>-1.0</ele><time>2026-04-28T16:49:23.79Z</time></trkpt><trkpt lat="45.565202" lon="12.4040725"><ele>-1.0</ele><time>2026-04-28T16:49:25.793Z</time></trkpt><trkpt lat="45.5651293" lon="12.4041439"><ele>-0.6000000000000001</ele><time>2026-04-28T16:49:27.788Z</time></trkpt><trkpt lat="45.5650665" lon="12.4042217"><ele>-0.20000000000000007</ele><time>2026-04-28T16:49:29.772Z</time></trkpt><trkpt lat="45.5649863" lon="12.4043166"><ele>0.20000000000000007</ele><time>2026-04-28T16:49:31.771Z</time></trkpt><trkpt lat="45.5648964" lon="12.4044274"><ele>0.6000000000000001</ele><time>2026-04-28T16:49:33.773Z</time></trkpt><trkpt lat="45.5648161" lon="12.4045137"><ele>1.0</ele><time>2026-04-28T16:49:35.776Z</time></trkpt><trkpt lat="45.5647515" lon="12.4045952"><ele>0.8</ele><time>2026-04-28T16:49:37.78Z</time></trkpt><trkpt lat="45.5646778" lon="12.4046901"><ele>0.6000000000000001</ele><time>2026-04-28T16:49:39.773Z</time></trkpt><trkpt lat="45.5645973" lon="12.4047977"><ele>0.4</ele><time>2026-04-28T16:49:41.769Z</time></trkpt><trkpt lat="45.5645266" lon="12.4048959"><ele>0.2</ele><time>2026-04-28T16:49:43.764Z</time></trkpt><trkpt lat="45.5644575" lon="12.4049974"><ele>0.0</ele><time>2026-04-28T16:49:45.769Z</time></trkpt><trkpt lat="45.5643875" lon="12.4050992"><ele>0.4</ele><time>2026-04-28T16:49:47.788Z</time></trkpt><trkpt lat="45.5643222" lon="12.4051912"><ele>0.8</ele><time>2026-04-28T16:49:49.774Z</time></trkpt><trkpt lat="45.5642445" lon="12.4052907"><ele>1.2000000000000002</ele><time>2026-04-28T16:49:51.771Z</time></trkpt><trkpt lat="45.5641814" lon="12.4053856"><ele>1.6</ele><time>2026-04-28T16:49:53.781Z</time></trkpt><trkpt lat="45.5641211" lon="12.4054958"><ele>2.0</ele><time>2026-04-28T16:49:55.776Z</time></trkpt><trkpt lat="45.564083" lon="12.4056007"><ele>2.0</ele><time>2026-04-28T16:49:57.77Z</time></trkpt><trkpt lat="45.5640585" lon="12.4057251"><ele>2.0</ele><time>2026-04-28T16:49:59.804Z</time></trkpt><trkpt lat="45.5640251" lon="12.4058476"><ele>2.0</ele><time>2026-04-28T16:50:01.785Z</time></trkpt><trkpt lat="45.5639989" lon="12.4059795"><ele>2.0</ele><time>2026-04-28T16:50:03.781Z</time></trkpt><trkpt lat="45.5639696" lon="12.4061205"><ele>2.0</ele><time>2026-04-28T16:50:05.774Z</time></trkpt><trkpt lat="45.5639429" lon="12.4062583"><ele>1.6</ele><time>2026-04-28T16:50:07.781Z</time></trkpt><trkpt lat="45.5639247" lon="12.4063914"><ele>1.2000000000000002</ele><time>2026-04-28T16:50:09.768Z</time></trkpt><trkpt lat="45.5639032" lon="12.4065365"><ele>0.8</ele><time>2026-04-28T16:50:11.761Z</time></trkpt><trkpt lat="45.5638831" lon="12.4066804"><ele>0.4</ele><time>2026-04-28T16:50:13.774Z</time></trkpt><trkpt lat="45.5638592" lon="12.4068247"><ele>0.0</ele><time>2026-04-28T16:50:15.776Z</time></trkpt><trkpt lat="45.5638387" lon="12.4069715"><ele>0.0</ele><time>2026-04-28T16:50:17.778Z</time></trkpt><trkpt lat="45.5638195" lon="12.4071129"><ele>0.0</ele><time>2026-04-28T16:50:19.781Z</time></trkpt><trkpt lat="45.5637954" lon="12.4072441"><ele>0.0</ele><time>2026-04-28T16:50:21.773Z</time></trkpt><trkpt lat="45.5637692" lon="12.4073511"><ele>0.0</ele><time>2026-04-28T16:50:23.78Z</time></trkpt><trkpt lat="45.5637559" lon="12.4074784"><ele>0.0</ele><time>2026-04-28T16:50:25.778Z</time></trkpt><trkpt lat="45.5637352" lon="12.40761"><ele>0.0</ele><time>2026-04-28T16:50:27.775Z</time></trkpt><trkpt lat="45.5637149" lon="12.4077549"><ele>0.0</ele><time>2026-04-28T16:50:29.773Z</time></trkpt><trkpt lat="45.5636903" lon="12.4078939"><ele>0.0</ele><time>2026-04-28T16:50:31.783Z</time></trkpt><trkpt lat="45.5636592" lon="12.4080232"><ele>0.0</ele><time>2026-04-28T16:50:33.77Z</time></trkpt><trkpt lat="45.5636321" lon="12.4081519"><ele>0.0</ele><time>2026-04-28T16:50:35.777Z</time></trkpt><trkpt lat="45.5636093" lon="12.4082703"><ele>0.0</ele><time>2026-04-28T16:50:37.785Z</time></trkpt><trkpt lat="45.5635805" lon="12.4083965"><ele>0.0</ele><time>2026-04-28T16:50:39.784Z</time></trkpt><trkpt lat="45.5635459" lon="12.4085221"><ele>0.0</ele><time>2026-04-28T16:50:41.774Z</time></trkpt><trkpt lat="45.5635195" lon="12.4086341"><ele>0.0</ele><time>2026-04-28T16:50:43.777Z</time></trkpt><trkpt lat="45.5634903" lon="12.408757"><ele>0.0</ele><time>2026-04-28T16:50:45.797Z</time></trkpt><trkpt lat="45.563464" lon="12.4088761"><ele>0.0</ele><time>2026-04-28T16:50:47.799Z</time></trkpt><trkpt lat="45.5634333" lon="12.4089896"><ele>0.16666666666666666</ele><time>2026-04-28T16:50:49.775Z</time></trkpt><trkpt lat="45.5634106" lon="12.4090972"><ele>0.3333333333333333</ele><time>2026-04-28T16:50:51.767Z</time></trkpt><trkpt lat="45.5633916" lon="12.4092213"><ele>0.5</ele><time>2026-04-28T16:50:53.767Z</time></trkpt><trkpt lat="45.563383" lon="12.4093269"><ele>0.6666666666666666</ele><time>2026-04-28T16:50:55.775Z</time></trkpt><trkpt lat="45.5633863" lon="12.4094285"><ele>0.8333333333333333</ele><time>2026-04-28T16:50:57.796Z</time></trkpt><trkpt lat="45.5634061" lon="12.4095584"><ele>1.0</ele><time>2026-04-28T16:50:59.781Z</time></trkpt><trkpt lat="45.5634335" lon="12.4096978"><ele>1.1666666666666665</ele><time>2026-04-28T16:51:01.774Z</time></trkpt><trkpt lat="45.5634617" lon="12.4098077"><ele>1.3333333333333333</ele><time>2026-04-28T16:51:03.783Z</time></trkpt><trkpt lat="45.5634838" lon="12.4099415"><ele>1.5</ele><time>2026-04-28T16:51:06.78Z</time></trkpt><trkpt lat="45.5635014" lon="12.4100418"><ele>1.6666666666666665</ele><time>2026-04-28T16:51:08.787Z</time></trkpt><trkpt lat="45.5635195" lon="12.4101305"><ele>1.8333333333333333</ele><time>2026-04-28T16:51:10.777Z</time></trkpt><trkpt lat="45.5635398" lon="12.4102312"><ele>2.0</ele><time>2026-04-28T16:51:12.793Z</time></trkpt><trkpt lat="45.5635615" lon="12.4103283"><ele>2.0</ele><time>2026-04-28T16:51:14.795Z</time></trkpt><trkpt lat="45.5635939" lon="12.4104708"><ele>2.0</ele><time>2026-04-28T16:51:16.787Z</time></trkpt><trkpt lat="45.563631" lon="12.4106112"><ele>2.0</ele><time>2026-04-28T16:51:18.781Z</time></trkpt><trkpt lat="45.5636709" lon="12.4107536"><ele>2.0</ele><time>2026-04-28T16:51:20.793Z</time></trkpt><trkpt lat="45.5637145" lon="12.4108905"><ele>2.0</ele><time>2026-04-28T16:51:22.779Z</time></trkpt><trkpt lat="45.5637745" lon="12.4110016"><ele>1.6</ele><time>2026-04-28T16:51:24.777Z</time></trkpt><trkpt lat="45.5638421" lon="12.4111074"><ele>1.2000000000000002</ele><time>2026-04-28T16:51:26.793Z</time></trkpt><trkpt lat="45.5639117" lon="12.4112405"><ele>0.8</ele><time>2026-04-28T16:51:28.778Z</time></trkpt><trkpt lat="45.563982" lon="12.4113513"><ele>0.4</ele><time>2026-04-28T16:51:30.783Z</time></trkpt><trkpt lat="45.5640459" lon="12.411438"><ele>0.0</ele><time>2026-04-28T16:51:32.773Z</time></trkpt><trkpt lat="45.5641209" lon="12.4115409"><ele>0.0</ele><time>2026-04-28T16:51:34.77Z</time></trkpt><trkpt lat="45.5642079" lon="12.4116424"><ele>0.0</ele><time>2026-04-28T16:51:36.771Z</time></trkpt><trkpt lat="45.5642828" lon="12.4117281"><ele>0.0</ele><time>2026-04-28T16:51:38.772Z</time></trkpt><trkpt lat="45.5643539" lon="12.4118134"><ele>0.0</ele><time>2026-04-28T16:51:40.769Z</time></trkpt><trkpt lat="45.5644288" lon="12.4118972"><ele>0.0</ele><time>2026-04-28T16:51:42.767Z</time></trkpt><trkpt lat="45.5645076" lon="12.411973"><ele>0.0</ele><time>2026-04-28T16:51:44.772Z</time></trkpt><trkpt lat="45.5645858" lon="12.4120449"><ele>0.0</ele><time>2026-04-28T16:51:46.778Z</time></trkpt><trkpt lat="45.564665" lon="12.4121189"><ele>0.0</ele><time>2026-04-28T16:51:48.78Z</time></trkpt><trkpt lat="45.5647467" lon="12.4121885"><ele>0.0</ele><time>2026-04-28T16:51:50.785Z</time></trkpt><trkpt lat="45.5648268" lon="12.4122386"><ele>0.0</ele><time>2026-04-28T16:51:52.774Z</time></trkpt><trkpt lat="45.5649203" lon="12.4122976"><ele>0.0</ele><time>2026-04-28T16:51:54.778Z</time></trkpt><trkpt lat="45.5650072" lon="12.412353"><ele>0.0</ele><time>2026-04-28T16:51:56.778Z</time></trkpt><trkpt lat="45.5651013" lon="12.4124075"><ele>0.0</ele><time>2026-04-28T16:51:58.791Z</time></trkpt><trkpt lat="45.5652057" lon="12.4124729"><ele>0.0</ele><time>2026-04-28T16:52:00.772Z</time></trkpt><trkpt lat="45.5653069" lon="12.412557"><ele>0.0</ele><time>2026-04-28T16:52:02.774Z</time></trkpt><trkpt lat="45.5654019" lon="12.4126208"><ele>0.0</ele><time>2026-04-28T16:52:04.786Z</time></trkpt><trkpt lat="45.5654824" lon="12.4126633"><ele>0.0</ele><time>2026-04-28T16:52:06.784Z</time></trkpt><trkpt lat="45.5655756" lon="12.4127269"><ele>0.0</ele><time>2026-04-28T16:52:08.786Z</time></trkpt><trkpt lat="45.5656758" lon="12.4128007"><ele>0.0</ele><time>2026-04-28T16:52:10.771Z</time></trkpt><trkpt lat="45.5657619" lon="12.4128624"><ele>0.0</ele><time>2026-04-28T16:52:12.775Z</time></trkpt><trkpt lat="45.5658613" lon="12.4129344"><ele>0.0</ele><time>2026-04-28T16:52:14.779Z</time></trkpt><trkpt lat="45.5659592" lon="12.4130022"><ele>0.0</ele><time>2026-04-28T16:52:16.775Z</time></trkpt><trkpt lat="45.5660484" lon="12.4130595"><ele>0.0</ele><time>2026-04-28T16:52:18.782Z</time></trkpt><trkpt lat="45.5661498" lon="12.4131294"><ele>0.0</ele><time>2026-04-28T16:52:20.762Z</time></trkpt><trkpt lat="45.5662412" lon="12.4131981"><ele>0.0</ele><time>2026-04-28T16:52:22.779Z</time></trkpt><trkpt lat="45.5663307" lon="12.4132684"><ele>0.0</ele><time>2026-04-28T16:52:24.788Z</time></trkpt><trkpt lat="45.5664232" lon="12.4133384"><ele>0.0</ele><time>2026-04-28T16:52:26.783Z</time></trkpt><trkpt lat="45.5665076" lon="12.4134159"><ele>0.0</ele><time>2026-04-28T16:52:28.788Z</time></trkpt><trkpt lat="45.566596" lon="12.4134982"><ele>0.0</ele><time>2026-04-28T16:52:30.781Z</time></trkpt><trkpt lat="45.5666846" lon="12.4135844"><ele>0.0</ele><time>2026-04-28T16:52:32.779Z</time></trkpt><trkpt lat="45.5667729" lon="12.4136703"><ele>0.0</ele><time>2026-04-28T16:52:34.788Z</time></trkpt><trkpt lat="45.5668545" lon="12.4137597"><ele>0.0</ele><time>2026-04-28T16:52:36.787Z</time></trkpt><trkpt lat="45.5669385" lon="12.4138509"><ele>0.0</ele><time>2026-04-28T16:52:38.794Z</time></trkpt><trkpt lat="45.5670122" lon="12.4139333"><ele>0.0</ele><time>2026-04-28T16:52:40.773Z</time></trkpt><trkpt lat="45.567084" lon="12.4140371"><ele>0.0</ele><time>2026-04-28T16:52:42.819Z</time></trkpt><trkpt lat="45.5671489" lon="12.414143"><ele>-0.2</ele><time>2026-04-28T16:52:44.787Z</time></trkpt><trkpt lat="45.5672078" lon="12.4142357"><ele>-0.4</ele><time>2026-04-28T16:52:46.782Z</time></trkpt><trkpt lat="45.5672664" lon="12.4143347"><ele>-0.6000000000000001</ele><time>2026-04-28T16:52:48.808Z</time></trkpt><trkpt lat="45.5673235" lon="12.4144295"><ele>-0.8</ele><time>2026-04-28T16:52:50.802Z</time></trkpt><trkpt lat="45.5673782" lon="12.4145378"><ele>-1.0</ele><time>2026-04-28T16:52:52.798Z</time></trkpt><trkpt lat="45.5674379" lon="12.4146489"><ele>-0.8</ele><time>2026-04-28T16:52:54.78Z</time></trkpt><trkpt lat="45.5674943" lon="12.4147728"><ele>-0.6000000000000001</ele><time>2026-04-28T16:52:56.781Z</time></trkpt><trkpt lat="45.5675415" lon="12.4148852"><ele>-0.4</ele><time>2026-04-28T16:52:58.796Z</time></trkpt><trkpt lat="45.5675857" lon="12.4150034"><ele>-0.2</ele><time>2026-04-28T16:53:00.769Z</time></trkpt><trkpt lat="45.567623" lon="12.4151202"><ele>0.0</ele><time>2026-04-28T16:53:02.791Z</time></trkpt><trkpt lat="45.5676631" lon="12.4152479"><ele>0.0</ele><time>2026-04-28T16:53:04.778Z</time></trkpt><trkpt lat="45.5676898" lon="12.4153767"><ele>0.0</ele><time>2026-04-28T16:53:06.775Z</time></trkpt><trkpt lat="45.5676931" lon="12.4155183"><ele>0.0</ele><time>2026-04-28T16:53:08.78Z</time></trkpt><trkpt lat="45.5676678" lon="12.4156533"><ele>0.0</ele><time>2026-04-28T16:53:10.785Z</time></trkpt><trkpt lat="45.5676193" lon="12.4157843"><ele>0.0</ele><time>2026-04-28T16:53:12.793Z</time></trkpt><trkpt lat="45.5675724" lon="12.4158949"><ele>-0.2</ele><time>2026-04-28T16:53:14.783Z</time></trkpt><trkpt lat="45.5675125" lon="12.4160077"><ele>-0.4</ele><time>2026-04-28T16:53:16.79Z</time></trkpt><trkpt lat="45.5674568" lon="12.416121"><ele>-0.6000000000000001</ele><time>2026-04-28T16:53:18.786Z</time></trkpt><trkpt lat="45.567398" lon="12.4162297"><ele>-0.8</ele><time>2026-04-28T16:53:20.779Z</time></trkpt><trkpt lat="45.5673454" lon="12.4163481"><ele>-1.0</ele><time>2026-04-28T16:53:22.777Z</time></trkpt><trkpt lat="45.567301" lon="12.4164767"><ele>-1.1666666666666665</ele><time>2026-04-28T16:53:24.769Z</time></trkpt><trkpt lat="45.5672612" lon="12.416606"><ele>-1.3333333333333333</ele><time>2026-04-28T16:53:26.78Z</time></trkpt><trkpt lat="45.567231" lon="12.4167466"><ele>-1.5</ele><time>2026-04-28T16:53:28.779Z</time></trkpt><trkpt lat="45.5672151" lon="12.4168636"><ele>-1.6666666666666665</ele><time>2026-04-28T16:53:30.789Z</time></trkpt><trkpt lat="45.5672062" lon="12.416973"><ele>-1.8333333333333333</ele><time>2026-04-28T16:53:32.782Z</time></trkpt><trkpt lat="45.5671934" lon="12.4170878"><ele>-2.0</ele><time>2026-04-28T16:53:34.787Z</time></trkpt><trkpt lat="45.5671826" lon="12.4172155"><ele>-1.6666666666666665</ele><time>2026-04-28T16:53:36.773Z</time></trkpt><trkpt lat="45.5671789" lon="12.4173376"><ele>-1.3333333333333333</ele><time>2026-04-28T16:53:38.777Z</time></trkpt><trkpt lat="45.5671661" lon="12.4174719"><ele>-1.0</ele><time>2026-04-28T16:53:40.773Z</time></trkpt><trkpt lat="45.567156" lon="12.4175981"><ele>-0.6666666666666666</ele><time>2026-04-28T16:53:42.773Z</time></trkpt><trkpt lat="45.5671414" lon="12.4177298"><ele>-0.3333333333333333</ele><time>2026-04-28T16:53:44.774Z</time></trkpt><trkpt lat="45.5671212" lon="12.4178431"><ele>0.0</ele><time>2026-04-28T16:53:46.783Z</time></trkpt><trkpt lat="45.567084" lon="12.4179546"><ele>0.0</ele><time>2026-04-28T16:53:48.78Z</time></trkpt><trkpt lat="45.5670371" lon="12.4180499"><ele>0.0</ele><time>2026-04-28T16:53:50.772Z</time></trkpt><trkpt lat="45.566955" lon="12.4180944"><ele>0.0</ele><time>2026-04-28T16:53:52.779Z</time></trkpt><trkpt lat="45.5668551" lon="12.4181059"><ele>0.0</ele><time>2026-04-28T16:53:54.78Z</time></trkpt><trkpt lat="45.5667647" lon="12.4181102"><ele>0.0</ele><time>2026-04-28T16:53:56.78Z</time></trkpt><trkpt lat="45.5666631" lon="12.4181078"><ele>0.2</ele><time>2026-04-28T16:53:58.785Z</time></trkpt><trkpt lat="45.5665702" lon="12.4181072"><ele>0.4</ele><time>2026-04-28T16:54:00.798Z</time></trkpt><trkpt lat="45.5664711" lon="12.4181122"><ele>0.6000000000000001</ele><time>2026-04-28T16:54:02.775Z</time></trkpt><trkpt lat="45.5663711" lon="12.4181111"><ele>0.8</ele><time>2026-04-28T16:54:04.784Z</time></trkpt><trkpt lat="45.5662681" lon="12.4181067"><ele>1.0</ele><time>2026-04-28T16:54:06.766Z</time></trkpt><trkpt lat="45.5661746" lon="12.4180981"><ele>1.0</ele><time>2026-04-28T16:54:08.774Z</time></trkpt><trkpt lat="45.5660775" lon="12.4180907"><ele>1.0</ele><time>2026-04-28T16:54:10.773Z</time></trkpt><trkpt lat="45.5659968" lon="12.4180902"><ele>1.0</ele><time>2026-04-28T16:54:12.783Z</time></trkpt><trkpt lat="45.5659118" lon="12.4180885"><ele>1.0</ele><time>2026-04-28T16:54:14.785Z</time></trkpt><trkpt lat="45.5658108" lon="12.4180845"><ele>1.0</ele><time>2026-04-28T16:54:16.774Z</time></trkpt><trkpt lat="45.5657085" lon="12.4180788"><ele>1.0</ele><time>2026-04-28T16:54:18.786Z</time></trkpt><trkpt lat="45.5656052" lon="12.4180723"><ele>1.0</ele><time>2026-04-28T16:54:20.784Z</time></trkpt><trkpt lat="45.5655026" lon="12.4180681"><ele>1.0</ele><time>2026-04-28T16:54:22.787Z</time></trkpt><trkpt lat="45.5653996" lon="12.4180639"><ele>1.0</ele><time>2026-04-28T16:54:24.778Z</time></trkpt><trkpt lat="45.5653038" lon="12.4180626"><ele>1.0</ele><time>2026-04-28T16:54:26.773Z</time></trkpt><trkpt lat="45.5652039" lon="12.4180507"><ele>1.2000000000000002</ele><time>2026-04-28T16:54:28.779Z</time></trkpt><trkpt lat="45.5651118" lon="12.4180392"><ele>1.4000000000000001</ele><time>2026-04-28T16:54:30.786Z</time></trkpt><trkpt lat="45.565015" lon="12.4180276"><ele>1.6</ele><time>2026-04-28T16:54:32.803Z</time></trkpt><trkpt lat="45.5649185" lon="12.418023"><ele>1.8</ele><time>2026-04-28T16:54:34.77Z</time></trkpt><trkpt lat="45.5648246" lon="12.4180181"><ele>2.0</ele><time>2026-04-28T16:54:36.794Z</time></trkpt><trkpt lat="45.5647298" lon="12.4180184"><ele>2.0</ele><time>2026-04-28T16:54:38.769Z</time></trkpt><trkpt lat="45.5646324" lon="12.418025"><ele>2.0</ele><time>2026-04-28T16:54:40.78Z</time></trkpt><trkpt lat="45.5645475" lon="12.4180391"><ele>2.0</ele><time>2026-04-28T16:54:42.777Z</time></trkpt><trkpt lat="45.564442" lon="12.4180644"><ele>2.0</ele><time>2026-04-28T16:54:44.782Z</time></trkpt><trkpt lat="45.5643433" lon="12.4180899"><ele>2.0</ele><time>2026-04-28T16:54:46.772Z</time></trkpt><trkpt lat="45.5642394" lon="12.4181339"><ele>1.6</ele><time>2026-04-28T16:54:48.771Z</time></trkpt><trkpt lat="45.5641482" lon="12.4181705"><ele>1.2000000000000002</ele><time>2026-04-28T16:54:50.769Z</time></trkpt><trkpt lat="45.5640665" lon="12.4182089"><ele>0.8</ele><time>2026-04-28T16:54:52.776Z</time></trkpt><trkpt lat="45.5639817" lon="12.4182505"><ele>0.4</ele><time>2026-04-28T16:54:54.79Z</time></trkpt><trkpt lat="45.5638912" lon="12.4183053"><ele>0.0</ele><time>2026-04-28T16:54:56.79Z</time></trkpt><trkpt lat="45.5637946" lon="12.4183539"><ele>0.0</ele><time>2026-04-28T16:54:58.775Z</time></trkpt><trkpt lat="45.5636987" lon="12.4184041"><ele>0.0</ele><time>2026-04-28T16:55:00.792Z</time></trkpt><trkpt lat="45.5636158" lon="12.4184459"><ele>0.0</ele><time>2026-04-28T16:55:02.782Z</time></trkpt><trkpt lat="45.5635248" lon="12.4184846"><ele>0.0</ele><time>2026-04-28T16:55:04.795Z</time></trkpt><trkpt lat="45.5634332" lon="12.4185184"><ele>0.0</ele><time>2026-04-28T16:55:06.784Z</time></trkpt><trkpt lat="45.5633505" lon="12.4185475"><ele>0.0</ele><time>2026-04-28T16:55:08.789Z</time></trkpt><trkpt lat="45.5632617" lon="12.4185993"><ele>0.0</ele><time>2026-04-28T16:55:10.774Z</time></trkpt><trkpt lat="45.5631804" lon="12.4186503"><ele>0.0</ele><time>2026-04-28T16:55:12.793Z</time></trkpt><trkpt lat="45.5630975" lon="12.4187278"><ele>0.0</ele><time>2026-04-28T16:55:14.794Z</time></trkpt><trkpt lat="45.563027" lon="12.418808"><ele>0.0</ele><time>2026-04-28T16:55:16.776Z</time></trkpt><trkpt lat="45.5629653" lon="12.4189228"><ele>0.0</ele><time>2026-04-28T16:55:18.782Z</time></trkpt><trkpt lat="45.5629134" lon="12.4190372"><ele>0.0</ele><time>2026-04-28T16:55:20.781Z</time></trkpt><trkpt lat="45.5628613" lon="12.419149"><ele>0.0</ele><time>2026-04-28T16:55:22.775Z</time></trkpt><trkpt lat="45.5628146" lon="12.4192644"><ele>0.0</ele><time>2026-04-28T16:55:24.773Z</time></trkpt><trkpt lat="45.562771" lon="12.4193942"><ele>0.0</ele><time>2026-04-28T16:55:26.775Z</time></trkpt><trkpt lat="45.5627366" lon="12.4195288"><ele>0.0</ele><time>2026-04-28T16:55:28.789Z</time></trkpt><trkpt lat="45.5627165" lon="12.4196614"><ele>0.0</ele><time>2026-04-28T16:55:30.775Z</time></trkpt><trkpt lat="45.5626992" lon="12.4197942"><ele>0.0</ele><time>2026-04-28T16:55:32.781Z</time></trkpt><trkpt lat="45.5626929" lon="12.419895"><ele>0.0</ele><time>2026-04-28T16:55:34.788Z</time></trkpt><trkpt lat="45.5626772" lon="12.4199945"><ele>0.0</ele><time>2026-04-28T16:55:36.788Z</time></trkpt><trkpt lat="45.5626568" lon="12.4201068"><ele>0.0</ele><time>2026-04-28T16:55:38.783Z</time></trkpt><trkpt lat="45.5626332" lon="12.4202388"><ele>0.0</ele><time>2026-04-28T16:55:40.775Z</time></trkpt><trkpt lat="45.5626205" lon="12.4203722"><ele>0.0</ele><time>2026-04-28T16:55:42.789Z</time></trkpt><trkpt lat="45.562606" lon="12.4205008"><ele>0.0</ele><time>2026-04-28T16:55:44.79Z</time></trkpt><trkpt lat="45.5625891" lon="12.4206272"><ele>0.0</ele><time>2026-04-28T16:55:46.772Z</time></trkpt><trkpt lat="45.5625526" lon="12.4207633"><ele>0.0</ele><time>2026-04-28T16:55:48.789Z</time></trkpt><trkpt lat="45.5625115" lon="12.4208784"><ele>0.0</ele><time>2026-04-28T16:55:50.79Z</time></trkpt><trkpt lat="45.5624682" lon="12.420984"><ele>0.0</ele><time>2026-04-28T16:55:52.783Z</time></trkpt><trkpt lat="45.5624124" lon="12.4211005"><ele>0.0</ele><time>2026-04-28T16:55:54.789Z</time></trkpt><trkpt lat="45.5623627" lon="12.421206"><ele>0.0</ele><time>2026-04-28T16:55:56.781Z</time></trkpt><trkpt lat="45.5623105" lon="12.4213178"><ele>0.0</ele><time>2026-04-28T16:55:58.78Z</time></trkpt><trkpt lat="45.5622569" lon="12.4214315"><ele>-0.2</ele><time>2026-04-28T16:56:00.774Z</time></trkpt><trkpt lat="45.5622099" lon="12.421536"><ele>-0.4</ele><time>2026-04-28T16:56:02.774Z</time></trkpt><trkpt lat="45.562157" lon="12.4216486"><ele>-0.6000000000000001</ele><time>2026-04-28T16:56:04.784Z</time></trkpt><trkpt lat="45.5621019" lon="12.4217589"><ele>-0.8</ele><time>2026-04-28T16:56:06.776Z</time></trkpt><trkpt lat="45.56205" lon="12.4218639"><ele>-1.0</ele><time>2026-04-28T16:56:08.781Z</time></trkpt><trkpt lat="45.5619915" lon="12.4219675"><ele>-0.8</ele><time>2026-04-28T16:56:10.773Z</time></trkpt><trkpt lat="45.5619341" lon="12.4220741"><ele>-0.6000000000000001</ele><time>2026-04-28T16:56:12.803Z</time></trkpt><trkpt lat="45.5618764" lon="12.4221842"><ele>-0.4</ele><time>2026-04-28T16:56:14.789Z</time></trkpt><trkpt lat="45.5618199" lon="12.4222971"><ele>-0.2</ele><time>2026-04-28T16:56:16.766Z</time></trkpt><trkpt lat="45.5617653" lon="12.4224056"><ele>0.0</ele><time>2026-04-28T16:56:18.77Z</time></trkpt><trkpt lat="45.5617096" lon="12.4225093"><ele>0.0</ele><time>2026-04-28T16:56:20.777Z</time></trkpt><trkpt lat="45.5616527" lon="12.4226133"><ele>0.0</ele><time>2026-04-28T16:56:22.779Z</time></trkpt><trkpt lat="45.5615976" lon="12.4227203"><ele>0.0</ele><time>2026-04-28T16:56:24.767Z</time></trkpt><trkpt lat="45.561545" lon="12.422822"><ele>0.0</ele><time>2026-04-28T16:56:26.773Z</time></trkpt><trkpt lat="45.5614853" lon="12.4229293"><ele>0.0</ele><time>2026-04-28T16:56:28.77Z</time></trkpt><trkpt lat="45.5614325" lon="12.4230185"><ele>0.0</ele><time>2026-04-28T16:56:30.777Z</time></trkpt><trkpt lat="45.5613861" lon="12.4231151"><ele>0.0</ele><time>2026-04-28T16:56:32.776Z</time></trkpt><trkpt lat="45.5613341" lon="12.4232043"><ele>0.0</ele><time>2026-04-28T16:56:34.79Z</time></trkpt><trkpt lat="45.5612916" lon="12.4232841"><ele>0.0</ele><time>2026-04-28T16:56:36.786Z</time></trkpt><trkpt lat="45.5612376" lon="12.4233898"><ele>0.0</ele><time>2026-04-28T16:56:38.769Z</time></trkpt><trkpt lat="45.5611861" lon="12.4234902"><ele>0.0</ele><time>2026-04-28T16:56:40.768Z</time></trkpt><trkpt lat="45.5611333" lon="12.4235944"><ele>0.0</ele><time>2026-04-28T16:56:42.769Z</time></trkpt><trkpt lat="45.5610835" lon="12.4237022"><ele>0.0</ele><time>2026-04-28T16:56:44.767Z</time></trkpt><trkpt lat="45.5610315" lon="12.4238072"><ele>0.0</ele><time>2026-04-28T16:56:46.77Z</time></trkpt><trkpt lat="45.5609852" lon="12.4239253"><ele>0.0</ele><time>2026-04-28T16:56:48.768Z</time></trkpt><trkpt lat="45.5609334" lon="12.4240337"><ele>0.0</ele><time>2026-04-28T16:56:50.759Z</time></trkpt><trkpt lat="45.5608827" lon="12.4241389"><ele>-0.4</ele><time>2026-04-28T16:56:52.765Z</time></trkpt><trkpt lat="45.5608347" lon="12.4242368"><ele>-0.8</ele><time>2026-04-28T16:56:54.77Z</time></trkpt><trkpt lat="45.5607874" lon="12.4243628"><ele>-1.2000000000000002</ele><time>2026-04-28T16:56:56.769Z</time></trkpt><trkpt lat="45.5607515" lon="12.4244806"><ele>-1.6</ele><time>2026-04-28T16:56:58.789Z</time></trkpt><trkpt lat="45.5607294" lon="12.4246012"><ele>-2.0</ele><time>2026-04-28T16:57:00.767Z</time></trkpt><trkpt lat="45.560703" lon="12.4247358"><ele>-2.2</ele><time>2026-04-28T16:57:02.775Z</time></trkpt><trkpt lat="45.5606867" lon="12.4248645"><ele>-2.4000000000000004</ele><time>2026-04-28T16:57:04.781Z</time></trkpt><trkpt lat="45.5606746" lon="12.424993"><ele>-2.5999999999999996</ele><time>2026-04-28T16:57:06.811Z</time></trkpt><trkpt lat="45.5606717" lon="12.4251218"><ele>-2.8</ele><time>2026-04-28T16:57:08.775Z</time></trkpt><trkpt lat="45.5606735" lon="12.4252475"><ele>-3.0</ele><time>2026-04-28T16:57:10.779Z</time></trkpt><trkpt lat="45.560687" lon="12.4253798"><ele>-2.6</ele><time>2026-04-28T16:57:12.775Z</time></trkpt><trkpt lat="45.5607108" lon="12.4255182"><ele>-2.1999999999999997</ele><time>2026-04-28T16:57:14.777Z</time></trkpt><trkpt lat="45.560743" lon="12.4256426"><ele>-1.8</ele><time>2026-04-28T16:57:16.768Z</time></trkpt><trkpt lat="45.5607847" lon="12.4257585"><ele>-1.4</ele><time>2026-04-28T16:57:18.768Z</time></trkpt><trkpt lat="45.5608366" lon="12.4258732"><ele>-1.0</ele><time>2026-04-28T16:57:20.77Z</time></trkpt><trkpt lat="45.5608921" lon="12.4259655"><ele>-0.9999999999999999</ele><time>2026-04-28T16:57:22.778Z</time></trkpt><trkpt lat="45.5609634" lon="12.4260499"><ele>-1.0</ele><time>2026-04-28T16:57:24.778Z</time></trkpt><trkpt lat="45.5610503" lon="12.4261105"><ele>-1.0</ele><time>2026-04-28T16:57:26.785Z</time></trkpt><trkpt lat="45.5611314" lon="12.4261578"><ele>-1.0</ele><time>2026-04-28T16:57:28.771Z</time></trkpt><trkpt lat="45.5612086" lon="12.4261955"><ele>-0.9999999999999999</ele><time>2026-04-28T16:57:30.779Z</time></trkpt><trkpt lat="45.5612834" lon="12.4262323"><ele>-1.0</ele><time>2026-04-28T16:57:32.783Z</time></trkpt><trkpt lat="45.5613616" lon="12.426284"><ele>-1.1666666666666665</ele><time>2026-04-28T16:57:34.775Z</time></trkpt><trkpt lat="45.5614415" lon="12.4263409"><ele>-1.3333333333333333</ele><time>2026-04-28T16:57:36.79Z</time></trkpt><trkpt lat="45.561519" lon="12.4263875"><ele>-1.5</ele><time>2026-04-28T16:57:38.78Z</time></trkpt><trkpt lat="45.5615995" lon="12.4264434"><ele>-1.6666666666666665</ele><time>2026-04-28T16:57:40.767Z</time></trkpt><trkpt lat="45.5616781" lon="12.4265203"><ele>-1.8333333333333333</ele><time>2026-04-28T16:57:42.77Z</time></trkpt><trkpt lat="45.5617481" lon="12.4265893"><ele>-2.0</ele><time>2026-04-28T16:57:44.775Z</time></trkpt><trkpt lat="45.5618198" lon="12.4266679"><ele>-2.0</ele><time>2026-04-28T16:57:46.771Z</time></trkpt><trkpt lat="45.5618885" lon="12.4267517"><ele>-2.0</ele><time>2026-04-28T16:57:48.777Z</time></trkpt><trkpt lat="45.5619611" lon="12.4268366"><ele>-2.0</ele><time>2026-04-28T16:57:50.78Z</time></trkpt><trkpt lat="45.5620281" lon="12.4269158"><ele>-2.0</ele><time>2026-04-28T16:57:52.773Z</time></trkpt><trkpt lat="45.562099" lon="12.4269951"><ele>-2.0</ele><time>2026-04-28T16:57:54.782Z</time></trkpt><trkpt lat="45.562171" lon="12.4270731"><ele>-1.8333333333333333</ele><time>2026-04-28T16:57:56.774Z</time></trkpt><trkpt lat="45.5622452" lon="12.42716"><ele>-1.6666666666666665</ele><time>2026-04-28T16:57:58.78Z</time></trkpt><trkpt lat="45.5623194" lon="12.4272386"><ele>-1.5</ele><time>2026-04-28T16:58:00.796Z</time></trkpt><trkpt lat="45.5623865" lon="12.4273111"><ele>-1.3333333333333333</ele><time>2026-04-28T16:58:02.786Z</time></trkpt><trkpt lat="45.5624505" lon="12.4273848"><ele>-1.1666666666666665</ele><time>2026-04-28T16:58:04.784Z</time></trkpt><trkpt lat="45.5625144" lon="12.4274556"><ele>-1.0</ele><time>2026-04-28T16:58:06.773Z</time></trkpt><trkpt lat="45.5625851" lon="12.4275438"><ele>-0.9999999999999999</ele><time>2026-04-28T16:58:08.786Z</time></trkpt><trkpt lat="45.5626481" lon="12.4276159"><ele>-1.0</ele><time>2026-04-28T16:58:10.774Z</time></trkpt><trkpt lat="45.5627119" lon="12.427688"><ele>-1.0</ele><time>2026-04-28T16:58:12.782Z</time></trkpt><trkpt lat="45.5627829" lon="12.4277653"><ele>-1.0</ele><time>2026-04-28T16:58:14.777Z</time></trkpt><trkpt lat="45.5628558" lon="12.4278443"><ele>-0.9999999999999999</ele><time>2026-04-28T16:58:16.779Z</time></trkpt><trkpt lat="45.5629304" lon="12.4279229"><ele>-1.0</ele><time>2026-04-28T16:58:18.787Z</time></trkpt><trkpt lat="45.5630116" lon="12.4280032"><ele>-0.6000000000000001</ele><time>2026-04-28T16:58:20.776Z</time></trkpt><trkpt lat="45.5630899" lon="12.4280898"><ele>-0.20000000000000007</ele><time>2026-04-28T16:58:22.776Z</time></trkpt><trkpt lat="45.5631695" lon="12.42818"><ele>0.20000000000000007</ele><time>2026-04-28T16:58:24.782Z</time></trkpt><trkpt lat="45.5632416" lon="12.4282706"><ele>0.6000000000000001</ele><time>2026-04-28T16:58:26.764Z</time></trkpt><trkpt lat="45.5632969" lon="12.4283676"><ele>1.0</ele><time>2026-04-28T16:58:28.774Z</time></trkpt><trkpt lat="45.5633354" lon="12.4284628"><ele>1.0</ele><time>2026-04-28T16:58:30.789Z</time></trkpt><trkpt lat="45.5633572" lon="12.4285787"><ele>1.0</ele><time>2026-04-28T16:58:32.775Z</time></trkpt><trkpt lat="45.5633541" lon="12.4287099"><ele>1.0</ele><time>2026-04-28T16:58:34.778Z</time></trkpt><trkpt lat="45.5633456" lon="12.4288446"><ele>1.0</ele><time>2026-04-28T16:58:36.77Z</time></trkpt><trkpt lat="45.563326" lon="12.4289713"><ele>1.0</ele><time>2026-04-28T16:58:38.788Z</time></trkpt><trkpt lat="45.5632904" lon="12.4290868"><ele>0.6666666666666666</ele><time>2026-04-28T16:58:40.773Z</time></trkpt><trkpt lat="45.5632458" lon="12.4292004"><ele>0.3333333333333333</ele><time>2026-04-28T16:58:42.77Z</time></trkpt><trkpt lat="45.5631938" lon="12.4293119"><ele>0.0</ele><time>2026-04-28T16:58:44.776Z</time></trkpt><trkpt lat="45.5631469" lon="12.4294069"><ele>-0.3333333333333333</ele><time>2026-04-28T16:58:46.784Z</time></trkpt><trkpt lat="45.5630958" lon="12.4295067"><ele>-0.6666666666666666</ele><time>2026-04-28T16:58:48.778Z</time></trkpt><trkpt lat="45.563029" lon="12.4296007"><ele>-1.0</ele><time>2026-04-28T16:58:50.782Z</time></trkpt><trkpt lat="45.5629554" lon="12.4296888"><ele>-0.9999999999999999</ele><time>2026-04-28T16:58:52.779Z</time></trkpt><trkpt lat="45.5628753" lon="12.4297635"><ele>-1.0</ele><time>2026-04-28T16:58:54.797Z</time></trkpt><trkpt lat="45.5628034" lon="12.4298327"><ele>-1.0</ele><time>2026-04-28T16:58:56.77Z</time></trkpt><trkpt lat="45.5627348" lon="12.4298921"><ele>-1.0</ele><time>2026-04-28T16:58:58.771Z</time></trkpt><trkpt lat="45.5626789" lon="12.4299441"><ele>-0.9999999999999999</ele><time>2026-04-28T16:59:00.789Z</time></trkpt><trkpt lat="45.5626063" lon="12.4300152"><ele>-1.0</ele><time>2026-04-28T16:59:03.794Z</time></trkpt><trkpt lat="45.5625308" lon="12.4300752"><ele>-0.9999999999999999</ele><time>2026-04-28T16:59:06.782Z</time></trkpt><trkpt lat="45.5624618" lon="12.4301336"><ele>-1.0</ele><time>2026-04-28T16:59:09.787Z</time></trkpt><trkpt lat="45.5624084" lon="12.430197"><ele>-1.0</ele><time>2026-04-28T16:59:13.785Z</time></trkpt><trkpt lat="45.5623454" lon="12.4302651"><ele>-1.0</ele><time>2026-04-28T16:59:16.76Z</time></trkpt><trkpt lat="45.5622893" lon="12.4303391"><ele>-0.9999999999999999</ele><time>2026-04-28T16:59:19.781Z</time></trkpt><trkpt lat="45.5622148" lon="12.4304151"><ele>-1.0</ele><time>2026-04-28T16:59:22.761Z</time></trkpt><trkpt lat="45.5621342" lon="12.4304978"><ele>-1.0</ele><time>2026-04-28T16:59:25.779Z</time></trkpt><trkpt lat="45.562072" lon="12.4305566"><ele>-0.9999999999999999</ele><time>2026-04-28T16:59:27.776Z</time></trkpt><trkpt lat="45.5620123" lon="12.4306132"><ele>-1.0</ele><time>2026-04-28T16:59:29.773Z</time></trkpt><trkpt lat="45.5619473" lon="12.4306639"><ele>-1.0</ele><time>2026-04-28T16:59:31.776Z</time></trkpt><trkpt lat="45.5618938" lon="12.4307125"><ele>-0.9999999999999999</ele><time>2026-04-28T16:59:33.788Z</time></trkpt><trkpt lat="45.5618351" lon="12.4307771"><ele>-1.0</ele><time>2026-04-28T16:59:35.779Z</time></trkpt><trkpt lat="45.5617651" lon="12.4308525"><ele>-1.0</ele><time>2026-04-28T16:59:37.786Z</time></trkpt><trkpt lat="45.5616916" lon="12.4309212"><ele>-0.6666666666666666</ele><time>2026-04-28T16:59:39.786Z</time></trkpt><trkpt lat="45.5616264" lon="12.4309779"><ele>-0.3333333333333333</ele><time>2026-04-28T16:59:41.802Z</time></trkpt><trkpt lat="45.5615605" lon="12.4310309"><ele>0.0</ele><time>2026-04-28T16:59:43.786Z</time></trkpt><trkpt lat="45.5614874" lon="12.4311205"><ele>0.3333333333333333</ele><time>2026-04-28T16:59:45.778Z</time></trkpt><trkpt lat="45.5614114" lon="12.431203"><ele>0.6666666666666666</ele><time>2026-04-28T16:59:47.761Z</time></trkpt><trkpt lat="45.5613439" lon="12.4312657"><ele>1.0</ele><time>2026-04-28T16:59:49.788Z</time></trkpt><trkpt lat="45.5612674" lon="12.4313297"><ele>0.9999999999999999</ele><time>2026-04-28T16:59:51.783Z</time></trkpt><trkpt lat="45.5611997" lon="12.4313958"><ele>1.0</ele><time>2026-04-28T16:59:53.776Z</time></trkpt><trkpt lat="45.5611319" lon="12.4314587"><ele>1.0</ele><time>2026-04-28T16:59:55.8Z</time></trkpt><trkpt lat="45.5610633" lon="12.4315252"><ele>1.0</ele><time>2026-04-28T16:59:57.792Z</time></trkpt><trkpt lat="45.5609927" lon="12.4315883"><ele>0.9999999999999999</ele><time>2026-04-28T16:59:59.785Z</time></trkpt><trkpt lat="45.5609168" lon="12.4316534"><ele>1.0</ele><time>2026-04-28T17:00:01.782Z</time></trkpt><trkpt lat="45.5608396" lon="12.4317188"><ele>0.9999999999999999</ele><time>2026-04-28T17:00:03.784Z</time></trkpt><trkpt lat="45.56078" lon="12.4317759"><ele>1.0</ele><time>2026-04-28T17:00:05.809Z</time></trkpt><trkpt lat="45.5607111" lon="12.4318403"><ele>1.0</ele><time>2026-04-28T17:00:07.774Z</time></trkpt><trkpt lat="45.5606591" lon="12.431923"><ele>1.0</ele><time>2026-04-28T17:00:09.782Z</time></trkpt><trkpt lat="45.5606098" lon="12.4320067"><ele>0.9999999999999999</ele><time>2026-04-28T17:00:11.817Z</time></trkpt><trkpt lat="45.5605771" lon="12.432107"><ele>1.0</ele><time>2026-04-28T17:00:13.788Z</time></trkpt><trkpt lat="45.5605471" lon="12.4322105"><ele>0.9999999999999999</ele><time>2026-04-28T17:00:15.794Z</time></trkpt><trkpt lat="45.5605187" lon="12.4323311"><ele>1.0</ele><time>2026-04-28T17:00:17.788Z</time></trkpt><trkpt lat="45.5605045" lon="12.4324578"><ele>1.0</ele><time>2026-04-28T17:00:19.775Z</time></trkpt><trkpt lat="45.5605114" lon="12.4325765"><ele>1.0</ele><time>2026-04-28T17:00:21.784Z</time></trkpt><trkpt lat="45.5605437" lon="12.4327082"><ele>0.9999999999999999</ele><time>2026-04-28T17:00:23.795Z</time></trkpt><trkpt lat="45.5605818" lon="12.4328204"><ele>1.0</ele><time>2026-04-28T17:00:25.775Z</time></trkpt><trkpt lat="45.5606362" lon="12.4329199"><ele>0.8</ele><time>2026-04-28T17:00:27.782Z</time></trkpt><trkpt lat="45.560699" lon="12.4330142"><ele>0.6000000000000001</ele><time>2026-04-28T17:00:29.776Z</time></trkpt><trkpt lat="45.5607662" lon="12.4330918"><ele>0.4</ele><time>2026-04-28T17:00:31.769Z</time></trkpt><trkpt lat="45.5608364" lon="12.4331635"><ele>0.2</ele><time>2026-04-28T17:00:33.797Z</time></trkpt><trkpt lat="45.5609089" lon="12.4332384"><ele>0.0</ele><time>2026-04-28T17:00:35.785Z</time></trkpt><trkpt lat="45.5609942" lon="12.433309"><ele>0.0</ele><time>2026-04-28T17:00:37.768Z</time></trkpt><trkpt lat="45.5610647" lon="12.4333794"><ele>0.0</ele><time>2026-04-28T17:00:39.794Z</time></trkpt><trkpt lat="45.5611475" lon="12.4334426"><ele>0.0</ele><time>2026-04-28T17:00:41.797Z</time></trkpt><trkpt lat="45.561231" lon="12.4335029"><ele>0.0</ele><time>2026-04-28T17:00:43.795Z</time></trkpt><trkpt lat="45.5613252" lon="12.4335615"><ele>0.0</ele><time>2026-04-28T17:00:45.789Z</time></trkpt><trkpt lat="45.5614148" lon="12.4336187"><ele>-0.2</ele><time>2026-04-28T17:00:47.779Z</time></trkpt><trkpt lat="45.5615051" lon="12.4336572"><ele>-0.4</ele><time>2026-04-28T17:00:49.776Z</time></trkpt><trkpt lat="45.5616072" lon="12.4337156"><ele>-0.6000000000000001</ele><time>2026-04-28T17:00:51.788Z</time></trkpt><trkpt lat="45.5617031" lon="12.4337707"><ele>-0.8</ele><time>2026-04-28T17:00:53.786Z</time></trkpt><trkpt lat="45.5618023" lon="12.4338249"><ele>-1.0</ele><time>2026-04-28T17:00:55.777Z</time></trkpt><trkpt lat="45.5619011" lon="12.4338764"><ele>-1.2000000000000002</ele><time>2026-04-28T17:00:57.773Z</time></trkpt><trkpt lat="45.5619967" lon="12.4339289"><ele>-1.4000000000000001</ele><time>2026-04-28T17:00:59.773Z</time></trkpt><trkpt lat="45.5620912" lon="12.4339823"><ele>-1.6</ele><time>2026-04-28T17:01:01.772Z</time></trkpt><trkpt lat="45.5621762" lon="12.4340242"><ele>-1.8</ele><time>2026-04-28T17:01:03.786Z</time></trkpt><trkpt lat="45.5622661" lon="12.4340768"><ele>-2.0</ele><time>2026-04-28T17:01:05.773Z</time></trkpt><trkpt lat="45.5623556" lon="12.4341347"><ele>-2.0</ele><time>2026-04-28T17:01:07.788Z</time></trkpt><trkpt lat="45.5624446" lon="12.434194"><ele>-2.0</ele><time>2026-04-28T17:01:09.786Z</time></trkpt><trkpt lat="45.5625378" lon="12.4342489"><ele>-2.0</ele><time>2026-04-28T17:01:11.782Z</time></trkpt><trkpt lat="45.5626322" lon="12.4343084"><ele>-2.0</ele><time>2026-04-28T17:01:13.789Z</time></trkpt><trkpt lat="45.5627231" lon="12.4343598"><ele>-2.0</ele><time>2026-04-28T17:01:15.794Z</time></trkpt><trkpt lat="45.5628126" lon="12.4344283"><ele>-1.8</ele><time>2026-04-28T17:01:17.789Z</time></trkpt><trkpt lat="45.5629058" lon="12.4344845"><ele>-1.6</ele><time>2026-04-28T17:01:19.774Z</time></trkpt><trkpt lat="45.5629927" lon="12.4345428"><ele>-1.4000000000000001</ele><time>2026-04-28T17:01:21.791Z</time></trkpt><trkpt lat="45.5630755" lon="12.4346048"><ele>-1.2000000000000002</ele><time>2026-04-28T17:01:23.782Z</time></trkpt><trkpt lat="45.5631585" lon="12.4346957"><ele>-1.0</ele><time>2026-04-28T17:01:25.775Z</time></trkpt><trkpt lat="45.5632302" lon="12.4347931"><ele>-0.8</ele><time>2026-04-28T17:01:27.784Z</time></trkpt><trkpt lat="45.5632961" lon="12.4348921"><ele>-0.6000000000000001</ele><time>2026-04-28T17:01:29.786Z</time></trkpt><trkpt lat="45.5633533" lon="12.4350001"><ele>-0.4</ele><time>2026-04-28T17:01:31.791Z</time></trkpt><trkpt lat="45.5633932" lon="12.4351279"><ele>-0.2</ele><time>2026-04-28T17:01:33.786Z</time></trkpt><trkpt lat="45.5634092" lon="12.4352661"><ele>0.0</ele><time>2026-04-28T17:01:35.8Z</time></trkpt><trkpt lat="45.5634036" lon="12.4353986"><ele>-0.4</ele><time>2026-04-28T17:01:37.78Z</time></trkpt><trkpt lat="45.5634014" lon="12.4355294"><ele>-0.8</ele><time>2026-04-28T17:01:39.803Z</time></trkpt><trkpt lat="45.5633805" lon="12.4356622"><ele>-1.2000000000000002</ele><time>2026-04-28T17:01:41.784Z</time></trkpt><trkpt lat="45.5633322" lon="12.4357803"><ele>-1.6</ele><time>2026-04-28T17:01:43.784Z</time></trkpt><trkpt lat="45.5632512" lon="12.4358794"><ele>-2.0</ele><time>2026-04-28T17:01:45.783Z</time></trkpt><trkpt lat="45.5631691" lon="12.4359619"><ele>-2.0</ele><time>2026-04-28T17:01:47.784Z</time></trkpt><trkpt lat="45.5630735" lon="12.4360423"><ele>-2.0</ele><time>2026-04-28T17:01:49.775Z</time></trkpt><trkpt lat="45.5629732" lon="12.4360866"><ele>-2.0</ele><time>2026-04-28T17:01:51.781Z</time></trkpt><trkpt lat="45.5628786" lon="12.4361244"><ele>-2.0</ele><time>2026-04-28T17:01:53.781Z</time></trkpt><trkpt lat="45.5627865" lon="12.4361249"><ele>-2.0</ele><time>2026-04-28T17:01:55.783Z</time></trkpt><trkpt lat="45.5626938" lon="12.4361171"><ele>-1.6</ele><time>2026-04-28T17:01:57.768Z</time></trkpt><trkpt lat="45.5626007" lon="12.4361008"><ele>-1.2000000000000002</ele><time>2026-04-28T17:01:59.786Z</time></trkpt><trkpt lat="45.5625048" lon="12.4360763"><ele>-0.8</ele><time>2026-04-28T17:02:01.768Z</time></trkpt><trkpt lat="45.5624069" lon="12.4360553"><ele>-0.4</ele><time>2026-04-28T17:02:03.774Z</time></trkpt><trkpt lat="45.5623085" lon="12.4360368"><ele>0.0</ele><time>2026-04-28T17:02:05.766Z</time></trkpt><trkpt lat="45.5622126" lon="12.4360209"><ele>0.0</ele><time>2026-04-28T17:02:07.786Z</time></trkpt><trkpt lat="45.56212" lon="12.4360083"><ele>0.0</ele><time>2026-04-28T17:02:09.783Z</time></trkpt><trkpt lat="45.5620276" lon="12.4360061"><ele>0.0</ele><time>2026-04-28T17:02:11.765Z</time></trkpt><trkpt lat="45.5619311" lon="12.4359974"><ele>0.0</ele><time>2026-04-28T17:02:13.773Z</time></trkpt><trkpt lat="45.561836" lon="12.435994"><ele>0.0</ele><time>2026-04-28T17:02:15.779Z</time></trkpt><trkpt lat="45.5617373" lon="12.4359863"><ele>0.0</ele><time>2026-04-28T17:02:17.79Z</time></trkpt><trkpt lat="45.5616421" lon="12.4359826"><ele>0.0</ele><time>2026-04-28T17:02:19.787Z</time></trkpt><trkpt lat="45.5615471" lon="12.4359695"><ele>0.0</ele><time>2026-04-28T17:02:21.792Z</time></trkpt><trkpt lat="45.5614578" lon="12.4359576"><ele>0.0</ele><time>2026-04-28T17:02:23.778Z</time></trkpt><trkpt lat="45.5613683" lon="12.4359409"><ele>0.0</ele><time>2026-04-28T17:02:25.783Z</time></trkpt><trkpt lat="45.5612738" lon="12.4359233"><ele>0.0</ele><time>2026-04-28T17:02:27.78Z</time></trkpt><trkpt lat="45.5611845" lon="12.4359112"><ele>0.0</ele><time>2026-04-28T17:02:29.795Z</time></trkpt><trkpt lat="45.5610879" lon="12.4358943"><ele>0.0</ele><time>2026-04-28T17:02:31.783Z</time></trkpt><trkpt lat="45.5609923" lon="12.4358768"><ele>0.0</ele><time>2026-04-28T17:02:33.794Z</time></trkpt><trkpt lat="45.5609003" lon="12.4358651"><ele>0.0</ele><time>2026-04-28T17:02:35.783Z</time></trkpt><trkpt lat="45.5608103" lon="12.435855"><ele>0.0</ele><time>2026-04-28T17:02:37.797Z</time></trkpt><trkpt lat="45.5607223" lon="12.4358513"><ele>0.0</ele><time>2026-04-28T17:02:39.769Z</time></trkpt><trkpt lat="45.5606326" lon="12.4358504"><ele>0.0</ele><time>2026-04-28T17:02:41.79Z</time></trkpt><trkpt lat="45.560541" lon="12.4358614"><ele>0.0</ele><time>2026-04-28T17:02:43.776Z</time></trkpt><trkpt lat="45.5604473" lon="12.4358691"><ele>0.0</ele><time>2026-04-28T17:02:45.789Z</time></trkpt><trkpt lat="45.5603511" lon="12.435884"><ele>0.2</ele><time>2026-04-28T17:02:47.789Z</time></trkpt><trkpt lat="45.5602474" lon="12.4359064"><ele>0.4</ele><time>2026-04-28T17:02:49.774Z</time></trkpt><trkpt lat="45.5601533" lon="12.4359369"><ele>0.6000000000000001</ele><time>2026-04-28T17:02:51.813Z</time></trkpt><trkpt lat="45.560061" lon="12.435971"><ele>0.8</ele><time>2026-04-28T17:02:53.772Z</time></trkpt><trkpt lat="45.5599757" lon="12.4360271"><ele>1.0</ele><time>2026-04-28T17:02:55.778Z</time></trkpt><trkpt lat="45.5599083" lon="12.4360797"><ele>0.9999999999999999</ele><time>2026-04-28T17:02:57.784Z</time></trkpt><trkpt lat="45.5598385" lon="12.4361282"><ele>1.0</ele><time>2026-04-28T17:02:59.789Z</time></trkpt><trkpt lat="45.5597751" lon="12.4361684"><ele>1.0</ele><time>2026-04-28T17:03:01.77Z</time></trkpt><trkpt lat="45.5597024" lon="12.436224"><ele>1.0</ele><time>2026-04-28T17:03:03.793Z</time></trkpt><trkpt lat="45.5596357" lon="12.4362793"><ele>0.9999999999999999</ele><time>2026-04-28T17:03:05.787Z</time></trkpt><trkpt lat="45.5595667" lon="12.4363387"><ele>1.0</ele><time>2026-04-28T17:03:07.793Z</time></trkpt><trkpt lat="45.5594921" lon="12.4364201"><ele>0.9999999999999999</ele><time>2026-04-28T17:03:09.797Z</time></trkpt><trkpt lat="45.5594267" lon="12.4364955"><ele>1.0</ele><time>2026-04-28T17:03:11.778Z</time></trkpt><trkpt lat="45.5593616" lon="12.4365748"><ele>1.0</ele><time>2026-04-28T17:03:13.786Z</time></trkpt><trkpt lat="45.5593047" lon="12.436665"><ele>1.0</ele><time>2026-04-28T17:03:15.79Z</time></trkpt><trkpt lat="45.5592445" lon="12.4367578"><ele>0.9999999999999999</ele><time>2026-04-28T17:03:17.788Z</time></trkpt><trkpt lat="45.5591813" lon="12.4368628"><ele>1.0</ele><time>2026-04-28T17:03:19.773Z</time></trkpt><trkpt lat="45.5591304" lon="12.4369717"><ele>1.0</ele><time>2026-04-28T17:03:21.777Z</time></trkpt><trkpt lat="45.5590815" lon="12.4370894"><ele>1.0</ele><time>2026-04-28T17:03:23.799Z</time></trkpt><trkpt lat="45.5590407" lon="12.4372075"><ele>1.0</ele><time>2026-04-28T17:03:25.788Z</time></trkpt><trkpt lat="45.5589974" lon="12.4373215"><ele>1.0</ele><time>2026-04-28T17:03:27.78Z</time></trkpt><trkpt lat="45.5589566" lon="12.4374396"><ele>1.0</ele><time>2026-04-28T17:03:29.782Z</time></trkpt><trkpt lat="45.5589204" lon="12.4375715"><ele>0.9999999999999999</ele><time>2026-04-28T17:03:31.792Z</time></trkpt><trkpt lat="45.5588891" lon="12.4376997"><ele>1.0</ele><time>2026-04-28T17:03:33.789Z</time></trkpt><trkpt lat="45.5588677" lon="12.4378203"><ele>1.0</ele><time>2026-04-28T17:03:35.803Z</time></trkpt><trkpt lat="45.5588494" lon="12.4379451"><ele>1.0</ele><time>2026-04-28T17:03:37.769Z</time></trkpt><trkpt lat="45.5588394" lon="12.4380658"><ele>0.9999999999999999</ele><time>2026-04-28T17:03:39.78Z</time></trkpt><trkpt lat="45.5588328" lon="12.4381938"><ele>1.0</ele><time>2026-04-28T17:03:41.789Z</time></trkpt><trkpt lat="45.5588212" lon="12.4383181"><ele>0.9999999999999999</ele><time>2026-04-28T17:03:43.785Z</time></trkpt><trkpt lat="45.5588066" lon="12.4384227"><ele>1.0</ele><time>2026-04-28T17:03:45.777Z</time></trkpt><trkpt lat="45.5587968" lon="12.4385315"><ele>1.0</ele><time>2026-04-28T17:03:47.773Z</time></trkpt><trkpt lat="45.558797" lon="12.4386436"><ele>1.0</ele><time>2026-04-28T17:03:49.78Z</time></trkpt><trkpt lat="45.5587985" lon="12.438774"><ele>0.9999999999999999</ele><time>2026-04-28T17:03:51.778Z</time></trkpt><trkpt lat="45.5587984" lon="12.4388784"><ele>1.0</ele><time>2026-04-28T17:03:53.795Z</time></trkpt><trkpt lat="45.5587769" lon="12.4389961"><ele>0.9999999999999999</ele><time>2026-04-28T17:03:56.776Z</time></trkpt><trkpt lat="45.5587394" lon="12.4390973"><ele>1.0</ele><time>2026-04-28T17:03:59.793Z</time></trkpt><trkpt lat="45.5586711" lon="12.4391577"><ele>1.0</ele><time>2026-04-28T17:04:03.771Z</time></trkpt><trkpt lat="45.558586" lon="12.4391875"><ele>1.0</ele><time>2026-04-28T17:04:07.785Z</time></trkpt><trkpt lat="45.5585169" lon="12.4392503"><ele>0.9999999999999999</ele><time>2026-04-28T17:04:10.783Z</time></trkpt><trkpt lat="45.5584635" lon="12.4393234"><ele>1.0</ele><time>2026-04-28T17:04:13.778Z</time></trkpt><trkpt lat="45.5584241" lon="12.4393985"><ele>0.9999999999999999</ele><time>2026-04-28T17:04:16.788Z</time></trkpt><trkpt lat="45.5583669" lon="12.4394709"><ele>1.0</ele><time>2026-04-28T17:04:20.78Z</time></trkpt><trkpt lat="45.5583068" lon="12.4395231"><ele>1.0</ele><time>2026-04-28T17:04:22.776Z</time></trkpt><trkpt lat="45.5582324" lon="12.4395872"><ele>1.0</ele><time>2026-04-28T17:04:24.772Z</time></trkpt><trkpt lat="45.5581656" lon="12.4396388"><ele>0.9999999999999999</ele><time>2026-04-28T17:04:26.788Z</time></trkpt><trkpt lat="45.5580983" lon="12.4396937"><ele>1.0</ele><time>2026-04-28T17:04:28.785Z</time></trkpt><trkpt lat="45.5580247" lon="12.4397463"><ele>0.9999999999999999</ele><time>2026-04-28T17:04:30.777Z</time></trkpt><trkpt lat="45.5579509" lon="12.4398067"><ele>1.0</ele><time>2026-04-28T17:04:32.785Z</time></trkpt><trkpt lat="45.557886" lon="12.4398592"><ele>1.0</ele><time>2026-04-28T17:04:34.786Z</time></trkpt><trkpt lat="45.5578299" lon="12.4399011"><ele>1.0</ele><time>2026-04-28T17:04:36.77Z</time></trkpt><trkpt lat="45.5577581" lon="12.4399661"><ele>0.9999999999999999</ele><time>2026-04-28T17:04:38.781Z</time></trkpt><trkpt lat="45.557683" lon="12.4400385"><ele>1.0</ele><time>2026-04-28T17:04:40.803Z</time></trkpt><trkpt lat="45.5576461" lon="12.4401491"><ele>0.8333333333333333</ele><time>2026-04-28T17:04:42.779Z</time></trkpt><trkpt lat="45.5576823" lon="12.440261"><ele>0.6666666666666666</ele><time>2026-04-28T17:04:44.789Z</time></trkpt><trkpt lat="45.5577297" lon="12.4403473"><ele>0.5</ele><time>2026-04-28T17:04:46.784Z</time></trkpt><trkpt lat="45.5577836" lon="12.4404255"><ele>0.3333333333333333</ele><time>2026-04-28T17:04:48.779Z</time></trkpt><trkpt lat="45.5578458" lon="12.4404972"><ele>0.16666666666666666</ele><time>2026-04-28T17:04:50.774Z</time></trkpt><trkpt lat="45.5579026" lon="12.4405826"><ele>0.0</ele><time>2026-04-28T17:04:52.788Z</time></trkpt><trkpt lat="45.557955" lon="12.4406652"><ele>0.0</ele><time>2026-04-28T17:04:54.781Z</time></trkpt><trkpt lat="45.5580153" lon="12.440759"><ele>0.0</ele><time>2026-04-28T17:04:56.781Z</time></trkpt><trkpt lat="45.5580704" lon="12.4408307"><ele>0.0</ele><time>2026-04-28T17:04:58.787Z</time></trkpt><trkpt lat="45.5581385" lon="12.4409224"><ele>0.0</ele><time>2026-04-28T17:05:00.772Z</time></trkpt><trkpt lat="45.5581999" lon="12.4410007"><ele>0.0</ele><time>2026-04-28T17:05:02.772Z</time></trkpt><trkpt lat="45.5582583" lon="12.4410776"><ele>0.0</ele><time>2026-04-28T17:05:04.778Z</time></trkpt><trkpt lat="45.5583124" lon="12.4411491"><ele>0.0</ele><time>2026-04-28T17:05:06.773Z</time></trkpt><trkpt lat="45.558387" lon="12.4412271"><ele>0.0</ele><time>2026-04-28T17:05:09.783Z</time></trkpt><trkpt lat="45.5584633" lon="12.4413024"><ele>0.0</ele><time>2026-04-28T17:05:12.789Z</time></trkpt><trkpt lat="45.5585264" lon="12.4413727"><ele>0.0</ele><time>2026-04-28T17:05:14.784Z</time></trkpt><trkpt lat="45.5585939" lon="12.4414386"><ele>0.0</ele><time>2026-04-28T17:05:16.791Z</time></trkpt><trkpt lat="45.5586548" lon="12.4415101"><ele>0.0</ele><time>2026-04-28T17:05:18.777Z</time></trkpt><trkpt lat="45.5587453" lon="12.4415553"><ele>0.0</ele><time>2026-04-28T17:05:21.775Z</time></trkpt><trkpt lat="45.558815" lon="12.4415852"><ele>0.0</ele><time>2026-04-28T17:05:23.794Z</time></trkpt><trkpt lat="45.558897" lon="12.4416242"><ele>0.0</ele><time>2026-04-28T17:05:25.801Z</time></trkpt><trkpt lat="45.5589823" lon="12.4416639"><ele>0.0</ele><time>2026-04-28T17:05:27.789Z</time></trkpt><trkpt lat="45.5590662" lon="12.4417026"><ele>0.0</ele><time>2026-04-28T17:05:30.78Z</time></trkpt><trkpt lat="45.5591457" lon="12.4417505"><ele>0.0</ele><time>2026-04-28T17:05:32.794Z</time></trkpt><trkpt lat="45.5592081" lon="12.4418185"><ele>0.0</ele><time>2026-04-28T17:05:34.79Z</time></trkpt><trkpt lat="45.559249" lon="12.4419199"><ele>0.0</ele><time>2026-04-28T17:05:36.767Z</time></trkpt><trkpt lat="45.5592958" lon="12.4420275"><ele>0.0</ele><time>2026-04-28T17:05:38.776Z</time></trkpt><trkpt lat="45.559316" lon="12.4421488"><ele>0.0</ele><time>2026-04-28T17:05:40.77Z</time></trkpt><trkpt lat="45.5593337" lon="12.4422717"><ele>0.0</ele><time>2026-04-28T17:05:42.774Z</time></trkpt><trkpt lat="45.5593472" lon="12.4424022"><ele>0.0</ele><time>2026-04-28T17:05:44.775Z</time></trkpt><trkpt lat="45.5593612" lon="12.4425155"><ele>0.16666666666666666</ele><time>2026-04-28T17:05:46.782Z</time></trkpt><trkpt lat="45.5593545" lon="12.4426161"><ele>0.3333333333333333</ele><time>2026-04-28T17:05:48.774Z</time></trkpt><trkpt lat="45.5593508" lon="12.4427271"><ele>0.5</ele><time>2026-04-28T17:05:50.787Z</time></trkpt><trkpt lat="45.5593455" lon="12.4428412"><ele>0.6666666666666666</ele><time>2026-04-28T17:05:52.789Z</time></trkpt><trkpt lat="45.5593425" lon="12.4429519"><ele>0.8333333333333333</ele><time>2026-04-28T17:05:54.794Z</time></trkpt><trkpt lat="45.559334" lon="12.4430577"><ele>1.0</ele><time>2026-04-28T17:05:56.792Z</time></trkpt><trkpt lat="45.5593243" lon="12.4431563"><ele>0.9999999999999999</ele><time>2026-04-28T17:05:58.794Z</time></trkpt><trkpt lat="45.5592923" lon="12.4432898"><ele>1.0</ele><time>2026-04-28T17:06:00.785Z</time></trkpt><trkpt lat="45.5592515" lon="12.4433986"><ele>1.0</ele><time>2026-04-28T17:06:02.774Z</time></trkpt><trkpt lat="45.5592015" lon="12.443512"><ele>1.0</ele><time>2026-04-28T17:06:04.782Z</time></trkpt><trkpt lat="45.5591557" lon="12.4435756"><ele>0.9999999999999999</ele><time>2026-04-28T17:06:06.787Z</time></trkpt><trkpt lat="45.5590997" lon="12.4436257"><ele>1.0</ele><time>2026-04-28T17:06:08.779Z</time></trkpt><trkpt lat="45.5590331" lon="12.4436928"><ele>0.9999999999999999</ele><time>2026-04-28T17:06:10.778Z</time></trkpt><trkpt lat="45.5589533" lon="12.4437621"><ele>1.0</ele><time>2026-04-28T17:06:12.788Z</time></trkpt><trkpt lat="45.5588793" lon="12.4438192"><ele>1.0</ele><time>2026-04-28T17:06:14.791Z</time></trkpt><trkpt lat="45.5587953" lon="12.4438684"><ele>1.0</ele><time>2026-04-28T17:06:16.789Z</time></trkpt><trkpt lat="45.5587173" lon="12.4439231"><ele>0.9999999999999999</ele><time>2026-04-28T17:06:18.772Z</time></trkpt><trkpt lat="45.5586325" lon="12.4439765"><ele>1.0</ele><time>2026-04-28T17:06:20.759Z</time></trkpt><trkpt lat="45.5585416" lon="12.4440288"><ele>0.9999999999999999</ele><time>2026-04-28T17:06:22.776Z</time></trkpt><trkpt lat="45.5584536" lon="12.4440803"><ele>1.0</ele><time>2026-04-28T17:06:24.782Z</time></trkpt><trkpt lat="45.5583677" lon="12.4441272"><ele>1.0</ele><time>2026-04-28T17:06:26.789Z</time></trkpt><trkpt lat="45.5582962" lon="12.4441746"><ele>1.0</ele><time>2026-04-28T17:06:28.799Z</time></trkpt><trkpt lat="45.5582265" lon="12.4442382"><ele>0.9999999999999999</ele><time>2026-04-28T17:06:30.787Z</time></trkpt><trkpt lat="45.5581552" lon="12.4442783"><ele>1.0</ele><time>2026-04-28T17:06:32.794Z</time></trkpt><trkpt lat="45.5580807" lon="12.4443176"><ele>0.9999999999999999</ele><time>2026-04-28T17:06:34.784Z</time></trkpt><trkpt lat="45.5580117" lon="12.4443581"><ele>1.0</ele><time>2026-04-28T17:06:36.787Z</time></trkpt><trkpt lat="45.5579375" lon="12.4444084"><ele>1.0</ele><time>2026-04-28T17:06:38.785Z</time></trkpt><trkpt lat="45.5578715" lon="12.4444714"><ele>1.0</ele><time>2026-04-28T17:06:40.801Z</time></trkpt><trkpt lat="45.5577853" lon="12.4445407"><ele>0.9999999999999999</ele><time>2026-04-28T17:06:42.782Z</time></trkpt><trkpt lat="45.5577148" lon="12.4446105"><ele>1.0</ele><time>2026-04-28T17:06:44.782Z</time></trkpt><trkpt lat="45.5576067" lon="12.4446724"><ele>0.6666666666666666</ele><time>2026-04-28T17:06:47.785Z</time></trkpt><trkpt lat="45.55754" lon="12.4447289"><ele>0.3333333333333333</ele><time>2026-04-28T17:06:49.767Z</time></trkpt><trkpt lat="45.5574812" lon="12.444796"><ele>0.0</ele><time>2026-04-28T17:06:51.785Z</time></trkpt><trkpt lat="45.5574239" lon="12.4448595"><ele>-0.3333333333333333</ele><time>2026-04-28T17:06:53.776Z</time></trkpt><trkpt lat="45.5573654" lon="12.4449299"><ele>-0.6666666666666666</ele><time>2026-04-28T17:06:56.787Z</time></trkpt><trkpt lat="45.557329" lon="12.4450265"><ele>-1.0</ele><time>2026-04-28T17:06:59.775Z</time></trkpt><trkpt lat="45.5572894" lon="12.4451575"><ele>-0.9999999999999999</ele><time>2026-04-28T17:07:02.776Z</time></trkpt><trkpt lat="45.5572628" lon="12.4452495"><ele>-1.0</ele><time>2026-04-28T17:07:04.8Z</time></trkpt><trkpt lat="45.5572262" lon="12.4453258"><ele>-1.0</ele><time>2026-04-28T17:07:06.766Z</time></trkpt><trkpt lat="45.5571767" lon="12.4454017"><ele>-1.0</ele><time>2026-04-28T17:07:08.782Z</time></trkpt><trkpt lat="45.5571042" lon="12.4454679"><ele>-0.9999999999999999</ele><time>2026-04-28T17:07:10.779Z</time></trkpt><trkpt lat="45.5570177" lon="12.445513"><ele>-1.0</ele><time>2026-04-28T17:07:12.785Z</time></trkpt><trkpt lat="45.5569357" lon="12.445533"><ele>-0.8333333333333333</ele><time>2026-04-28T17:07:14.779Z</time></trkpt><trkpt lat="45.5568673" lon="12.4455261"><ele>-0.6666666666666666</ele><time>2026-04-28T17:07:16.777Z</time></trkpt><trkpt lat="45.5567909" lon="12.4455059"><ele>-0.5</ele><time>2026-04-28T17:07:18.797Z</time></trkpt><trkpt lat="45.556713" lon="12.445481"><ele>-0.3333333333333333</ele><time>2026-04-28T17:07:20.761Z</time></trkpt><trkpt lat="45.5566374" lon="12.4454413"><ele>-0.16666666666666666</ele><time>2026-04-28T17:07:22.783Z</time></trkpt><trkpt lat="45.5565599" lon="12.4453845"><ele>0.0</ele><time>2026-04-28T17:07:24.766Z</time></trkpt><trkpt lat="45.5564777" lon="12.445333"><ele>0.0</ele><time>2026-04-28T17:07:26.783Z</time></trkpt><trkpt lat="45.5564123" lon="12.4452821"><ele>0.0</ele><time>2026-04-28T17:07:28.79Z</time></trkpt><trkpt lat="45.556348" lon="12.4452289"><ele>0.0</ele><time>2026-04-28T17:07:30.787Z</time></trkpt><trkpt lat="45.5562689" lon="12.445184"><ele>0.0</ele><time>2026-04-28T17:07:32.782Z</time></trkpt><trkpt lat="45.5562019" lon="12.4451422"><ele>0.0</ele><time>2026-04-28T17:07:34.775Z</time></trkpt><trkpt lat="45.5561399" lon="12.4451107"><ele>0.0</ele><time>2026-04-28T17:07:36.782Z</time></trkpt><trkpt lat="45.5560677" lon="12.4450742"><ele>0.0</ele><time>2026-04-28T17:07:39.797Z</time></trkpt><trkpt lat="45.555997" lon="12.445056"><ele>-0.16666666666666666</ele><time>2026-04-28T17:07:42.787Z</time></trkpt><trkpt lat="45.5559134" lon="12.4450158"><ele>-0.3333333333333333</ele><time>2026-04-28T17:07:45.786Z</time></trkpt><trkpt lat="45.5558553" lon="12.4449603"><ele>-0.5</ele><time>2026-04-28T17:07:48.78Z</time></trkpt><trkpt lat="45.5557917" lon="12.4449091"><ele>-0.6666666666666666</ele><time>2026-04-28T17:07:53.786Z</time></trkpt><trkpt lat="45.5557435" lon="12.444967"><ele>-0.8333333333333333</ele><time>2026-04-28T17:08:00.805Z</time></trkpt><trkpt lat="45.5558133" lon="12.4449952"><ele>-1.0</ele><time>2026-04-28T17:08:07.775Z</time></trkpt><trkpt lat="45.5559082" lon="12.4450581"><ele>-0.9999999999999999</ele><time>2026-04-28T17:09:06.773Z</time></trkpt><trkpt lat="45.5559777" lon="12.4450688"><ele>-1.0</ele><time>2026-04-28T17:09:10.794Z</time></trkpt><trkpt lat="45.5560508" lon="12.4451"><ele>-1.0</ele><time>2026-04-28T17:09:12.792Z</time></trkpt><trkpt lat="45.5561218" lon="12.4451449"><ele>-1.0</ele><time>2026-04-28T17:09:14.776Z</time></trkpt><trkpt lat="45.5561829" lon="12.4451791"><ele>-0.9999999999999999</ele><time>2026-04-28T17:09:16.773Z</time></trkpt><trkpt lat="45.5562426" lon="12.4452205"><ele>-1.0</ele><time>2026-04-28T17:09:18.779Z</time></trkpt><trkpt lat="45.5563315" lon="12.4452857"><ele>-0.8333333333333333</ele><time>2026-04-28T17:09:21.783Z</time></trkpt><trkpt lat="45.5564244" lon="12.445338"><ele>-0.6666666666666666</ele><time>2026-04-28T17:09:23.788Z</time></trkpt><trkpt lat="45.5565026" lon="12.4454037"><ele>-0.5</ele><time>2026-04-28T17:09:26.782Z</time></trkpt><trkpt lat="45.5565727" lon="12.4454581"><ele>-0.3333333333333333</ele><time>2026-04-28T17:09:29.788Z</time></trkpt><trkpt lat="45.5566308" lon="12.4454943"><ele>-0.16666666666666666</ele><time>2026-04-28T17:09:31.777Z</time></trkpt><trkpt lat="45.5567011" lon="12.4455424"><ele>0.0</ele><time>2026-04-28T17:09:34.783Z</time></trkpt><trkpt lat="45.5567736" lon="12.4455807"><ele>0.16666666666666666</ele><time>2026-04-28T17:09:37.783Z</time></trkpt><trkpt lat="45.5568586" lon="12.4456083"><ele>0.3333333333333333</ele><time>2026-04-28T17:09:40.797Z</time></trkpt><trkpt lat="45.5569318" lon="12.445606"><ele>0.5</ele><time>2026-04-28T17:09:43.796Z</time></trkpt><trkpt lat="45.5570158" lon="12.4455922"><ele>0.6666666666666666</ele><time>2026-04-28T17:09:46.772Z</time></trkpt><trkpt lat="45.5570771" lon="12.4455681"><ele>0.8333333333333333</ele><time>2026-04-28T17:09:49.784Z</time></trkpt><trkpt lat="45.5571455" lon="12.445524"><ele>1.0</ele><time>2026-04-28T17:09:52.784Z</time></trkpt><trkpt lat="45.5572004" lon="12.4454563"><ele>0.6666666666666666</ele><time>2026-04-28T17:09:55.784Z</time></trkpt><trkpt lat="45.5572454" lon="12.4453619"><ele>0.3333333333333333</ele><time>2026-04-28T17:09:59.785Z</time></trkpt><trkpt lat="45.5572842" lon="12.4452569"><ele>0.0</ele><time>2026-04-28T17:10:02.774Z</time></trkpt><trkpt lat="45.5573161" lon="12.445166"><ele>-0.3333333333333333</ele><time>2026-04-28T17:10:05.795Z</time></trkpt><trkpt lat="45.5573562" lon="12.4450727"><ele>-0.6666666666666666</ele><time>2026-04-28T17:10:08.773Z</time></trkpt><trkpt lat="45.5573828" lon="12.4449783"><ele>-1.0</ele><time>2026-04-28T17:10:11.771Z</time></trkpt><trkpt lat="45.5574375" lon="12.4448756"><ele>-0.9999999999999999</ele><time>2026-04-28T17:10:14.785Z</time></trkpt><trkpt lat="45.5574857" lon="12.4448018"><ele>-1.0</ele><time>2026-04-28T17:10:16.79Z</time></trkpt><trkpt lat="45.5575683" lon="12.4447251"><ele>-1.0</ele><time>2026-04-28T17:10:19.783Z</time></trkpt><trkpt lat="45.5576367" lon="12.4446747"><ele>-1.0</ele><time>2026-04-28T17:10:21.8Z</time></trkpt><trkpt lat="45.5577076" lon="12.4446259"><ele>-0.9999999999999999</ele><time>2026-04-28T17:10:23.789Z</time></trkpt><trkpt lat="45.557779" lon="12.4445776"><ele>-1.0</ele><time>2026-04-28T17:10:25.785Z</time></trkpt><trkpt lat="45.5578474" lon="12.4445204"><ele>-0.6666666666666666</ele><time>2026-04-28T17:10:27.779Z</time></trkpt><trkpt lat="45.5579174" lon="12.4444634"><ele>-0.3333333333333333</ele><time>2026-04-28T17:10:29.795Z</time></trkpt><trkpt lat="45.5579958" lon="12.4444241"><ele>0.0</ele><time>2026-04-28T17:10:31.777Z</time></trkpt><trkpt lat="45.5580538" lon="12.4443801"><ele>0.3333333333333333</ele><time>2026-04-28T17:10:33.789Z</time></trkpt><trkpt lat="45.5581562" lon="12.4442878"><ele>0.6666666666666666</ele><time>2026-04-28T17:10:35.784Z</time></trkpt><trkpt lat="45.5582215" lon="12.4442583"><ele>1.0</ele><time>2026-04-28T17:10:37.792Z</time></trkpt><trkpt lat="45.5582972" lon="12.4442031"><ele>0.9999999999999999</ele><time>2026-04-28T17:10:39.772Z</time></trkpt><trkpt lat="45.558368" lon="12.4441404"><ele>1.0</ele><time>2026-04-28T17:10:41.78Z</time></trkpt><trkpt lat="45.5584446" lon="12.4440906"><ele>1.0</ele><time>2026-04-28T17:10:43.782Z</time></trkpt><trkpt lat="45.5585249" lon="12.4440447"><ele>1.0</ele><time>2026-04-28T17:10:45.772Z</time></trkpt><trkpt lat="45.5586109" lon="12.4439908"><ele>0.9999999999999999</ele><time>2026-04-28T17:10:47.797Z</time></trkpt><trkpt lat="45.5586877" lon="12.4439425"><ele>1.0</ele><time>2026-04-28T17:10:49.784Z</time></trkpt><trkpt lat="45.5587662" lon="12.4438941"><ele>0.9999999999999999</ele><time>2026-04-28T17:10:51.767Z</time></trkpt><trkpt lat="45.5588412" lon="12.443842"><ele>1.0</ele><time>2026-04-28T17:10:53.796Z</time></trkpt><trkpt lat="45.5589259" lon="12.443791"><ele>1.0</ele><time>2026-04-28T17:10:55.782Z</time></trkpt><trkpt lat="45.5590056" lon="12.4437341"><ele>1.0</ele><time>2026-04-28T17:10:57.773Z</time></trkpt><trkpt lat="45.5590802" lon="12.4436712"><ele>0.9999999999999999</ele><time>2026-04-28T17:10:59.775Z</time></trkpt><trkpt lat="45.5591543" lon="12.4436011"><ele>1.0</ele><time>2026-04-28T17:11:01.777Z</time></trkpt><trkpt lat="45.5592119" lon="12.4435114"><ele>0.9999999999999999</ele><time>2026-04-28T17:11:03.785Z</time></trkpt><trkpt lat="45.5592574" lon="12.4434267"><ele>1.0</ele><time>2026-04-28T17:11:05.779Z</time></trkpt><trkpt lat="45.5592919" lon="12.4433455"><ele>1.0</ele><time>2026-04-28T17:11:07.774Z</time></trkpt><trkpt lat="45.5593127" lon="12.4432497"><ele>1.0</ele><time>2026-04-28T17:11:09.793Z</time></trkpt><trkpt lat="45.5593363" lon="12.4431341"><ele>0.9999999999999999</ele><time>2026-04-28T17:11:11.774Z</time></trkpt><trkpt lat="45.5593576" lon="12.4430129"><ele>1.0</ele><time>2026-04-28T17:11:13.779Z</time></trkpt><trkpt lat="45.5593599" lon="12.4428832"><ele>0.9999999999999999</ele><time>2026-04-28T17:11:15.782Z</time></trkpt><trkpt lat="45.559364" lon="12.4427544"><ele>1.0</ele><time>2026-04-28T17:11:17.797Z</time></trkpt><trkpt lat="45.5593658" lon="12.4426328"><ele>1.0</ele><time>2026-04-28T17:11:19.789Z</time></trkpt><trkpt lat="45.5593677" lon="12.4425347"><ele>1.0</ele><time>2026-04-28T17:11:21.789Z</time></trkpt><trkpt lat="45.5593649" lon="12.4424246"><ele>0.9999999999999999</ele><time>2026-04-28T17:11:23.789Z</time></trkpt><trkpt lat="45.5593501" lon="12.442303"><ele>1.0</ele><time>2026-04-28T17:11:25.791Z</time></trkpt><trkpt lat="45.5593258" lon="12.442183"><ele>0.8333333333333333</ele><time>2026-04-28T17:11:27.806Z</time></trkpt><trkpt lat="45.5593002" lon="12.4420746"><ele>0.6666666666666666</ele><time>2026-04-28T17:11:29.786Z</time></trkpt><trkpt lat="45.559271" lon="12.4419662"><ele>0.5</ele><time>2026-04-28T17:11:31.791Z</time></trkpt><trkpt lat="45.5592348" lon="12.4418609"><ele>0.3333333333333333</ele><time>2026-04-28T17:11:33.779Z</time></trkpt><trkpt lat="45.5592004" lon="12.4417853"><ele>0.16666666666666666</ele><time>2026-04-28T17:11:35.78Z</time></trkpt><trkpt lat="45.5591403" lon="12.4417254"><ele>0.0</ele><time>2026-04-28T17:11:37.773Z</time></trkpt><trkpt lat="45.5590605" lon="12.4416761"><ele>0.0</ele><time>2026-04-28T17:11:39.789Z</time></trkpt><trkpt lat="45.55899" lon="12.4416453"><ele>0.0</ele><time>2026-04-28T17:11:41.783Z</time></trkpt><trkpt lat="45.5589121" lon="12.4416226"><ele>0.0</ele><time>2026-04-28T17:11:43.773Z</time></trkpt><trkpt lat="45.5588231" lon="12.4415877"><ele>0.0</ele><time>2026-04-28T17:11:45.791Z</time></trkpt><trkpt lat="45.5587539" lon="12.4415547"><ele>0.0</ele><time>2026-04-28T17:11:47.8Z</time></trkpt><trkpt lat="45.5586793" lon="12.4415153"><ele>0.0</ele><time>2026-04-28T17:11:49.786Z</time></trkpt><trkpt lat="45.5585971" lon="12.4414511"><ele>0.0</ele><time>2026-04-28T17:11:52.777Z</time></trkpt><trkpt lat="45.5586605" lon="12.441442"><ele>0.0</ele><time>2026-04-28T17:11:59.787Z</time></trkpt><trkpt lat="45.5587233" lon="12.4414921"><ele>0.0</ele><time>2026-04-28T17:12:01.784Z</time></trkpt><trkpt lat="45.5587845" lon="12.441528"><ele>0.0</ele><time>2026-04-28T17:12:03.786Z</time></trkpt><trkpt lat="45.5588682" lon="12.441575"><ele>0.0</ele><time>2026-04-28T17:12:05.777Z</time></trkpt><trkpt lat="45.5589402" lon="12.4416159"><ele>0.0</ele><time>2026-04-28T17:12:07.785Z</time></trkpt><trkpt lat="45.5590013" lon="12.4416499"><ele>0.0</ele><time>2026-04-28T17:12:09.794Z</time></trkpt><trkpt lat="45.5590621" lon="12.4416789"><ele>0.0</ele><time>2026-04-28T17:12:11.79Z</time></trkpt><trkpt lat="45.5591513" lon="12.441714"><ele>0.0</ele><time>2026-04-28T17:12:14.773Z</time></trkpt><trkpt lat="45.5592262" lon="12.441733"><ele>0.0</ele><time>2026-04-28T17:12:17.795Z</time></trkpt><trkpt lat="45.5592999" lon="12.4417492"><ele>0.0</ele><time>2026-04-28T17:12:20.788Z</time></trkpt><trkpt lat="45.559388" lon="12.4417662"><ele>0.0</ele><time>2026-04-28T17:12:23.775Z</time></trkpt><trkpt lat="45.5594587" lon="12.4417925"><ele>0.0</ele><time>2026-04-28T17:12:25.8Z</time></trkpt><trkpt lat="45.5595304" lon="12.4418233"><ele>0.16666666666666666</ele><time>2026-04-28T17:12:27.773Z</time></trkpt><trkpt lat="45.559594" lon="12.4418532"><ele>0.3333333333333333</ele><time>2026-04-28T17:12:29.78Z</time></trkpt><trkpt lat="45.5596807" lon="12.4418903"><ele>0.5</ele><time>2026-04-28T17:12:32.794Z</time></trkpt><trkpt lat="45.5597719" lon="12.4419222"><ele>0.6666666666666666</ele><time>2026-04-28T17:12:35.772Z</time></trkpt><trkpt lat="45.5598723" lon="12.4419561"><ele>0.8333333333333333</ele><time>2026-04-28T17:12:38.769Z</time></trkpt><trkpt lat="45.5599409" lon="12.441977"><ele>1.0</ele><time>2026-04-28T17:12:40.785Z</time></trkpt><trkpt lat="45.5599995" lon="12.4420109"><ele>0.9999999999999999</ele><time>2026-04-28T17:12:42.785Z</time></trkpt><trkpt lat="45.5599641" lon="12.4420922"><ele>1.0</ele><time>2026-04-28T17:12:47.781Z</time></trkpt><trkpt lat="45.5598952" lon="12.442126"><ele>1.0</ele><time>2026-04-28T17:12:50.792Z</time></trkpt><trkpt lat="45.5598581" lon="12.4422474"><ele>1.0</ele><time>2026-04-28T17:12:53.796Z</time></trkpt><trkpt lat="45.5598521" lon="12.4423672"><ele>0.9999999999999999</ele><time>2026-04-28T17:12:55.789Z</time></trkpt><trkpt lat="45.5598559" lon="12.4425114"><ele>1.0</ele><time>2026-04-28T17:12:57.786Z</time></trkpt><trkpt lat="45.5598589" lon="12.4426412"><ele>1.1666666666666665</ele><time>2026-04-28T17:12:59.776Z</time></trkpt><trkpt lat="45.5598658" lon="12.4427693"><ele>1.3333333333333333</ele><time>2026-04-28T17:13:01.797Z</time></trkpt><trkpt lat="45.5598727" lon="12.4428994"><ele>1.5</ele><time>2026-04-28T17:13:03.781Z</time></trkpt><trkpt lat="45.5598704" lon="12.4430204"><ele>1.6666666666666665</ele><time>2026-04-28T17:13:05.774Z</time></trkpt><trkpt lat="45.5598717" lon="12.4431502"><ele>1.8333333333333333</ele><time>2026-04-28T17:13:07.808Z</time></trkpt><trkpt lat="45.559871" lon="12.4432658"><ele>2.0</ele><time>2026-04-28T17:13:09.786Z</time></trkpt><trkpt lat="45.5598641" lon="12.4433919"><ele>2.142857142857143</ele><time>2026-04-28T17:13:11.795Z</time></trkpt><trkpt lat="45.5598489" lon="12.4435044"><ele>2.2857142857142856</ele><time>2026-04-28T17:13:13.779Z</time></trkpt><trkpt lat="45.5598454" lon="12.4436122"><ele>2.4285714285714284</ele><time>2026-04-28T17:13:17.787Z</time></trkpt><trkpt lat="45.5598955" lon="12.4436934"><ele>2.571428571428571</ele><time>2026-04-28T17:13:20.803Z</time></trkpt><trkpt lat="45.5599588" lon="12.4437353"><ele>2.7142857142857144</ele><time>2026-04-28T17:13:22.79Z</time></trkpt><trkpt lat="45.5600164" lon="12.4437985"><ele>2.8571428571428568</ele><time>2026-04-28T17:13:24.771Z</time></trkpt><trkpt lat="45.5600769" lon="12.4438513"><ele>3.0</ele><time>2026-04-28T17:13:26.779Z</time></trkpt><trkpt lat="45.5601442" lon="12.4439082"><ele>2.6666666666666665</ele><time>2026-04-28T17:13:28.784Z</time></trkpt><trkpt lat="45.5602224" lon="12.4439657"><ele>2.3333333333333335</ele><time>2026-04-28T17:13:30.79Z</time></trkpt><trkpt lat="45.5602968" lon="12.4440073"><ele>2.0</ele><time>2026-04-28T17:13:32.786Z</time></trkpt><trkpt lat="45.5603895" lon="12.4440531"><ele>1.6666666666666665</ele><time>2026-04-28T17:13:34.775Z</time></trkpt><trkpt lat="45.5604761" lon="12.4441138"><ele>1.3333333333333333</ele><time>2026-04-28T17:13:36.772Z</time></trkpt><trkpt lat="45.5605473" lon="12.4441647"><ele>1.0</ele><time>2026-04-28T17:13:38.773Z</time></trkpt><trkpt lat="45.5606216" lon="12.4442103"><ele>0.9999999999999999</ele><time>2026-04-28T17:13:40.776Z</time></trkpt><trkpt lat="45.560686" lon="12.4442206"><ele>1.0</ele><time>2026-04-28T17:13:44.785Z</time></trkpt><trkpt lat="45.5607302" lon="12.4441203"><ele>1.0</ele><time>2026-04-28T17:13:47.778Z</time></trkpt><trkpt lat="45.5607681" lon="12.4440357"><ele>1.0</ele><time>2026-04-28T17:13:49.772Z</time></trkpt><trkpt lat="45.5608157" lon="12.4439432"><ele>0.9999999999999999</ele><time>2026-04-28T17:13:51.78Z</time></trkpt><trkpt lat="45.5608551" lon="12.4438514"><ele>1.0</ele><time>2026-04-28T17:13:53.782Z</time></trkpt><trkpt lat="45.5608886" lon="12.4437518"><ele>1.1666666666666665</ele><time>2026-04-28T17:13:55.774Z</time></trkpt><trkpt lat="45.5609317" lon="12.4436529"><ele>1.3333333333333333</ele><time>2026-04-28T17:13:57.771Z</time></trkpt><trkpt lat="45.5609743" lon="12.4435383"><ele>1.5</ele><time>2026-04-28T17:13:59.782Z</time></trkpt><trkpt lat="45.5610108" lon="12.4434504"><ele>1.6666666666666665</ele><time>2026-04-28T17:14:01.785Z</time></trkpt><trkpt lat="45.5610478" lon="12.4433605"><ele>1.8333333333333333</ele><time>2026-04-28T17:14:03.8Z</time></trkpt><trkpt lat="45.5610854" lon="12.443285"><ele>2.0</ele><time>2026-04-28T17:14:05.78Z</time></trkpt><trkpt lat="45.5611398" lon="12.4431809"><ele>2.0</ele><time>2026-04-28T17:14:08.776Z</time></trkpt><trkpt lat="45.5611786" lon="12.4430983"><ele>1.9999999999999998</ele><time>2026-04-28T17:14:11.778Z</time></trkpt><trkpt lat="45.5611879" lon="12.443006"><ele>2.0</ele><time>2026-04-28T17:14:17.785Z</time></trkpt><trkpt lat="45.56113" lon="12.4429617"><ele>2.0</ele><time>2026-04-28T17:14:21.784Z</time></trkpt><trkpt lat="45.5610695" lon="12.4429334"><ele>1.9999999999999998</ele><time>2026-04-28T17:14:26.779Z</time></trkpt><trkpt lat="45.5611356" lon="12.442999"><ele>2.0</ele><time>2026-04-28T17:14:34.773Z</time></trkpt><trkpt lat="45.5611795" lon="12.443075"><ele>2.0</ele><time>2026-04-28T17:14:39.78Z</time></trkpt><trkpt lat="45.5612509" lon="12.443119"><ele>1.9999999999999998</ele><time>2026-04-28T17:14:44.781Z</time></trkpt><trkpt lat="45.5613262" lon="12.4431303"><ele>2.0</ele><time>2026-04-28T17:14:47.778Z</time></trkpt><trkpt lat="45.5612949" lon="12.4430133"><ele>2.0</ele><time>2026-04-28T17:14:53.779Z</time></trkpt><trkpt lat="45.5612186" lon="12.44293"><ele>2.0</ele><time>2026-04-28T17:14:55.799Z</time></trkpt><trkpt lat="45.5611489" lon="12.4428555"><ele>1.9999999999999998</ele><time>2026-04-28T17:14:57.779Z</time></trkpt><trkpt lat="45.5610692" lon="12.4427797"><ele>2.0</ele><time>2026-04-28T17:14:59.8Z</time></trkpt><trkpt lat="45.5609898" lon="12.4427079"><ele>1.9999999999999998</ele><time>2026-04-28T17:15:01.781Z</time></trkpt><trkpt lat="45.5609228" lon="12.4426414"><ele>2.0</ele><time>2026-04-28T17:15:03.785Z</time></trkpt><trkpt lat="45.5608518" lon="12.4425761"><ele>2.0</ele><time>2026-04-28T17:15:05.805Z</time></trkpt><trkpt lat="45.5607856" lon="12.4425194"><ele>2.0</ele><time>2026-04-28T17:15:07.775Z</time></trkpt><trkpt lat="45.5607281" lon="12.4424679"><ele>1.9999999999999998</ele><time>2026-04-28T17:15:09.782Z</time></trkpt><trkpt lat="45.5607185" lon="12.4423585"><ele>2.0</ele><time>2026-04-28T17:15:12.779Z</time></trkpt><trkpt lat="45.5607646" lon="12.4422747"><ele>1.9999999999999998</ele><time>2026-04-28T17:15:14.784Z</time></trkpt><trkpt lat="45.5608117" lon="12.4421947"><ele>2.0</ele><time>2026-04-28T17:15:16.793Z</time></trkpt><trkpt lat="45.5608736" lon="12.4421233"><ele>2.0</ele><time>2026-04-28T17:15:19.793Z</time></trkpt><trkpt lat="45.5609073" lon="12.4420238"><ele>2.0</ele><time>2026-04-28T17:15:22.801Z</time></trkpt><trkpt lat="45.5609332" lon="12.4419378"><ele>1.9999999999999998</ele><time>2026-04-28T17:15:24.777Z</time></trkpt><trkpt lat="45.5609855" lon="12.4418472"><ele>2.0</ele><time>2026-04-28T17:15:26.793Z</time></trkpt><trkpt lat="45.5610379" lon="12.4417509"><ele>1.9999999999999998</ele><time>2026-04-28T17:15:28.784Z</time></trkpt><trkpt lat="45.5610933" lon="12.4416486"><ele>2.0</ele><time>2026-04-28T17:15:30.784Z</time></trkpt><trkpt lat="45.5611517" lon="12.4415478"><ele>2.0</ele><time>2026-04-28T17:15:32.771Z</time></trkpt><trkpt lat="45.5612119" lon="12.4414388"><ele>2.0</ele><time>2026-04-28T17:15:34.779Z</time></trkpt><trkpt lat="45.5612642" lon="12.4413383"><ele>1.9999999999999998</ele><time>2026-04-28T17:15:36.795Z</time></trkpt><trkpt lat="45.5613108" lon="12.4412416"><ele>2.0</ele><time>2026-04-28T17:15:38.778Z</time></trkpt><trkpt lat="45.561359" lon="12.4411392"><ele>1.6</ele><time>2026-04-28T17:15:40.775Z</time></trkpt><trkpt lat="45.561405" lon="12.4410378"><ele>1.2000000000000002</ele><time>2026-04-28T17:15:42.784Z</time></trkpt><trkpt lat="45.5614608" lon="12.4409256"><ele>0.8</ele><time>2026-04-28T17:15:44.78Z</time></trkpt><trkpt lat="45.5615205" lon="12.4408044"><ele>0.4</ele><time>2026-04-28T17:15:46.774Z</time></trkpt><trkpt lat="45.5615803" lon="12.4406859"><ele>0.0</ele><time>2026-04-28T17:15:48.79Z</time></trkpt><trkpt lat="45.5616465" lon="12.4405527"><ele>-0.2</ele><time>2026-04-28T17:15:50.773Z</time></trkpt><trkpt lat="45.5617008" lon="12.4404457"><ele>-0.4</ele><time>2026-04-28T17:15:52.771Z</time></trkpt><trkpt lat="45.5617572" lon="12.4403357"><ele>-0.6000000000000001</ele><time>2026-04-28T17:15:54.779Z</time></trkpt><trkpt lat="45.5618143" lon="12.4402201"><ele>-0.8</ele><time>2026-04-28T17:15:56.785Z</time></trkpt><trkpt lat="45.5618695" lon="12.4401034"><ele>-1.0</ele><time>2026-04-28T17:15:58.784Z</time></trkpt><trkpt lat="45.5619229" lon="12.4399863"><ele>-1.0</ele><time>2026-04-28T17:16:00.785Z</time></trkpt><trkpt lat="45.5619778" lon="12.4398751"><ele>-1.0</ele><time>2026-04-28T17:16:02.79Z</time></trkpt><trkpt lat="45.5620362" lon="12.4397623"><ele>-1.0</ele><time>2026-04-28T17:16:04.779Z</time></trkpt><trkpt lat="45.5621027" lon="12.4396473"><ele>-1.0</ele><time>2026-04-28T17:16:06.784Z</time></trkpt><trkpt lat="45.5621654" lon="12.4395273"><ele>-1.0</ele><time>2026-04-28T17:16:08.794Z</time></trkpt><trkpt lat="45.56223" lon="12.4394037"><ele>-1.0</ele><time>2026-04-28T17:16:10.779Z</time></trkpt><trkpt lat="45.5622987" lon="12.4392732"><ele>-1.0</ele><time>2026-04-28T17:16:12.775Z</time></trkpt><trkpt lat="45.5623653" lon="12.4391352"><ele>-1.0</ele><time>2026-04-28T17:16:14.782Z</time></trkpt><trkpt lat="45.5624336" lon="12.4389996"><ele>-1.0</ele><time>2026-04-28T17:16:16.789Z</time></trkpt><trkpt lat="45.5625056" lon="12.4388628"><ele>-1.0</ele><time>2026-04-28T17:16:18.771Z</time></trkpt><trkpt lat="45.5625761" lon="12.438721"><ele>-1.0</ele><time>2026-04-28T17:16:20.776Z</time></trkpt><trkpt lat="45.5626457" lon="12.4385802"><ele>-1.0</ele><time>2026-04-28T17:16:22.764Z</time></trkpt><trkpt lat="45.5627211" lon="12.4384353"><ele>-1.0</ele><time>2026-04-28T17:16:24.785Z</time></trkpt><trkpt lat="45.562762" lon="12.4383641"><ele>-1.0</ele><time>2026-04-28T17:16:25.792Z</time></trkpt><trkpt lat="45.5628321" lon="12.438221"><ele>-1.25</ele><time>2026-04-28T17:16:27.785Z</time></trkpt><trkpt lat="45.5629046" lon="12.4380815"><ele>-1.5</ele><time>2026-04-28T17:16:29.789Z</time></trkpt><trkpt lat="45.5629751" lon="12.4379438"><ele>-1.75</ele><time>2026-04-28T17:16:31.788Z</time></trkpt><trkpt lat="45.5630422" lon="12.43781"><ele>-2.0</ele><time>2026-04-28T17:16:33.796Z</time></trkpt><trkpt lat="45.5631122" lon="12.4376724"><ele>-2.0</ele><time>2026-04-28T17:16:35.794Z</time></trkpt><trkpt lat="45.5631818" lon="12.4375399"><ele>-2.0</ele><time>2026-04-28T17:16:37.809Z</time></trkpt><trkpt lat="45.5632561" lon="12.4373988"><ele>-2.0</ele><time>2026-04-28T17:16:39.793Z</time></trkpt><trkpt lat="45.5633202" lon="12.4372727"><ele>-2.0</ele><time>2026-04-28T17:16:41.779Z</time></trkpt><trkpt lat="45.563392" lon="12.4371321"><ele>-1.5</ele><time>2026-04-28T17:16:43.779Z</time></trkpt><trkpt lat="45.5634615" lon="12.436998"><ele>-1.0</ele><time>2026-04-28T17:16:45.776Z</time></trkpt><trkpt lat="45.5635337" lon="12.4368626"><ele>-0.5</ele><time>2026-04-28T17:16:47.804Z</time></trkpt><trkpt lat="45.5636023" lon="12.4367195"><ele>0.0</ele><time>2026-04-28T17:16:49.779Z</time></trkpt><trkpt lat="45.5636737" lon="12.4365809"><ele>0.0</ele><time>2026-04-28T17:16:51.79Z</time></trkpt><trkpt lat="45.5637514" lon="12.4364437"><ele>0.0</ele><time>2026-04-28T17:16:53.785Z</time></trkpt><trkpt lat="45.5638205" lon="12.4363163"><ele>0.0</ele><time>2026-04-28T17:16:55.792Z</time></trkpt><trkpt lat="45.5638916" lon="12.4361874"><ele>0.0</ele><time>2026-04-28T17:16:57.785Z</time></trkpt><trkpt lat="45.5639628" lon="12.4360491"><ele>0.0</ele><time>2026-04-28T17:16:59.794Z</time></trkpt><trkpt lat="45.5640081" lon="12.435892"><ele>0.0</ele><time>2026-04-28T17:17:01.777Z</time></trkpt><trkpt lat="45.5640324" lon="12.4357335"><ele>0.0</ele><time>2026-04-28T17:17:03.799Z</time></trkpt><trkpt lat="45.5640496" lon="12.4355822"><ele>0.0</ele><time>2026-04-28T17:17:05.791Z</time></trkpt><trkpt lat="45.5640611" lon="12.4354439"><ele>0.0</ele><time>2026-04-28T17:17:07.789Z</time></trkpt><trkpt lat="45.5640699" lon="12.4353103"><ele>-0.16666666666666666</ele><time>2026-04-28T17:17:09.792Z</time></trkpt><trkpt lat="45.5640805" lon="12.4351779"><ele>-0.3333333333333333</ele><time>2026-04-28T17:17:11.787Z</time></trkpt><trkpt lat="45.5640898" lon="12.4350526"><ele>-0.5</ele><time>2026-04-28T17:17:13.78Z</time></trkpt><trkpt lat="45.5640971" lon="12.4349375"><ele>-0.6666666666666666</ele><time>2026-04-28T17:17:15.803Z</time></trkpt><trkpt lat="45.5641019" lon="12.4348247"><ele>-0.8333333333333333</ele><time>2026-04-28T17:17:17.774Z</time></trkpt><trkpt lat="45.5641086" lon="12.4347189"><ele>-1.0</ele><time>2026-04-28T17:17:19.781Z</time></trkpt><trkpt lat="45.5641211" lon="12.4346148"><ele>-0.9999999999999999</ele><time>2026-04-28T17:17:21.795Z</time></trkpt><trkpt lat="45.564132" lon="12.4344897"><ele>-1.0</ele><time>2026-04-28T17:17:23.79Z</time></trkpt><trkpt lat="45.5641406" lon="12.4343683"><ele>-1.0</ele><time>2026-04-28T17:17:25.812Z</time></trkpt><trkpt lat="45.5641505" lon="12.4342528"><ele>-1.0</ele><time>2026-04-28T17:17:27.783Z</time></trkpt><trkpt lat="45.5641583" lon="12.4341419"><ele>-0.9999999999999999</ele><time>2026-04-28T17:17:29.785Z</time></trkpt><trkpt lat="45.5641637" lon="12.4340237"><ele>-1.0</ele><time>2026-04-28T17:17:31.793Z</time></trkpt><trkpt lat="45.5641735" lon="12.4338881"><ele>-1.1666666666666665</ele><time>2026-04-28T17:17:33.789Z</time></trkpt><trkpt lat="45.5641844" lon="12.433762"><ele>-1.3333333333333333</ele><time>2026-04-28T17:17:35.791Z</time></trkpt><trkpt lat="45.5641914" lon="12.4336408"><ele>-1.5</ele><time>2026-04-28T17:17:37.778Z</time></trkpt><trkpt lat="45.5641951" lon="12.4335326"><ele>-1.6666666666666665</ele><time>2026-04-28T17:17:39.784Z</time></trkpt><trkpt lat="45.5642023" lon="12.4334301"><ele>-1.8333333333333333</ele><time>2026-04-28T17:17:41.781Z</time></trkpt><trkpt lat="45.5642131" lon="12.4333339"><ele>-2.0</ele><time>2026-04-28T17:17:43.774Z</time></trkpt><trkpt lat="45.5642258" lon="12.4332261"><ele>-2.0</ele><time>2026-04-28T17:17:45.775Z</time></trkpt><trkpt lat="45.5642318" lon="12.4331173"><ele>-1.9999999999999998</ele><time>2026-04-28T17:17:47.786Z</time></trkpt><trkpt lat="45.564237" lon="12.4330137"><ele>-2.0</ele><time>2026-04-28T17:17:49.77Z</time></trkpt><trkpt lat="45.5642461" lon="12.4329146"><ele>-2.0</ele><time>2026-04-28T17:17:51.775Z</time></trkpt><trkpt lat="45.5642554" lon="12.4328195"><ele>-1.9999999999999998</ele><time>2026-04-28T17:17:53.784Z</time></trkpt><trkpt lat="45.5642586" lon="12.4327226"><ele>-2.0</ele><time>2026-04-28T17:17:55.782Z</time></trkpt><trkpt lat="45.5642623" lon="12.4325923"><ele>-2.0</ele><time>2026-04-28T17:17:58.782Z</time></trkpt><trkpt lat="45.5642678" lon="12.432473"><ele>-2.0</ele><time>2026-04-28T17:18:01.778Z</time></trkpt><trkpt lat="45.5642726" lon="12.4323397"><ele>-1.9999999999999998</ele><time>2026-04-28T17:18:04.78Z</time></trkpt><trkpt lat="45.5642634" lon="12.4322441"><ele>-2.0</ele><time>2026-04-28T17:18:06.771Z</time></trkpt><trkpt lat="45.5642654" lon="12.4321538"><ele>-2.0</ele><time>2026-04-28T17:18:08.772Z</time></trkpt><trkpt lat="45.5642651" lon="12.432057"><ele>-1.9999999999999998</ele><time>2026-04-28T17:18:10.799Z</time></trkpt><trkpt lat="45.564263" lon="12.4319562"><ele>-2.0</ele><time>2026-04-28T17:18:12.778Z</time></trkpt><trkpt lat="45.5642602" lon="12.431855"><ele>-2.0</ele><time>2026-04-28T17:18:14.784Z</time></trkpt><trkpt lat="45.5642591" lon="12.431764"><ele>-1.9999999999999998</ele><time>2026-04-28T17:18:16.78Z</time></trkpt><trkpt lat="45.564257" lon="12.4316387"><ele>-2.0</ele><time>2026-04-28T17:18:19.79Z</time></trkpt><trkpt lat="45.5642544" lon="12.4315189"><ele>-2.0</ele><time>2026-04-28T17:18:21.783Z</time></trkpt><trkpt lat="45.5642336" lon="12.4314058"><ele>-2.0</ele><time>2026-04-28T17:18:23.787Z</time></trkpt><trkpt lat="45.5642206" lon="12.4313045"><ele>-1.9999999999999998</ele><time>2026-04-28T17:18:25.771Z</time></trkpt><trkpt lat="45.5642057" lon="12.4311872"><ele>-2.0</ele><time>2026-04-28T17:18:27.77Z</time></trkpt><trkpt lat="45.5641856" lon="12.4310756"><ele>-1.9999999999999998</ele><time>2026-04-28T17:18:29.78Z</time></trkpt><trkpt lat="45.5641661" lon="12.4309634"><ele>-2.0</ele><time>2026-04-28T17:18:31.777Z</time></trkpt><trkpt lat="45.5641477" lon="12.4308527"><ele>-2.0</ele><time>2026-04-28T17:18:33.776Z</time></trkpt><trkpt lat="45.564123" lon="12.4307333"><ele>-2.0</ele><time>2026-04-28T17:18:35.788Z</time></trkpt><trkpt lat="45.5641145" lon="12.4306424"><ele>-1.9999999999999998</ele><time>2026-04-28T17:18:37.771Z</time></trkpt><trkpt lat="45.564094" lon="12.430537"><ele>-2.0</ele><time>2026-04-28T17:18:39.788Z</time></trkpt><trkpt lat="45.5640699" lon="12.4304333"><ele>-1.8333333333333333</ele><time>2026-04-28T17:18:41.792Z</time></trkpt><trkpt lat="45.5640491" lon="12.4303314"><ele>-1.6666666666666665</ele><time>2026-04-28T17:18:43.779Z</time></trkpt><trkpt lat="45.5640229" lon="12.4302278"><ele>-1.5</ele><time>2026-04-28T17:18:45.792Z</time></trkpt><trkpt lat="45.5640057" lon="12.4301358"><ele>-1.3333333333333333</ele><time>2026-04-28T17:18:47.792Z</time></trkpt><trkpt lat="45.563988" lon="12.4300483"><ele>-1.1666666666666665</ele><time>2026-04-28T17:18:49.773Z</time></trkpt><trkpt lat="45.5639639" lon="12.4299246"><ele>-1.0</ele><time>2026-04-28T17:18:52.771Z</time></trkpt><trkpt lat="45.5639363" lon="12.4297831"><ele>-0.9999999999999999</ele><time>2026-04-28T17:18:55.79Z</time></trkpt><trkpt lat="45.5639226" lon="12.4296882"><ele>-1.0</ele><time>2026-04-28T17:18:57.779Z</time></trkpt><trkpt lat="45.5639099" lon="12.4295784"><ele>-1.0</ele><time>2026-04-28T17:18:59.779Z</time></trkpt><trkpt lat="45.563883" lon="12.4294549"><ele>-1.0</ele><time>2026-04-28T17:19:01.769Z</time></trkpt><trkpt lat="45.563858" lon="12.4293221"><ele>-0.9999999999999999</ele><time>2026-04-28T17:19:03.794Z</time></trkpt><trkpt lat="45.5638474" lon="12.4291791"><ele>-1.0</ele><time>2026-04-28T17:19:05.786Z</time></trkpt><trkpt lat="45.5638494" lon="12.4290429"><ele>-1.0</ele><time>2026-04-28T17:19:07.776Z</time></trkpt><trkpt lat="45.5638463" lon="12.4289123"><ele>-1.0</ele><time>2026-04-28T17:19:09.77Z</time></trkpt><trkpt lat="45.5638423" lon="12.4287708"><ele>-1.0</ele><time>2026-04-28T17:19:11.78Z</time></trkpt><trkpt lat="45.5638447" lon="12.4286308"><ele>-1.0</ele><time>2026-04-28T17:19:13.786Z</time></trkpt><trkpt lat="45.5638486" lon="12.4284879"><ele>-1.0</ele><time>2026-04-28T17:19:15.772Z</time></trkpt><trkpt lat="45.5638554" lon="12.4283414"><ele>-0.6000000000000001</ele><time>2026-04-28T17:19:17.781Z</time></trkpt><trkpt lat="45.5638564" lon="12.4282005"><ele>-0.20000000000000007</ele><time>2026-04-28T17:19:19.779Z</time></trkpt><trkpt lat="45.5638567" lon="12.4280531"><ele>0.20000000000000007</ele><time>2026-04-28T17:19:21.784Z</time></trkpt><trkpt lat="45.5638546" lon="12.427913"><ele>0.6000000000000001</ele><time>2026-04-28T17:19:23.795Z</time></trkpt><trkpt lat="45.5638599" lon="12.4277656"><ele>1.0</ele><time>2026-04-28T17:19:25.774Z</time></trkpt><trkpt lat="45.5638603" lon="12.4276278"><ele>1.0</ele><time>2026-04-28T17:19:27.795Z</time></trkpt><trkpt lat="45.5638572" lon="12.4274858"><ele>1.0</ele><time>2026-04-28T17:19:29.784Z</time></trkpt><trkpt lat="45.5638397" lon="12.4273415"><ele>1.0</ele><time>2026-04-28T17:19:31.78Z</time></trkpt><trkpt lat="45.5638146" lon="12.4271962"><ele>1.0</ele><time>2026-04-28T17:19:33.778Z</time></trkpt><trkpt lat="45.5637856" lon="12.4270657"><ele>1.0</ele><time>2026-04-28T17:19:35.784Z</time></trkpt><trkpt lat="45.5637543" lon="12.4269441"><ele>0.6000000000000001</ele><time>2026-04-28T17:19:37.772Z</time></trkpt><trkpt lat="45.5637204" lon="12.4268192"><ele>0.20000000000000007</ele><time>2026-04-28T17:19:39.782Z</time></trkpt><trkpt lat="45.5636789" lon="12.4266845"><ele>-0.20000000000000007</ele><time>2026-04-28T17:19:41.784Z</time></trkpt><trkpt lat="45.5636381" lon="12.426553"><ele>-0.6000000000000001</ele><time>2026-04-28T17:19:43.769Z</time></trkpt><trkpt lat="45.5635923" lon="12.4264207"><ele>-1.0</ele><time>2026-04-28T17:19:45.788Z</time></trkpt><trkpt lat="45.5635468" lon="12.4262831"><ele>-1.0</ele><time>2026-04-28T17:19:47.799Z</time></trkpt><trkpt lat="45.5635027" lon="12.426146"><ele>-1.0</ele><time>2026-04-28T17:19:49.788Z</time></trkpt><trkpt lat="45.5634576" lon="12.4260086"><ele>-1.0</ele><time>2026-04-28T17:19:51.779Z</time></trkpt><trkpt lat="45.5634223" lon="12.4258772"><ele>-1.0</ele><time>2026-04-28T17:19:53.766Z</time></trkpt><trkpt lat="45.5633837" lon="12.4257426"><ele>-1.0</ele><time>2026-04-28T17:19:55.789Z</time></trkpt><trkpt lat="45.5633418" lon="12.4256195"><ele>-1.0</ele><time>2026-04-28T17:19:57.785Z</time></trkpt><trkpt lat="45.5632991" lon="12.4254839"><ele>-1.0</ele><time>2026-04-28T17:19:59.797Z</time></trkpt><trkpt lat="45.5632545" lon="12.4253457"><ele>-1.0</ele><time>2026-04-28T17:20:01.783Z</time></trkpt><trkpt lat="45.5632081" lon="12.4252036"><ele>-1.0</ele><time>2026-04-28T17:20:03.779Z</time></trkpt><trkpt lat="45.5631635" lon="12.4250672"><ele>-1.0</ele><time>2026-04-28T17:20:05.77Z</time></trkpt><trkpt lat="45.5631233" lon="12.4249309"><ele>-1.0</ele><time>2026-04-28T17:20:07.79Z</time></trkpt><trkpt lat="45.5630954" lon="12.4247845"><ele>-1.0</ele><time>2026-04-28T17:20:09.783Z</time></trkpt><trkpt lat="45.5631001" lon="12.4246366"><ele>-1.0</ele><time>2026-04-28T17:20:11.775Z</time></trkpt><trkpt lat="45.5631223" lon="12.4244889"><ele>-1.0</ele><time>2026-04-28T17:20:13.776Z</time></trkpt><trkpt lat="45.5631617" lon="12.4243484"><ele>-1.0</ele><time>2026-04-28T17:20:15.774Z</time></trkpt><trkpt lat="45.5632106" lon="12.4242036"><ele>-1.0</ele><time>2026-04-28T17:20:17.803Z</time></trkpt><trkpt lat="45.5632622" lon="12.4240639"><ele>-1.0</ele><time>2026-04-28T17:20:19.795Z</time></trkpt><trkpt lat="45.5633149" lon="12.4239424"><ele>-1.0</ele><time>2026-04-28T17:20:21.789Z</time></trkpt><trkpt lat="45.5633691" lon="12.423816"><ele>-1.0</ele><time>2026-04-28T17:20:23.795Z</time></trkpt><trkpt lat="45.5634268" lon="12.4236893"><ele>-1.0</ele><time>2026-04-28T17:20:25.787Z</time></trkpt><trkpt lat="45.5634832" lon="12.4235627"><ele>-1.0</ele><time>2026-04-28T17:20:27.776Z</time></trkpt><trkpt lat="45.56354" lon="12.4234288"><ele>-1.0</ele><time>2026-04-28T17:20:29.789Z</time></trkpt><trkpt lat="45.563593" lon="12.4233169"><ele>-1.0</ele><time>2026-04-28T17:20:31.773Z</time></trkpt><trkpt lat="45.5636509" lon="12.4231867"><ele>-1.0</ele><time>2026-04-28T17:20:33.787Z</time></trkpt><trkpt lat="45.5637002" lon="12.4230727"><ele>-1.0</ele><time>2026-04-28T17:20:35.772Z</time></trkpt><trkpt lat="45.563757" lon="12.4229341"><ele>-1.2000000000000002</ele><time>2026-04-28T17:20:37.79Z</time></trkpt><trkpt lat="45.5638025" lon="12.4228017"><ele>-1.4000000000000001</ele><time>2026-04-28T17:20:39.81Z</time></trkpt><trkpt lat="45.5638515" lon="12.422664"><ele>-1.6</ele><time>2026-04-28T17:20:41.819Z</time></trkpt><trkpt lat="45.563894" lon="12.4225188"><ele>-1.8</ele><time>2026-04-28T17:20:43.782Z</time></trkpt><trkpt lat="45.563938" lon="12.4223895"><ele>-2.0</ele><time>2026-04-28T17:20:45.805Z</time></trkpt><trkpt lat="45.5639843" lon="12.4222497"><ele>-1.8</ele><time>2026-04-28T17:20:47.786Z</time></trkpt><trkpt lat="45.5640299" lon="12.422105"><ele>-1.6</ele><time>2026-04-28T17:20:49.78Z</time></trkpt><trkpt lat="45.5640746" lon="12.421972"><ele>-1.4000000000000001</ele><time>2026-04-28T17:20:51.784Z</time></trkpt><trkpt lat="45.5641224" lon="12.4218368"><ele>-1.2000000000000002</ele><time>2026-04-28T17:20:53.8Z</time></trkpt><trkpt lat="45.5641863" lon="12.4217005"><ele>-1.0</ele><time>2026-04-28T17:20:55.787Z</time></trkpt><trkpt lat="45.5642599" lon="12.4215608"><ele>-1.0</ele><time>2026-04-28T17:20:57.793Z</time></trkpt><trkpt lat="45.5643337" lon="12.4214384"><ele>-1.0</ele><time>2026-04-28T17:20:59.786Z</time></trkpt><trkpt lat="45.5644082" lon="12.4213214"><ele>-1.0</ele><time>2026-04-28T17:21:01.813Z</time></trkpt><trkpt lat="45.5644787" lon="12.4212226"><ele>-1.0</ele><time>2026-04-28T17:21:03.788Z</time></trkpt><trkpt lat="45.5645505" lon="12.4211234"><ele>-1.0</ele><time>2026-04-28T17:21:05.781Z</time></trkpt><trkpt lat="45.5646197" lon="12.421029"><ele>-0.8</ele><time>2026-04-28T17:21:07.772Z</time></trkpt><trkpt lat="45.5646956" lon="12.4209387"><ele>-0.6000000000000001</ele><time>2026-04-28T17:21:09.78Z</time></trkpt><trkpt lat="45.5647748" lon="12.4208394"><ele>-0.4</ele><time>2026-04-28T17:21:11.781Z</time></trkpt><trkpt lat="45.5648595" lon="12.4207482"><ele>-0.2</ele><time>2026-04-28T17:21:13.824Z</time></trkpt><trkpt lat="45.5649457" lon="12.4206639"><ele>0.0</ele><time>2026-04-28T17:21:15.786Z</time></trkpt><trkpt lat="45.5650285" lon="12.4205786"><ele>0.0</ele><time>2026-04-28T17:21:17.803Z</time></trkpt><trkpt lat="45.565112" lon="12.4205015"><ele>0.0</ele><time>2026-04-28T17:21:19.789Z</time></trkpt><trkpt lat="45.5652027" lon="12.4204224"><ele>0.0</ele><time>2026-04-28T17:21:21.793Z</time></trkpt><trkpt lat="45.5653001" lon="12.420356"><ele>0.0</ele><time>2026-04-28T17:21:23.798Z</time></trkpt><trkpt lat="45.5654" lon="12.4202869"><ele>0.0</ele><time>2026-04-28T17:21:25.803Z</time></trkpt><trkpt lat="45.5654979" lon="12.4202218"><ele>0.2</ele><time>2026-04-28T17:21:27.802Z</time></trkpt><trkpt lat="45.5656031" lon="12.4201842"><ele>0.4</ele><time>2026-04-28T17:21:29.791Z</time></trkpt><trkpt lat="45.5657094" lon="12.4201529"><ele>0.6000000000000001</ele><time>2026-04-28T17:21:31.788Z</time></trkpt><trkpt lat="45.5658208" lon="12.4201147"><ele>0.8</ele><time>2026-04-28T17:21:33.781Z</time></trkpt><trkpt lat="45.5659253" lon="12.4200819"><ele>1.0</ele><time>2026-04-28T17:21:35.788Z</time></trkpt><trkpt lat="45.5660312" lon="12.420047"><ele>1.0</ele><time>2026-04-28T17:21:37.789Z</time></trkpt><trkpt lat="45.5661363" lon="12.4200064"><ele>1.0</ele><time>2026-04-28T17:21:39.787Z</time></trkpt><trkpt lat="45.5662353" lon="12.4199429"><ele>1.0</ele><time>2026-04-28T17:21:41.779Z</time></trkpt><trkpt lat="45.5663346" lon="12.4198545"><ele>1.0</ele><time>2026-04-28T17:21:43.779Z</time></trkpt><trkpt lat="45.566425" lon="12.4197612"><ele>1.0</ele><time>2026-04-28T17:21:45.799Z</time></trkpt><trkpt lat="45.5665116" lon="12.4196735"><ele>1.0</ele><time>2026-04-28T17:21:47.794Z</time></trkpt><trkpt lat="45.5665983" lon="12.4195763"><ele>1.0</ele><time>2026-04-28T17:21:49.776Z</time></trkpt><trkpt lat="45.5666824" lon="12.4194924"><ele>1.0</ele><time>2026-04-28T17:21:51.812Z</time></trkpt><trkpt lat="45.5667729" lon="12.4194061"><ele>1.0</ele><time>2026-04-28T17:21:53.792Z</time></trkpt><trkpt lat="45.5668637" lon="12.4193159"><ele>1.0</ele><time>2026-04-28T17:21:55.776Z</time></trkpt><trkpt lat="45.5669492" lon="12.4192236"><ele>0.8</ele><time>2026-04-28T17:21:57.776Z</time></trkpt><trkpt lat="45.5670333" lon="12.419128"><ele>0.6000000000000001</ele><time>2026-04-28T17:21:59.784Z</time></trkpt><trkpt lat="45.5671158" lon="12.4190146"><ele>0.4</ele><time>2026-04-28T17:22:01.806Z</time></trkpt><trkpt lat="45.5671932" lon="12.4188974"><ele>0.2</ele><time>2026-04-28T17:22:03.782Z</time></trkpt><trkpt lat="45.5672634" lon="12.4187772"><ele>0.0</ele><time>2026-04-28T17:22:05.775Z</time></trkpt><trkpt lat="45.5673282" lon="12.4186535"><ele>0.0</ele><time>2026-04-28T17:22:07.8Z</time></trkpt><trkpt lat="45.567386" lon="12.4185252"><ele>0.0</ele><time>2026-04-28T17:22:09.787Z</time></trkpt><trkpt lat="45.5674389" lon="12.4184013"><ele>0.0</ele><time>2026-04-28T17:22:11.795Z</time></trkpt><trkpt lat="45.5674836" lon="12.4182587"><ele>0.0</ele><time>2026-04-28T17:22:13.794Z</time></trkpt><trkpt lat="45.5675237" lon="12.4181179"><ele>0.0</ele><time>2026-04-28T17:22:15.813Z</time></trkpt><trkpt lat="45.5675597" lon="12.4179589"><ele>0.0</ele><time>2026-04-28T17:22:17.783Z</time></trkpt><trkpt lat="45.567593" lon="12.4178016"><ele>0.0</ele><time>2026-04-28T17:22:19.799Z</time></trkpt><trkpt lat="45.5676201" lon="12.4176513"><ele>0.0</ele><time>2026-04-28T17:22:21.789Z</time></trkpt><trkpt lat="45.5676466" lon="12.4174948"><ele>0.0</ele><time>2026-04-28T17:22:23.795Z</time></trkpt><trkpt lat="45.5676704" lon="12.4173465"><ele>0.0</ele><time>2026-04-28T17:22:25.783Z</time></trkpt><trkpt lat="45.5676954" lon="12.4171932"><ele>0.0</ele><time>2026-04-28T17:22:27.781Z</time></trkpt><trkpt lat="45.5677207" lon="12.4170323"><ele>0.0</ele><time>2026-04-28T17:22:29.787Z</time></trkpt><trkpt lat="45.5677518" lon="12.4168858"><ele>0.0</ele><time>2026-04-28T17:22:31.785Z</time></trkpt><trkpt lat="45.5677898" lon="12.4167454"><ele>0.0</ele><time>2026-04-28T17:22:33.787Z</time></trkpt><trkpt lat="45.5678398" lon="12.4166169"><ele>0.0</ele><time>2026-04-28T17:22:35.794Z</time></trkpt><trkpt lat="45.5678976" lon="12.416485"><ele>0.0</ele><time>2026-04-28T17:22:37.793Z</time></trkpt><trkpt lat="45.5679494" lon="12.4163533"><ele>0.0</ele><time>2026-04-28T17:22:39.795Z</time></trkpt><trkpt lat="45.5679956" lon="12.4162235"><ele>0.0</ele><time>2026-04-28T17:22:41.783Z</time></trkpt><trkpt lat="45.5680402" lon="12.4161111"><ele>0.0</ele><time>2026-04-28T17:22:43.779Z</time></trkpt><trkpt lat="45.5680801" lon="12.4160009"><ele>0.0</ele><time>2026-04-28T17:22:45.796Z</time></trkpt><trkpt lat="45.5681062" lon="12.4158896"><ele>0.4</ele><time>2026-04-28T17:22:47.792Z</time></trkpt><trkpt lat="45.568121" lon="12.4157816"><ele>0.8</ele><time>2026-04-28T17:22:49.785Z</time></trkpt><trkpt lat="45.568145" lon="12.4156572"><ele>1.2000000000000002</ele><time>2026-04-28T17:22:51.778Z</time></trkpt><trkpt lat="45.5681631" lon="12.415521"><ele>1.6</ele><time>2026-04-28T17:22:53.801Z</time></trkpt><trkpt lat="45.5681641" lon="12.4153659"><ele>2.0</ele><time>2026-04-28T17:22:55.787Z</time></trkpt><trkpt lat="45.5681574" lon="12.4152275"><ele>2.0</ele><time>2026-04-28T17:22:57.788Z</time></trkpt><trkpt lat="45.5681423" lon="12.4150807"><ele>2.0</ele><time>2026-04-28T17:22:59.787Z</time></trkpt><trkpt lat="45.568117" lon="12.4149304"><ele>2.0</ele><time>2026-04-28T17:23:01.792Z</time></trkpt><trkpt lat="45.5680949" lon="12.4147905"><ele>2.0</ele><time>2026-04-28T17:23:03.782Z</time></trkpt><trkpt lat="45.5680486" lon="12.4146451"><ele>2.0</ele><time>2026-04-28T17:23:05.768Z</time></trkpt><trkpt lat="45.5679862" lon="12.4145016"><ele>1.25</ele><time>2026-04-28T17:23:07.769Z</time></trkpt><trkpt lat="45.5679155" lon="12.414367"><ele>0.5</ele><time>2026-04-28T17:23:09.783Z</time></trkpt><trkpt lat="45.5678527" lon="12.414237"><ele>-0.25</ele><time>2026-04-28T17:23:11.791Z</time></trkpt><trkpt lat="45.5677813" lon="12.4141146"><ele>-1.0</ele><time>2026-04-28T17:23:13.809Z</time></trkpt><trkpt lat="45.5677133" lon="12.4139855"><ele>-1.0</ele><time>2026-04-28T17:23:15.801Z</time></trkpt><trkpt lat="45.5676469" lon="12.4138765"><ele>-1.0</ele><time>2026-04-28T17:23:17.782Z</time></trkpt><trkpt lat="45.5675793" lon="12.4137493"><ele>-1.0</ele><time>2026-04-28T17:23:19.789Z</time></trkpt><trkpt lat="45.5675075" lon="12.4136164"><ele>-1.0</ele><time>2026-04-28T17:23:21.778Z</time></trkpt><trkpt lat="45.5674533" lon="12.4134751"><ele>-1.0</ele><time>2026-04-28T17:23:23.789Z</time></trkpt><trkpt lat="45.5673923" lon="12.4133313"><ele>-0.6000000000000001</ele><time>2026-04-28T17:23:25.785Z</time></trkpt><trkpt lat="45.5673477" lon="12.4132088"><ele>-0.20000000000000007</ele><time>2026-04-28T17:23:27.8Z</time></trkpt><trkpt lat="45.5673024" lon="12.4130756"><ele>0.20000000000000007</ele><time>2026-04-28T17:23:29.779Z</time></trkpt><trkpt lat="45.5672529" lon="12.4129415"><ele>0.6000000000000001</ele><time>2026-04-28T17:23:31.78Z</time></trkpt><trkpt lat="45.5672063" lon="12.4128186"><ele>1.0</ele><time>2026-04-28T17:23:33.779Z</time></trkpt><trkpt lat="45.5671541" lon="12.4126811"><ele>1.0</ele><time>2026-04-28T17:23:35.776Z</time></trkpt><trkpt lat="45.5670997" lon="12.4125484"><ele>1.0</ele><time>2026-04-28T17:23:37.796Z</time></trkpt><trkpt lat="45.5670427" lon="12.4124212"><ele>1.0</ele><time>2026-04-28T17:23:39.787Z</time></trkpt><trkpt lat="45.5669788" lon="12.4122962"><ele>1.0</ele><time>2026-04-28T17:23:41.797Z</time></trkpt><trkpt lat="45.5669131" lon="12.4121684"><ele>1.0</ele><time>2026-04-28T17:23:43.785Z</time></trkpt><trkpt lat="45.5668401" lon="12.4120428"><ele>1.0</ele><time>2026-04-28T17:23:45.792Z</time></trkpt><trkpt lat="45.5667598" lon="12.4119165"><ele>1.0</ele><time>2026-04-28T17:23:47.778Z</time></trkpt><trkpt lat="45.5666787" lon="12.4118342"><ele>1.0</ele><time>2026-04-28T17:23:49.778Z</time></trkpt><trkpt lat="45.5666088" lon="12.4117579"><ele>1.0</ele><time>2026-04-28T17:23:51.771Z</time></trkpt><trkpt lat="45.5665292" lon="12.4116576"><ele>1.0</ele><time>2026-04-28T17:23:53.774Z</time></trkpt><trkpt lat="45.5664475" lon="12.4115547"><ele>1.0</ele><time>2026-04-28T17:23:55.785Z</time></trkpt><trkpt lat="45.5663651" lon="12.4114437"><ele>1.0</ele><time>2026-04-28T17:23:57.784Z</time></trkpt><trkpt lat="45.5662877" lon="12.4113224"><ele>1.0</ele><time>2026-04-28T17:23:59.793Z</time></trkpt><trkpt lat="45.5662168" lon="12.411207"><ele>1.0</ele><time>2026-04-28T17:24:01.775Z</time></trkpt><trkpt lat="45.5661571" lon="12.4110941"><ele>1.0</ele><time>2026-04-28T17:24:03.789Z</time></trkpt><trkpt lat="45.5660956" lon="12.410961"><ele>0.8</ele><time>2026-04-28T17:24:05.788Z</time></trkpt><trkpt lat="45.5660381" lon="12.410828"><ele>0.6000000000000001</ele><time>2026-04-28T17:24:07.779Z</time></trkpt><trkpt lat="45.5659944" lon="12.410685"><ele>0.4</ele><time>2026-04-28T17:24:09.789Z</time></trkpt><trkpt lat="45.5659571" lon="12.4105546"><ele>0.2</ele><time>2026-04-28T17:24:11.786Z</time></trkpt><trkpt lat="45.5659224" lon="12.4104036"><ele>0.0</ele><time>2026-04-28T17:24:13.792Z</time></trkpt><trkpt lat="45.5658834" lon="12.4102554"><ele>0.0</ele><time>2026-04-28T17:24:15.792Z</time></trkpt><trkpt lat="45.5658563" lon="12.4101128"><ele>0.0</ele><time>2026-04-28T17:24:17.775Z</time></trkpt><trkpt lat="45.5658329" lon="12.4099714"><ele>0.0</ele><time>2026-04-28T17:24:19.811Z</time></trkpt><trkpt lat="45.565801" lon="12.4098268"><ele>0.0</ele><time>2026-04-28T17:24:21.787Z</time></trkpt><trkpt lat="45.565767" lon="12.4096734"><ele>0.0</ele><time>2026-04-28T17:24:23.795Z</time></trkpt><trkpt lat="45.5657318" lon="12.4095289"><ele>0.0</ele><time>2026-04-28T17:24:25.785Z</time></trkpt><trkpt lat="45.5657032" lon="12.4093938"><ele>0.0</ele><time>2026-04-28T17:24:27.783Z</time></trkpt><trkpt lat="45.5656677" lon="12.4092477"><ele>0.0</ele><time>2026-04-28T17:24:29.789Z</time></trkpt><trkpt lat="45.5656464" lon="12.4091018"><ele>0.0</ele><time>2026-04-28T17:24:31.791Z</time></trkpt><trkpt lat="45.5656298" lon="12.4089421"><ele>0.0</ele><time>2026-04-28T17:24:33.767Z</time></trkpt><trkpt lat="45.5656235" lon="12.4087914"><ele>0.2</ele><time>2026-04-28T17:24:35.788Z</time></trkpt><trkpt lat="45.5656167" lon="12.4086379"><ele>0.4</ele><time>2026-04-28T17:24:37.783Z</time></trkpt><trkpt lat="45.5656118" lon="12.4084946"><ele>0.6000000000000001</ele><time>2026-04-28T17:24:39.771Z</time></trkpt><trkpt lat="45.5656041" lon="12.4083438"><ele>0.8</ele><time>2026-04-28T17:24:41.791Z</time></trkpt><trkpt lat="45.5656057" lon="12.4081975"><ele>1.0</ele><time>2026-04-28T17:24:43.785Z</time></trkpt><trkpt lat="45.5656015" lon="12.4080568"><ele>1.0</ele><time>2026-04-28T17:24:45.777Z</time></trkpt><trkpt lat="45.5655967" lon="12.4079091"><ele>1.0</ele><time>2026-04-28T17:24:47.789Z</time></trkpt><trkpt lat="45.5655974" lon="12.4077781"><ele>1.0</ele><time>2026-04-28T17:24:49.769Z</time></trkpt><trkpt lat="45.5656024" lon="12.4076547"><ele>1.0</ele><time>2026-04-28T17:24:51.802Z</time></trkpt><trkpt lat="45.5656116" lon="12.4075277"><ele>1.0</ele><time>2026-04-28T17:24:53.78Z</time></trkpt><trkpt lat="45.5656263" lon="12.4073882"><ele>1.0</ele><time>2026-04-28T17:24:55.777Z</time></trkpt><trkpt lat="45.5656468" lon="12.4072388"><ele>1.0</ele><time>2026-04-28T17:24:57.783Z</time></trkpt><trkpt lat="45.5656752" lon="12.4070963"><ele>1.0</ele><time>2026-04-28T17:24:59.776Z</time></trkpt><trkpt lat="45.5657044" lon="12.4069544"><ele>1.0</ele><time>2026-04-28T17:25:01.8Z</time></trkpt><trkpt lat="45.5657345" lon="12.4067964"><ele>1.0</ele><time>2026-04-28T17:25:03.79Z</time></trkpt><trkpt lat="45.5657802" lon="12.4066648"><ele>1.0</ele><time>2026-04-28T17:25:05.778Z</time></trkpt><trkpt lat="45.5658272" lon="12.4065353"><ele>1.0</ele><time>2026-04-28T17:25:07.784Z</time></trkpt><trkpt lat="45.565876" lon="12.4064037"><ele>1.0</ele><time>2026-04-28T17:25:09.787Z</time></trkpt><trkpt lat="45.5659254" lon="12.4062569"><ele>1.0</ele><time>2026-04-28T17:25:11.793Z</time></trkpt><trkpt lat="45.5659491" lon="12.4061727"><ele>1.0</ele><time>2026-04-28T17:25:12.784Z</time></trkpt><trkpt lat="45.5659981" lon="12.4060475"><ele>0.9999999999999999</ele><time>2026-04-28T17:25:14.799Z</time></trkpt><trkpt lat="45.5660536" lon="12.405919"><ele>1.0</ele><time>2026-04-28T17:25:16.793Z</time></trkpt><trkpt lat="45.566092" lon="12.4058448"><ele>1.0</ele><time>2026-04-28T17:25:17.779Z</time></trkpt><trkpt lat="45.5661275" lon="12.4057659"><ele>1.0</ele><time>2026-04-28T17:25:18.786Z</time></trkpt><trkpt lat="45.5661805" lon="12.4056351"><ele>0.9999999999999999</ele><time>2026-04-28T17:25:20.771Z</time></trkpt><trkpt lat="45.5662319" lon="12.4055022"><ele>1.0</ele><time>2026-04-28T17:25:22.788Z</time></trkpt><trkpt lat="45.5662845" lon="12.4053675"><ele>1.0</ele><time>2026-04-28T17:25:24.772Z</time></trkpt><trkpt lat="45.5663342" lon="12.4052291"><ele>1.0</ele><time>2026-04-28T17:25:26.779Z</time></trkpt><trkpt lat="45.5663746" lon="12.4051249"><ele>1.0</ele><time>2026-04-28T17:25:28.779Z</time></trkpt><trkpt lat="45.5664181" lon="12.4049916"><ele>1.0</ele><time>2026-04-28T17:25:30.775Z</time></trkpt><trkpt lat="45.5664567" lon="12.4048622"><ele>1.0</ele><time>2026-04-28T17:25:32.775Z</time></trkpt><trkpt lat="45.5664871" lon="12.4047784"><ele>1.0</ele><time>2026-04-28T17:25:34.777Z</time></trkpt><trkpt lat="45.5665235" lon="12.4046714"><ele>1.0</ele><time>2026-04-28T17:25:36.773Z</time></trkpt><trkpt lat="45.5665742" lon="12.4045527"><ele>1.0</ele><time>2026-04-28T17:25:38.778Z</time></trkpt><trkpt lat="45.5666323" lon="12.4044273"><ele>1.0</ele><time>2026-04-28T17:25:40.77Z</time></trkpt><trkpt lat="45.566709" lon="12.4042973"><ele>1.0</ele><time>2026-04-28T17:25:42.785Z</time></trkpt><trkpt lat="45.5667963" lon="12.4041688"><ele>1.0</ele><time>2026-04-28T17:25:44.792Z</time></trkpt><trkpt lat="45.5668461" lon="12.404098"><ele>1.0</ele><time>2026-04-28T17:25:45.787Z</time></trkpt><trkpt lat="45.5668927" lon="12.4040219"><ele>1.0</ele><time>2026-04-28T17:25:46.769Z</time></trkpt><trkpt lat="45.5669662" lon="12.403904"><ele>1.0</ele><time>2026-04-28T17:25:48.791Z</time></trkpt><trkpt lat="45.5670479" lon="12.4037884"><ele>1.0</ele><time>2026-04-28T17:25:50.795Z</time></trkpt><trkpt lat="45.5671313" lon="12.4036859"><ele>1.0</ele><time>2026-04-28T17:25:52.784Z</time></trkpt><trkpt lat="45.5672132" lon="12.4035776"><ele>1.0</ele><time>2026-04-28T17:25:54.774Z</time></trkpt><trkpt lat="45.5673005" lon="12.4034648"><ele>1.0</ele><time>2026-04-28T17:25:56.777Z</time></trkpt><trkpt lat="45.5673891" lon="12.4033498"><ele>1.0</ele><time>2026-04-28T17:25:58.775Z</time></trkpt><trkpt lat="45.5674778" lon="12.4032405"><ele>1.0</ele><time>2026-04-28T17:26:00.785Z</time></trkpt><trkpt lat="45.5675605" lon="12.4031324"><ele>1.0</ele><time>2026-04-28T17:26:02.793Z</time></trkpt><trkpt lat="45.5676518" lon="12.4030123"><ele>1.0</ele><time>2026-04-28T17:26:04.792Z</time></trkpt><trkpt lat="45.5677388" lon="12.4029099"><ele>1.0</ele><time>2026-04-28T17:26:06.774Z</time></trkpt><trkpt lat="45.5678279" lon="12.4027975"><ele>1.0</ele><time>2026-04-28T17:26:08.796Z</time></trkpt><trkpt lat="45.5679165" lon="12.4026931"><ele>1.0</ele><time>2026-04-28T17:26:10.791Z</time></trkpt><trkpt lat="45.5680012" lon="12.4025923"><ele>1.0</ele><time>2026-04-28T17:26:12.793Z</time></trkpt><trkpt lat="45.5680778" lon="12.4024979"><ele>1.0</ele><time>2026-04-28T17:26:14.778Z</time></trkpt><trkpt lat="45.5681648" lon="12.4023926"><ele>1.0</ele><time>2026-04-28T17:26:16.792Z</time></trkpt><trkpt lat="45.5682585" lon="12.402289"><ele>1.0</ele><time>2026-04-28T17:26:18.782Z</time></trkpt><trkpt lat="45.5683127" lon="12.4022388"><ele>1.0</ele><time>2026-04-28T17:26:19.789Z</time></trkpt><trkpt lat="45.5684055" lon="12.402156"><ele>1.0</ele><time>2026-04-28T17:26:21.779Z</time></trkpt><trkpt lat="45.5684856" lon="12.4020788"><ele>1.0</ele><time>2026-04-28T17:26:23.784Z</time></trkpt><trkpt lat="45.5685392" lon="12.4020287"><ele>1.0</ele><time>2026-04-28T17:26:24.779Z</time></trkpt><trkpt lat="45.5686414" lon="12.4019362"><ele>1.25</ele><time>2026-04-28T17:26:26.782Z</time></trkpt><trkpt lat="45.568738" lon="12.4018494"><ele>1.5</ele><time>2026-04-28T17:26:28.785Z</time></trkpt><trkpt lat="45.5688361" lon="12.4017593"><ele>1.75</ele><time>2026-04-28T17:26:30.779Z</time></trkpt><trkpt lat="45.5689333" lon="12.4016806"><ele>2.0</ele><time>2026-04-28T17:26:32.779Z</time></trkpt><trkpt lat="45.569036" lon="12.4016022"><ele>2.0</ele><time>2026-04-28T17:26:34.794Z</time></trkpt><trkpt lat="45.5691501" lon="12.4015141"><ele>2.0</ele><time>2026-04-28T17:26:36.782Z</time></trkpt><trkpt lat="45.5692089" lon="12.4014733"><ele>2.0</ele><time>2026-04-28T17:26:37.789Z</time></trkpt><trkpt lat="45.5693199" lon="12.4013876"><ele>2.0</ele><time>2026-04-28T17:26:39.788Z</time></trkpt><trkpt lat="45.5694202" lon="12.4012968"><ele>2.0</ele><time>2026-04-28T17:26:41.79Z</time></trkpt><trkpt lat="45.5695184" lon="12.4011912"><ele>2.0</ele><time>2026-04-28T17:26:43.784Z</time></trkpt><trkpt lat="45.56961" lon="12.4010744"><ele>2.0</ele><time>2026-04-28T17:26:45.778Z</time></trkpt><trkpt lat="45.5696572" lon="12.4010066"><ele>2.0</ele><time>2026-04-28T17:26:46.774Z</time></trkpt><trkpt lat="45.5697384" lon="12.4008968"><ele>2.0</ele><time>2026-04-28T17:26:48.781Z</time></trkpt><trkpt lat="45.5698281" lon="12.4007908"><ele>2.0</ele><time>2026-04-28T17:26:50.795Z</time></trkpt><trkpt lat="45.5699186" lon="12.4006814"><ele>2.0</ele><time>2026-04-28T17:26:52.79Z</time></trkpt><trkpt lat="45.570008" lon="12.4005678"><ele>2.0</ele><time>2026-04-28T17:26:54.775Z</time></trkpt><trkpt lat="45.5700963" lon="12.4004596"><ele>2.0</ele><time>2026-04-28T17:26:56.778Z</time></trkpt><trkpt lat="45.5701782" lon="12.4003564"><ele>2.0</ele><time>2026-04-28T17:26:58.795Z</time></trkpt><trkpt lat="45.5702499" lon="12.4002566"><ele>2.0</ele><time>2026-04-28T17:27:00.78Z</time></trkpt><trkpt lat="45.5703289" lon="12.4001486"><ele>1.8</ele><time>2026-04-28T17:27:02.789Z</time></trkpt><trkpt lat="45.5704073" lon="12.4000339"><ele>1.6</ele><time>2026-04-28T17:27:04.783Z</time></trkpt><trkpt lat="45.5704546" lon="12.3999704"><ele>1.4000000000000001</ele><time>2026-04-28T17:27:05.771Z</time></trkpt><trkpt lat="45.5705377" lon="12.3998491"><ele>1.2000000000000002</ele><time>2026-04-28T17:27:07.776Z</time></trkpt><trkpt lat="45.5706296" lon="12.3997335"><ele>1.0</ele><time>2026-04-28T17:27:09.801Z</time></trkpt><trkpt lat="45.5707182" lon="12.3996301"><ele>0.75</ele><time>2026-04-28T17:27:11.789Z</time></trkpt><trkpt lat="45.5708114" lon="12.3995244"><ele>0.5</ele><time>2026-04-28T17:27:13.784Z</time></trkpt><trkpt lat="45.5708919" lon="12.399429"><ele>0.25</ele><time>2026-04-28T17:27:15.774Z</time></trkpt><trkpt lat="45.5709785" lon="12.3993247"><ele>0.0</ele><time>2026-04-28T17:27:17.777Z</time></trkpt><trkpt lat="45.5710666" lon="12.3992173"><ele>0.0</ele><time>2026-04-28T17:27:19.779Z</time></trkpt><trkpt lat="45.5711565" lon="12.3991067"><ele>0.0</ele><time>2026-04-28T17:27:21.784Z</time></trkpt><trkpt lat="45.5712517" lon="12.398991"><ele>0.0</ele><time>2026-04-28T17:27:23.78Z</time></trkpt><trkpt lat="45.5713408" lon="12.3988787"><ele>0.0</ele><time>2026-04-28T17:27:25.788Z</time></trkpt><trkpt lat="45.5714254" lon="12.3987734"><ele>0.4</ele><time>2026-04-28T17:27:27.797Z</time></trkpt><trkpt lat="45.5715012" lon="12.3986648"><ele>0.8</ele><time>2026-04-28T17:27:29.78Z</time></trkpt><trkpt lat="45.5715767" lon="12.3985391"><ele>1.2000000000000002</ele><time>2026-04-28T17:27:31.784Z</time></trkpt><trkpt lat="45.5716165" lon="12.3984629"><ele>1.6</ele><time>2026-04-28T17:27:32.782Z</time></trkpt><trkpt lat="45.5716725" lon="12.398312"><ele>2.0</ele><time>2026-04-28T17:27:34.782Z</time></trkpt><trkpt lat="45.5717152" lon="12.3981715"><ele>2.0</ele><time>2026-04-28T17:27:36.782Z</time></trkpt><trkpt lat="45.5717353" lon="12.3980861"><ele>2.0</ele><time>2026-04-28T17:27:37.784Z</time></trkpt><trkpt lat="45.5717448" lon="12.3979447"><ele>2.0</ele><time>2026-04-28T17:27:39.796Z</time></trkpt><trkpt lat="45.5717433" lon="12.3977992"><ele>2.0</ele><time>2026-04-28T17:27:41.784Z</time></trkpt><trkpt lat="45.5717359" lon="12.39765"><ele>2.0</ele><time>2026-04-28T17:27:43.795Z</time></trkpt><trkpt lat="45.5717213" lon="12.3974965"><ele>1.8</ele><time>2026-04-28T17:27:45.787Z</time></trkpt><trkpt lat="45.571705" lon="12.3973497"><ele>1.6</ele><time>2026-04-28T17:27:47.801Z</time></trkpt><trkpt lat="45.5716867" lon="12.3971992"><ele>1.4000000000000001</ele><time>2026-04-28T17:27:49.788Z</time></trkpt><trkpt lat="45.5716751" lon="12.3970477"><ele>1.2000000000000002</ele><time>2026-04-28T17:27:51.787Z</time></trkpt><trkpt lat="45.5716621" lon="12.3968967"><ele>1.0</ele><time>2026-04-28T17:27:53.797Z</time></trkpt><trkpt lat="45.571649" lon="12.396738"><ele>1.0</ele><time>2026-04-28T17:27:55.797Z</time></trkpt><trkpt lat="45.5716414" lon="12.3965795"><ele>1.0</ele><time>2026-04-28T17:27:57.785Z</time></trkpt><trkpt lat="45.5716287" lon="12.3964292"><ele>1.0</ele><time>2026-04-28T17:27:59.8Z</time></trkpt><trkpt lat="45.5716199" lon="12.3962771"><ele>1.0</ele><time>2026-04-28T17:28:01.77Z</time></trkpt><trkpt lat="45.5716103" lon="12.3961231"><ele>1.0</ele><time>2026-04-28T17:28:03.781Z</time></trkpt><trkpt lat="45.5716018" lon="12.3959566"><ele>1.0</ele><time>2026-04-28T17:28:05.804Z</time></trkpt><trkpt lat="45.5715919" lon="12.3958009"><ele>1.0</ele><time>2026-04-28T17:28:07.794Z</time></trkpt><trkpt lat="45.5715843" lon="12.395648"><ele>1.0</ele><time>2026-04-28T17:28:09.786Z</time></trkpt><trkpt lat="45.5715743" lon="12.3954971"><ele>1.0</ele><time>2026-04-28T17:28:11.784Z</time></trkpt><trkpt lat="45.5715503" lon="12.3953575"><ele>1.0</ele><time>2026-04-28T17:28:13.817Z</time></trkpt><trkpt lat="45.5715175" lon="12.3952193"><ele>1.0</ele><time>2026-04-28T17:28:15.786Z</time></trkpt><trkpt lat="45.5714794" lon="12.3950766"><ele>1.0</ele><time>2026-04-28T17:28:17.783Z</time></trkpt><trkpt lat="45.5714384" lon="12.3949397"><ele>1.0</ele><time>2026-04-28T17:28:19.788Z</time></trkpt><trkpt lat="45.5713986" lon="12.3947981"><ele>1.0</ele><time>2026-04-28T17:28:21.795Z</time></trkpt><trkpt lat="45.5713647" lon="12.394658"><ele>1.0</ele><time>2026-04-28T17:28:23.774Z</time></trkpt><trkpt lat="45.5713391" lon="12.3945111"><ele>1.0</ele><time>2026-04-28T17:28:25.779Z</time></trkpt><trkpt lat="45.5713248" lon="12.3943703"><ele>1.0</ele><time>2026-04-28T17:28:27.781Z</time></trkpt><trkpt lat="45.571307" lon="12.3942242"><ele>1.0</ele><time>2026-04-28T17:28:29.779Z</time></trkpt><trkpt lat="45.5712957" lon="12.3940732"><ele>1.0</ele><time>2026-04-28T17:28:31.793Z</time></trkpt><trkpt lat="45.5712886" lon="12.3939104"><ele>1.0</ele><time>2026-04-28T17:28:33.792Z</time></trkpt><trkpt lat="45.5712794" lon="12.3937587"><ele>1.4</ele><time>2026-04-28T17:28:35.787Z</time></trkpt><trkpt lat="45.5712699" lon="12.3936057"><ele>1.8</ele><time>2026-04-28T17:28:37.796Z</time></trkpt><trkpt lat="45.5712588" lon="12.3934624"><ele>2.1999999999999997</ele><time>2026-04-28T17:28:39.786Z</time></trkpt><trkpt lat="45.571256" lon="12.3933639"><ele>2.6</ele><time>2026-04-28T17:28:40.795Z</time></trkpt><trkpt lat="45.5712491" lon="12.3932019"><ele>3.0</ele><time>2026-04-28T17:28:42.791Z</time></trkpt><trkpt lat="45.5712392" lon="12.3930332"><ele>3.0</ele><time>2026-04-28T17:28:44.782Z</time></trkpt><trkpt lat="45.5712289" lon="12.3928764"><ele>3.0</ele><time>2026-04-28T17:28:46.777Z</time></trkpt><trkpt lat="45.5712264" lon="12.3927095"><ele>3.0</ele><time>2026-04-28T17:28:48.781Z</time></trkpt><trkpt lat="45.5712246" lon="12.3925471"><ele>3.0</ele><time>2026-04-28T17:28:50.779Z</time></trkpt><trkpt lat="45.5712298" lon="12.3923788"><ele>3.0</ele><time>2026-04-28T17:28:52.789Z</time></trkpt><trkpt lat="45.5712368" lon="12.392216"><ele>3.0</ele><time>2026-04-28T17:28:54.79Z</time></trkpt><trkpt lat="45.5712459" lon="12.3920589"><ele>3.0</ele><time>2026-04-28T17:28:56.793Z</time></trkpt><trkpt lat="45.5712587" lon="12.3919118"><ele>3.0</ele><time>2026-04-28T17:28:58.789Z</time></trkpt><trkpt lat="45.5712714" lon="12.3917584"><ele>3.0</ele><time>2026-04-28T17:29:00.798Z</time></trkpt><trkpt lat="45.5712819" lon="12.3916041"><ele>3.0</ele><time>2026-04-28T17:29:02.775Z</time></trkpt><trkpt lat="45.571294" lon="12.3914438"><ele>3.0</ele><time>2026-04-28T17:29:04.772Z</time></trkpt><trkpt lat="45.5713079" lon="12.3912841"><ele>3.0</ele><time>2026-04-28T17:29:06.776Z</time></trkpt><trkpt lat="45.5713197" lon="12.3911201"><ele>3.0</ele><time>2026-04-28T17:29:08.776Z</time></trkpt><trkpt lat="45.5713285" lon="12.3909692"><ele>3.0</ele><time>2026-04-28T17:29:10.78Z</time></trkpt><trkpt lat="45.5713445" lon="12.3908083"><ele>3.0</ele><time>2026-04-28T17:29:12.788Z</time></trkpt><trkpt lat="45.5713606" lon="12.3906602"><ele>3.0</ele><time>2026-04-28T17:29:14.777Z</time></trkpt><trkpt lat="45.5713734" lon="12.3904976"><ele>3.0</ele><time>2026-04-28T17:29:16.801Z</time></trkpt><trkpt lat="45.5713862" lon="12.3903412"><ele>3.0</ele><time>2026-04-28T17:29:18.782Z</time></trkpt><trkpt lat="45.5714033" lon="12.3901942"><ele>3.0</ele><time>2026-04-28T17:29:20.789Z</time></trkpt><trkpt lat="45.5714205" lon="12.3900301"><ele>3.0</ele><time>2026-04-28T17:29:22.772Z</time></trkpt><trkpt lat="45.5714311" lon="12.3898855"><ele>3.0</ele><time>2026-04-28T17:29:24.78Z</time></trkpt><trkpt lat="45.5714458" lon="12.3897281"><ele>3.0</ele><time>2026-04-28T17:29:26.788Z</time></trkpt><trkpt lat="45.5714743" lon="12.3895593"><ele>3.0</ele><time>2026-04-28T17:29:28.784Z</time></trkpt><trkpt lat="45.5715139" lon="12.3894062"><ele>3.0</ele><time>2026-04-28T17:29:30.782Z</time></trkpt><trkpt lat="45.5715588" lon="12.3892673"><ele>3.0</ele><time>2026-04-28T17:29:32.783Z</time></trkpt><trkpt lat="45.5716119" lon="12.3891296"><ele>3.0</ele><time>2026-04-28T17:29:34.77Z</time></trkpt><trkpt lat="45.5716667" lon="12.3889922"><ele>3.0</ele><time>2026-04-28T17:29:36.766Z</time></trkpt><trkpt lat="45.5717205" lon="12.3888507"><ele>3.0</ele><time>2026-04-28T17:29:38.772Z</time></trkpt><trkpt lat="45.5717772" lon="12.3887112"><ele>3.0</ele><time>2026-04-28T17:29:40.769Z</time></trkpt><trkpt lat="45.5718395" lon="12.3885782"><ele>2.8</ele><time>2026-04-28T17:29:42.791Z</time></trkpt><trkpt lat="45.5719022" lon="12.3884569"><ele>2.5999999999999996</ele><time>2026-04-28T17:29:44.797Z</time></trkpt><trkpt lat="45.5719695" lon="12.3883457"><ele>2.4000000000000004</ele><time>2026-04-28T17:29:46.775Z</time></trkpt><trkpt lat="45.5720618" lon="12.3882426"><ele>2.2</ele><time>2026-04-28T17:29:48.774Z</time></trkpt><trkpt lat="45.5721548" lon="12.3881711"><ele>2.0</ele><time>2026-04-28T17:29:50.78Z</time></trkpt><trkpt lat="45.5722542" lon="12.3880907"><ele>1.75</ele><time>2026-04-28T17:29:52.774Z</time></trkpt><trkpt lat="45.572359" lon="12.3880027"><ele>1.5</ele><time>2026-04-28T17:29:54.766Z</time></trkpt><trkpt lat="45.5724639" lon="12.3879185"><ele>1.25</ele><time>2026-04-28T17:29:56.776Z</time></trkpt><trkpt lat="45.5725621" lon="12.3878346"><ele>1.0</ele><time>2026-04-28T17:29:58.774Z</time></trkpt><trkpt lat="45.5726638" lon="12.3877596"><ele>1.0</ele><time>2026-04-28T17:30:00.779Z</time></trkpt><trkpt lat="45.5727657" lon="12.3876774"><ele>1.0</ele><time>2026-04-28T17:30:02.786Z</time></trkpt><trkpt lat="45.5728644" lon="12.387596"><ele>1.0</ele><time>2026-04-28T17:30:04.772Z</time></trkpt><trkpt lat="45.5729648" lon="12.3875151"><ele>1.0</ele><time>2026-04-28T17:30:06.776Z</time></trkpt><trkpt lat="45.5730587" lon="12.3874393"><ele>1.25</ele><time>2026-04-28T17:30:08.773Z</time></trkpt><trkpt lat="45.5731624" lon="12.3873617"><ele>1.5</ele><time>2026-04-28T17:30:10.779Z</time></trkpt><trkpt lat="45.5732637" lon="12.3872795"><ele>1.75</ele><time>2026-04-28T17:30:12.79Z</time></trkpt><trkpt lat="45.5733639" lon="12.3872048"><ele>2.0</ele><time>2026-04-28T17:30:14.778Z</time></trkpt><trkpt lat="45.5734644" lon="12.3871309"><ele>2.0</ele><time>2026-04-28T17:30:16.785Z</time></trkpt><trkpt lat="45.5735543" lon="12.3870677"><ele>2.0</ele><time>2026-04-28T17:30:18.794Z</time></trkpt><trkpt lat="45.5736521" lon="12.3869945"><ele>2.0</ele><time>2026-04-28T17:30:20.781Z</time></trkpt><trkpt lat="45.5737083" lon="12.3869533"><ele>2.0</ele><time>2026-04-28T17:30:21.802Z</time></trkpt><trkpt lat="45.5737671" lon="12.3869137"><ele>2.0</ele><time>2026-04-28T17:30:22.776Z</time></trkpt><trkpt lat="45.5738707" lon="12.3868339"><ele>2.0</ele><time>2026-04-28T17:30:24.789Z</time></trkpt><trkpt lat="45.5739688" lon="12.38676"><ele>2.0</ele><time>2026-04-28T17:30:26.782Z</time></trkpt><trkpt lat="45.5740259" lon="12.3867213"><ele>2.0</ele><time>2026-04-28T17:30:27.782Z</time></trkpt><trkpt lat="45.5740828" lon="12.3866791"><ele>2.0</ele><time>2026-04-28T17:30:28.783Z</time></trkpt><trkpt lat="45.5741844" lon="12.3865959"><ele>2.0</ele><time>2026-04-28T17:30:30.781Z</time></trkpt><trkpt lat="45.5742847" lon="12.386511"><ele>2.0</ele><time>2026-04-28T17:30:32.774Z</time></trkpt><trkpt lat="45.5743867" lon="12.3864262"><ele>2.0</ele><time>2026-04-28T17:30:34.769Z</time></trkpt><trkpt lat="45.5744883" lon="12.3863476"><ele>2.0</ele><time>2026-04-28T17:30:36.785Z</time></trkpt><trkpt lat="45.5745893" lon="12.3862734"><ele>2.0</ele><time>2026-04-28T17:30:38.788Z</time></trkpt><trkpt lat="45.574688" lon="12.3861917"><ele>2.0</ele><time>2026-04-28T17:30:40.78Z</time></trkpt><trkpt lat="45.5747872" lon="12.3861084"><ele>2.0</ele><time>2026-04-28T17:30:42.784Z</time></trkpt><trkpt lat="45.5748793" lon="12.3860201"><ele>2.0</ele><time>2026-04-28T17:30:44.77Z</time></trkpt><trkpt lat="45.5749681" lon="12.3859503"><ele>2.0</ele><time>2026-04-28T17:30:46.778Z</time></trkpt><trkpt lat="45.5750652" lon="12.3858667"><ele>2.0</ele><time>2026-04-28T17:30:48.773Z</time></trkpt><trkpt lat="45.5751657" lon="12.385774"><ele>2.0</ele><time>2026-04-28T17:30:50.784Z</time></trkpt><trkpt lat="45.5752685" lon="12.3856923"><ele>2.0</ele><time>2026-04-28T17:30:52.773Z</time></trkpt><trkpt lat="45.5753649" lon="12.3856102"><ele>2.0</ele><time>2026-04-28T17:30:54.793Z</time></trkpt><trkpt lat="45.5754609" lon="12.3855185"><ele>2.0</ele><time>2026-04-28T17:30:56.796Z</time></trkpt><trkpt lat="45.5755623" lon="12.3854257"><ele>2.0</ele><time>2026-04-28T17:30:58.782Z</time></trkpt><trkpt lat="45.5756449" lon="12.3853428"><ele>2.0</ele><time>2026-04-28T17:31:00.782Z</time></trkpt><trkpt lat="45.5757007" lon="12.3852929"><ele>2.0</ele><time>2026-04-28T17:31:01.776Z</time></trkpt><trkpt lat="45.5757949" lon="12.3852022"><ele>2.0</ele><time>2026-04-28T17:31:03.795Z</time></trkpt><trkpt lat="45.5758762" lon="12.3851144"><ele>2.0</ele><time>2026-04-28T17:31:05.788Z</time></trkpt><trkpt lat="45.5759665" lon="12.3850304"><ele>2.0</ele><time>2026-04-28T17:31:07.783Z</time></trkpt><trkpt lat="45.5760613" lon="12.3849379"><ele>2.0</ele><time>2026-04-28T17:31:09.78Z</time></trkpt><trkpt lat="45.5761515" lon="12.3848395"><ele>2.0</ele><time>2026-04-28T17:31:11.774Z</time></trkpt><trkpt lat="45.5762365" lon="12.3847502"><ele>2.0</ele><time>2026-04-28T17:31:13.786Z</time></trkpt><trkpt lat="45.5762914" lon="12.3846969"><ele>2.0</ele><time>2026-04-28T17:31:14.771Z</time></trkpt><trkpt lat="45.5763789" lon="12.3845951"><ele>1.8</ele><time>2026-04-28T17:31:16.779Z</time></trkpt><trkpt lat="45.5764589" lon="12.3844866"><ele>1.6</ele><time>2026-04-28T17:31:18.769Z</time></trkpt><trkpt lat="45.5765335" lon="12.3843779"><ele>1.4000000000000001</ele><time>2026-04-28T17:31:20.775Z</time></trkpt><trkpt lat="45.5766054" lon="12.3842767"><ele>1.2000000000000002</ele><time>2026-04-28T17:31:22.783Z</time></trkpt><trkpt lat="45.5766713" lon="12.3841847"><ele>1.0</ele><time>2026-04-28T17:31:24.773Z</time></trkpt><trkpt lat="45.5767376" lon="12.3840874"><ele>0.9999999999999999</ele><time>2026-04-28T17:31:26.774Z</time></trkpt><trkpt lat="45.5767957" lon="12.3840082"><ele>1.0</ele><time>2026-04-28T17:31:28.775Z</time></trkpt><trkpt lat="45.5768522" lon="12.3839261"><ele>1.0</ele><time>2026-04-28T17:31:30.796Z</time></trkpt><trkpt lat="45.5769051" lon="12.3838461"><ele>1.0</ele><time>2026-04-28T17:31:32.776Z</time></trkpt><trkpt lat="45.5769572" lon="12.3837673"><ele>0.9999999999999999</ele><time>2026-04-28T17:31:34.784Z</time></trkpt><trkpt lat="45.5770077" lon="12.3836986"><ele>1.0</ele><time>2026-04-28T17:31:36.78Z</time></trkpt><trkpt lat="45.5770644" lon="12.3836422"><ele>1.5</ele><time>2026-04-28T17:31:38.781Z</time></trkpt><trkpt lat="45.5771268" lon="12.3835702"><ele>2.0</ele><time>2026-04-28T17:31:40.794Z</time></trkpt><trkpt lat="45.57719" lon="12.3835013"><ele>2.5</ele><time>2026-04-28T17:31:42.774Z</time></trkpt><trkpt lat="45.5772541" lon="12.3834279"><ele>3.0</ele><time>2026-04-28T17:31:44.773Z</time></trkpt><trkpt lat="45.5773234" lon="12.3833447"><ele>3.4999999999999996</ele><time>2026-04-28T17:31:46.783Z</time></trkpt><trkpt lat="45.577397" lon="12.3832586"><ele>4.0</ele><time>2026-04-28T17:31:48.796Z</time></trkpt><trkpt lat="45.5774708" lon="12.3831709"><ele>4.0</ele><time>2026-04-28T17:31:50.791Z</time></trkpt><trkpt lat="45.5775429" lon="12.3830724"><ele>4.0</ele><time>2026-04-28T17:31:52.796Z</time></trkpt><trkpt lat="45.5776137" lon="12.3829781"><ele>4.0</ele><time>2026-04-28T17:31:54.779Z</time></trkpt><trkpt lat="45.5776847" lon="12.3828827"><ele>4.0</ele><time>2026-04-28T17:31:56.795Z</time></trkpt><trkpt lat="45.577761" lon="12.3827894"><ele>4.0</ele><time>2026-04-28T17:31:58.792Z</time></trkpt><trkpt lat="45.5778386" lon="12.382693"><ele>3.833333333333333</ele><time>2026-04-28T17:32:00.783Z</time></trkpt><trkpt lat="45.5779081" lon="12.3826011"><ele>3.6666666666666665</ele><time>2026-04-28T17:32:02.786Z</time></trkpt><trkpt lat="45.5779681" lon="12.3825312"><ele>3.5</ele><time>2026-04-28T17:32:04.792Z</time></trkpt><trkpt lat="45.5780217" lon="12.382455"><ele>3.333333333333333</ele><time>2026-04-28T17:32:06.792Z</time></trkpt><trkpt lat="45.5780888" lon="12.3823746"><ele>3.1666666666666665</ele><time>2026-04-28T17:32:08.784Z</time></trkpt><trkpt lat="45.5781544" lon="12.382293"><ele>3.0</ele><time>2026-04-28T17:32:10.787Z</time></trkpt><trkpt lat="45.5782162" lon="12.3822003"><ele>3.4</ele><time>2026-04-28T17:32:12.798Z</time></trkpt><trkpt lat="45.5782794" lon="12.3821101"><ele>3.8</ele><time>2026-04-28T17:32:14.794Z</time></trkpt><trkpt lat="45.5783324" lon="12.3820107"><ele>4.2</ele><time>2026-04-28T17:32:16.803Z</time></trkpt><trkpt lat="45.5783852" lon="12.3818957"><ele>4.6</ele><time>2026-04-28T17:32:18.785Z</time></trkpt><trkpt lat="45.5784292" lon="12.3817636"><ele>5.0</ele><time>2026-04-28T17:32:20.78Z</time></trkpt><trkpt lat="45.5784574" lon="12.3816287"><ele>5.0</ele><time>2026-04-28T17:32:22.78Z</time></trkpt><trkpt lat="45.5784581" lon="12.3814753"><ele>5.0</ele><time>2026-04-28T17:32:24.785Z</time></trkpt><trkpt lat="45.5784382" lon="12.381349"><ele>5.0</ele><time>2026-04-28T17:32:26.782Z</time></trkpt><trkpt lat="45.5784216" lon="12.3811977"><ele>5.0</ele><time>2026-04-28T17:32:28.779Z</time></trkpt><trkpt lat="45.5783964" lon="12.3810514"><ele>5.0</ele><time>2026-04-28T17:32:30.772Z</time></trkpt><trkpt lat="45.5783787" lon="12.3808974"><ele>4.8</ele><time>2026-04-28T17:32:32.781Z</time></trkpt><trkpt lat="45.5783597" lon="12.3807515"><ele>4.6</ele><time>2026-04-28T17:32:34.778Z</time></trkpt><trkpt lat="45.5783405" lon="12.3806008"><ele>4.4</ele><time>2026-04-28T17:32:36.788Z</time></trkpt><trkpt lat="45.5783183" lon="12.380467"><ele>4.2</ele><time>2026-04-28T17:32:38.779Z</time></trkpt><trkpt lat="45.5783001" lon="12.3803397"><ele>4.0</ele><time>2026-04-28T17:32:40.781Z</time></trkpt><trkpt lat="45.5782823" lon="12.3802247"><ele>3.6</ele><time>2026-04-28T17:32:42.786Z</time></trkpt><trkpt lat="45.5782717" lon="12.3801162"><ele>3.2</ele><time>2026-04-28T17:32:44.782Z</time></trkpt><trkpt lat="45.5782576" lon="12.3800025"><ele>2.8000000000000003</ele><time>2026-04-28T17:32:46.771Z</time></trkpt><trkpt lat="45.57824" lon="12.3798781"><ele>2.4000000000000004</ele><time>2026-04-28T17:32:48.778Z</time></trkpt><trkpt lat="45.5782214" lon="12.3797319"><ele>2.0</ele><time>2026-04-28T17:32:50.783Z</time></trkpt><trkpt lat="45.5782068" lon="12.3795695"><ele>1.5</ele><time>2026-04-28T17:32:52.786Z</time></trkpt><trkpt lat="45.5781969" lon="12.3794053"><ele>1.0</ele><time>2026-04-28T17:32:54.794Z</time></trkpt><trkpt lat="45.5782087" lon="12.3792487"><ele>0.5</ele><time>2026-04-28T17:32:56.771Z</time></trkpt><trkpt lat="45.5782459" lon="12.3791006"><ele>0.0</ele><time>2026-04-28T17:32:58.796Z</time></trkpt><trkpt lat="45.5783039" lon="12.3789595"><ele>0.25</ele><time>2026-04-28T17:33:00.774Z</time></trkpt><trkpt lat="45.5783807" lon="12.3788446"><ele>0.5</ele><time>2026-04-28T17:33:02.799Z</time></trkpt><trkpt lat="45.5784636" lon="12.3787527"><ele>0.75</ele><time>2026-04-28T17:33:04.78Z</time></trkpt><trkpt lat="45.5785578" lon="12.3786517"><ele>1.0</ele><time>2026-04-28T17:33:06.776Z</time></trkpt><trkpt lat="45.5786584" lon="12.3785689"><ele>0.75</ele><time>2026-04-28T17:33:08.779Z</time></trkpt><trkpt lat="45.5787526" lon="12.3784846"><ele>0.5</ele><time>2026-04-28T17:33:10.781Z</time></trkpt><trkpt lat="45.578847" lon="12.3783983"><ele>0.25</ele><time>2026-04-28T17:33:12.787Z</time></trkpt><trkpt lat="45.5789437" lon="12.3783123"><ele>0.0</ele><time>2026-04-28T17:33:14.776Z</time></trkpt><trkpt lat="45.5790408" lon="12.3782253"><ele>0.0</ele><time>2026-04-28T17:33:16.783Z</time></trkpt><trkpt lat="45.5791387" lon="12.378151"><ele>0.0</ele><time>2026-04-28T17:33:18.789Z</time></trkpt><trkpt lat="45.579239" lon="12.3780665"><ele>0.0</ele><time>2026-04-28T17:33:20.794Z</time></trkpt><trkpt lat="45.5793361" lon="12.3779762"><ele>0.0</ele><time>2026-04-28T17:33:22.779Z</time></trkpt><trkpt lat="45.5794255" lon="12.3778782"><ele>0.2</ele><time>2026-04-28T17:33:24.777Z</time></trkpt><trkpt lat="45.5795084" lon="12.3777753"><ele>0.4</ele><time>2026-04-28T17:33:26.78Z</time></trkpt><trkpt lat="45.5795908" lon="12.37767"><ele>0.6000000000000001</ele><time>2026-04-28T17:33:28.782Z</time></trkpt><trkpt lat="45.5796634" lon="12.377552"><ele>0.8</ele><time>2026-04-28T17:33:30.781Z</time></trkpt><trkpt lat="45.5797268" lon="12.3774352"><ele>1.0</ele><time>2026-04-28T17:33:32.787Z</time></trkpt><trkpt lat="45.5798017" lon="12.377306"><ele>1.0</ele><time>2026-04-28T17:33:34.796Z</time></trkpt><trkpt lat="45.5798666" lon="12.3771812"><ele>1.0</ele><time>2026-04-28T17:33:36.784Z</time></trkpt><trkpt lat="45.5799416" lon="12.3770532"><ele>1.0</ele><time>2026-04-28T17:33:38.779Z</time></trkpt><trkpt lat="45.5800108" lon="12.3769266"><ele>1.0</ele><time>2026-04-28T17:33:40.783Z</time></trkpt><trkpt lat="45.5800793" lon="12.3767999"><ele>1.0</ele><time>2026-04-28T17:33:42.779Z</time></trkpt><trkpt lat="45.5801512" lon="12.376673"><ele>1.0</ele><time>2026-04-28T17:33:44.778Z</time></trkpt><trkpt lat="45.5802158" lon="12.3765522"><ele>1.0</ele><time>2026-04-28T17:33:46.788Z</time></trkpt><trkpt lat="45.580286" lon="12.3764205"><ele>1.0</ele><time>2026-04-28T17:33:48.776Z</time></trkpt><trkpt lat="45.5803551" lon="12.376288"><ele>1.2000000000000002</ele><time>2026-04-28T17:33:50.774Z</time></trkpt><trkpt lat="45.5804187" lon="12.3761654"><ele>1.4000000000000001</ele><time>2026-04-28T17:33:52.778Z</time></trkpt><trkpt lat="45.5804883" lon="12.3760426"><ele>1.6</ele><time>2026-04-28T17:33:54.784Z</time></trkpt><trkpt lat="45.5805577" lon="12.37592"><ele>1.8</ele><time>2026-04-28T17:33:56.795Z</time></trkpt><trkpt lat="45.5806153" lon="12.3758098"><ele>2.0</ele><time>2026-04-28T17:33:58.777Z</time></trkpt><trkpt lat="45.5806668" lon="12.3757062"><ele>2.0</ele><time>2026-04-28T17:34:00.783Z</time></trkpt><trkpt lat="45.5807214" lon="12.3755999"><ele>2.0</ele><time>2026-04-28T17:34:02.783Z</time></trkpt><trkpt lat="45.5807854" lon="12.3755064"><ele>2.0</ele><time>2026-04-28T17:34:04.798Z</time></trkpt><trkpt lat="45.580869" lon="12.3754524"><ele>2.0</ele><time>2026-04-28T17:34:06.785Z</time></trkpt><trkpt lat="45.5809612" lon="12.3753638"><ele>2.0</ele><time>2026-04-28T17:34:08.782Z</time></trkpt><trkpt lat="45.5810522" lon="12.375268"><ele>1.75</ele><time>2026-04-28T17:34:10.789Z</time></trkpt><trkpt lat="45.5811431" lon="12.3751535"><ele>1.5</ele><time>2026-04-28T17:34:12.788Z</time></trkpt><trkpt lat="45.5812219" lon="12.3750496"><ele>1.25</ele><time>2026-04-28T17:34:14.789Z</time></trkpt><trkpt lat="45.5813094" lon="12.3749352"><ele>1.0</ele><time>2026-04-28T17:34:16.781Z</time></trkpt><trkpt lat="45.5813905" lon="12.3748191"><ele>1.0</ele><time>2026-04-28T17:34:18.785Z</time></trkpt><trkpt lat="45.5814795" lon="12.3747034"><ele>1.0</ele><time>2026-04-28T17:34:20.781Z</time></trkpt><trkpt lat="45.5815526" lon="12.374607"><ele>1.0</ele><time>2026-04-28T17:34:22.791Z</time></trkpt><trkpt lat="45.5816362" lon="12.3744909"><ele>1.0</ele><time>2026-04-28T17:34:24.778Z</time></trkpt><trkpt lat="45.5817189" lon="12.374379"><ele>1.2000000000000002</ele><time>2026-04-28T17:34:26.773Z</time></trkpt><trkpt lat="45.5817858" lon="12.3742314"><ele>1.4000000000000001</ele><time>2026-04-28T17:34:28.79Z</time></trkpt><trkpt lat="45.5818201" lon="12.3741467"><ele>1.6</ele><time>2026-04-28T17:34:29.799Z</time></trkpt><trkpt lat="45.581886" lon="12.3740119"><ele>1.8</ele><time>2026-04-28T17:34:31.808Z</time></trkpt><trkpt lat="45.5819587" lon="12.3738797"><ele>2.0</ele><time>2026-04-28T17:34:33.79Z</time></trkpt><trkpt lat="45.5820331" lon="12.3737542"><ele>3.0</ele><time>2026-04-28T17:34:35.792Z</time></trkpt><trkpt lat="45.5821016" lon="12.3736412"><ele>4.0</ele><time>2026-04-28T17:34:37.786Z</time></trkpt><trkpt lat="45.5821733" lon="12.3735302"><ele>4.999999999999999</ele><time>2026-04-28T17:34:39.793Z</time></trkpt><trkpt lat="45.5822268" lon="12.3734501"><ele>6.0</ele><time>2026-04-28T17:34:41.788Z</time></trkpt><trkpt lat="45.5822561" lon="12.3733356"><ele>7.0</ele><time>2026-04-28T17:34:44.782Z</time></trkpt><trkpt lat="45.5823056" lon="12.3732457"><ele>7.000000000000001</ele><time>2026-04-28T17:34:47.791Z</time></trkpt><trkpt lat="45.5823483" lon="12.3731658"><ele>7.0</ele><time>2026-04-28T17:34:49.793Z</time></trkpt><trkpt lat="45.5824115" lon="12.3730679"><ele>7.0</ele><time>2026-04-28T17:34:51.796Z</time></trkpt><trkpt lat="45.5824559" lon="12.3729634"><ele>7.0</ele><time>2026-04-28T17:34:53.789Z</time></trkpt><trkpt lat="45.5824925" lon="12.3728666"><ele>7.000000000000001</ele><time>2026-04-28T17:34:55.793Z</time></trkpt><trkpt lat="45.5825167" lon="12.3727731"><ele>7.0</ele><time>2026-04-28T17:34:57.79Z</time></trkpt><trkpt lat="45.5825532" lon="12.3726669"><ele>6.166666666666667</ele><time>2026-04-28T17:34:59.796Z</time></trkpt><trkpt lat="45.5825903" lon="12.372581"><ele>5.333333333333334</ele><time>2026-04-28T17:35:02.784Z</time></trkpt><trkpt lat="45.5826472" lon="12.3725206"><ele>4.5</ele><time>2026-04-28T17:35:06.773Z</time></trkpt><trkpt lat="45.582605" lon="12.3724087"><ele>3.666666666666667</ele><time>2026-04-28T17:35:09.785Z</time></trkpt><trkpt lat="45.5826102" lon="12.3722918"><ele>2.833333333333333</ele><time>2026-04-28T17:35:11.782Z</time></trkpt><trkpt lat="45.5826422" lon="12.3721785"><ele>2.0</ele><time>2026-04-28T17:35:13.782Z</time></trkpt><trkpt lat="45.5826694" lon="12.3720542"><ele>1.9999999999999998</ele><time>2026-04-28T17:35:15.795Z</time></trkpt><trkpt lat="45.5826924" lon="12.3719352"><ele>2.0</ele><time>2026-04-28T17:35:17.789Z</time></trkpt><trkpt lat="45.5827252" lon="12.371811"><ele>2.0</ele><time>2026-04-28T17:35:19.787Z</time></trkpt><trkpt lat="45.5827618" lon="12.3716997"><ele>2.0</ele><time>2026-04-28T17:35:21.793Z</time></trkpt><trkpt lat="45.5828038" lon="12.3715881"><ele>1.9999999999999998</ele><time>2026-04-28T17:35:23.776Z</time></trkpt><trkpt lat="45.5828448" lon="12.3714854"><ele>2.0</ele><time>2026-04-28T17:35:25.778Z</time></trkpt><trkpt lat="45.5828958" lon="12.3713948"><ele>2.2</ele><time>2026-04-28T17:35:27.789Z</time></trkpt><trkpt lat="45.5829735" lon="12.3713013"><ele>2.4000000000000004</ele><time>2026-04-28T17:35:29.796Z</time></trkpt><trkpt lat="45.583054" lon="12.3712021"><ele>2.5999999999999996</ele><time>2026-04-28T17:35:31.777Z</time></trkpt><trkpt lat="45.5831203" lon="12.3711002"><ele>2.8</ele><time>2026-04-28T17:35:33.785Z</time></trkpt><trkpt lat="45.5831945" lon="12.3709958"><ele>3.0</ele><time>2026-04-28T17:35:35.785Z</time></trkpt><trkpt lat="45.5832424" lon="12.3709003"><ele>3.0</ele><time>2026-04-28T17:35:37.781Z</time></trkpt><trkpt lat="45.5833099" lon="12.3708227"><ele>3.0</ele><time>2026-04-28T17:35:39.791Z</time></trkpt><trkpt lat="45.5833931" lon="12.3708077"><ele>3.0</ele><time>2026-04-28T17:35:42.786Z</time></trkpt><trkpt lat="45.5834818" lon="12.3708406"><ele>3.0</ele><time>2026-04-28T17:35:44.786Z</time></trkpt><trkpt lat="45.5835622" lon="12.3708824"><ele>3.0</ele><time>2026-04-28T17:35:46.78Z</time></trkpt><trkpt lat="45.5836252" lon="12.3708999"><ele>3.0</ele><time>2026-04-28T17:35:48.789Z</time></trkpt><trkpt lat="45.5837374" lon="12.3709049"><ele>2.8333333333333335</ele><time>2026-04-28T17:35:50.796Z</time></trkpt><trkpt lat="45.5838174" lon="12.3709042"><ele>2.6666666666666665</ele><time>2026-04-28T17:35:52.8Z</time></trkpt><trkpt lat="45.5839081" lon="12.3709097"><ele>2.5</ele><time>2026-04-28T17:35:54.782Z</time></trkpt><trkpt lat="45.5839769" lon="12.3709276"><ele>2.333333333333333</ele><time>2026-04-28T17:35:58.805Z</time></trkpt><trkpt lat="45.5840437" lon="12.3709493"><ele>2.1666666666666665</ele><time>2026-04-28T17:36:00.784Z</time></trkpt><trkpt lat="45.5841079" lon="12.3709511"><ele>2.0</ele><time>2026-04-28T17:36:01.779Z</time></trkpt><trkpt lat="45.5842288" lon="12.3709718"><ele>2.0</ele><time>2026-04-28T17:36:03.783Z</time></trkpt><trkpt lat="45.584337" lon="12.3709661"><ele>2.0</ele><time>2026-04-28T17:36:05.795Z</time></trkpt><trkpt lat="45.584425" lon="12.3709518"><ele>2.0</ele><time>2026-04-28T17:36:07.782Z</time></trkpt><trkpt lat="45.5845314" lon="12.3709597"><ele>2.0</ele><time>2026-04-28T17:36:09.788Z</time></trkpt><trkpt lat="45.5846317" lon="12.3709938"><ele>2.0</ele><time>2026-04-28T17:36:11.799Z</time></trkpt><trkpt lat="45.5847342" lon="12.3710136"><ele>2.4000000000000004</ele><time>2026-04-28T17:36:13.775Z</time></trkpt><trkpt lat="45.5848179" lon="12.3710317"><ele>2.8000000000000003</ele><time>2026-04-28T17:36:15.779Z</time></trkpt><trkpt lat="45.5849128" lon="12.3710545"><ele>3.2</ele><time>2026-04-28T17:36:17.793Z</time></trkpt><trkpt lat="45.5850096" lon="12.3710824"><ele>3.6</ele><time>2026-04-28T17:36:19.78Z</time></trkpt><trkpt lat="45.5851088" lon="12.3711061"><ele>4.0</ele><time>2026-04-28T17:36:21.795Z</time></trkpt><trkpt lat="45.5852052" lon="12.371127"><ele>4.0</ele><time>2026-04-28T17:36:23.789Z</time></trkpt><trkpt lat="45.585297" lon="12.3711581"><ele>4.0</ele><time>2026-04-28T17:36:25.786Z</time></trkpt><trkpt lat="45.5853956" lon="12.3711835"><ele>4.0</ele><time>2026-04-28T17:36:27.779Z</time></trkpt><trkpt lat="45.5855055" lon="12.371208"><ele>4.0</ele><time>2026-04-28T17:36:29.775Z</time></trkpt><trkpt lat="45.5856107" lon="12.3712404"><ele>4.0</ele><time>2026-04-28T17:36:31.776Z</time></trkpt><trkpt lat="45.5857093" lon="12.3712618"><ele>3.833333333333333</ele><time>2026-04-28T17:36:33.804Z</time></trkpt><trkpt lat="45.5858065" lon="12.3712823"><ele>3.6666666666666665</ele><time>2026-04-28T17:36:35.79Z</time></trkpt><trkpt lat="45.5858989" lon="12.3713019"><ele>3.5</ele><time>2026-04-28T17:36:37.781Z</time></trkpt><trkpt lat="45.5859849" lon="12.3713221"><ele>3.333333333333333</ele><time>2026-04-28T17:36:39.786Z</time></trkpt><trkpt lat="45.5860646" lon="12.3713396"><ele>3.1666666666666665</ele><time>2026-04-28T17:36:41.784Z</time></trkpt><trkpt lat="45.5861435" lon="12.3713538"><ele>3.0</ele><time>2026-04-28T17:36:43.782Z</time></trkpt><trkpt lat="45.5862198" lon="12.3713699"><ele>2.8333333333333335</ele><time>2026-04-28T17:36:45.797Z</time></trkpt><trkpt lat="45.58631" lon="12.37137"><ele>2.6666666666666665</ele><time>2026-04-28T17:36:47.8Z</time></trkpt><trkpt lat="45.5863902" lon="12.3713192"><ele>2.5</ele><time>2026-04-28T17:36:49.779Z</time></trkpt><trkpt lat="45.5864245" lon="12.3711972"><ele>2.333333333333333</ele><time>2026-04-28T17:36:51.79Z</time></trkpt><trkpt lat="45.5864184" lon="12.3710808"><ele>2.1666666666666665</ele><time>2026-04-28T17:36:53.794Z</time></trkpt><trkpt lat="45.5864146" lon="12.3709504"><ele>2.0</ele><time>2026-04-28T17:36:55.795Z</time></trkpt><trkpt lat="45.5864255" lon="12.3708219"><ele>2.0</ele><time>2026-04-28T17:36:57.799Z</time></trkpt><trkpt lat="45.5864343" lon="12.3706759"><ele>2.0</ele><time>2026-04-28T17:36:59.781Z</time></trkpt><trkpt lat="45.5864448" lon="12.3705274"><ele>2.0</ele><time>2026-04-28T17:37:01.803Z</time></trkpt><trkpt lat="45.5864661" lon="12.3703841"><ele>2.0</ele><time>2026-04-28T17:37:03.785Z</time></trkpt><trkpt lat="45.5864817" lon="12.3702481"><ele>2.0</ele><time>2026-04-28T17:37:05.777Z</time></trkpt><trkpt lat="45.5864955" lon="12.3701073"><ele>1.8</ele><time>2026-04-28T17:37:07.774Z</time></trkpt><trkpt lat="45.5865083" lon="12.3699744"><ele>1.6</ele><time>2026-04-28T17:37:09.78Z</time></trkpt><trkpt lat="45.5865286" lon="12.3698418"><ele>1.4000000000000001</ele><time>2026-04-28T17:37:11.786Z</time></trkpt><trkpt lat="45.5865549" lon="12.3697089"><ele>1.2000000000000002</ele><time>2026-04-28T17:37:13.795Z</time></trkpt><trkpt lat="45.5865671" lon="12.3695848"><ele>1.0</ele><time>2026-04-28T17:37:15.774Z</time></trkpt><trkpt lat="45.5865882" lon="12.3694632"><ele>0.9999999999999999</ele><time>2026-04-28T17:37:17.788Z</time></trkpt><trkpt lat="45.5866115" lon="12.3693452"><ele>1.0</ele><time>2026-04-28T17:37:19.775Z</time></trkpt><trkpt lat="45.5866248" lon="12.369222"><ele>1.0</ele><time>2026-04-28T17:37:21.776Z</time></trkpt><trkpt lat="45.5866396" lon="12.3691006"><ele>1.0</ele><time>2026-04-28T17:37:23.79Z</time></trkpt><trkpt lat="45.5866507" lon="12.3689689"><ele>0.9999999999999999</ele><time>2026-04-28T17:37:25.798Z</time></trkpt><trkpt lat="45.586676" lon="12.3688519"><ele>1.0</ele><time>2026-04-28T17:37:27.79Z</time></trkpt><trkpt lat="45.5866899" lon="12.368715"><ele>1.0</ele><time>2026-04-28T17:37:29.792Z</time></trkpt><trkpt lat="45.5867082" lon="12.3685755"><ele>1.0</ele><time>2026-04-28T17:37:31.795Z</time></trkpt><trkpt lat="45.586729" lon="12.3684271"><ele>1.0</ele><time>2026-04-28T17:37:33.794Z</time></trkpt><trkpt lat="45.586754" lon="12.3682879"><ele>1.0</ele><time>2026-04-28T17:37:35.788Z</time></trkpt><trkpt lat="45.5867764" lon="12.368137"><ele>1.0</ele><time>2026-04-28T17:37:37.777Z</time></trkpt><trkpt lat="45.5867956" lon="12.3679964"><ele>0.8</ele><time>2026-04-28T17:37:39.775Z</time></trkpt><trkpt lat="45.5868167" lon="12.3678508"><ele>0.6000000000000001</ele><time>2026-04-28T17:37:41.801Z</time></trkpt><trkpt lat="45.586839" lon="12.3676961"><ele>0.4</ele><time>2026-04-28T17:37:43.784Z</time></trkpt><trkpt lat="45.5868657" lon="12.3675552"><ele>0.2</ele><time>2026-04-28T17:37:45.783Z</time></trkpt><trkpt lat="45.5868884" lon="12.3674071"><ele>0.0</ele><time>2026-04-28T17:37:47.781Z</time></trkpt><trkpt lat="45.5869185" lon="12.3672627"><ele>0.4</ele><time>2026-04-28T17:37:49.798Z</time></trkpt><trkpt lat="45.5869487" lon="12.3671195"><ele>0.8</ele><time>2026-04-28T17:37:51.772Z</time></trkpt><trkpt lat="45.5869848" lon="12.3669727"><ele>1.2000000000000002</ele><time>2026-04-28T17:37:53.792Z</time></trkpt><trkpt lat="45.5870181" lon="12.3668358"><ele>1.6</ele><time>2026-04-28T17:37:55.787Z</time></trkpt><trkpt lat="45.5870477" lon="12.3666899"><ele>2.0</ele><time>2026-04-28T17:37:57.785Z</time></trkpt><trkpt lat="45.587088" lon="12.366546"><ele>2.2</ele><time>2026-04-28T17:37:59.79Z</time></trkpt><trkpt lat="45.5871356" lon="12.3663845"><ele>2.4000000000000004</ele><time>2026-04-28T17:38:01.793Z</time></trkpt><trkpt lat="45.5871566" lon="12.3662971"><ele>2.5999999999999996</ele><time>2026-04-28T17:38:02.773Z</time></trkpt><trkpt lat="45.5871823" lon="12.3661546"><ele>2.8</ele><time>2026-04-28T17:38:04.781Z</time></trkpt><trkpt lat="45.5872014" lon="12.3660656"><ele>3.0</ele><time>2026-04-28T17:38:05.77Z</time></trkpt><trkpt lat="45.5872804" lon="12.3657315"><ele>3.0</ele><time>2026-04-28T17:38:09.769Z</time></trkpt><trkpt lat="45.5873036" lon="12.3656404"><ele>3.0</ele><time>2026-04-28T17:38:10.774Z</time></trkpt><trkpt lat="45.58733" lon="12.3654939"><ele>3.0</ele><time>2026-04-28T17:38:12.78Z</time></trkpt><trkpt lat="45.5873563" lon="12.3653966"><ele>3.0</ele><time>2026-04-28T17:38:13.804Z</time></trkpt><trkpt lat="45.5873949" lon="12.3652783"><ele>3.0</ele><time>2026-04-28T17:38:15.777Z</time></trkpt><trkpt lat="45.5874286" lon="12.3651511"><ele>3.0</ele><time>2026-04-28T17:38:17.78Z</time></trkpt><trkpt lat="45.5874511" lon="12.3650131"><ele>3.0</ele><time>2026-04-28T17:38:19.807Z</time></trkpt><trkpt lat="45.5874811" lon="12.3648618"><ele>3.0</ele><time>2026-04-28T17:38:21.788Z</time></trkpt><trkpt lat="45.5875046" lon="12.36473"><ele>3.0</ele><time>2026-04-28T17:38:23.777Z</time></trkpt><trkpt lat="45.5875294" lon="12.3645905"><ele>3.0</ele><time>2026-04-28T17:38:25.784Z</time></trkpt><trkpt lat="45.58756" lon="12.3644446"><ele>3.0</ele><time>2026-04-28T17:38:27.798Z</time></trkpt><trkpt lat="45.5875935" lon="12.3643044"><ele>2.6</ele><time>2026-04-28T17:38:29.796Z</time></trkpt><trkpt lat="45.587623" lon="12.3641687"><ele>2.1999999999999997</ele><time>2026-04-28T17:38:31.784Z</time></trkpt><trkpt lat="45.5876503" lon="12.3640316"><ele>1.8</ele><time>2026-04-28T17:38:33.773Z</time></trkpt><trkpt lat="45.5876854" lon="12.3639078"><ele>1.4</ele><time>2026-04-28T17:38:35.779Z</time></trkpt><trkpt lat="45.5877116" lon="12.363782"><ele>1.0</ele><time>2026-04-28T17:38:37.797Z</time></trkpt><trkpt lat="45.5877446" lon="12.3636501"><ele>1.0</ele><time>2026-04-28T17:38:39.78Z</time></trkpt><trkpt lat="45.5877793" lon="12.3635081"><ele>1.0</ele><time>2026-04-28T17:38:41.785Z</time></trkpt><trkpt lat="45.5878113" lon="12.3633579"><ele>1.0</ele><time>2026-04-28T17:38:43.787Z</time></trkpt><trkpt lat="45.5878476" lon="12.3632097"><ele>1.0</ele><time>2026-04-28T17:38:45.791Z</time></trkpt><trkpt lat="45.5878807" lon="12.363062"><ele>1.0</ele><time>2026-04-28T17:38:47.782Z</time></trkpt><trkpt lat="45.5879114" lon="12.3629118"><ele>1.2000000000000002</ele><time>2026-04-28T17:38:49.802Z</time></trkpt><trkpt lat="45.5879438" lon="12.3627667"><ele>1.4000000000000001</ele><time>2026-04-28T17:38:51.789Z</time></trkpt><trkpt lat="45.5879781" lon="12.3626223"><ele>1.6</ele><time>2026-04-28T17:38:53.78Z</time></trkpt><trkpt lat="45.5880163" lon="12.3624781"><ele>1.8</ele><time>2026-04-28T17:38:55.785Z</time></trkpt><trkpt lat="45.5880577" lon="12.3623296"><ele>2.0</ele><time>2026-04-28T17:38:57.792Z</time></trkpt><trkpt lat="45.5881038" lon="12.3621867"><ele>2.4000000000000004</ele><time>2026-04-28T17:38:59.772Z</time></trkpt><trkpt lat="45.5881549" lon="12.3620486"><ele>2.8000000000000003</ele><time>2026-04-28T17:39:01.774Z</time></trkpt><trkpt lat="45.5882104" lon="12.3619233"><ele>3.2</ele><time>2026-04-28T17:39:03.79Z</time></trkpt><trkpt lat="45.5882754" lon="12.3617994"><ele>3.6</ele><time>2026-04-28T17:39:05.783Z</time></trkpt><trkpt lat="45.5883438" lon="12.3616707"><ele>4.0</ele><time>2026-04-28T17:39:07.78Z</time></trkpt><trkpt lat="45.5884035" lon="12.3615593"><ele>4.0</ele><time>2026-04-28T17:39:09.791Z</time></trkpt><trkpt lat="45.5884678" lon="12.3614376"><ele>4.0</ele><time>2026-04-28T17:39:11.796Z</time></trkpt><trkpt lat="45.5885314" lon="12.3613193"><ele>4.0</ele><time>2026-04-28T17:39:13.79Z</time></trkpt><trkpt lat="45.5885895" lon="12.3612012"><ele>4.0</ele><time>2026-04-28T17:39:15.773Z</time></trkpt><trkpt lat="45.5886439" lon="12.3610863"><ele>4.0</ele><time>2026-04-28T17:39:17.782Z</time></trkpt><trkpt lat="45.5887084" lon="12.3609748"><ele>3.8000000000000003</ele><time>2026-04-28T17:39:19.792Z</time></trkpt><trkpt lat="45.5887721" lon="12.3608448"><ele>3.6000000000000005</ele><time>2026-04-28T17:39:21.775Z</time></trkpt><trkpt lat="45.5888329" lon="12.3607251"><ele>3.4</ele><time>2026-04-28T17:39:23.778Z</time></trkpt><trkpt lat="45.5888934" lon="12.3605865"><ele>3.2</ele><time>2026-04-28T17:39:25.787Z</time></trkpt><trkpt lat="45.5889516" lon="12.3604746"><ele>3.0</ele><time>2026-04-28T17:39:27.774Z</time></trkpt><trkpt lat="45.5890111" lon="12.3603629"><ele>3.0</ele><time>2026-04-28T17:39:29.775Z</time></trkpt><trkpt lat="45.5890736" lon="12.3602439"><ele>3.0</ele><time>2026-04-28T17:39:31.782Z</time></trkpt><trkpt lat="45.5891352" lon="12.3601245"><ele>3.0</ele><time>2026-04-28T17:39:33.771Z</time></trkpt><trkpt lat="45.589206" lon="12.3600027"><ele>3.0</ele><time>2026-04-28T17:39:35.771Z</time></trkpt><trkpt lat="45.5892934" lon="12.3598269"><ele>3.0</ele><time>2026-04-28T17:39:38.791Z</time></trkpt><trkpt lat="45.5893585" lon="12.3596939"><ele>3.0</ele><time>2026-04-28T17:39:40.771Z</time></trkpt><trkpt lat="45.5894252" lon="12.3595699"><ele>3.0</ele><time>2026-04-28T17:39:42.785Z</time></trkpt><trkpt lat="45.5894896" lon="12.3594498"><ele>3.0</ele><time>2026-04-28T17:39:44.774Z</time></trkpt><trkpt lat="45.5895468" lon="12.3593418"><ele>3.0</ele><time>2026-04-28T17:39:46.777Z</time></trkpt><trkpt lat="45.5896154" lon="12.3592108"><ele>2.6</ele><time>2026-04-28T17:39:48.773Z</time></trkpt><trkpt lat="45.5896857" lon="12.3590979"><ele>2.1999999999999997</ele><time>2026-04-28T17:39:50.775Z</time></trkpt><trkpt lat="45.589758" lon="12.3590074"><ele>1.8</ele><time>2026-04-28T17:39:52.783Z</time></trkpt><trkpt lat="45.5898426" lon="12.3589322"><ele>1.4</ele><time>2026-04-28T17:39:54.777Z</time></trkpt><trkpt lat="45.5899217" lon="12.3588764"><ele>1.0</ele><time>2026-04-28T17:39:56.795Z</time></trkpt><trkpt lat="45.5900117" lon="12.358808"><ele>1.0</ele><time>2026-04-28T17:39:58.793Z</time></trkpt><trkpt lat="45.5901016" lon="12.3587471"><ele>1.0</ele><time>2026-04-28T17:40:00.802Z</time></trkpt><trkpt lat="45.5902049" lon="12.358673"><ele>1.0</ele><time>2026-04-28T17:40:02.804Z</time></trkpt><trkpt lat="45.5903028" lon="12.3585761"><ele>1.0</ele><time>2026-04-28T17:40:04.789Z</time></trkpt><trkpt lat="45.5903894" lon="12.3584866"><ele>1.0</ele><time>2026-04-28T17:40:06.779Z</time></trkpt><trkpt lat="45.5904726" lon="12.3583883"><ele>1.0</ele><time>2026-04-28T17:40:08.785Z</time></trkpt><trkpt lat="45.5905547" lon="12.358285"><ele>1.0</ele><time>2026-04-28T17:40:10.799Z</time></trkpt><trkpt lat="45.590639" lon="12.3581773"><ele>1.0</ele><time>2026-04-28T17:40:12.787Z</time></trkpt><trkpt lat="45.5907175" lon="12.3580697"><ele>1.0</ele><time>2026-04-28T17:40:14.786Z</time></trkpt><trkpt lat="45.5908028" lon="12.3579605"><ele>1.0</ele><time>2026-04-28T17:40:16.779Z</time></trkpt><trkpt lat="45.5908679" lon="12.3578686"><ele>1.2000000000000002</ele><time>2026-04-28T17:40:18.773Z</time></trkpt><trkpt lat="45.5909338" lon="12.3577707"><ele>1.4000000000000001</ele><time>2026-04-28T17:40:20.774Z</time></trkpt><trkpt lat="45.5909909" lon="12.3576841"><ele>1.6</ele><time>2026-04-28T17:40:22.775Z</time></trkpt><trkpt lat="45.5910495" lon="12.3575614"><ele>1.8</ele><time>2026-04-28T17:40:24.793Z</time></trkpt><trkpt lat="45.5911027" lon="12.3574247"><ele>2.0</ele><time>2026-04-28T17:40:26.781Z</time></trkpt><trkpt lat="45.5911402" lon="12.3572935"><ele>2.2</ele><time>2026-04-28T17:40:28.775Z</time></trkpt><trkpt lat="45.591188" lon="12.3571579"><ele>2.4000000000000004</ele><time>2026-04-28T17:40:30.79Z</time></trkpt><trkpt lat="45.59126" lon="12.3570388"><ele>2.5999999999999996</ele><time>2026-04-28T17:40:32.779Z</time></trkpt><trkpt lat="45.5913563" lon="12.3569481"><ele>2.8</ele><time>2026-04-28T17:40:34.772Z</time></trkpt><trkpt lat="45.5914546" lon="12.3568876"><ele>3.0</ele><time>2026-04-28T17:40:36.804Z</time></trkpt><trkpt lat="45.5915241" lon="12.3568537"><ele>3.0</ele><time>2026-04-28T17:40:37.791Z</time></trkpt><trkpt lat="45.5916373" lon="12.3568227"><ele>3.0</ele><time>2026-04-28T17:40:39.794Z</time></trkpt><trkpt lat="45.591751" lon="12.3567838"><ele>3.0</ele><time>2026-04-28T17:40:41.778Z</time></trkpt><trkpt lat="45.5918589" lon="12.3567466"><ele>3.0</ele><time>2026-04-28T17:40:43.777Z</time></trkpt><trkpt lat="45.5919749" lon="12.3566958"><ele>2.6</ele><time>2026-04-28T17:40:45.781Z</time></trkpt><trkpt lat="45.5920722" lon="12.3566631"><ele>2.1999999999999997</ele><time>2026-04-28T17:40:47.796Z</time></trkpt><trkpt lat="45.5921781" lon="12.3566248"><ele>1.8</ele><time>2026-04-28T17:40:49.79Z</time></trkpt><trkpt lat="45.5922851" lon="12.3565817"><ele>1.4</ele><time>2026-04-28T17:40:51.779Z</time></trkpt><trkpt lat="45.5923932" lon="12.3565405"><ele>1.0</ele><time>2026-04-28T17:40:53.767Z</time></trkpt><trkpt lat="45.5925042" lon="12.3565036"><ele>1.0</ele><time>2026-04-28T17:40:55.795Z</time></trkpt><trkpt lat="45.5926192" lon="12.3564679"><ele>1.0</ele><time>2026-04-28T17:40:57.775Z</time></trkpt><trkpt lat="45.5927332" lon="12.3564388"><ele>1.0</ele><time>2026-04-28T17:40:59.811Z</time></trkpt><trkpt lat="45.5928474" lon="12.3564281"><ele>1.0</ele><time>2026-04-28T17:41:01.781Z</time></trkpt><trkpt lat="45.5929555" lon="12.3564452"><ele>1.2000000000000002</ele><time>2026-04-28T17:41:03.775Z</time></trkpt><trkpt lat="45.5930612" lon="12.3564627"><ele>1.4000000000000001</ele><time>2026-04-28T17:41:05.785Z</time></trkpt><trkpt lat="45.5931256" lon="12.3564723"><ele>1.6</ele><time>2026-04-28T17:41:06.787Z</time></trkpt><trkpt lat="45.5932382" lon="12.356489"><ele>1.8</ele><time>2026-04-28T17:41:08.788Z</time></trkpt><trkpt lat="45.5933475" lon="12.3564874"><ele>2.0</ele><time>2026-04-28T17:41:10.777Z</time></trkpt><trkpt lat="45.5934543" lon="12.3564269"><ele>1.25</ele><time>2026-04-28T17:41:12.773Z</time></trkpt><trkpt lat="45.5935428" lon="12.3563104"><ele>0.5</ele><time>2026-04-28T17:41:14.788Z</time></trkpt><trkpt lat="45.5935977" lon="12.3561661"><ele>-0.25</ele><time>2026-04-28T17:41:16.805Z</time></trkpt><trkpt lat="45.5936295" lon="12.356006"><ele>-1.0</ele><time>2026-04-28T17:41:18.794Z</time></trkpt><trkpt lat="45.5936598" lon="12.3558437"><ele>-0.75</ele><time>2026-04-28T17:41:20.78Z</time></trkpt><trkpt lat="45.5936887" lon="12.3556885"><ele>-0.5</ele><time>2026-04-28T17:41:22.771Z</time></trkpt><trkpt lat="45.593726" lon="12.3555228"><ele>-0.25</ele><time>2026-04-28T17:41:24.771Z</time></trkpt><trkpt lat="45.5937583" lon="12.3553632"><ele>0.0</ele><time>2026-04-28T17:41:26.77Z</time></trkpt><trkpt lat="45.5937957" lon="12.3552119"><ele>0.0</ele><time>2026-04-28T17:41:28.786Z</time></trkpt><trkpt lat="45.5938277" lon="12.3550617"><ele>0.0</ele><time>2026-04-28T17:41:30.783Z</time></trkpt><trkpt lat="45.5938606" lon="12.3549094"><ele>0.0</ele><time>2026-04-28T17:41:32.792Z</time></trkpt><trkpt lat="45.5938937" lon="12.3547452"><ele>0.0</ele><time>2026-04-28T17:41:34.796Z</time></trkpt><trkpt lat="45.5939261" lon="12.3545874"><ele>0.25</ele><time>2026-04-28T17:41:36.797Z</time></trkpt><trkpt lat="45.5939582" lon="12.3544297"><ele>0.5</ele><time>2026-04-28T17:41:38.784Z</time></trkpt><trkpt lat="45.5939926" lon="12.3542599"><ele>0.75</ele><time>2026-04-28T17:41:40.772Z</time></trkpt><trkpt lat="45.5940212" lon="12.3541088"><ele>1.0</ele><time>2026-04-28T17:41:42.788Z</time></trkpt><trkpt lat="45.594053" lon="12.3539455"><ele>0.75</ele><time>2026-04-28T17:41:44.788Z</time></trkpt><trkpt lat="45.5940857" lon="12.3537915"><ele>0.5</ele><time>2026-04-28T17:41:46.779Z</time></trkpt><trkpt lat="45.5941214" lon="12.3536321"><ele>0.25</ele><time>2026-04-28T17:41:48.777Z</time></trkpt><trkpt lat="45.594155" lon="12.3534791"><ele>0.0</ele><time>2026-04-28T17:41:50.794Z</time></trkpt><trkpt lat="45.5941929" lon="12.3533206"><ele>0.0</ele><time>2026-04-28T17:41:52.781Z</time></trkpt><trkpt lat="45.5942243" lon="12.3531634"><ele>0.0</ele><time>2026-04-28T17:41:54.779Z</time></trkpt><trkpt lat="45.5942597" lon="12.3529977"><ele>0.0</ele><time>2026-04-28T17:41:56.784Z</time></trkpt><trkpt lat="45.5942928" lon="12.3528436"><ele>0.0</ele><time>2026-04-28T17:41:58.775Z</time></trkpt><trkpt lat="45.5943257" lon="12.3526811"><ele>0.25</ele><time>2026-04-28T17:42:00.793Z</time></trkpt><trkpt lat="45.5943562" lon="12.3525311"><ele>0.5</ele><time>2026-04-28T17:42:02.777Z</time></trkpt><trkpt lat="45.5943903" lon="12.3523696"><ele>0.75</ele><time>2026-04-28T17:42:04.803Z</time></trkpt><trkpt lat="45.594415" lon="12.3522137"><ele>1.0</ele><time>2026-04-28T17:42:06.775Z</time></trkpt><trkpt lat="45.5944443" lon="12.35206"><ele>1.75</ele><time>2026-04-28T17:42:08.786Z</time></trkpt><trkpt lat="45.594476" lon="12.3518957"><ele>2.5</ele><time>2026-04-28T17:42:10.78Z</time></trkpt><trkpt lat="45.5945045" lon="12.3517371"><ele>3.25</ele><time>2026-04-28T17:42:12.793Z</time></trkpt><trkpt lat="45.5945332" lon="12.35159"><ele>4.0</ele><time>2026-04-28T17:42:14.814Z</time></trkpt><trkpt lat="45.5945763" lon="12.3514313"><ele>4.0</ele><time>2026-04-28T17:42:16.79Z</time></trkpt><trkpt lat="45.5946079" lon="12.3512914"><ele>4.0</ele><time>2026-04-28T17:42:18.785Z</time></trkpt><trkpt lat="45.5946426" lon="12.3511422"><ele>4.0</ele><time>2026-04-28T17:42:20.784Z</time></trkpt><trkpt lat="45.5946715" lon="12.3509862"><ele>4.0</ele><time>2026-04-28T17:42:22.779Z</time></trkpt><trkpt lat="45.5947038" lon="12.3508396"><ele>4.0</ele><time>2026-04-28T17:42:24.787Z</time></trkpt><trkpt lat="45.594739" lon="12.3506874"><ele>3.75</ele><time>2026-04-28T17:42:26.785Z</time></trkpt><trkpt lat="45.5947744" lon="12.3505369"><ele>3.5</ele><time>2026-04-28T17:42:28.785Z</time></trkpt><trkpt lat="45.5948067" lon="12.3503763"><ele>3.25</ele><time>2026-04-28T17:42:30.78Z</time></trkpt><trkpt lat="45.5948426" lon="12.3502234"><ele>3.0</ele><time>2026-04-28T17:42:32.779Z</time></trkpt><trkpt lat="45.5948807" lon="12.3500646"><ele>3.0</ele><time>2026-04-28T17:42:34.805Z</time></trkpt><trkpt lat="45.5949141" lon="12.3499184"><ele>3.0</ele><time>2026-04-28T17:42:36.795Z</time></trkpt><trkpt lat="45.5949478" lon="12.3497629"><ele>3.0</ele><time>2026-04-28T17:42:38.786Z</time></trkpt><trkpt lat="45.594979" lon="12.3496046"><ele>3.0</ele><time>2026-04-28T17:42:40.785Z</time></trkpt><trkpt lat="45.5950056" lon="12.3494512"><ele>3.0</ele><time>2026-04-28T17:42:42.793Z</time></trkpt><trkpt lat="45.5950534" lon="12.3493025"><ele>2.75</ele><time>2026-04-28T17:42:44.789Z</time></trkpt><trkpt lat="45.595104" lon="12.3491668"><ele>2.5</ele><time>2026-04-28T17:42:46.773Z</time></trkpt><trkpt lat="45.5951657" lon="12.3490411"><ele>2.25</ele><time>2026-04-28T17:42:48.785Z</time></trkpt><trkpt lat="45.5952362" lon="12.3489178"><ele>2.0</ele><time>2026-04-28T17:42:50.777Z</time></trkpt><trkpt lat="45.5953288" lon="12.3487967"><ele>2.0</ele><time>2026-04-28T17:42:52.782Z</time></trkpt><trkpt lat="45.5953831" lon="12.3487311"><ele>2.0</ele><time>2026-04-28T17:42:53.789Z</time></trkpt><trkpt lat="45.5954656" lon="12.348645"><ele>2.0</ele><time>2026-04-28T17:42:55.803Z</time></trkpt><trkpt lat="45.5955546" lon="12.3485658"><ele>2.0</ele><time>2026-04-28T17:42:57.793Z</time></trkpt><trkpt lat="45.5956549" lon="12.3484922"><ele>2.0</ele><time>2026-04-28T17:42:59.791Z</time></trkpt><trkpt lat="45.595727" lon="12.3484502"><ele>2.0</ele><time>2026-04-28T17:43:00.783Z</time></trkpt><trkpt lat="45.5958223" lon="12.3484022"><ele>2.0</ele><time>2026-04-28T17:43:02.793Z</time></trkpt><trkpt lat="45.5958935" lon="12.3483735"><ele>2.0</ele><time>2026-04-28T17:43:03.799Z</time></trkpt><trkpt lat="45.5959577" lon="12.3483499"><ele>2.0</ele><time>2026-04-28T17:43:04.806Z</time></trkpt><trkpt lat="45.5960669" lon="12.3483257"><ele>2.0</ele><time>2026-04-28T17:43:06.785Z</time></trkpt><trkpt lat="45.5961793" lon="12.348307"><ele>2.0</ele><time>2026-04-28T17:43:08.784Z</time></trkpt><trkpt lat="45.5962853" lon="12.3482933"><ele>2.0</ele><time>2026-04-28T17:43:10.8Z</time></trkpt><trkpt lat="45.596352" lon="12.3482788"><ele>2.0</ele><time>2026-04-28T17:43:11.783Z</time></trkpt><trkpt lat="45.5964713" lon="12.3482594"><ele>2.0</ele><time>2026-04-28T17:43:13.783Z</time></trkpt><trkpt lat="45.5965939" lon="12.3482429"><ele>2.0</ele><time>2026-04-28T17:43:15.8Z</time></trkpt><trkpt lat="45.5967022" lon="12.3482258"><ele>2.0</ele><time>2026-04-28T17:43:17.795Z</time></trkpt><trkpt lat="45.596805" lon="12.3482128"><ele>2.0</ele><time>2026-04-28T17:43:19.801Z</time></trkpt><trkpt lat="45.5969057" lon="12.3482006"><ele>2.0</ele><time>2026-04-28T17:43:21.794Z</time></trkpt><trkpt lat="45.5970042" lon="12.3481839"><ele>2.0</ele><time>2026-04-28T17:43:23.801Z</time></trkpt><trkpt lat="45.5971003" lon="12.3481698"><ele>2.0</ele><time>2026-04-28T17:43:25.793Z</time></trkpt><trkpt lat="45.5971654" lon="12.348161"><ele>1.8</ele><time>2026-04-28T17:43:26.782Z</time></trkpt><trkpt lat="45.5972798" lon="12.3481441"><ele>1.6</ele><time>2026-04-28T17:43:28.779Z</time></trkpt><trkpt lat="45.5973897" lon="12.3481241"><ele>1.4000000000000001</ele><time>2026-04-28T17:43:30.776Z</time></trkpt><trkpt lat="45.5974938" lon="12.348103"><ele>1.2000000000000002</ele><time>2026-04-28T17:43:32.79Z</time></trkpt><trkpt lat="45.5976076" lon="12.3480727"><ele>1.0</ele><time>2026-04-28T17:43:34.783Z</time></trkpt><trkpt lat="45.5977162" lon="12.3480488"><ele>1.2000000000000002</ele><time>2026-04-28T17:43:36.787Z</time></trkpt><trkpt lat="45.597825" lon="12.3480256"><ele>1.4000000000000001</ele><time>2026-04-28T17:43:38.777Z</time></trkpt><trkpt lat="45.5979347" lon="12.3479975"><ele>1.6</ele><time>2026-04-28T17:43:40.787Z</time></trkpt><trkpt lat="45.5980397" lon="12.3479676"><ele>1.8</ele><time>2026-04-28T17:43:42.779Z</time></trkpt><trkpt lat="45.5981398" lon="12.3479404"><ele>2.0</ele><time>2026-04-28T17:43:44.797Z</time></trkpt><trkpt lat="45.5982434" lon="12.3479085"><ele>2.0</ele><time>2026-04-28T17:43:46.797Z</time></trkpt><trkpt lat="45.5983477" lon="12.3478735"><ele>2.0</ele><time>2026-04-28T17:43:48.804Z</time></trkpt><trkpt lat="45.5984591" lon="12.3478405"><ele>2.0</ele><time>2026-04-28T17:43:50.796Z</time></trkpt><trkpt lat="45.5985663" lon="12.3478105"><ele>2.0</ele><time>2026-04-28T17:43:52.793Z</time></trkpt><trkpt lat="45.598669" lon="12.3477791"><ele>2.0</ele><time>2026-04-28T17:43:54.78Z</time></trkpt><trkpt lat="45.5987802" lon="12.3477564"><ele>2.0</ele><time>2026-04-28T17:43:56.79Z</time></trkpt><trkpt lat="45.5988913" lon="12.3477304"><ele>2.0</ele><time>2026-04-28T17:43:58.798Z</time></trkpt><trkpt lat="45.5989613" lon="12.3477074"><ele>2.0</ele><time>2026-04-28T17:43:59.776Z</time></trkpt><trkpt lat="45.5990576" lon="12.3476885"><ele>2.0</ele><time>2026-04-28T17:44:01.798Z</time></trkpt><trkpt lat="45.5991604" lon="12.3476545"><ele>2.0</ele><time>2026-04-28T17:44:03.79Z</time></trkpt><trkpt lat="45.5992732" lon="12.3476172"><ele>2.0</ele><time>2026-04-28T17:44:05.802Z</time></trkpt><trkpt lat="45.599377" lon="12.3475778"><ele>2.0</ele><time>2026-04-28T17:44:07.8Z</time></trkpt><trkpt lat="45.5994831" lon="12.3475404"><ele>2.0</ele><time>2026-04-28T17:44:09.791Z</time></trkpt><trkpt lat="45.5995904" lon="12.347498"><ele>2.0</ele><time>2026-04-28T17:44:11.787Z</time></trkpt><trkpt lat="45.5997001" lon="12.3474673"><ele>2.0</ele><time>2026-04-28T17:44:13.798Z</time></trkpt><trkpt lat="45.5998144" lon="12.3474348"><ele>2.0</ele><time>2026-04-28T17:44:15.778Z</time></trkpt><trkpt lat="45.5999379" lon="12.3473929"><ele>2.0</ele><time>2026-04-28T17:44:17.786Z</time></trkpt><trkpt lat="45.6000019" lon="12.3473714"><ele>2.0</ele><time>2026-04-28T17:44:18.782Z</time></trkpt><trkpt lat="45.6000971" lon="12.3473408"><ele>2.0</ele><time>2026-04-28T17:44:20.784Z</time></trkpt><trkpt lat="45.6002032" lon="12.3473083"><ele>2.0</ele><time>2026-04-28T17:44:22.785Z</time></trkpt><trkpt lat="45.6003043" lon="12.3472787"><ele>1.8</ele><time>2026-04-28T17:44:24.788Z</time></trkpt><trkpt lat="45.6004186" lon="12.3472452"><ele>1.6</ele><time>2026-04-28T17:44:26.781Z</time></trkpt><trkpt lat="45.6004947" lon="12.3472235"><ele>1.4000000000000001</ele><time>2026-04-28T17:44:27.795Z</time></trkpt><trkpt lat="45.6005569" lon="12.3472053"><ele>1.2000000000000002</ele><time>2026-04-28T17:44:28.779Z</time></trkpt><trkpt lat="45.6006625" lon="12.3471858"><ele>1.0</ele><time>2026-04-28T17:44:30.799Z</time></trkpt><trkpt lat="45.6007622" lon="12.3471502"><ele>1.0</ele><time>2026-04-28T17:44:32.776Z</time></trkpt><trkpt lat="45.6008671" lon="12.3471123"><ele>1.0</ele><time>2026-04-28T17:44:34.773Z</time></trkpt><trkpt lat="45.6009725" lon="12.3470764"><ele>1.0</ele><time>2026-04-28T17:44:36.786Z</time></trkpt><trkpt lat="45.6010675" lon="12.3470437"><ele>1.0</ele><time>2026-04-28T17:44:38.803Z</time></trkpt><trkpt lat="45.6011831" lon="12.3470011"><ele>1.0</ele><time>2026-04-28T17:44:40.803Z</time></trkpt><trkpt lat="45.6012928" lon="12.3469403"><ele>1.4</ele><time>2026-04-28T17:44:42.774Z</time></trkpt><trkpt lat="45.601397" lon="12.3468703"><ele>1.8</ele><time>2026-04-28T17:44:44.801Z</time></trkpt><trkpt lat="45.6014779" lon="12.3467969"><ele>2.1999999999999997</ele><time>2026-04-28T17:44:46.78Z</time></trkpt><trkpt lat="45.6015672" lon="12.3467137"><ele>2.6</ele><time>2026-04-28T17:44:48.789Z</time></trkpt><trkpt lat="45.6016568" lon="12.3466309"><ele>3.0</ele><time>2026-04-28T17:44:50.779Z</time></trkpt><trkpt lat="45.6017373" lon="12.3465471"><ele>3.0</ele><time>2026-04-28T17:44:52.792Z</time></trkpt><trkpt lat="45.6018182" lon="12.3464591"><ele>3.0</ele><time>2026-04-28T17:44:54.786Z</time></trkpt><trkpt lat="45.6019191" lon="12.3463589"><ele>3.0</ele><time>2026-04-28T17:44:56.793Z</time></trkpt><trkpt lat="45.6019923" lon="12.3462782"><ele>3.0</ele><time>2026-04-28T17:44:58.777Z</time></trkpt><trkpt lat="45.6020834" lon="12.3461878"><ele>3.0</ele><time>2026-04-28T17:45:00.778Z</time></trkpt><trkpt lat="45.6021878" lon="12.3460941"><ele>2.8333333333333335</ele><time>2026-04-28T17:45:02.792Z</time></trkpt><trkpt lat="45.6022421" lon="12.3460478"><ele>2.6666666666666665</ele><time>2026-04-28T17:45:03.777Z</time></trkpt><trkpt lat="45.6023421" lon="12.3459559"><ele>2.5</ele><time>2026-04-28T17:45:05.795Z</time></trkpt><trkpt lat="45.6024212" lon="12.3458776"><ele>2.333333333333333</ele><time>2026-04-28T17:45:07.786Z</time></trkpt><trkpt lat="45.6025037" lon="12.3457999"><ele>2.1666666666666665</ele><time>2026-04-28T17:45:09.786Z</time></trkpt><trkpt lat="45.6025596" lon="12.345749"><ele>2.0</ele><time>2026-04-28T17:45:10.782Z</time></trkpt><trkpt lat="45.6026635" lon="12.3456675"><ele>2.0</ele><time>2026-04-28T17:45:12.787Z</time></trkpt><trkpt lat="45.6027603" lon="12.3455879"><ele>2.0</ele><time>2026-04-28T17:45:14.785Z</time></trkpt><trkpt lat="45.6028563" lon="12.3455177"><ele>2.0</ele><time>2026-04-28T17:45:16.784Z</time></trkpt><trkpt lat="45.6029543" lon="12.3454602"><ele>2.0</ele><time>2026-04-28T17:45:18.779Z</time></trkpt><trkpt lat="45.6030568" lon="12.3454154"><ele>2.0</ele><time>2026-04-28T17:45:20.774Z</time></trkpt><trkpt lat="45.6031398" lon="12.3453841"><ele>1.9999999999999998</ele><time>2026-04-28T17:45:22.789Z</time></trkpt><trkpt lat="45.6032259" lon="12.3453662"><ele>2.0</ele><time>2026-04-28T17:45:24.783Z</time></trkpt><trkpt lat="45.6033122" lon="12.3453543"><ele>2.0</ele><time>2026-04-28T17:45:26.783Z</time></trkpt><trkpt lat="45.6033812" lon="12.3453328"><ele>2.0</ele><time>2026-04-28T17:45:28.784Z</time></trkpt><trkpt lat="45.6034573" lon="12.3453209"><ele>1.9999999999999998</ele><time>2026-04-28T17:45:30.794Z</time></trkpt><trkpt lat="45.6035321" lon="12.3453077"><ele>2.0</ele><time>2026-04-28T17:45:32.79Z</time></trkpt><trkpt lat="45.6035997" lon="12.3452871"><ele>2.1666666666666665</ele><time>2026-04-28T17:45:34.781Z</time></trkpt><trkpt lat="45.6036829" lon="12.3452813"><ele>2.333333333333333</ele><time>2026-04-28T17:45:36.789Z</time></trkpt><trkpt lat="45.6037708" lon="12.3452669"><ele>2.5</ele><time>2026-04-28T17:45:39.787Z</time></trkpt><trkpt lat="45.6038343" lon="12.3452581"><ele>2.6666666666666665</ele><time>2026-04-28T17:45:41.786Z</time></trkpt><trkpt lat="45.603904" lon="12.3452141"><ele>2.8333333333333335</ele><time>2026-04-28T17:45:44.785Z</time></trkpt><trkpt lat="45.6039641" lon="12.3451485"><ele>3.0</ele><time>2026-04-28T17:45:47.789Z</time></trkpt><trkpt lat="45.6040522" lon="12.3451312"><ele>3.0</ele><time>2026-04-28T17:45:50.781Z</time></trkpt><trkpt lat="45.6041302" lon="12.3451019"><ele>3.0</ele><time>2026-04-28T17:45:52.789Z</time></trkpt><trkpt lat="45.6041893" lon="12.3450668"><ele>3.0</ele><time>2026-04-28T17:45:54.785Z</time></trkpt><trkpt lat="45.604277" lon="12.3450272"><ele>3.0</ele><time>2026-04-28T17:45:57.795Z</time></trkpt><trkpt lat="45.6043659" lon="12.3449693"><ele>3.0</ele><time>2026-04-28T17:45:59.786Z</time></trkpt><trkpt lat="45.6044285" lon="12.344886"><ele>3.0</ele><time>2026-04-28T17:46:01.78Z</time></trkpt><trkpt lat="45.6044369" lon="12.3447824"><ele>2.8333333333333335</ele><time>2026-04-28T17:46:03.789Z</time></trkpt><trkpt lat="45.6044358" lon="12.3446646"><ele>2.6666666666666665</ele><time>2026-04-28T17:46:05.793Z</time></trkpt><trkpt lat="45.6044291" lon="12.3445323"><ele>2.5</ele><time>2026-04-28T17:46:07.789Z</time></trkpt><trkpt lat="45.6044172" lon="12.3444357"><ele>2.333333333333333</ele><time>2026-04-28T17:46:09.803Z</time></trkpt><trkpt lat="45.6044034" lon="12.3443173"><ele>2.1666666666666665</ele><time>2026-04-28T17:46:11.802Z</time></trkpt><trkpt lat="45.6043984" lon="12.3441952"><ele>2.0</ele><time>2026-04-28T17:46:13.794Z</time></trkpt><trkpt lat="45.6043912" lon="12.3440506"><ele>1.9999999999999998</ele><time>2026-04-28T17:46:15.782Z</time></trkpt><trkpt lat="45.6043898" lon="12.3439326"><ele>2.0</ele><time>2026-04-28T17:46:17.806Z</time></trkpt><trkpt lat="45.6043968" lon="12.3437947"><ele>2.0</ele><time>2026-04-28T17:46:19.804Z</time></trkpt><trkpt lat="45.6043856" lon="12.3436825"><ele>2.0</ele><time>2026-04-28T17:46:21.792Z</time></trkpt><trkpt lat="45.6043832" lon="12.3435665"><ele>1.9999999999999998</ele><time>2026-04-28T17:46:23.781Z</time></trkpt><trkpt lat="45.6043934" lon="12.3434391"><ele>2.0</ele><time>2026-04-28T17:46:25.783Z</time></trkpt><trkpt lat="45.6044051" lon="12.3432996"><ele>2.2</ele><time>2026-04-28T17:46:27.794Z</time></trkpt><trkpt lat="45.6044153" lon="12.3431686"><ele>2.4000000000000004</ele><time>2026-04-28T17:46:29.795Z</time></trkpt><trkpt lat="45.6044284" lon="12.3430255"><ele>2.5999999999999996</ele><time>2026-04-28T17:46:31.812Z</time></trkpt><trkpt lat="45.6044441" lon="12.3428752"><ele>2.8</ele><time>2026-04-28T17:46:33.787Z</time></trkpt><trkpt lat="45.6044606" lon="12.3427268"><ele>3.0</ele><time>2026-04-28T17:46:35.806Z</time></trkpt><trkpt lat="45.6044752" lon="12.342577"><ele>2.4</ele><time>2026-04-28T17:46:37.806Z</time></trkpt><trkpt lat="45.6044853" lon="12.3424312"><ele>1.7999999999999998</ele><time>2026-04-28T17:46:39.78Z</time></trkpt><trkpt lat="45.6044959" lon="12.3422849"><ele>1.2</ele><time>2026-04-28T17:46:41.781Z</time></trkpt><trkpt lat="45.6045042" lon="12.3421256"><ele>0.6</ele><time>2026-04-28T17:46:43.799Z</time></trkpt><trkpt lat="45.6045075" lon="12.3419743"><ele>0.0</ele><time>2026-04-28T17:46:45.777Z</time></trkpt><trkpt lat="45.604517" lon="12.3418272"><ele>0.0</ele><time>2026-04-28T17:46:47.777Z</time></trkpt><trkpt lat="45.6045309" lon="12.3416711"><ele>0.0</ele><time>2026-04-28T17:46:49.785Z</time></trkpt><trkpt lat="45.6045421" lon="12.3415227"><ele>0.0</ele><time>2026-04-28T17:46:51.783Z</time></trkpt><trkpt lat="45.604548" lon="12.3413735"><ele>0.0</ele><time>2026-04-28T17:46:53.789Z</time></trkpt><trkpt lat="45.6045542" lon="12.3412204"><ele>0.0</ele><time>2026-04-28T17:46:55.786Z</time></trkpt><trkpt lat="45.6045677" lon="12.3410644"><ele>0.6</ele><time>2026-04-28T17:46:57.799Z</time></trkpt><trkpt lat="45.6045827" lon="12.3409092"><ele>1.2</ele><time>2026-04-28T17:46:59.799Z</time></trkpt><trkpt lat="45.6045978" lon="12.3407484"><ele>1.7999999999999998</ele><time>2026-04-28T17:47:01.807Z</time></trkpt><trkpt lat="45.6046049" lon="12.3405911"><ele>2.4</ele><time>2026-04-28T17:47:03.8Z</time></trkpt><trkpt lat="45.6046184" lon="12.3404387"><ele>3.0</ele><time>2026-04-28T17:47:05.8Z</time></trkpt><trkpt lat="45.6046283" lon="12.3402874"><ele>3.0</ele><time>2026-04-28T17:47:07.798Z</time></trkpt><trkpt lat="45.6046361" lon="12.3401334"><ele>3.0</ele><time>2026-04-28T17:47:09.792Z</time></trkpt><trkpt lat="45.6046466" lon="12.3399725"><ele>3.0</ele><time>2026-04-28T17:47:11.822Z</time></trkpt><trkpt lat="45.6046514" lon="12.33984"><ele>3.0</ele><time>2026-04-28T17:47:13.785Z</time></trkpt><trkpt lat="45.6046523" lon="12.3397119"><ele>3.0</ele><time>2026-04-28T17:47:15.803Z</time></trkpt><trkpt lat="45.6046507" lon="12.3395839"><ele>2.8</ele><time>2026-04-28T17:47:17.774Z</time></trkpt><trkpt lat="45.6046486" lon="12.3394423"><ele>2.5999999999999996</ele><time>2026-04-28T17:47:19.77Z</time></trkpt><trkpt lat="45.6046459" lon="12.3392868"><ele>2.4000000000000004</ele><time>2026-04-28T17:47:21.77Z</time></trkpt><trkpt lat="45.6046398" lon="12.3391185"><ele>2.2</ele><time>2026-04-28T17:47:23.78Z</time></trkpt><trkpt lat="45.6046247" lon="12.3389718"><ele>2.0</ele><time>2026-04-28T17:47:25.769Z</time></trkpt><trkpt lat="45.6046007" lon="12.3388252"><ele>2.0</ele><time>2026-04-28T17:47:27.776Z</time></trkpt><trkpt lat="45.6045626" lon="12.3386891"><ele>2.0</ele><time>2026-04-28T17:47:29.784Z</time></trkpt><trkpt lat="45.6045253" lon="12.3385495"><ele>2.0</ele><time>2026-04-28T17:47:31.77Z</time></trkpt><trkpt lat="45.6044882" lon="12.338395"><ele>2.0</ele><time>2026-04-28T17:47:33.813Z</time></trkpt><trkpt lat="45.604466" lon="12.33831"><ele>2.0</ele><time>2026-04-28T17:47:34.793Z</time></trkpt><trkpt lat="45.6044266" lon="12.338157"><ele>2.2</ele><time>2026-04-28T17:47:36.829Z</time></trkpt><trkpt lat="45.6044049" lon="12.3380695"><ele>2.4000000000000004</ele><time>2026-04-28T17:47:37.815Z</time></trkpt><trkpt lat="45.6043611" lon="12.3379205"><ele>2.5999999999999996</ele><time>2026-04-28T17:47:39.783Z</time></trkpt><trkpt lat="45.6043196" lon="12.3377712"><ele>2.8</ele><time>2026-04-28T17:47:41.793Z</time></trkpt><trkpt lat="45.6042677" lon="12.3376209"><ele>3.0</ele><time>2026-04-28T17:47:43.775Z</time></trkpt><trkpt lat="45.6042269" lon="12.337493"><ele>3.2</ele><time>2026-04-28T17:47:45.766Z</time></trkpt><trkpt lat="45.604183" lon="12.3373634"><ele>3.4</ele><time>2026-04-28T17:47:47.791Z</time></trkpt><trkpt lat="45.6041502" lon="12.3372386"><ele>3.6000000000000005</ele><time>2026-04-28T17:47:49.801Z</time></trkpt><trkpt lat="45.6041166" lon="12.3371217"><ele>3.8000000000000003</ele><time>2026-04-28T17:47:51.781Z</time></trkpt><trkpt lat="45.6040839" lon="12.3370016"><ele>4.0</ele><time>2026-04-28T17:47:53.787Z</time></trkpt><trkpt lat="45.6040509" lon="12.3368895"><ele>4.0</ele><time>2026-04-28T17:47:55.778Z</time></trkpt><trkpt lat="45.6040196" lon="12.3367726"><ele>3.9999999999999996</ele><time>2026-04-28T17:47:57.768Z</time></trkpt><trkpt lat="45.6039929" lon="12.3366826"><ele>4.0</ele><time>2026-04-28T17:47:59.782Z</time></trkpt><trkpt lat="45.6039554" lon="12.3365922"><ele>4.0</ele><time>2026-04-28T17:48:01.785Z</time></trkpt><trkpt lat="45.6040204" lon="12.3365649"><ele>3.9999999999999996</ele><time>2026-04-28T17:48:08.771Z</time></trkpt><trkpt lat="45.6040438" lon="12.3366687"><ele>4.0</ele><time>2026-04-28T17:48:12.769Z</time></trkpt><trkpt lat="45.6040642" lon="12.336765"><ele>4.0</ele><time>2026-04-28T17:48:16.789Z</time></trkpt><trkpt lat="45.6040937" lon="12.3368965"><ele>3.9999999999999996</ele><time>2026-04-28T17:48:19.772Z</time></trkpt><trkpt lat="45.6041037" lon="12.3369989"><ele>4.0</ele><time>2026-04-28T17:48:21.773Z</time></trkpt><trkpt lat="45.6041217" lon="12.3370914"><ele>4.0</ele><time>2026-04-28T17:48:23.778Z</time></trkpt><trkpt lat="45.6041687" lon="12.3370087"><ele>4.0</ele><time>2026-04-28T17:48:29.782Z</time></trkpt><trkpt lat="45.6041663" lon="12.33691"><ele>3.9999999999999996</ele><time>2026-04-28T17:48:32.797Z</time></trkpt><trkpt lat="45.6041585" lon="12.3368044"><ele>4.0</ele><time>2026-04-28T17:48:35.787Z</time></trkpt><trkpt lat="45.6041468" lon="12.3366724"><ele>3.9999999999999996</ele><time>2026-04-28T17:48:38.779Z</time></trkpt><trkpt lat="45.6041359" lon="12.3365792"><ele>4.0</ele><time>2026-04-28T17:48:40.77Z</time></trkpt><trkpt lat="45.6041222" lon="12.3364844"><ele>4.0</ele><time>2026-04-28T17:48:42.795Z</time></trkpt><trkpt lat="45.6041074" lon="12.3363908"><ele>4.0</ele><time>2026-04-28T17:48:44.778Z</time></trkpt><trkpt lat="45.6040827" lon="12.3362566"><ele>3.9999999999999996</ele><time>2026-04-28T17:48:47.777Z</time></trkpt><trkpt lat="45.6040578" lon="12.3361414"><ele>4.0</ele><time>2026-04-28T17:48:50.784Z</time></trkpt><trkpt lat="45.6040254" lon="12.3360401"><ele>3.6666666666666665</ele><time>2026-04-28T17:48:53.777Z</time></trkpt><trkpt lat="45.6039997" lon="12.3359214"><ele>3.333333333333333</ele><time>2026-04-28T17:48:56.778Z</time></trkpt><trkpt lat="45.6039813" lon="12.3358178"><ele>3.0</ele><time>2026-04-28T17:48:59.778Z</time></trkpt><trkpt lat="45.6039511" lon="12.3357049"><ele>2.6666666666666665</ele><time>2026-04-28T17:49:02.772Z</time></trkpt><trkpt lat="45.6039257" lon="12.3356118"><ele>2.333333333333333</ele><time>2026-04-28T17:49:04.774Z</time></trkpt><trkpt lat="45.6039035" lon="12.3355084"><ele>2.0</ele><time>2026-04-28T17:49:06.795Z</time></trkpt><trkpt lat="45.6038739" lon="12.3353888"><ele>1.9999999999999998</ele><time>2026-04-28T17:49:08.784Z</time></trkpt><trkpt lat="45.6038492" lon="12.335283"><ele>2.0</ele><time>2026-04-28T17:49:10.778Z</time></trkpt><trkpt lat="45.6038229" lon="12.3351834"><ele>2.0</ele><time>2026-04-28T17:49:12.78Z</time></trkpt><trkpt lat="45.6038015" lon="12.335069"><ele>2.0</ele><time>2026-04-28T17:49:15.77Z</time></trkpt><trkpt lat="45.6037605" lon="12.3351622"><ele>1.9999999999999998</ele><time>2026-04-28T17:49:20.807Z</time></trkpt><trkpt lat="45.603779" lon="12.3352744"><ele>2.0</ele><time>2026-04-28T17:49:23.778Z</time></trkpt><trkpt lat="45.6037881" lon="12.3353661"><ele>2.0</ele><time>2026-04-28T17:49:25.777Z</time></trkpt><trkpt lat="45.6037983" lon="12.3354633"><ele>1.9999999999999998</ele><time>2026-04-28T17:49:27.779Z</time></trkpt><trkpt lat="45.6038235" lon="12.3355542"><ele>2.0</ele><time>2026-04-28T17:49:29.771Z</time></trkpt><trkpt lat="45.6038821" lon="12.3355919"><ele>2.0</ele><time>2026-04-28T17:49:31.779Z</time></trkpt><trkpt lat="45.6039467" lon="12.3355921"><ele>1.9999999999999998</ele><time>2026-04-28T17:49:33.774Z</time></trkpt><trkpt lat="45.6040202" lon="12.3355991"><ele>2.0</ele><time>2026-04-28T17:49:35.784Z</time></trkpt><trkpt lat="45.6040948" lon="12.3356762"><ele>2.0</ele><time>2026-04-28T17:49:37.78Z</time></trkpt><trkpt lat="45.6041777" lon="12.3356781"><ele>1.9999999999999998</ele><time>2026-04-28T17:49:39.777Z</time></trkpt><trkpt lat="45.6042556" lon="12.3356199"><ele>2.0</ele><time>2026-04-28T17:49:41.769Z</time></trkpt><trkpt lat="45.6043268" lon="12.335562"><ele>2.0</ele><time>2026-04-28T17:49:43.791Z</time></trkpt><trkpt lat="45.6043758" lon="12.3354888"><ele>2.0</ele><time>2026-04-28T17:49:45.784Z</time></trkpt><trkpt lat="45.6044272" lon="12.3353798"><ele>1.9999999999999998</ele><time>2026-04-28T17:49:47.786Z</time></trkpt><trkpt lat="45.6044538" lon="12.3352707"><ele>2.0</ele><time>2026-04-28T17:49:49.788Z</time></trkpt><trkpt lat="45.6044715" lon="12.3351628"><ele>1.9999999999999998</ele><time>2026-04-28T17:49:51.775Z</time></trkpt><trkpt lat="45.6044914" lon="12.3350556"><ele>2.0</ele><time>2026-04-28T17:49:53.791Z</time></trkpt><trkpt lat="45.6044991" lon="12.3349431"><ele>2.0</ele><time>2026-04-28T17:49:55.775Z</time></trkpt><trkpt lat="45.6045126" lon="12.3348211"><ele>2.0</ele><time>2026-04-28T17:49:57.797Z</time></trkpt><trkpt lat="45.6045253" lon="12.334718"><ele>1.9999999999999998</ele><time>2026-04-28T17:49:59.769Z</time></trkpt><trkpt lat="45.604543" lon="12.334601"><ele>2.0</ele><time>2026-04-28T17:50:01.787Z</time></trkpt><trkpt lat="45.6045661" lon="12.3344823"><ele>2.333333333333333</ele><time>2026-04-28T17:50:03.778Z</time></trkpt><trkpt lat="45.6045817" lon="12.3343619"><ele>2.6666666666666665</ele><time>2026-04-28T17:50:05.78Z</time></trkpt><trkpt lat="45.6045939" lon="12.3342445"><ele>3.0</ele><time>2026-04-28T17:50:07.773Z</time></trkpt><trkpt lat="45.604611" lon="12.3341397"><ele>3.333333333333333</ele><time>2026-04-28T17:50:09.785Z</time></trkpt><trkpt lat="45.6046262" lon="12.3340412"><ele>3.6666666666666665</ele><time>2026-04-28T17:50:11.776Z</time></trkpt><trkpt lat="45.6046372" lon="12.3339447"><ele>4.0</ele><time>2026-04-28T17:50:13.779Z</time></trkpt><trkpt lat="45.6046403" lon="12.3338404"><ele>3.9999999999999996</ele><time>2026-04-28T17:50:16.769Z</time></trkpt><trkpt lat="45.6045888" lon="12.3337815"><ele>4.0</ele><time>2026-04-28T17:50:20.789Z</time></trkpt><trkpt lat="45.6044948" lon="12.3337734"><ele>4.0</ele><time>2026-04-28T17:50:22.781Z</time></trkpt><trkpt lat="45.6044038" lon="12.3337644"><ele>4.0</ele><time>2026-04-28T17:50:24.771Z</time></trkpt><trkpt lat="45.6043135" lon="12.3337389"><ele>3.9999999999999996</ele><time>2026-04-28T17:50:26.769Z</time></trkpt><trkpt lat="45.6042248" lon="12.3337078"><ele>4.0</ele><time>2026-04-28T17:50:28.77Z</time></trkpt><trkpt lat="45.60412" lon="12.333682"><ele>3.9999999999999996</ele><time>2026-04-28T17:50:30.789Z</time></trkpt><trkpt lat="45.6040281" lon="12.3336707"><ele>4.0</ele><time>2026-04-28T17:50:32.784Z</time></trkpt><trkpt lat="45.6039265" lon="12.3336403"><ele>4.0</ele><time>2026-04-28T17:50:34.784Z</time></trkpt><trkpt lat="45.6038461" lon="12.3336116"><ele>4.0</ele><time>2026-04-28T17:50:36.78Z</time></trkpt><trkpt lat="45.603767" lon="12.3335963"><ele>3.9999999999999996</ele><time>2026-04-28T17:50:38.77Z</time></trkpt><trkpt lat="45.6036936" lon="12.3335822"><ele>4.0</ele><time>2026-04-28T17:50:40.77Z</time></trkpt><trkpt lat="45.6036312" lon="12.3335457"><ele>3.9999999999999996</ele><time>2026-04-28T17:50:43.784Z</time></trkpt><trkpt lat="45.603596" lon="12.3334605"><ele>4.0</ele><time>2026-04-28T17:50:45.784Z</time></trkpt><trkpt lat="45.6035656" lon="12.3333551"><ele>4.0</ele><time>2026-04-28T17:50:47.8Z</time></trkpt><trkpt lat="45.6035404" lon="12.3332337"><ele>4.0</ele><time>2026-04-28T17:50:49.789Z</time></trkpt><trkpt lat="45.6035104" lon="12.33311"><ele>3.9999999999999996</ele><time>2026-04-28T17:50:51.78Z</time></trkpt><trkpt lat="45.6034808" lon="12.3329916"><ele>4.0</ele><time>2026-04-28T17:50:53.775Z</time></trkpt><trkpt lat="45.6034765" lon="12.3328873"><ele>3.6666666666666665</ele><time>2026-04-28T17:50:56.789Z</time></trkpt><trkpt lat="45.6034553" lon="12.3327506"><ele>3.333333333333333</ele><time>2026-04-28T17:50:59.787Z</time></trkpt><trkpt lat="45.6034263" lon="12.332637"><ele>3.0</ele><time>2026-04-28T17:51:01.787Z</time></trkpt><trkpt lat="45.6034084" lon="12.3325439"><ele>2.6666666666666665</ele><time>2026-04-28T17:51:03.791Z</time></trkpt><trkpt lat="45.6033759" lon="12.3324287"><ele>2.333333333333333</ele><time>2026-04-28T17:51:05.807Z</time></trkpt><trkpt lat="45.6033407" lon="12.3323384"><ele>2.0</ele><time>2026-04-28T17:51:07.817Z</time></trkpt><trkpt lat="45.6033096" lon="12.3322445"><ele>2.1666666666666665</ele><time>2026-04-28T17:51:09.789Z</time></trkpt><trkpt lat="45.6032769" lon="12.332138"><ele>2.333333333333333</ele><time>2026-04-28T17:51:12.795Z</time></trkpt><trkpt lat="45.6032472" lon="12.3320275"><ele>2.5</ele><time>2026-04-28T17:51:15.805Z</time></trkpt><trkpt lat="45.6032219" lon="12.3319429"><ele>2.6666666666666665</ele><time>2026-04-28T17:51:17.78Z</time></trkpt><trkpt lat="45.6031856" lon="12.3318278"><ele>2.8333333333333335</ele><time>2026-04-28T17:51:20.796Z</time></trkpt><trkpt lat="45.6031445" lon="12.3317192"><ele>3.0</ele><time>2026-04-28T17:51:23.785Z</time></trkpt><trkpt lat="45.6030993" lon="12.3316458"><ele>3.0</ele><time>2026-04-28T17:51:28.784Z</time></trkpt><trkpt lat="45.6030615" lon="12.3315627"><ele>3.0</ele><time>2026-04-28T17:51:36.786Z</time></trkpt><trkpt lat="45.6030087" lon="12.3315078"><ele>3.0</ele><time>2026-04-28T17:51:39.806Z</time></trkpt><trkpt lat="45.6029786" lon="12.3314206"><ele>3.0</ele><time>2026-04-28T17:51:43.795Z</time></trkpt><trkpt lat="45.6029306" lon="12.3312961"><ele>3.0</ele><time>2026-04-28T17:51:46.797Z</time></trkpt><trkpt lat="45.6028896" lon="12.3311953"><ele>3.0</ele><time>2026-04-28T17:51:48.797Z</time></trkpt><trkpt lat="45.6028551" lon="12.3310962"><ele>3.3333333333333335</ele><time>2026-04-28T17:51:50.774Z</time></trkpt><trkpt lat="45.6028246" lon="12.3310054"><ele>3.666666666666667</ele><time>2026-04-28T17:51:52.778Z</time></trkpt><trkpt lat="45.6028045" lon="12.3309155"><ele>4.0</ele><time>2026-04-28T17:51:55.798Z</time></trkpt><trkpt lat="45.6027281" lon="12.3308738"><ele>4.333333333333334</ele><time>2026-04-28T17:52:00.788Z</time></trkpt><trkpt lat="45.6026349" lon="12.330827"><ele>4.666666666666667</ele><time>2026-04-28T17:52:03.774Z</time></trkpt><trkpt lat="45.6025807" lon="12.3307218"><ele>5.0</ele><time>2026-04-28T17:52:05.783Z</time></trkpt><trkpt lat="45.6025215" lon="12.3306231"><ele>4.8</ele><time>2026-04-28T17:52:07.788Z</time></trkpt><trkpt lat="45.6024642" lon="12.3305278"><ele>4.6</ele><time>2026-04-28T17:52:09.791Z</time></trkpt><trkpt lat="45.6024034" lon="12.3304359"><ele>4.4</ele><time>2026-04-28T17:52:11.785Z</time></trkpt><trkpt lat="45.6023347" lon="12.3303291"><ele>4.2</ele><time>2026-04-28T17:52:13.779Z</time></trkpt><trkpt lat="45.6022672" lon="12.3302172"><ele>4.0</ele><time>2026-04-28T17:52:15.796Z</time></trkpt><trkpt lat="45.6021976" lon="12.3301094"><ele>4.0</ele><time>2026-04-28T17:52:17.781Z</time></trkpt><trkpt lat="45.6021351" lon="12.3300018"><ele>4.0</ele><time>2026-04-28T17:52:19.785Z</time></trkpt><trkpt lat="45.6020688" lon="12.3298856"><ele>4.0</ele><time>2026-04-28T17:52:21.787Z</time></trkpt><trkpt lat="45.6020002" lon="12.329767"><ele>4.0</ele><time>2026-04-28T17:52:23.794Z</time></trkpt><trkpt lat="45.6019295" lon="12.3296531"><ele>4.0</ele><time>2026-04-28T17:52:25.796Z</time></trkpt><trkpt lat="45.6018522" lon="12.3295266"><ele>4.0</ele><time>2026-04-28T17:52:27.775Z</time></trkpt><trkpt lat="45.6017756" lon="12.3293954"><ele>4.0</ele><time>2026-04-28T17:52:29.788Z</time></trkpt><trkpt lat="45.601732" lon="12.3293274"><ele>4.0</ele><time>2026-04-28T17:52:30.778Z</time></trkpt><trkpt lat="45.6016486" lon="12.3291942"><ele>4.0</ele><time>2026-04-28T17:52:32.776Z</time></trkpt><trkpt lat="45.6015643" lon="12.3290601"><ele>4.0</ele><time>2026-04-28T17:52:34.774Z</time></trkpt><trkpt lat="45.6014818" lon="12.3289261"><ele>4.0</ele><time>2026-04-28T17:52:36.787Z</time></trkpt><trkpt lat="45.6014033" lon="12.3287888"><ele>4.0</ele><time>2026-04-28T17:52:38.775Z</time></trkpt><trkpt lat="45.6013202" lon="12.3286554"><ele>4.0</ele><time>2026-04-28T17:52:40.779Z</time></trkpt><trkpt lat="45.6012348" lon="12.3285254"><ele>4.0</ele><time>2026-04-28T17:52:42.774Z</time></trkpt><trkpt lat="45.6011525" lon="12.3283947"><ele>4.0</ele><time>2026-04-28T17:52:44.779Z</time></trkpt><trkpt lat="45.6010711" lon="12.3282601"><ele>4.0</ele><time>2026-04-28T17:52:46.772Z</time></trkpt><trkpt lat="45.6009887" lon="12.3281284"><ele>4.0</ele><time>2026-04-28T17:52:48.784Z</time></trkpt><trkpt lat="45.6009111" lon="12.3279885"><ele>4.0</ele><time>2026-04-28T17:52:50.767Z</time></trkpt><trkpt lat="45.6008334" lon="12.3278501"><ele>4.0</ele><time>2026-04-28T17:52:52.778Z</time></trkpt><trkpt lat="45.6007514" lon="12.3277192"><ele>4.0</ele><time>2026-04-28T17:52:54.772Z</time></trkpt><trkpt lat="45.6006733" lon="12.3275883"><ele>4.0</ele><time>2026-04-28T17:52:56.778Z</time></trkpt><trkpt lat="45.6005904" lon="12.3274632"><ele>4.0</ele><time>2026-04-28T17:52:58.776Z</time></trkpt><trkpt lat="45.6005113" lon="12.3273398"><ele>4.0</ele><time>2026-04-28T17:53:00.778Z</time></trkpt><trkpt lat="45.6004305" lon="12.3272168"><ele>4.0</ele><time>2026-04-28T17:53:02.78Z</time></trkpt><trkpt lat="45.6003571" lon="12.3270971"><ele>4.0</ele><time>2026-04-28T17:53:04.779Z</time></trkpt><trkpt lat="45.6002814" lon="12.3269771"><ele>4.0</ele><time>2026-04-28T17:53:06.777Z</time></trkpt><trkpt lat="45.6002113" lon="12.3268544"><ele>4.0</ele><time>2026-04-28T17:53:08.783Z</time></trkpt><trkpt lat="45.600137" lon="12.326748"><ele>4.0</ele><time>2026-04-28T17:53:10.777Z</time></trkpt><trkpt lat="45.6000781" lon="12.3266303"><ele>4.0</ele><time>2026-04-28T17:53:12.775Z</time></trkpt><trkpt lat="45.6000548" lon="12.3264979"><ele>4.0</ele><time>2026-04-28T17:53:14.773Z</time></trkpt><trkpt lat="45.600068" lon="12.3263771"><ele>4.0</ele><time>2026-04-28T17:53:16.781Z</time></trkpt><trkpt lat="45.6001356" lon="12.3262871"><ele>3.9999999999999996</ele><time>2026-04-28T17:53:19.776Z</time></trkpt><trkpt lat="45.6001947" lon="12.326239"><ele>4.0</ele><time>2026-04-28T17:53:21.778Z</time></trkpt><trkpt lat="45.6002711" lon="12.326163"><ele>4.0</ele><time>2026-04-28T17:53:23.786Z</time></trkpt><trkpt lat="45.6003496" lon="12.3260273"><ele>4.0</ele><time>2026-04-28T17:53:25.831Z</time></trkpt><trkpt lat="45.600374" lon="12.3259398"><ele>3.9999999999999996</ele><time>2026-04-28T17:53:26.799Z</time></trkpt><trkpt lat="45.6003779" lon="12.3258436"><ele>4.0</ele><time>2026-04-28T17:53:27.776Z</time></trkpt><trkpt lat="45.6003618" lon="12.3257513"><ele>3.8571428571428568</ele><time>2026-04-28T17:53:28.775Z</time></trkpt><trkpt lat="45.6003261" lon="12.3256679"><ele>3.714285714285714</ele><time>2026-04-28T17:53:29.782Z</time></trkpt><trkpt lat="45.6002748" lon="12.3255993"><ele>3.571428571428571</ele><time>2026-04-28T17:53:30.785Z</time></trkpt><trkpt lat="45.6002114" lon="12.3255488"><ele>3.4285714285714284</ele><time>2026-04-28T17:53:31.844Z</time></trkpt><trkpt lat="45.6001403" lon="12.3255126"><ele>3.2857142857142856</ele><time>2026-04-28T17:53:32.79Z</time></trkpt><trkpt lat="45.6000652" lon="12.3254811"><ele>3.1428571428571423</ele><time>2026-04-28T17:53:33.778Z</time></trkpt><trkpt lat="45.5999863" lon="12.3254523"><ele>3.0</ele><time>2026-04-28T17:53:34.799Z</time></trkpt><trkpt lat="45.5999076" lon="12.3254205"><ele>3.0</ele><time>2026-04-28T17:53:35.794Z</time></trkpt><trkpt lat="45.599829" lon="12.3253887"><ele>3.0</ele><time>2026-04-28T17:53:36.776Z</time></trkpt><trkpt lat="45.5997508" lon="12.3253575"><ele>3.0</ele><time>2026-04-28T17:53:37.78Z</time></trkpt><trkpt lat="45.599675" lon="12.3253207"><ele>3.0</ele><time>2026-04-28T17:53:38.781Z</time></trkpt><trkpt lat="45.5996016" lon="12.3252791"><ele>3.0</ele><time>2026-04-28T17:53:39.775Z</time></trkpt><trkpt lat="45.5995297" lon="12.3252339"><ele>3.0</ele><time>2026-04-28T17:53:40.789Z</time></trkpt><trkpt lat="45.5994545" lon="12.3251964"><ele>3.3333333333333335</ele><time>2026-04-28T17:53:41.786Z</time></trkpt><trkpt lat="45.5993808" lon="12.3251564"><ele>3.666666666666667</ele><time>2026-04-28T17:53:42.787Z</time></trkpt><trkpt lat="45.5993118" lon="12.3251062"><ele>4.0</ele><time>2026-04-28T17:53:43.791Z</time></trkpt><trkpt lat="45.5992404" lon="12.3250677"><ele>4.333333333333334</ele><time>2026-04-28T17:53:44.793Z</time></trkpt><trkpt lat="45.5991722" lon="12.3250187"><ele>4.666666666666667</ele><time>2026-04-28T17:53:45.783Z</time></trkpt><trkpt lat="45.5991067" lon="12.3249632"><ele>5.0</ele><time>2026-04-28T17:53:46.786Z</time></trkpt><trkpt lat="45.5990429" lon="12.3249025"><ele>5.0</ele><time>2026-04-28T17:53:47.788Z</time></trkpt><trkpt lat="45.5989852" lon="12.3248305"><ele>5.0</ele><time>2026-04-28T17:53:48.785Z</time></trkpt><trkpt lat="45.5989283" lon="12.3247586"><ele>5.0</ele><time>2026-04-28T17:53:49.784Z</time></trkpt><trkpt lat="45.5988783" lon="12.3246803"><ele>5.0</ele><time>2026-04-28T17:53:50.784Z</time></trkpt><trkpt lat="45.5988319" lon="12.3246006"><ele>5.0</ele><time>2026-04-28T17:53:51.778Z</time></trkpt><trkpt lat="45.5987861" lon="12.3245237"><ele>5.0</ele><time>2026-04-28T17:53:52.777Z</time></trkpt><trkpt lat="45.5987429" lon="12.3244493"><ele>5.0</ele><time>2026-04-28T17:53:53.789Z</time></trkpt><trkpt lat="45.598703" lon="12.3243754"><ele>5.0</ele><time>2026-04-28T17:53:54.783Z</time></trkpt><trkpt lat="45.5986614" lon="12.3243037"><ele>5.0</ele><time>2026-04-28T17:53:55.779Z</time></trkpt><trkpt lat="45.5986179" lon="12.3242354"><ele>5.0</ele><time>2026-04-28T17:53:56.78Z</time></trkpt><trkpt lat="45.5985748" lon="12.3241692"><ele>5.0</ele><time>2026-04-28T17:53:57.78Z</time></trkpt><trkpt lat="45.5984942" lon="12.3240399"><ele>5.0</ele><time>2026-04-28T17:53:59.788Z</time></trkpt><trkpt lat="45.5984208" lon="12.3239136"><ele>5.0</ele><time>2026-04-28T17:54:01.797Z</time></trkpt><trkpt lat="45.5983528" lon="12.3237838"><ele>5.0</ele><time>2026-04-28T17:54:03.777Z</time></trkpt><trkpt lat="45.5982827" lon="12.3236424"><ele>5.0</ele><time>2026-04-28T17:54:05.798Z</time></trkpt><trkpt lat="45.5982508" lon="12.3235644"><ele>5.0</ele><time>2026-04-28T17:54:06.814Z</time></trkpt><trkpt lat="45.5982269" lon="12.323479"><ele>5.0</ele><time>2026-04-28T17:54:07.79Z</time></trkpt><trkpt lat="45.5982132" lon="12.323386"><ele>5.0</ele><time>2026-04-28T17:54:08.798Z</time></trkpt><trkpt lat="45.5982063" lon="12.3232906"><ele>5.0</ele><time>2026-04-28T17:54:09.794Z</time></trkpt><trkpt lat="45.5982063" lon="12.3231951"><ele>5.0</ele><time>2026-04-28T17:54:10.781Z</time></trkpt><trkpt lat="45.5982155" lon="12.3231019"><ele>5.0</ele><time>2026-04-28T17:54:11.793Z</time></trkpt><trkpt lat="45.598229" lon="12.3230096"><ele>5.0</ele><time>2026-04-28T17:54:12.79Z</time></trkpt><trkpt lat="45.598247" lon="12.3229216"><ele>5.0</ele><time>2026-04-28T17:54:13.777Z</time></trkpt><trkpt lat="45.5982667" lon="12.3228347"><ele>5.0</ele><time>2026-04-28T17:54:14.78Z</time></trkpt><trkpt lat="45.598287" lon="12.3227462"><ele>5.0</ele><time>2026-04-28T17:54:15.796Z</time></trkpt><trkpt lat="45.598315" lon="12.3226592"><ele>5.0</ele><time>2026-04-28T17:54:16.79Z</time></trkpt><trkpt lat="45.598337" lon="12.3225689"><ele>5.0</ele><time>2026-04-28T17:54:17.789Z</time></trkpt><trkpt lat="45.5983578" lon="12.3224759"><ele>5.0</ele><time>2026-04-28T17:54:18.797Z</time></trkpt><trkpt lat="45.5983841" lon="12.3223853"><ele>5.0</ele><time>2026-04-28T17:54:19.799Z</time></trkpt><trkpt lat="45.5984075" lon="12.322297"><ele>5.0</ele><time>2026-04-28T17:54:20.775Z</time></trkpt><trkpt lat="45.5984278" lon="12.3222104"><ele>5.0</ele><time>2026-04-28T17:54:21.785Z</time></trkpt><trkpt lat="45.5984695" lon="12.3220423"><ele>5.0</ele><time>2026-04-28T17:54:23.773Z</time></trkpt><trkpt lat="45.5985048" lon="12.3218698"><ele>5.0</ele><time>2026-04-28T17:54:25.8Z</time></trkpt><trkpt lat="45.5985279" lon="12.321775"><ele>4.833333333333334</ele><time>2026-04-28T17:54:26.783Z</time></trkpt><trkpt lat="45.5985518" lon="12.321674"><ele>4.666666666666667</ele><time>2026-04-28T17:54:27.797Z</time></trkpt><trkpt lat="45.598576" lon="12.3215691"><ele>4.5</ele><time>2026-04-28T17:54:28.791Z</time></trkpt><trkpt lat="45.5986009" lon="12.3214627"><ele>4.333333333333333</ele><time>2026-04-28T17:54:29.783Z</time></trkpt><trkpt lat="45.5986303" lon="12.3213582"><ele>4.166666666666666</ele><time>2026-04-28T17:54:30.779Z</time></trkpt><trkpt lat="45.5986568" lon="12.3212505"><ele>4.0</ele><time>2026-04-28T17:54:31.774Z</time></trkpt><trkpt lat="45.5986801" lon="12.3211449"><ele>3.9999999999999996</ele><time>2026-04-28T17:54:32.768Z</time></trkpt><trkpt lat="45.598705" lon="12.3210421"><ele>4.0</ele><time>2026-04-28T17:54:33.787Z</time></trkpt><trkpt lat="45.5987358" lon="12.3209407"><ele>4.0</ele><time>2026-04-28T17:54:34.784Z</time></trkpt><trkpt lat="45.5987624" lon="12.3208366"><ele>4.0</ele><time>2026-04-28T17:54:35.808Z</time></trkpt><trkpt lat="45.5987906" lon="12.3207354"><ele>3.9999999999999996</ele><time>2026-04-28T17:54:36.781Z</time></trkpt><trkpt lat="45.5988147" lon="12.3206317"><ele>4.0</ele><time>2026-04-28T17:54:37.784Z</time></trkpt><trkpt lat="45.5988383" lon="12.3205304"><ele>4.142857142857142</ele><time>2026-04-28T17:54:38.777Z</time></trkpt><trkpt lat="45.5988622" lon="12.3204316"><ele>4.285714285714286</ele><time>2026-04-28T17:54:39.797Z</time></trkpt><trkpt lat="45.5988848" lon="12.3203343"><ele>4.428571428571429</ele><time>2026-04-28T17:54:40.771Z</time></trkpt><trkpt lat="45.5989076" lon="12.3202375"><ele>4.571428571428571</ele><time>2026-04-28T17:54:41.774Z</time></trkpt><trkpt lat="45.5989317" lon="12.3201432"><ele>4.714285714285714</ele><time>2026-04-28T17:54:42.787Z</time></trkpt><trkpt lat="45.5989538" lon="12.3200485"><ele>4.857142857142857</ele><time>2026-04-28T17:54:43.789Z</time></trkpt><trkpt lat="45.5989748" lon="12.3199592"><ele>5.0</ele><time>2026-04-28T17:54:44.795Z</time></trkpt><trkpt lat="45.5990051" lon="12.3197899"><ele>4.75</ele><time>2026-04-28T17:54:46.778Z</time></trkpt><trkpt lat="45.5990351" lon="12.3196203"><ele>4.5</ele><time>2026-04-28T17:54:48.774Z</time></trkpt><trkpt lat="45.5990607" lon="12.3194481"><ele>4.25</ele><time>2026-04-28T17:54:50.788Z</time></trkpt><trkpt lat="45.599087" lon="12.3192785"><ele>4.0</ele><time>2026-04-28T17:54:52.78Z</time></trkpt><trkpt lat="45.599119" lon="12.3191215"><ele>4.0</ele><time>2026-04-28T17:54:54.786Z</time></trkpt><trkpt lat="45.5991468" lon="12.3189713"><ele>4.0</ele><time>2026-04-28T17:54:56.793Z</time></trkpt><trkpt lat="45.5991746" lon="12.3188319"><ele>4.0</ele><time>2026-04-28T17:54:58.78Z</time></trkpt><trkpt lat="45.599198" lon="12.3186977"><ele>4.0</ele><time>2026-04-28T17:55:00.775Z</time></trkpt><trkpt lat="45.5992166" lon="12.3185744"><ele>4.0</ele><time>2026-04-28T17:55:02.783Z</time></trkpt><trkpt lat="45.5992356" lon="12.318459"><ele>3.833333333333333</ele><time>2026-04-28T17:55:04.811Z</time></trkpt><trkpt lat="45.599257" lon="12.3183627"><ele>3.6666666666666665</ele><time>2026-04-28T17:55:06.792Z</time></trkpt><trkpt lat="45.5992755" lon="12.3182429"><ele>3.5</ele><time>2026-04-28T17:55:09.783Z</time></trkpt><trkpt lat="45.5992693" lon="12.3181231"><ele>3.333333333333333</ele><time>2026-04-28T17:55:12.78Z</time></trkpt><trkpt lat="45.5992484" lon="12.3180254"><ele>3.1666666666666665</ele><time>2026-04-28T17:55:14.773Z</time></trkpt><trkpt lat="45.5992338" lon="12.3179079"><ele>3.0</ele><time>2026-04-28T17:55:17.797Z</time></trkpt><trkpt lat="45.599241" lon="12.3177925"><ele>3.4</ele><time>2026-04-28T17:55:20.785Z</time></trkpt><trkpt lat="45.5992449" lon="12.3176952"><ele>3.8</ele><time>2026-04-28T17:55:23.791Z</time></trkpt><trkpt lat="45.5992049" lon="12.3175796"><ele>4.2</ele><time>2026-04-28T17:55:26.79Z</time></trkpt><trkpt lat="45.5991401" lon="12.3174917"><ele>4.6</ele><time>2026-04-28T17:55:28.809Z</time></trkpt><trkpt lat="45.5990609" lon="12.3174041"><ele>5.0</ele><time>2026-04-28T17:55:30.805Z</time></trkpt><trkpt lat="45.5989748" lon="12.3173217"><ele>5.0</ele><time>2026-04-28T17:55:32.786Z</time></trkpt><trkpt lat="45.5988917" lon="12.3172381"><ele>5.0</ele><time>2026-04-28T17:55:34.788Z</time></trkpt><trkpt lat="45.5988036" lon="12.3171325"><ele>5.0</ele><time>2026-04-28T17:55:36.786Z</time></trkpt><trkpt lat="45.5987227" lon="12.3170308"><ele>5.0</ele><time>2026-04-28T17:55:38.816Z</time></trkpt><trkpt lat="45.5986394" lon="12.3169255"><ele>5.0</ele><time>2026-04-28T17:55:40.788Z</time></trkpt><trkpt lat="45.5985571" lon="12.3168215"><ele>5.0</ele><time>2026-04-28T17:55:42.793Z</time></trkpt><trkpt lat="45.5984699" lon="12.3167165"><ele>5.0</ele><time>2026-04-28T17:55:44.776Z</time></trkpt><trkpt lat="45.598386" lon="12.3166124"><ele>5.0</ele><time>2026-04-28T17:55:46.8Z</time></trkpt><trkpt lat="45.5982962" lon="12.3165098"><ele>5.0</ele><time>2026-04-28T17:55:48.77Z</time></trkpt><trkpt lat="45.5982107" lon="12.3164107"><ele>4.4</ele><time>2026-04-28T17:55:50.776Z</time></trkpt><trkpt lat="45.5981276" lon="12.3162959"><ele>3.8</ele><time>2026-04-28T17:55:52.776Z</time></trkpt><trkpt lat="45.5980508" lon="12.3161922"><ele>3.2</ele><time>2026-04-28T17:55:54.776Z</time></trkpt><trkpt lat="45.5979754" lon="12.316088"><ele>2.6</ele><time>2026-04-28T17:55:56.789Z</time></trkpt><trkpt lat="45.5979134" lon="12.3159866"><ele>2.0</ele><time>2026-04-28T17:55:58.791Z</time></trkpt><trkpt lat="45.5978493" lon="12.3158783"><ele>2.0</ele><time>2026-04-28T17:56:00.785Z</time></trkpt><trkpt lat="45.5977904" lon="12.3157521"><ele>2.0</ele><time>2026-04-28T17:56:02.78Z</time></trkpt><trkpt lat="45.5977348" lon="12.315622"><ele>2.0</ele><time>2026-04-28T17:56:04.794Z</time></trkpt><trkpt lat="45.5976963" lon="12.3154787"><ele>2.0</ele><time>2026-04-28T17:56:06.773Z</time></trkpt><trkpt lat="45.5976636" lon="12.3153338"><ele>2.0</ele><time>2026-04-28T17:56:08.794Z</time></trkpt><trkpt lat="45.5976463" lon="12.3151848"><ele>2.0</ele><time>2026-04-28T17:56:10.791Z</time></trkpt><trkpt lat="45.5976263" lon="12.3150255"><ele>2.0</ele><time>2026-04-28T17:56:12.775Z</time></trkpt><trkpt lat="45.5976013" lon="12.3148672"><ele>2.0</ele><time>2026-04-28T17:56:14.788Z</time></trkpt><trkpt lat="45.5975854" lon="12.3147186"><ele>2.0</ele><time>2026-04-28T17:56:16.768Z</time></trkpt><trkpt lat="45.5975706" lon="12.3145733"><ele>2.0</ele><time>2026-04-28T17:56:18.788Z</time></trkpt><trkpt lat="45.5975506" lon="12.3144309"><ele>2.2</ele><time>2026-04-28T17:56:20.794Z</time></trkpt><trkpt lat="45.5975227" lon="12.3142824"><ele>2.4000000000000004</ele><time>2026-04-28T17:56:22.774Z</time></trkpt><trkpt lat="45.5974833" lon="12.3141282"><ele>2.5999999999999996</ele><time>2026-04-28T17:56:24.787Z</time></trkpt><trkpt lat="45.5974476" lon="12.3140089"><ele>2.8</ele><time>2026-04-28T17:56:26.782Z</time></trkpt><trkpt lat="45.5974193" lon="12.3138935"><ele>3.0</ele><time>2026-04-28T17:56:28.793Z</time></trkpt><trkpt lat="45.5973612" lon="12.3138099"><ele>3.0</ele><time>2026-04-28T17:56:30.782Z</time></trkpt><trkpt lat="45.5972885" lon="12.3137534"><ele>3.0</ele><time>2026-04-28T17:56:32.781Z</time></trkpt><trkpt lat="45.5972236" lon="12.3137003"><ele>3.0</ele><time>2026-04-28T17:56:34.785Z</time></trkpt><trkpt lat="45.5971674" lon="12.3136413"><ele>3.0</ele><time>2026-04-28T17:56:36.771Z</time></trkpt><trkpt lat="45.5971166" lon="12.3135843"><ele>3.0</ele><time>2026-04-28T17:56:38.791Z</time></trkpt><trkpt lat="45.5970467" lon="12.313522"><ele>3.0</ele><time>2026-04-28T17:56:40.775Z</time></trkpt><trkpt lat="45.5969721" lon="12.3134629"><ele>3.0</ele><time>2026-04-28T17:56:42.778Z</time></trkpt><trkpt lat="45.5969038" lon="12.3133999"><ele>3.0</ele><time>2026-04-28T17:56:44.776Z</time></trkpt><trkpt lat="45.5968452" lon="12.3133466"><ele>3.0</ele><time>2026-04-28T17:56:46.785Z</time></trkpt><trkpt lat="45.596787" lon="12.3132917"><ele>3.0</ele><time>2026-04-28T17:56:48.782Z</time></trkpt><trkpt lat="45.5967165" lon="12.3132257"><ele>3.0</ele><time>2026-04-28T17:56:50.806Z</time></trkpt><trkpt lat="45.596651" lon="12.3131605"><ele>3.0</ele><time>2026-04-28T17:56:52.796Z</time></trkpt><trkpt lat="45.596589" lon="12.3130978"><ele>2.8333333333333335</ele><time>2026-04-28T17:56:54.796Z</time></trkpt><trkpt lat="45.5965244" lon="12.3130307"><ele>2.6666666666666665</ele><time>2026-04-28T17:56:56.78Z</time></trkpt><trkpt lat="45.5964676" lon="12.3129718"><ele>2.5</ele><time>2026-04-28T17:56:58.776Z</time></trkpt><trkpt lat="45.5964011" lon="12.3129025"><ele>2.333333333333333</ele><time>2026-04-28T17:57:00.785Z</time></trkpt><trkpt lat="45.5963303" lon="12.3128229"><ele>2.1666666666666665</ele><time>2026-04-28T17:57:02.788Z</time></trkpt><trkpt lat="45.5962587" lon="12.3127485"><ele>2.0</ele><time>2026-04-28T17:57:04.796Z</time></trkpt><trkpt lat="45.5962028" lon="12.312682"><ele>2.142857142857143</ele><time>2026-04-28T17:57:06.784Z</time></trkpt><trkpt lat="45.5961511" lon="12.3126235"><ele>2.2857142857142856</ele><time>2026-04-28T17:57:08.773Z</time></trkpt><trkpt lat="45.5960875" lon="12.312545"><ele>2.4285714285714284</ele><time>2026-04-28T17:57:11.793Z</time></trkpt><trkpt lat="45.5960224" lon="12.3124649"><ele>2.571428571428571</ele><time>2026-04-28T17:57:14.774Z</time></trkpt><trkpt lat="45.5959717" lon="12.3124011"><ele>2.7142857142857144</ele><time>2026-04-28T17:57:16.781Z</time></trkpt><trkpt lat="45.5959242" lon="12.3123351"><ele>2.8571428571428568</ele><time>2026-04-28T17:57:18.789Z</time></trkpt><trkpt lat="45.5958706" lon="12.3122778"><ele>3.0</ele><time>2026-04-28T17:57:20.783Z</time></trkpt><trkpt lat="45.5958189" lon="12.3122187"><ele>2.9999999999999996</ele><time>2026-04-28T17:57:22.795Z</time></trkpt><trkpt lat="45.595767" lon="12.3121445"><ele>3.0</ele><time>2026-04-28T17:57:25.788Z</time></trkpt><trkpt lat="45.5956964" lon="12.3121663"><ele>3.0</ele><time>2026-04-28T17:57:30.782Z</time></trkpt><trkpt lat="45.5956556" lon="12.3122401"><ele>3.0</ele><time>2026-04-28T17:57:33.784Z</time></trkpt><trkpt lat="45.5956161" lon="12.3123192"><ele>3.0</ele><time>2026-04-28T17:57:36.778Z</time></trkpt><trkpt lat="45.5955738" lon="12.3123999"><ele>2.9999999999999996</ele><time>2026-04-28T17:57:39.786Z</time></trkpt><trkpt lat="45.5955284" lon="12.3124756"><ele>3.0</ele><time>2026-04-28T17:57:42.797Z</time></trkpt><trkpt lat="45.5954816" lon="12.3125737"><ele>4.0</ele><time>2026-04-28T17:57:47.793Z</time></trkpt><trkpt lat="45.595439" lon="12.312655"><ele>4.0</ele><time>2026-04-28T17:57:51.782Z</time></trkpt><trkpt lat="45.5953649" lon="12.3126766"><ele>4.0</ele><time>2026-04-28T17:57:58.774Z</time></trkpt><trkpt lat="45.5952901" lon="12.3126781"><ele>5.0</ele><time>2026-04-28T17:58:00.778Z</time></trkpt><trkpt lat="45.5952334" lon="12.3126311"><ele>5.0</ele><time>2026-04-28T17:58:05.801Z</time></trkpt></trkseg></trk></gpx>